# Wetter Temperatur Luftdruck Luftfeuchtigkeit Sichtweite Windgeschwindigkeit Windrichtung Zeit
1 Clear 1 1025 74 10000 1 0 01:57 05.04.2020
2 Clear 2 1025 69 10000 0.5 0 01:39 05.04.2020
3 Clear 3 1024 60 10000 0.5 0 00:52 05.04.2020
4 Clear 3 1024 60 10000 0.5 0 00:52 05.04.2020
5 Clear 4 1024 60 10000 1.5 130 00:23 05.04.2020
6 Clear 4 1024 53 10000 0.5 0 23:58 04.04.2020
7 Clear 4 1024 53 10000 0.5 0 23:39 04.04.2020
8 Clear 5 1024 60 10000 0.5 0 23:21 04.04.2020
9 Clear 4 1024 60 10000 0.5 0 22:56 04.04.2020
10 Clear 4 1023 60 10000 0.5 0 22:38 04.04.2020
11 Clear 6 1023 53 10000 1 0 22:19 04.04.2020
12 Clear 6 1023 53 10000 1 0 21:56 04.04.2020
13 Clear 7 1022 49 10000 1.5 360 21:38 04.04.2020
14 Clouds 10 1022 43 10000 2.1 90 21:18 04.04.2020
15 Clear 11 1021 43 10000 3.1 40 20:43 04.04.2020
16 Clouds 11 1021 43 10000 3.1 40 20:23 04.04.2020
17 Clouds 12 1021 40 10000 3.6 50 19:59 04.04.2020
18 Clouds 12 1021 40 10000 3.6 50 19:59 04.04.2020
19 Clouds 13 1020 37 10000 4.6 50 19:40 04.04.2020
20 Clouds 13 1020 30 10000 5.1 70 19:20 04.04.2020
21 Clouds 14 1020 30 10000 5.1 70 18:59 04.04.2020
22 Clouds 15 1020 28 10000 5.1 90 18:39 04.04.2020
23 Clouds 15 1020 28 10000 5.1 90 18:39 04.04.2020
24 Clouds 16 1020 26 10000 4.6 60 18:20 04.04.2020
25 Clouds 16 1020 26 10000 4.6 60 17:58 04.04.2020
26 Clouds 16 1020 25 10000 4.6 60 17:38 04.04.2020
27 Clouds 16 1020 26 10000 3.1 0 17:19 04.04.2020
28 Clouds 16 1020 29 10000 3.1 40 16:45 04.04.2020
29 Clouds 16 1020 29 10000 3.1 40 16:27 04.04.2020
30 Clouds 16 1020 31 10000 2.1 110 15:59 04.04.2020
31 Clouds 16 1020 31 10000 1.5 0 15:39 04.04.2020
32 Clouds 16 1020 29 10000 1.5 0 15:19 04.04.2020
33 Clouds 16 1020 29 10000 1.5 0 15:19 04.04.2020
34 Clouds 16 1020 29 10000 1.5 0 14:54 04.04.2020
35 Clouds 13 1020 28 10000 2.1 100 14:36 04.04.2020
36 Clouds 13 1021 33 10000 2.6 0 14:18 04.04.2020
37 Clouds 13 1021 37 10000 2.6 100 13:41 04.04.2020
38 Clouds 12 1021 31 10000 3.1 60 13:21 04.04.2020
39 Clouds 12 1021 31 10000 3.1 60 12:58 04.04.2020
40 Clouds 11 1022 40 10000 1.5 0 12:39 04.04.2020
41 Clouds 10 1022 39 10000 1.5 0 12:20 04.04.2020
42 Clouds 9 1022 39 10000 1 0 11:41 04.04.2020
43 Clouds 9 1022 39 10000 1 0 11:23 04.04.2020
44 Clouds 8 1023 45 10000 1 0 10:59 04.04.2020
45 Clouds 8 1023 39 10000 1.5 260 10:40 04.04.2020
46 Clouds 7 1023 39 10000 1.5 260 10:22 04.04.2020
47 Clouds 6 1023 56 10000 1 0 09:56 04.04.2020
48 Clouds 6 1023 60 10000 0.5 0 09:38 04.04.2020
49 Clouds 3 1023 54 10000 1 0 09:20 04.04.2020
50 Clouds 2 1022 74 10000 0.5 0 08:43 04.04.2020
51 Clouds 1 1022 74 10000 0.5 0 08:23 04.04.2020
52 Clouds 1 1022 74 10000 1 270 07:57 04.04.2020
53 Clouds 1 1022 54 10000 0.5 0 07:38 04.04.2020
54 Clouds 1 1021 54 10000 0.5 0 07:20 04.04.2020
55 Clouds 2 1021 80 10000 0.44 153 06:29 04.04.2020
56 Clouds 1 1021 74 10000 1 190 05:52 04.04.2020
57 Clouds 1 1021 74 10000 1 190 05:32 04.04.2020
58 Clouds 1 1020 69 10000 0.5 0 04:34 04.04.2020
59 Clouds 2 1020 69 10000 0.5 0 03:56 04.04.2020
60 Clouds 2 1020 69 10000 0.5 0 03:36 04.04.2020
61 Clouds 3 1020 60 10000 1 0 02:46 04.04.2020
62 Clouds 3 1020 60 10000 1 0 02:25 04.04.2020
63 Clouds 4 1019 60 10000 1 0 01:31 04.04.2020
64 Clouds 5 1019 57 10000 1 0 00:59 04.04.2020
65 Clouds 7 1019 57 10000 0.5 0 00:35 04.04.2020
66 Clouds 7 1019 55 10000 1 0 23:59 03.04.2020
67 Clouds 8 1018 55 10000 1 0 23:38 03.04.2020
68 Clouds 8 1018 49 10000 1 0 23:19 03.04.2020
69 Clouds 10 1018 46 10000 2.1 100 22:41 03.04.2020
70 Clouds 10 1017 46 10000 3.6 60 22:19 03.04.2020
71 Clouds 10 1017 46 10000 3.6 60 21:59 03.04.2020
72 Clouds 10 1017 46 10000 4.1 50 21:40 03.04.2020
73 Clouds 10 1017 46 10000 4.1 50 21:21 03.04.2020
74 Clouds 11 1017 43 10000 4.6 50 20:56 03.04.2020
75 Clouds 11 1016 43 10000 5.1 50 20:36 03.04.2020
76 Clouds 11 1015 43 10000 6.7 40 20:18 03.04.2020
77 Clouds 11 1015 43 10000 6.7 40 19:55 03.04.2020
78 Clouds 12 1015 37 10000 6.2 50 19:36 03.04.2020
79 Clouds 13 1014 35 10000 6.7 70 19:18 03.04.2020
80 Clouds 13 1014 35 10000 6.7 70 18:57 03.04.2020
81 Clouds 13 1014 35 10000 5.1 50 18:39 03.04.2020
82 Clouds 13 1013 32 10000 5.1 80 18:21 03.04.2020
83 Clouds 14 1013 30 10000 5.7 60 17:41 03.04.2020
84 Clouds 14 1013 28 10000 3.6 40 17:20 03.04.2020
85 Clouds 14 1012 26 10000 3.1 350 16:56 03.04.2020
86 Clouds 14 1012 26 10000 3.1 350 16:37 03.04.2020
87 Clouds 15 1012 28 10000 2.1 0 16:19 03.04.2020
88 Clouds 15 1012 28 10000 2.1 0 15:56 03.04.2020
89 Clouds 14 1012 30 10000 3.6 80 15:37 03.04.2020
90 Clouds 15 1013 28 10000 2.1 0 15:19 03.04.2020
91 Clouds 13 1014 32 10000 1 0 14:40 03.04.2020
92 Clouds 13 1014 32 10000 1 0 14:22 03.04.2020
93 Clouds 13 1014 32 10000 1 0 13:57 03.04.2020
94 Clouds 13 1014 32 10000 1 0 13:37 03.04.2020
95 Clouds 13 1014 35 10000 1.5 0 13:18 03.04.2020
96 Clouds 12 1014 37 10000 2.1 50 12:43 03.04.2020
97 Clouds 11 1014 37 10000 2.1 70 12:20 03.04.2020
98 Clouds 10 1015 43 10000 2.6 50 11:56 03.04.2020
99 Clouds 10 1015 43 10000 2.6 50 11:37 03.04.2020
100 Clouds 9 1015 49 10000 1.5 0 11:18 03.04.2020
101 Clouds 9 1015 49 10000 1.5 0 10:57 03.04.2020
102 Clouds 7 1015 46 10000 1 0 10:38 03.04.2020
103 Clouds 7 1015 46 10000 1 0 10:20 03.04.2020
104 Clouds 7 1015 46 10000 1 0 10:20 03.04.2020
105 Clouds 6 1015 46 10000 1 0 09:57 03.04.2020
106 Clouds 5 1015 46 10000 1 0 09:39 03.04.2020
107 Clouds 5 1015 46 10000 1 0 09:39 03.04.2020
108 Clouds 4 1014 65 10000 0.5 0 09:21 03.04.2020
109 Clouds 3 1014 65 10000 0.5 0 08:55 03.04.2020
110 Clouds 2 1014 58 10000 0.5 0 08:36 03.04.2020
111 Clouds 1 1014 86 10000 1 0 08:18 03.04.2020
112 Clouds 0 1014 86 10000 0.5 0 07:41 03.04.2020
113 Clouds 1 1013 80 10000 1.5 320 07:23 03.04.2020
114 Clouds 1 1013 80 10000 1 0 06:34 03.04.2020
115 Clouds 0 1013 80 10000 0.5 0 05:43 03.04.2020
116 Clouds 0 1012 80 10000 1 0 05:21 03.04.2020
117 Clouds 1 1012 80 10000 1.5 260 03:37 03.04.2020
118 Clouds 1 1012 74 10000 0.5 0 02:53 03.04.2020
119 Clouds 1 1012 74 10000 1.5 280 01:36 03.04.2020
120 Clouds 2 1011 69 10000 1 270 01:18 03.04.2020
121 Clouds 2 1011 69 10000 0.5 0 00:34 03.04.2020
122 Clouds 3 1011 65 10000 0.5 0 23:57 02.04.2020
123 Clouds 3 1011 65 10000 1 0 23:39 02.04.2020
124 Clouds 3 1011 60 10000 0.5 0 23:19 02.04.2020
125 Clouds 5 1010 52 10000 1 0 22:43 02.04.2020
126 Clouds 5 1010 52 10000 1 0 22:25 02.04.2020
127 Clouds 8 1010 49 10000 2.1 260 21:59 02.04.2020
128 Clouds 9 1010 49 10000 2.1 260 21:37 02.04.2020
129 Clouds 7 1009 52 10000 3.1 280 21:19 02.04.2020
130 Clouds 7 1009 52 10000 3.1 280 20:55 02.04.2020
131 Clouds 10 1009 46 10000 1.5 0 20:37 02.04.2020
132 Clouds 9 1008 37 10000 4.6 70 20:18 02.04.2020
133 Clouds 13 1008 35 10000 6.2 80 19:42 02.04.2020
134 Clouds 12 1008 33 10000 5.7 70 19:20 02.04.2020
135 Clouds 12 1008 33 10000 5.7 70 19:20 02.04.2020
136 Clouds 12 1007 26 10000 5.7 70 18:56 02.04.2020
137 Clouds 15 1007 26 10000 5.7 70 18:38 02.04.2020
138 Clouds 13 1007 26 10000 4.1 40 18:19 02.04.2020
139 Clouds 14 1007 19 10000 2.1 70 17:44 02.04.2020
140 Clouds 14 1007 19 10000 2.1 70 17:26 02.04.2020
141 Clouds 14 1007 20 10000 1 0 16:59 02.04.2020
142 Clouds 14 1007 19 10000 1 0 16:41 02.04.2020
143 Clouds 14 1007 19 10000 1 0 16:22 02.04.2020
144 Clouds 15 1008 19 10000 1.5 0 15:59 02.04.2020
145 Clouds 15 1008 19 10000 1.5 0 15:59 02.04.2020
146 Clouds 14 1008 21 10000 1 0 15:40 02.04.2020
147 Clear 14 1008 26 10000 1 0 15:20 02.04.2020
148 Clear 13 1008 26 10000 1 0 14:58 02.04.2020
149 Clear 13 1009 26 10000 1 0 14:39 02.04.2020
150 Clear 12 1010 28 10000 1 0 14:19 02.04.2020
151 Clear 12 1010 28 10000 1.5 240 13:55 02.04.2020
152 Clear 12 1010 28 10000 1.5 240 13:37 02.04.2020
153 Clear 11 1011 32 10000 1 0 13:19 02.04.2020
154 Clear 10 1011 34 10000 1 0 12:46 02.04.2020
155 Clear 9 1012 36 10000 1 0 12:20 02.04.2020
156 Clear 9 1012 36 10000 1 0 12:20 02.04.2020
157 Clear 8 1012 36 10000 1 0 11:58 02.04.2020
158 Clear 8 1012 42 10000 2.1 280 11:39 02.04.2020
159 Clear 8 1012 42 10000 2.1 280 11:39 02.04.2020
160 Clear 8 1012 42 10000 2.1 280 11:39 02.04.2020
161 Clear 6 1013 45 10000 1.5 0 11:21 02.04.2020
162 Clear 6 1013 45 10000 1.5 0 10:57 02.04.2020
163 Clear 5 1013 56 10000 1.5 250 10:39 02.04.2020
164 Clear 4 1014 59 10000 2.1 260 10:21 02.04.2020
165 Clear 3 1014 59 10000 2.1 260 09:59 02.04.2020
166 Clear 2 1014 69 10000 2.1 260 09:41 02.04.2020
167 Clear 0 1014 69 10000 1.5 250 09:22 02.04.2020
168 Clear -1 1015 56 10000 0.5 0 08:48 02.04.2020
169 Clear -2 1014 80 10000 1 250 08:29 02.04.2020
170 Clear -3 1014 80 10000 1 250 07:59 02.04.2020
171 Clear -2 1014 79 10000 0.5 0 07:41 02.04.2020
172 Clear -2 1014 79 10000 1 250 07:19 02.04.2020
173 Clear -3 1014 79 10000 1 260 06:25 02.04.2020
174 Clear -4 1014 86 10000 1 280 05:46 02.04.2020
175 Clear -4 1014 79 10000 1 0 05:18 02.04.2020
176 Clear -2 1015 65 10000 1 270 02:26 02.04.2020
177 Clear -2 1015 65 10000 0.5 0 01:28 02.04.2020
178 Clear -1 1016 69 10000 1.5 280 00:42 02.04.2020
179 Clear -1 1016 69 10000 0.5 0 00:22 02.04.2020
180 Clear -1 1016 69 10000 1.5 0 23:40 01.04.2020
181 Clear 0 1015 64 10000 1 0 23:20 01.04.2020
182 Clear 0 1015 64 10000 1 0 22:57 01.04.2020
183 Clear 1 1015 59 10000 1.5 230 22:38 01.04.2020
184 Clear 1 1015 64 10000 2.1 270 22:20 01.04.2020
185 Clear 2 1015 52 10000 2.6 250 21:42 01.04.2020
186 Clouds 4 1015 52 10000 2.6 320 21:19 01.04.2020
187 Clouds 4 1015 52 10000 2.6 320 20:57 01.04.2020
188 Clouds 7 1014 42 10000 1.5 0 20:39 01.04.2020
189 Clouds 6 1014 33 10000 3.1 70 20:20 01.04.2020
190 Clouds 9 1013 34 10000 3.6 60 19:59 01.04.2020
191 Clouds 9 1013 34 10000 3.6 60 19:40 01.04.2020
192 Clouds 8 1013 31 10000 4.1 80 19:19 01.04.2020
193 Clouds 11 1013 27 10000 4.1 70 18:44 01.04.2020
194 Clouds 12 1013 23 10000 3.6 70 18:25 01.04.2020
195 Clouds 12 1013 25 10000 4.1 60 17:58 01.04.2020
196 Clouds 11 1013 25 10000 4.1 60 17:38 01.04.2020
197 Clouds 11 1014 25 10000 3.6 70 17:19 01.04.2020
198 Clouds 11 1014 25 10000 3.6 70 16:58 01.04.2020
199 Clouds 11 1014 25 10000 3.6 100 16:39 01.04.2020
200 Clouds 11 1014 29 10000 2.6 120 16:21 01.04.2020
201 Clouds 10 1014 29 10000 2.6 120 15:57 01.04.2020
202 Clouds 10 1015 29 10000 2.6 0 15:57 01.04.2020
203 Clouds 10 1015 29 10000 2.6 0 15:37 01.04.2020
204 Clear 10 1015 27 10000 2.1 160 15:18 01.04.2020
205 Clear 9 1015 27 10000 2.1 160 14:55 01.04.2020
206 Clear 9 1015 27 10000 2.1 160 14:55 01.04.2020
207 Clear 8 1016 34 10000 2.1 160 14:36 01.04.2020
208 Clear 8 1016 34 10000 2.1 0 14:18 01.04.2020
209 Clear 8 1016 34 10000 2.1 0 13:55 01.04.2020
210 Clear 7 1017 36 10000 1 0 13:36 01.04.2020
211 Clear 6 1018 42 10000 1 0 13:18 01.04.2020
212 Clear 5 1018 41 10000 1.5 0 12:42 01.04.2020
213 Clear 5 1018 41 10000 1.5 0 12:23 01.04.2020
214 Clear 4 1019 41 10000 1 0 11:59 01.04.2020
215 Clear 4 1020 51 10000 1.5 280 11:39 01.04.2020
216 Clouds 3 1020 51 10000 2.1 260 11:20 01.04.2020
217 Clouds 2 1021 55 10000 2.1 230 10:41 01.04.2020
218 Clouds 1 1021 55 10000 2.1 230 10:22 01.04.2020
219 Clouds 0 1021 40 10000 2.1 290 09:59 01.04.2020
220 Clouds -1 1021 68 10000 1.5 260 09:40 01.04.2020
221 Clouds -2 1022 68 10000 1.5 260 09:21 01.04.2020
222 Clouds -3 1022 68 10000 1.5 260 08:57 01.04.2020
223 Clear -5 1022 74 10000 1.5 260 08:38 01.04.2020
224 Clear -5 1022 79 10000 1.5 270 08:18 01.04.2020
225 Clear -6 1022 79 10000 0.5 0 07:41 01.04.2020
226 Clear -6 1022 79 10000 1.5 270 07:19 01.04.2020
227 Clear -6 1022 79 10000 1 0 06:47 01.04.2020
228 Clouds -6 1022 79 10000 1 0 06:21 01.04.2020
229 Clear -6 1022 73 10000 1.5 270 05:50 01.04.2020
230 Clear -6 1022 79 10000 0.5 0 04:29 01.04.2020
231 Clouds -5 1023 79 10000 1 0 03:20 01.04.2020
232 Clouds -4 1023 79 10000 0.5 0 02:37 01.04.2020
233 Clear -4 1023 74 10000 1 0 01:53 01.04.2020
234 Clear -4 1023 74 10000 0.5 0 01:27 01.04.2020
235 Clear -3 1024 68 10000 1.05 171 00:47 01.04.2020
236 Clear -1 1024 68 10000 0.5 0 00:23 01.04.2020
237 Clouds -1 1024 68 10000 0.5 0 23:59 31.03.2020
238 Clouds -1 1024 68 10000 0.5 0 23:40 31.03.2020
239 Clouds -1 1024 81 10000 1 0 23:21 31.03.2020
240 Clouds 0 1024 81 10000 0.5 0 22:41 31.03.2020
241 Clouds 0 1024 59 10000 0.5 0 22:21 31.03.2020
242 Clouds 1 1024 55 10000 2.1 20 21:58 31.03.2020
243 Clouds 1 1024 55 10000 2.1 20 21:40 31.03.2020
244 Clouds 1 1024 55 10000 2.1 20 21:40 31.03.2020
245 Clouds 0 1024 59 10000 1.5 30 21:21 31.03.2020
246 Clouds 3 1023 47 10000 3.1 60 20:57 31.03.2020
247 Clouds 3 1023 47 10000 3.1 60 20:57 31.03.2020
248 Clouds 3 1023 47 10000 3.1 60 20:37 31.03.2020
249 Clouds 1 1023 47 10000 3.1 60 20:19 31.03.2020
250 Clouds 1 1023 47 10000 3.1 60 20:19 31.03.2020
251 Clouds 2 1023 44 10000 4.1 60 19:56 31.03.2020
252 Clouds 2 1023 44 10000 4.1 60 19:38 31.03.2020
253 Clouds 2 1023 44 10000 3.6 70 19:19 31.03.2020
254 Clouds 3 1022 48 10000 3.1 60 18:44 31.03.2020
255 Clouds 3 1022 48 10000 2.6 60 18:20 31.03.2020
256 Clouds 3 1022 44 10000 3.6 120 17:57 31.03.2020
257 Clouds 3 1022 44 10000 3.6 120 17:39 31.03.2020
258 Clouds 3 1022 44 10000 3.6 120 17:39 31.03.2020
259 Clouds 3 1022 48 10000 4.1 90 17:21 31.03.2020
260 Clouds 4 1022 48 10000 3.6 70 16:56 31.03.2020
261 Clouds 4 1022 48 10000 3.6 70 16:36 31.03.2020
262 Clouds 4 1022 41 10000 2.1 90 16:18 31.03.2020
263 Clouds 4 1022 41 10000 2.1 90 15:55 31.03.2020
264 Clouds 4 1022 41 10000 3.1 330 15:36 31.03.2020
265 Clouds 4 1022 41 10000 3.1 50 15:18 31.03.2020
266 Clouds 3 1023 41 10000 4.1 70 14:42 31.03.2020
267 Clouds 4 1023 38 10000 3.1 60 14:22 31.03.2020
268 Clouds 4 1023 38 10000 3.1 60 13:58 31.03.2020
269 Clouds 4 1023 38 10000 2.6 0 13:40 31.03.2020
270 Clouds 4 1023 38 10000 3.1 60 13:19 31.03.2020
271 Clouds 4 1023 38 10000 3.1 60 13:19 31.03.2020
272 Clouds 3 1023 48 10000 1 0 12:45 31.03.2020
273 Clouds 3 1024 51 10000 1.5 0 12:20 31.03.2020
274 Clouds 2 1024 64 10000 1.5 0 11:56 31.03.2020
275 Clouds 1 1024 64 10000 1.5 0 11:37 31.03.2020
276 Clouds 1 1024 64 10000 1 0 11:19 31.03.2020
277 Clouds 0 1024 64 10000 1 0 10:55 31.03.2020
278 Clouds 0 1025 64 10000 1 0 10:55 31.03.2020
279 Clouds -1 1025 64 10000 1 0 10:37 31.03.2020
280 Clouds 0 1025 54 10000 1 0 10:18 31.03.2020
281 Clouds -2 1025 68 10000 1 0 09:43 31.03.2020
282 Clouds -3 1025 68 10000 0.5 0 09:25 31.03.2020
283 Clouds -4 1025 68 10000 0.5 0 08:58 31.03.2020
284 Clouds -4 1025 68 10000 0.5 0 08:58 31.03.2020
285 Clouds -5 1024 79 10000 0.5 0 08:40 31.03.2020
286 Clouds -6 1024 73 10000 1 0 08:20 31.03.2020
287 Clouds -6 1024 73 10000 1 0 07:57 31.03.2020
288 Clouds -7 1024 85 10000 0.5 0 07:38 31.03.2020
289 Clouds -7 1024 85 10000 0.5 0 07:20 31.03.2020
290 Clouds -7 1024 85 10000 0.5 0 06:51 31.03.2020
291 Clouds -7 1024 85 10000 0.5 0 06:31 31.03.2020
292 Clouds -6 1024 79 10000 1 0 05:41 31.03.2020
293 Clouds -6 1023 86 10000 1 350 03:57 31.03.2020
294 Clouds -5 1023 74 10000 2.6 60 02:30 31.03.2020
295 Clouds -4 1023 68 10000 2.6 60 01:46 31.03.2020
296 Clouds -3 1023 81 10000 1 190 00:52 31.03.2020
297 Clouds -3 1023 83 10000 0.5 0 00:25 31.03.2020
298 Clouds -3 1023 83 10000 0.5 0 23:59 30.03.2020
299 Clouds -2 1023 64 10000 1.5 80 23:38 30.03.2020
300 Clouds -1 1023 83 10000 0.5 0 23:19 30.03.2020
301 Clouds -3 1023 83 10000 0.5 0 22:56 30.03.2020
302 Clouds 0 1023 86 10000 1.5 270 22:37 30.03.2020
303 Clouds 0 1023 86 10000 1.5 270 22:37 30.03.2020
304 Clouds -2 1023 86 10000 2.1 290 22:18 30.03.2020
305 Clouds 0 1023 86 10000 2.1 290 21:55 30.03.2020
306 Clouds 0 1023 86 10000 2.6 270 21:37 30.03.2020
307 Clouds -1 1022 73 10000 2.6 270 21:18 30.03.2020
308 Snow 0 1022 86 10000 2.6 280 20:42 30.03.2020
309 Snow -1 1021 86 10000 2.1 0 20:24 30.03.2020
310 Snow -1 1021 86 10000 2.1 0 19:59 30.03.2020
311 Snow 0 1021 73 10000 3.6 280 19:40 30.03.2020
312 Snow 1 1021 80 10000 2.6 280 19:22 30.03.2020
313 Snow 1 1021 80 10000 2.6 280 18:57 30.03.2020
314 Snow 1 1020 80 10000 3.1 100 18:38 30.03.2020
315 Clouds 1 1020 60 10000 2.1 250 18:20 30.03.2020
316 Clouds 1 1020 60 10000 2.1 250 17:57 30.03.2020
317 Clouds 0 1020 60 10000 1.5 270 17:38 30.03.2020
318 Rain 1 1020 60 10000 2.1 270 17:19 30.03.2020
319 Rain 1 1019 60 10000 1.5 300 16:55 30.03.2020
320 Rain 1 1019 60 10000 1.5 300 16:37 30.03.2020
321 Rain 1 1019 60 10000 1.5 300 16:37 30.03.2020
322 Clouds 1 1020 74 10000 1 0 16:18 30.03.2020
323 Clouds 1 1020 74 10000 1 0 15:54 30.03.2020
324 Clouds 2 1020 74 10000 1 0 15:36 30.03.2020
325 Snow 2 1020 69 10000 2.1 40 15:18 30.03.2020
326 Clouds 2 1020 69 10000 2.6 40 14:39 30.03.2020
327 Clouds 2 1020 69 10000 2.6 40 14:19 30.03.2020
328 Clouds 2 1020 69 10000 2.6 40 13:59 30.03.2020
329 Clouds 1 1020 57 10000 2.6 40 13:40 30.03.2020
330 Clouds 1 1020 80 10000 4.6 80 13:20 30.03.2020
331 Clouds 1 1020 80 10000 4.6 80 12:55 30.03.2020
332 Clouds 1 1020 74 10000 4.1 80 12:36 30.03.2020
333 Snow 1 1020 60 10000 3.6 30 12:18 30.03.2020
334 Snow 1 1020 60 10000 3.6 30 12:18 30.03.2020
335 Snow 0 1021 60 10000 4.1 80 11:55 30.03.2020
336 Snow 0 1021 60 10000 4.1 80 11:37 30.03.2020
337 Clouds 0 1021 60 10000 2.6 50 11:18 30.03.2020
338 Clouds 0 1021 80 10000 2.6 70 10:39 30.03.2020
339 Clouds 0 1021 80 10000 2.6 70 10:21 30.03.2020
340 Rain 0 1020 60 10000 2.1 100 09:54 30.03.2020
341 Rain 0 1020 60 10000 2.1 100 09:36 30.03.2020
342 Rain 0 1020 66 10000 1.5 150 09:18 30.03.2020
343 Rain 0 1020 93 10000 1.5 280 08:40 30.03.2020
344 Rain -1 1020 93 10000 2.1 270 08:21 30.03.2020
345 Rain -1 1019 93 10000 1 0 07:48 30.03.2020
346 Clouds 0 1019 93 10000 2.1 270 07:25 30.03.2020
347 Rain 0 1019 93 10000 2.6 280 06:47 30.03.2020
348 Clouds 0 1019 93 10000 2.1 280 06:29 30.03.2020
349 Rain 0 1019 93 10000 2.6 290 05:46 30.03.2020
350 Rain 0 1019 93 10000 1 0 04:40 30.03.2020
351 Rain 1 1019 86 10000 2.6 260 04:20 30.03.2020
352 Rain 1 1019 93 10000 3.6 290 03:19 30.03.2020
353 Drizzle 1 1019 93 9000 2.6 260 01:59 30.03.2020
354 Rain 1 1018 93 9000 3.1 280 01:24 30.03.2020
355 Rain 2 1018 93 6000 3.6 300 00:30 30.03.2020
356 Rain 2 1018 86 7000 2.6 270 23:59 29.03.2020
357 Rain 2 1018 93 7000 1 0 23:40 29.03.2020
358 Rain 3 1018 86 6000 2.1 240 23:21 29.03.2020
359 Rain 3 1018 86 6000 2.1 240 22:55 29.03.2020
360 Rain 2 1018 86 7000 2.1 310 22:37 29.03.2020
361 Rain 3 1017 86 7000 2.6 320 22:18 29.03.2020
362 Rain 3 1017 86 7000 2.1 330 21:39 29.03.2020
363 Rain 3 1017 87 6000 1.5 0 21:20 29.03.2020
364 Rain 3 1017 87 6000 1.5 0 20:56 29.03.2020
365 Rain 4 1016 81 8000 2.1 30 20:37 29.03.2020
366 Rain 4 1016 70 10000 4.1 70 20:19 29.03.2020
367 Rain 4 1015 70 10000 5.1 60 19:57 29.03.2020
368 Rain 5 1015 70 10000 5.1 60 19:39 29.03.2020
369 Rain 6 1015 61 10000 1.5 0 19:21 29.03.2020
370 Rain 6 1014 61 10000 3.1 0 18:57 29.03.2020
371 Rain 6 1014 61 10000 3.1 0 18:38 29.03.2020
372 Rain 7 1014 57 10000 4.6 70 18:19 29.03.2020
373 Rain 7 1014 57 10000 4.6 70 18:19 29.03.2020
374 Rain 7 1013 53 10000 5.1 80 17:56 29.03.2020
375 Rain 7 1013 53 10000 5.1 80 17:38 29.03.2020
376 Clouds 8 1013 53 10000 5.7 80 17:18 29.03.2020
377 Clouds 8 1013 53 10000 5.7 80 16:56 29.03.2020
378 Clouds 8 1013 50 10000 5.7 80 16:38 29.03.2020
379 Clouds 8 1013 50 10000 6.2 60 16:18 29.03.2020
380 Clouds 10 1013 53 10000 6.2 60 15:41 29.03.2020
381 Clouds 10 1013 53 10000 6.2 60 15:41 29.03.2020
382 Clouds 9 1014 50 10000 6.2 70 15:23 29.03.2020
383 Clouds 10 1014 50 10000 6.2 70 14:58 29.03.2020
384 Clouds 10 1014 53 10000 6.2 70 14:40 29.03.2020
385 Clouds 10 1014 53 10000 6.2 60 14:20 29.03.2020
386 Clouds 10 1014 53 10000 6.2 60 13:57 29.03.2020
387 Clouds 10 1014 57 10000 6.2 70 13:39 29.03.2020
388 Clouds 9 1014 54 10000 5.1 80 13:20 29.03.2020
389 Clouds 8 1014 57 10000 5.1 100 12:55 29.03.2020
390 Clouds 8 1014 57 10000 5.1 100 12:37 29.03.2020
391 Clouds 9 1015 54 10000 4.1 80 12:19 29.03.2020
392 Clouds 8 1015 53 10000 4.6 80 11:55 29.03.2020
393 Clouds 8 1015 53 10000 4.6 80 11:36 29.03.2020
394 Clouds 7 1015 57 10000 4.6 80 11:18 29.03.2020
395 Clouds 6 1015 57 10000 0.5 0 10:38 29.03.2020
396 Clouds 5 1015 70 10000 2.1 260 10:19 29.03.2020
397 Clouds 5 1016 75 10000 2.1 270 09:41 29.03.2020
398 Clouds 4 1016 80 10000 1.5 260 09:22 29.03.2020
399 Clouds 3 1016 80 10000 1.5 260 08:54 29.03.2020
400 Clouds 4 1016 54 10000 1.5 260 08:36 29.03.2020
401 Clouds 3 1016 54 10000 0.5 0 08:18 29.03.2020
402 Clouds 3 1016 86 10000 1.5 270 07:42 29.03.2020
403 Clouds 3 1016 80 10000 1 250 07:21 29.03.2020
404 Clouds 3 1016 54 10000 0.5 0 05:50 29.03.2020
405 Clouds 3 1016 54 10000 1 0 04:29 29.03.2020
406 Clouds 4 1016 75 10000 1 0 03:31 29.03.2020
407 Clouds 4 1016 65 10000 1 0 01:51 29.03.2020
408 Clouds 4 1016 65 10000 1 0 01:23 29.03.2020
409 Clouds 4 1016 70 10000 1 0 00:58 29.03.2020
410 Clouds 4 1016 65 10000 1.5 140 00:33 29.03.2020
411 Clouds 5 1016 65 10000 1 0 23:57 28.03.2020
412 Clouds 5 1016 65 10000 1 0 23:39 28.03.2020
413 Clouds 5 1016 57 10000 0.5 0 23:19 28.03.2020
414 Rain 4 1017 82 0 1.22 342 22:41 28.03.2020
415 Clouds 7 1016 53 10000 1 0 22:22 28.03.2020
416 Clouds 10 1015 43 10000 1.5 70 21:55 28.03.2020
417 Clouds 10 1015 43 10000 1.5 70 21:37 28.03.2020
418 Clouds 10 1015 50 10000 2.1 70 21:18 28.03.2020
419 Clouds 10 1015 47 10000 3.1 80 20:42 28.03.2020
420 Clouds 11 1014 41 10000 2.6 230 20:24 28.03.2020
421 Clouds 11 1014 41 10000 2.6 230 20:24 28.03.2020
422 Clouds 12 1014 41 10000 2.6 230 19:58 28.03.2020
423 Clouds 12 1014 41 10000 2.6 190 19:39 28.03.2020
424 Clouds 13 1013 38 10000 4.6 190 19:21 28.03.2020
425 Clouds 14 1013 41 10000 5.1 190 18:59 28.03.2020
426 Clouds 15 1013 41 10000 5.1 190 18:39 28.03.2020
427 Clouds 15 1012 38 10000 2.6 0 18:20 28.03.2020
428 Clouds 17 1012 36 10000 5.1 90 17:40 28.03.2020
429 Clouds 18 1012 34 10000 5.1 80 17:22 28.03.2020
430 Clouds 18 1011 47 10000 3.1 20 16:57 28.03.2020
431 Clouds 18 1011 47 10000 3.1 20 16:37 28.03.2020
432 Clouds 18 1011 31 10000 2.1 0 16:18 28.03.2020
433 Clouds 17 1012 47 10000 1 0 15:39 28.03.2020
434 Clouds 18 1012 31 10000 2.6 30 15:19 28.03.2020
435 Clouds 18 1012 31 10000 2.6 30 14:57 28.03.2020
436 Clouds 19 1012 29 10000 1.5 190 14:38 28.03.2020
437 Clouds 18 1012 31 10000 2.1 120 14:20 28.03.2020
438 Clouds 18 1013 46 10000 1.5 0 13:41 28.03.2020
439 Clouds 16 1013 34 10000 1.5 0 13:22 28.03.2020
440 Clouds 15 1013 36 10000 1.5 130 12:40 28.03.2020
441 Clouds 14 1014 38 10000 1.5 0 12:22 28.03.2020
442 Clouds 15 1014 38 10000 1.5 0 12:22 28.03.2020
443 Rain 13 1014 44 10000 1 0 11:43 28.03.2020
444 Rain 13 1015 43 10000 1 0 11:23 28.03.2020
445 Clouds 12 1015 46 10000 1 0 10:58 28.03.2020
446 Clouds 11 1015 46 10000 1 0 10:38 28.03.2020
447 Clouds 10 1015 53 10000 2.1 270 10:18 28.03.2020
448 Clouds 9 1016 57 10000 1 0 09:42 28.03.2020
449 Clouds 8 1016 57 10000 1 0 09:23 28.03.2020
450 Clouds 7 1016 46 10000 1.5 250 08:55 28.03.2020
451 Clouds 5 1016 70 10000 1 0 08:37 28.03.2020
452 Clouds 3 1016 75 10000 1 0 08:18 28.03.2020
453 Clouds 2 1016 50 10000 0.5 0 07:42 28.03.2020
454 Clouds 3 1016 80 10000 2.1 250 06:58 28.03.2020
455 Clouds 2 1016 86 10000 2.1 260 06:35 28.03.2020
456 Clouds 3 1015 80 10000 1 0 05:42 28.03.2020
457 Clouds 2 1015 80 10000 1 0 05:21 28.03.2020
458 Clouds 3 1015 74 10000 1.5 250 04:40 28.03.2020
459 Clouds 2 1015 69 10000 1.5 240 03:34 28.03.2020
460 Clouds 2 1015 65 10000 1 0 01:53 28.03.2020
461 Clouds 3 1015 54 10000 1.5 230 01:25 28.03.2020
462 Clouds 3 1015 53 10000 1.5 230 00:56 28.03.2020
463 Clouds 4 1015 53 10000 1 0 00:36 28.03.2020
464 Clouds 6 1015 40 10000 4.1 160 23:55 27.03.2020
465 Clouds 6 1015 40 10000 4.1 160 23:37 27.03.2020
466 Clouds 6 1015 40 10000 4.1 160 23:37 27.03.2020
467 Clouds 6 1014 54 10000 3.6 0 23:18 27.03.2020
468 Clouds 7 1014 54 10000 4.6 120 22:55 27.03.2020
469 Clouds 7 1014 54 10000 4.6 120 22:37 27.03.2020
470 Clouds 7 1014 54 10000 6.2 130 22:18 27.03.2020
471 Clouds 7 1014 54 10000 6.2 130 22:18 27.03.2020
472 Clouds 8 1014 54 10000 3.6 100 21:42 27.03.2020
473 Clouds 8 1014 54 10000 3.6 100 21:24 27.03.2020
474 Clouds 9 1014 54 10000 3.6 0 20:58 27.03.2020
475 Clouds 9 1014 54 10000 3.6 0 20:58 27.03.2020
476 Clouds 10 1013 54 10000 3.6 130 20:39 27.03.2020
477 Clouds 12 1013 54 10000 6.2 130 20:20 27.03.2020
478 Clouds 14 1013 53 10000 6.2 130 19:57 27.03.2020
479 Clouds 15 1013 53 10000 3.6 120 19:38 27.03.2020
480 Clouds 15 1012 53 10000 4.1 120 19:20 27.03.2020
481 Clouds 16 1012 53 10000 3.1 150 18:44 27.03.2020
482 Clouds 16 1012 53 10000 3.1 150 18:44 27.03.2020
483 Clouds 17 1012 29 10000 4.6 150 18:23 27.03.2020
484 Clouds 17 1011 53 10000 4.6 150 17:57 27.03.2020
485 Clouds 17 1011 53 10000 4.6 150 17:39 27.03.2020
486 Clouds 16 1011 39 10000 4.6 120 17:19 27.03.2020
487 Clouds 18 1011 39 10000 4.1 130 16:44 27.03.2020
488 Clouds 18 1011 39 10000 4.1 130 16:44 27.03.2020
489 Clouds 18 1011 39 10000 5.1 120 16:25 27.03.2020
490 Clouds 18 1011 39 10000 5.1 120 15:55 27.03.2020
491 Clouds 17 1011 27 10000 6.2 120 15:37 27.03.2020
492 Clouds 19 1011 39 10000 5.7 120 15:19 27.03.2020
493 Clouds 19 1011 32 10000 4.6 40 14:43 27.03.2020
494 Clouds 18 1011 31 10000 3.1 40 14:24 27.03.2020
495 Clouds 18 1011 31 10000 4.6 50 13:54 27.03.2020
496 Clouds 18 1011 31 10000 4.6 50 13:36 27.03.2020
497 Clouds 17 1012 33 10000 3.1 100 13:18 27.03.2020
498 Clouds 15 1012 36 10000 1.5 0 12:42 27.03.2020
499 Clouds 14 1012 35 10000 3.1 270 12:19 27.03.2020
500 Clouds 13 1012 37 10000 4.6 270 11:55 27.03.2020
501 Clouds 13 1012 37 10000 4.6 270 11:55 27.03.2020
502 Clouds 13 1012 37 10000 4.6 270 11:36 27.03.2020
503 Clouds 12 1013 40 10000 5.7 260 11:18 27.03.2020
504 Clouds 10 1013 43 10000 5.1 260 10:41 27.03.2020
505 Clouds 9 1014 49 10000 4.1 270 10:22 27.03.2020
506 Clouds 7 1014 52 10000 2.1 280 09:59 27.03.2020
507 Clouds 6 1014 52 10000 2.1 280 09:40 27.03.2020
508 Clouds 6 1014 56 10000 1 0 09:22 27.03.2020
509 Clouds 5 1014 56 10000 1 0 08:59 27.03.2020
510 Clouds 5 1014 56 10000 1 0 08:59 27.03.2020
511 Clouds 3 1014 69 10000 3.6 280 08:40 27.03.2020
512 Clouds 2 1014 69 10000 2.1 240 08:21 27.03.2020
513 Clouds 1 1014 69 10000 2.1 240 07:55 27.03.2020
514 Clouds 1 1015 53 10000 1.5 260 07:37 27.03.2020
515 Clouds 0 1015 74 10000 1 0 07:19 27.03.2020
516 Clouds -1 1015 79 10000 1.5 290 06:38 27.03.2020
517 Clouds -1 1014 80 10000 0.5 0 05:44 27.03.2020
518 Clouds 0 1014 59 10000 1 0 02:52 27.03.2020
519 Clouds 1 1014 58 10000 1 0 01:54 27.03.2020
520 Clouds 1 1014 74 10000 4.1 270 00:56 27.03.2020
521 Clouds 2 1014 69 10000 2.6 260 00:37 27.03.2020
522 Clouds 1 1014 69 10000 2.1 260 00:18 27.03.2020
523 Clouds 1 1014 69 10000 2.1 260 00:18 27.03.2020
524 Clouds 2 1014 64 10000 2.1 80 23:36 26.03.2020
525 Clouds 2 1014 64 10000 3.1 80 23:18 26.03.2020
526 Clouds 2 1014 64 10000 2.1 120 22:54 26.03.2020
527 Clouds 2 1014 64 10000 2.1 120 22:36 26.03.2020
528 Clouds 2 1014 64 10000 1 170 22:18 26.03.2020
529 Clouds 2 1014 64 10000 0.5 0 21:39 26.03.2020
530 Clouds 2 1014 64 10000 0.5 0 21:21 26.03.2020
531 Clouds 2 1014 64 10000 0.5 0 20:58 26.03.2020
532 Clouds 3 1014 64 10000 1 0 20:38 26.03.2020
533 Clouds 3 1014 60 10000 1 0 20:20 26.03.2020
534 Clouds 3 1014 60 10000 1.5 50 19:56 26.03.2020
535 Clouds 3 1014 60 10000 1.5 50 19:38 26.03.2020
536 Clouds 4 1013 52 10000 1.5 140 19:20 26.03.2020
537 Clouds 4 1013 48 10000 2.6 90 18:57 26.03.2020
538 Clouds 4 1013 48 10000 2.6 90 18:39 26.03.2020
539 Clouds 6 1013 45 10000 2.6 90 18:21 26.03.2020
540 Clouds 6 1013 45 10000 3.6 90 17:43 26.03.2020
541 Clouds 7 1013 42 10000 5.1 80 17:19 26.03.2020
542 Clouds 8 1013 34 10000 4.6 90 16:47 26.03.2020
543 Clouds 8 1013 34 10000 4.6 90 16:28 26.03.2020
544 Clouds 8 1013 34 10000 3.1 80 15:59 26.03.2020
545 Clouds 7 1013 33 10000 2.6 60 15:41 26.03.2020
546 Clouds 8 1014 31 10000 3.6 90 15:22 26.03.2020
547 Clouds 7 1014 31 10000 3.6 90 14:58 26.03.2020
548 Clouds 7 1014 36 10000 4.6 60 14:39 26.03.2020
549 Clouds 7 1014 30 10000 4.1 80 14:19 26.03.2020
550 Clouds 6 1014 36 10000 3.1 80 13:44 26.03.2020
551 Clouds 7 1014 36 10000 3.1 80 13:24 26.03.2020
552 Clouds 6 1015 33 10000 2.1 0 12:57 26.03.2020
553 Clouds 6 1015 33 10000 2.1 0 12:38 26.03.2020
554 Clouds 6 1015 35 10000 1 0 12:19 26.03.2020
555 Clouds 5 1015 32 10000 1 0 11:45 26.03.2020
556 Clouds 2 1015 37 10000 1 0 11:22 26.03.2020
557 Clouds 2 1016 40 10000 1 0 10:56 26.03.2020
558 Clouds 2 1016 40 10000 1 0 10:37 26.03.2020
559 Clouds 2 1016 40 10000 1 0 10:37 26.03.2020
560 Clouds 2 1016 43 10000 2.1 260 10:19 26.03.2020
561 Clouds 1 1016 47 10000 1.5 290 09:43 26.03.2020
562 Clouds 0 1016 50 10000 1 0 09:20 26.03.2020
563 Clouds 0 1016 50 10000 1 0 08:55 26.03.2020
564 Clouds -1 1016 40 10000 0.5 0 08:37 26.03.2020
565 Clouds 0 1016 67 10000 0.5 0 08:18 26.03.2020
566 Clouds -2 1016 63 10000 1 0 07:43 26.03.2020
567 Clouds -3 1015 68 10000 1 0 07:21 26.03.2020
568 Clear -2 1015 58 10000 1 0 06:48 26.03.2020
569 Clear -1 1015 54 10000 2.1 90 05:57 26.03.2020
570 Clear -1 1014 54 10000 5.1 110 04:25 26.03.2020
571 Clear 0 1014 75 10000 3.6 90 03:41 26.03.2020
572 Clear 1 1014 40 10000 4.1 90 02:54 26.03.2020
573 Clouds 1 1015 43 10000 3.1 80 01:50 26.03.2020
574 Clouds 1 1016 47 10000 4.1 90 00:48 26.03.2020
575 Clouds 2 1016 47 10000 4.6 70 23:56 25.03.2020
576 Clouds 2 1016 47 10000 4.6 70 23:36 25.03.2020
577 Clouds 2 1016 47 10000 4.6 70 23:18 25.03.2020
578 Clouds 2 1016 47 10000 5.1 60 22:39 25.03.2020
579 Clouds 3 1016 47 10000 6.2 60 22:20 25.03.2020
580 Clouds 3 1016 47 10000 6.2 60 21:56 25.03.2020
581 Clouds 3 1016 47 10000 6.2 60 21:37 25.03.2020
582 Clouds 3 1016 47 10000 6.2 50 21:19 25.03.2020
583 Clouds 3 1016 47 10000 6.2 50 21:19 25.03.2020
584 Clouds 4 1016 48 10000 3.1 50 20:54 25.03.2020
585 Clouds 4 1016 48 10000 3.1 50 20:36 25.03.2020
586 Clouds 4 1016 48 10000 3.1 70 20:18 25.03.2020
587 Clouds 4 1015 48 10000 6.2 50 19:42 25.03.2020
588 Clouds 5 1015 44 10000 4.1 50 19:22 25.03.2020
589 Clouds 5 1015 41 10000 4.6 70 18:57 25.03.2020
590 Clouds 5 1015 41 10000 4.6 70 18:38 25.03.2020
591 Clouds 4 1015 38 10000 6.2 90 18:19 25.03.2020
592 Clouds 7 1015 36 10000 5.7 90 17:55 25.03.2020
593 Clouds 7 1015 36 10000 5.7 90 17:36 25.03.2020
594 Clouds 7 1015 36 10000 5.7 90 17:18 25.03.2020
595 Clouds 8 1015 33 10000 6.2 90 16:43 25.03.2020
596 Clouds 8 1015 33 10000 6.2 90 16:43 25.03.2020
597 Clouds 8 1015 33 10000 6.7 90 16:22 25.03.2020
598 Clouds 8 1015 33 10000 6.7 90 15:57 25.03.2020
599 Clouds 8 1015 33 10000 6.7 90 15:38 25.03.2020
600 Clouds 8 1015 33 10000 6.7 70 15:19 25.03.2020
601 Clouds 8 1016 33 10000 6.2 100 14:42 25.03.2020
602 Clouds 7 1016 33 10000 5.7 80 14:21 25.03.2020
603 Clouds 7 1016 36 10000 5.7 80 13:46 25.03.2020
604 Clouds 7 1016 36 10000 5.7 80 13:26 25.03.2020
605 Clouds 6 1017 35 10000 4.6 90 12:57 25.03.2020
606 Clouds 4 1017 35 10000 4.6 90 12:37 25.03.2020
607 Clouds 4 1018 35 10000 4.6 90 12:19 25.03.2020
608 Clouds 3 1018 38 10000 5.1 80 11:43 25.03.2020
609 Clouds 2 1019 41 10000 3.6 90 11:22 25.03.2020
610 Clouds 2 1019 41 10000 3.6 90 10:59 25.03.2020
611 Clouds 2 1020 44 10000 4.1 90 10:41 25.03.2020
612 Clouds 2 1020 51 10000 3.6 100 10:19 25.03.2020
613 Clouds 0 1021 51 10000 3.6 90 09:59 25.03.2020
614 Clouds 0 1021 51 10000 3.6 90 09:41 25.03.2020
615 Clear 1 1021 55 10000 3.6 100 09:22 25.03.2020
616 Clear 1 1021 55 10000 3.6 100 08:55 25.03.2020
617 Clouds 1 1021 55 10000 3.1 70 08:37 25.03.2020
618 Clouds -1 1022 63 10000 4.1 60 08:18 25.03.2020
619 Clear -2 1022 68 10000 1.5 60 07:39 25.03.2020
620 Clear -2 1023 68 10000 1.5 70 07:20 25.03.2020
621 Clear -3 1023 68 10000 2.1 70 06:46 25.03.2020
622 Clear -2 1022 63 10000 2.1 90 06:25 25.03.2020
623 Clear -3 1022 68 10000 1 0 05:50 25.03.2020
624 Clear -2 1023 68 10000 1.5 90 04:59 25.03.2020
625 Clear -2 1023 68 10000 1.5 90 04:39 25.03.2020
626 Clear -3 1023 73 10000 0.5 0 03:35 25.03.2020
627 Clear -2 1024 68 10000 1 160 01:57 25.03.2020
628 Clear -1 1024 63 10000 1 0 01:20 25.03.2020
629 Clear -1 1025 58 10000 1 0 00:47 25.03.2020
630 Clear -1 1025 63 10000 1 0 00:19 25.03.2020
631 Clear 0 1025 74 10000 0.5 0 23:44 24.03.2020
632 Clouds 0 1025 73 10000 1.5 0 23:25 24.03.2020
633 Clouds 0 1025 73 10000 1.5 320 22:55 24.03.2020
634 Clouds 0 1025 73 10000 1.5 320 22:37 24.03.2020
635 Clouds 0 1025 73 10000 0.5 0 22:19 24.03.2020
636 Clouds 0 1025 73 10000 0.5 0 21:55 24.03.2020
637 Clouds 1 1025 55 10000 2.6 100 21:36 24.03.2020
638 Clouds 2 1025 51 10000 1.5 0 21:18 24.03.2020
639 Clouds 2 1024 51 10000 3.1 110 20:42 24.03.2020
640 Clouds 3 1024 47 10000 3.6 100 20:23 24.03.2020
641 Clouds 3 1024 47 10000 3.6 100 19:56 24.03.2020
642 Clouds 3 1024 47 10000 3.6 100 19:56 24.03.2020
643 Clouds 3 1024 47 10000 3.1 80 19:38 24.03.2020
644 Clouds 4 1024 44 10000 3.6 80 19:18 24.03.2020
645 Clouds 4 1024 44 10000 6.7 70 18:55 24.03.2020
646 Clouds 4 1024 44 10000 6.7 70 18:36 24.03.2020
647 Clouds 5 1024 41 10000 6.7 70 18:18 24.03.2020
648 Clouds 5 1024 41 10000 6.7 70 18:18 24.03.2020
649 Clouds 6 1023 35 10000 7.2 70 17:41 24.03.2020
650 Clouds 6 1023 35 10000 6.7 80 17:22 24.03.2020
651 Clouds 6 1023 35 10000 6.7 80 17:22 24.03.2020
652 Clouds 5 1023 30 10000 7.2 80 16:57 24.03.2020
653 Clouds 5 1023 30 10000 7.2 80 16:39 24.03.2020
654 Clouds 6 1023 30 10000 6.7 70 16:20 24.03.2020
655 Clouds 6 1024 30 10000 6.2 80 15:44 24.03.2020
656 Clouds 6 1024 30 10000 5.7 70 15:26 24.03.2020
657 Clouds 6 1024 30 10000 5.7 70 14:59 24.03.2020
658 Clouds 6 1024 30 10000 6.2 70 14:40 24.03.2020
659 Clouds 7 1025 30 10000 5.1 80 14:18 24.03.2020
660 Clouds 6 1025 35 10000 3.6 80 13:42 24.03.2020
661 Clouds 6 1025 33 10000 2.1 140 13:23 24.03.2020
662 Clouds 6 1025 33 10000 2.1 140 13:23 24.03.2020
663 Clouds 6 1025 33 10000 2.1 140 13:23 24.03.2020
664 Clear 4 1026 35 10000 3.1 90 12:47 24.03.2020
665 Clear 4 1026 35 10000 3.1 90 12:28 24.03.2020
666 Clear 3 1027 40 10000 3.6 110 11:59 24.03.2020
667 Clear 3 1027 40 10000 3.6 110 11:39 24.03.2020
668 Clear 2 1027 37 10000 3.1 120 11:19 24.03.2020
669 Clear 1 1028 40 10000 2.1 0 10:42 24.03.2020
670 Clear 0 1028 43 10000 2.1 100 10:19 24.03.2020
671 Clear 0 1028 43 10000 2.1 100 09:57 24.03.2020
672 Clear -2 1028 36 10000 2.6 70 09:39 24.03.2020
673 Clear -2 1029 50 10000 2.6 110 09:20 24.03.2020
674 Clear -4 1029 54 10000 1 0 08:38 24.03.2020
675 Clear -4 1029 54 10000 0.5 0 08:20 24.03.2020
676 Clear -5 1029 68 10000 1.61 147 07:47 24.03.2020
677 Clear -6 1029 68 10000 1.61 147 07:24 24.03.2020
678 Clear -7 1029 62 10000 0.5 0 06:52 24.03.2020
679 Clear -7 1029 62 10000 0.5 0 06:27 24.03.2020
680 Clear -6 1029 62 10000 1.5 170 04:57 24.03.2020
681 Clear -6 1029 58 10000 1 0 03:48 24.03.2020
682 Clear -5 1029 53 10000 1 0 03:18 24.03.2020
683 Clear -5 1029 53 10000 2.1 40 01:45 24.03.2020
684 Clear -4 1029 50 10000 1.5 0 00:46 24.03.2020
685 Clear -4 1029 50 10000 1.5 50 00:24 24.03.2020
686 Clear -3 1029 46 10000 2.6 110 23:44 23.03.2020
687 Clear -3 1029 46 10000 3.1 110 23:26 23.03.2020
688 Clear -3 1029 46 10000 3.1 110 23:26 23.03.2020
689 Clear -1 1029 46 10000 1 0 22:55 23.03.2020
690 Clear -1 1029 46 10000 1 0 22:37 23.03.2020
691 Clear -1 1029 65 10000 2.6 80 22:19 23.03.2020
692 Clear -1 1029 65 10000 3.6 80 21:43 23.03.2020
693 Clouds -1 1029 65 10000 3.6 70 21:20 23.03.2020
694 Clouds 0 1029 40 10000 5.7 60 20:57 23.03.2020
695 Clouds 0 1029 40 10000 5.7 60 20:39 23.03.2020
696 Clear 0 1028 40 10000 5.1 60 20:19 23.03.2020
697 Clear 1 1028 40 10000 4.1 50 19:45 23.03.2020
698 Clear 1 1028 40 10000 4.1 50 19:27 23.03.2020
699 Clear 0 1027 37 10000 4.6 80 18:59 23.03.2020
700 Clear 1 1027 37 10000 4.6 80 18:40 23.03.2020
701 Clear 3 1027 32 10000 6.2 80 18:21 23.03.2020
702 Clouds 3 1026 30 10000 6.2 80 17:43 23.03.2020
703 Clouds 3 1026 30 10000 7.2 70 17:21 23.03.2020
704 Clouds 4 1026 26 10000 7.7 70 16:59 23.03.2020
705 Clouds 4 1026 26 10000 7.7 70 16:39 23.03.2020
706 Clouds 5 1026 26 10000 6.7 70 16:20 23.03.2020
707 Clouds 5 1026 24 10000 6.7 80 15:42 23.03.2020
708 Clouds 5 1026 24 10000 6.7 80 15:42 23.03.2020
709 Clouds 5 1026 26 10000 6.2 80 15:20 23.03.2020
710 Clouds 5 1026 26 10000 6.2 80 14:55 23.03.2020
711 Clouds 5 1027 26 10000 6.2 90 14:36 23.03.2020
712 Clouds 5 1027 28 10000 7.7 70 14:18 23.03.2020
713 Clouds 5 1027 30 10000 6.2 80 13:40 23.03.2020
714 Clouds 5 1027 30 10000 4.6 80 13:21 23.03.2020
715 Clouds 4 1028 32 10000 6.2 70 12:46 23.03.2020
716 Clouds 4 1028 35 10000 4.6 100 12:26 23.03.2020
717 Clouds 3 1028 35 10000 4.6 100 11:59 23.03.2020
718 Clouds 3 1029 38 10000 4.6 90 11:40 23.03.2020
719 Clouds 2 1029 44 10000 4.1 60 11:20 23.03.2020
720 Clouds 2 1029 47 10000 3.1 100 10:58 23.03.2020
721 Clouds 2 1029 47 10000 3.1 100 10:39 23.03.2020
722 Clouds 1 1029 51 10000 4.6 100 10:21 23.03.2020
723 Clouds -1 1030 50 10000 3.6 110 09:46 23.03.2020
724 Clouds -1 1030 33 10000 3.1 100 09:21 23.03.2020
725 Clouds -1 1030 33 10000 3.6 110 08:58 23.03.2020
726 Clouds -2 1030 33 10000 3.6 110 08:36 23.03.2020
727 Clouds -1 1030 58 10000 3.6 80 08:18 23.03.2020
728 Clouds -4 1029 63 10000 3.1 80 07:47 23.03.2020
729 Clouds -4 1029 63 10000 3.1 80 07:29 23.03.2020
730 Clouds -4 1029 63 10000 3.6 80 06:52 23.03.2020
731 Clouds -4 1029 63 10000 2.6 80 05:55 23.03.2020
732 Clouds -4 1029 63 10000 4.1 80 05:29 23.03.2020
733 Clouds -2 1029 58 10000 3.6 80 03:41 23.03.2020
734 Clouds -2 1029 54 10000 3.1 90 02:29 23.03.2020
735 Clouds -3 1029 58 10000 4.1 70 01:34 23.03.2020
736 Clouds -1 1029 86 10000 4.1 70 00:40 23.03.2020
737 Clouds -1 1028 86 10000 3.1 80 23:48 22.03.2020
738 Clouds -1 1028 55 10000 3.6 80 23:26 22.03.2020
739 Clouds -1 1028 55 10000 3.6 80 23:26 22.03.2020
740 Clouds -2 1028 90 10000 4.1 70 22:47 22.03.2020
741 Clouds -2 1028 55 10000 3.6 80 22:26 22.03.2020
742 Clouds -1 1028 55 10000 3.6 80 21:57 22.03.2020
743 Clouds -1 1027 55 10000 4.6 80 21:39 22.03.2020
744 Clouds 0 1027 51 10000 4.1 90 21:20 22.03.2020
745 Clouds 1 1027 51 10000 4.1 90 20:54 22.03.2020
746 Clouds 0 1027 55 10000 4.1 90 20:36 22.03.2020
747 Clouds 0 1026 51 10000 5.1 80 20:18 22.03.2020
748 Clouds 2 1026 51 10000 7.2 80 19:54 22.03.2020
749 Clouds 2 1026 51 10000 7.2 80 19:36 22.03.2020
750 Clouds 1 1025 55 10000 7.2 70 19:18 22.03.2020
751 Clouds 2 1025 51 10000 7.2 70 18:41 22.03.2020
752 Clouds 2 1024 55 10000 8.2 80 18:22 22.03.2020
753 Clouds 2 1024 55 10000 8.2 80 17:59 22.03.2020
754 Clouds 3 1023 56 10000 7.7 80 17:39 22.03.2020
755 Clouds 3 1023 52 10000 6.7 90 17:21 22.03.2020
756 Clouds 4 1022 56 10000 6.7 80 16:59 22.03.2020
757 Clouds 4 1022 56 10000 6.7 80 16:41 22.03.2020
758 Clouds 4 1022 52 10000 8.2 90 16:22 22.03.2020
759 Clouds 4 1022 52 10000 8.2 90 15:58 22.03.2020
760 Clouds 5 1022 52 10000 7.2 80 15:39 22.03.2020
761 Clouds 5 1022 57 10000 4.6 80 14:47 22.03.2020
762 Clouds 6 1022 61 10000 4.1 80 14:19 22.03.2020
763 Clouds 6 1022 61 10000 4.1 80 13:57 22.03.2020
764 Clouds 5 1023 61 10000 3.6 80 13:39 22.03.2020
765 Clouds 5 1023 65 10000 4.1 80 13:19 22.03.2020
766 Clouds 3 1035 79 0 1.34 287 12:44 22.03.2020
767 Clouds 3 1035 81 0 1.34 349 12:20 22.03.2020
768 Clouds 2 1035 82 0 0.45 340 11:56 22.03.2020
769 Clouds 2 1035 82 0 1.79 306 11:38 22.03.2020
770 Clouds 2 1035 83 0 1.79 304 11:19 22.03.2020
771 Clouds 1 1034 86 0 1.34 298 10:43 22.03.2020
772 Clouds 1 1034 88 0 1.34 313 10:24 22.03.2020
773 Clouds 1 1023 79 10000 3.1 60 09:49 22.03.2020
774 Clouds 2 1023 79 10000 3.1 60 09:30 22.03.2020
775 Clouds 1 1022 79 10000 3.1 70 08:55 22.03.2020
776 Clouds 1 1022 79 10000 3.1 70 08:36 22.03.2020
777 Clouds 1 1022 79 10000 3.1 70 08:36 22.03.2020
778 Clouds 1 1022 94 10000 3.1 100 08:18 22.03.2020
779 Clouds 1 1021 94 10000 3.1 110 07:48 22.03.2020
780 Clouds 1 1021 94 10000 1.5 70 07:18 22.03.2020
781 Clouds 1 1021 94 10000 3.1 90 05:55 22.03.2020
782 Clouds 1 1020 95 10000 3.1 60 04:58 22.03.2020
783 Clouds 1 1020 86 10000 2.6 60 02:43 22.03.2020
784 Clouds 2 1019 80 10000 4.1 90 01:21 22.03.2020
785 Rain 2 1019 80 10000 4.1 70 00:36 22.03.2020
786 Clouds 2 1019 86 10000 3.6 60 23:58 21.03.2020
787 Clouds 2 1019 86 10000 3.6 60 23:40 21.03.2020
788 Clouds 2 1019 86 10000 3.6 80 23:18 21.03.2020
789 Rain 3 1019 86 10000 3.6 80 22:38 21.03.2020
790 Rain 2 1019 86 10000 3.6 80 22:38 21.03.2020
791 Rain 3 1018 80 10000 4.1 70 22:20 21.03.2020
792 Rain 3 1018 80 10000 4.1 70 21:59 21.03.2020
793 Snow 2 1028 92 0 1.51 47 21:39 21.03.2020
794 Snow 2 1028 92 0 1.51 47 21:21 21.03.2020
795 Clouds 3 1018 81 10000 3.6 80 20:46 21.03.2020
796 Clouds 3 1018 81 10000 3.6 80 20:23 21.03.2020
797 Snow 3 1027 91 0 1.48 13 19:57 21.03.2020
798 Clouds 4 1017 81 10000 4.6 60 19:39 21.03.2020
799 Snow 3 1027 91 0 1.48 13 19:21 21.03.2020
800 Snow 3 1026 91 0 1.48 13 18:54 21.03.2020
801 Snow 3 1026 91 0 1.48 13 18:36 21.03.2020
802 Snow 4 1026 90 0 1.48 13 18:18 21.03.2020
803 Snow 4 1025 89 0 1.48 13 17:42 21.03.2020
804 Clouds 6 1015 70 10000 4.1 90 17:23 21.03.2020
805 Clouds 5 1015 76 10000 5.7 80 16:57 21.03.2020
806 Clouds 6 1015 76 10000 5.7 80 16:38 21.03.2020
807 Clouds 6 1015 76 10000 6.2 90 16:18 21.03.2020
808 Clouds 6 1015 76 10000 6.2 90 16:18 21.03.2020
809 Clouds 6 1015 71 10000 6.2 80 15:42 21.03.2020
810 Rain 5 1016 89 0 2.68 13 15:23 21.03.2020
811 Rain 5 1016 89 0 2.68 347 14:58 21.03.2020
812 Rain 5 1016 89 0 3.58 40 14:40 21.03.2020
813 Rain 5 1016 89 0 3.13 34 14:20 21.03.2020
814 Rain 5 1016 89 0 3.13 28 13:59 21.03.2020
815 Rain 6 1016 89 0 3.13 9 13:40 21.03.2020
816 Rain 6 1025 84 0 2.24 304 13:22 21.03.2020
817 Rain 5 1016 88 0 3.13 30 12:59 21.03.2020
818 Rain 5 1016 87 0 3.13 355 12:38 21.03.2020
819 Rain 6 1016 87 0 2.68 360 12:19 21.03.2020
820 Rain 6 1016 87 0 2.68 360 12:19 21.03.2020
821 Rain 6 1016 87 0 2.24 360 11:56 21.03.2020
822 Rain 6 1026 93 0 0.45 298 11:38 21.03.2020
823 Rain 6 1026 94 0 0.72 343 11:19 21.03.2020
824 Clouds 7 1017 81 10000 1.5 50 10:57 21.03.2020
825 Clouds 7 1017 81 10000 1.5 50 10:38 21.03.2020
826 Clouds 7 1017 81 10000 1 0 10:19 21.03.2020
827 Clouds 6 1018 87 10000 1.5 90 09:56 21.03.2020
828 Clouds 7 1018 87 10000 1.5 90 09:37 21.03.2020
829 Clouds 7 1018 87 10000 2.1 70 09:19 21.03.2020
830 Clouds 7 1018 93 10000 1.5 60 08:43 21.03.2020
831 Clouds 7 1018 93 10000 1.5 60 08:24 21.03.2020
832 Clouds 7 1018 87 10000 0.5 0 07:45 21.03.2020
833 Clouds 7 1018 87 10000 1 0 07:27 21.03.2020
834 Clouds 7 1018 87 10000 2.1 70 06:48 21.03.2020
835 Clouds 6 1018 87 10000 2.1 80 06:28 21.03.2020
836 Clouds 7 1018 93 10000 2.6 60 05:46 21.03.2020
837 Rain 7 1018 93 10000 1 0 04:46 21.03.2020
838 Clouds 8 1018 87 10000 2.1 70 02:51 21.03.2020
839 Clouds 8 1018 87 10000 2.1 70 02:33 21.03.2020
840 Clouds 8 1019 87 10000 3.1 130 01:32 21.03.2020
841 Clouds 9 1019 81 10000 3.6 60 00:48 21.03.2020
842 Clouds 10 1019 81 10000 3.6 60 00:26 21.03.2020
843 Rain 9 1018 71 10000 7.2 240 23:51 20.03.2020
844 Rain 9 1018 71 10000 7.2 240 23:27 20.03.2020
845 Rain 10 1017 66 10000 7.7 250 22:59 20.03.2020
846 Rain 10 1017 66 10000 7.7 250 22:59 20.03.2020
847 Clouds 10 1017 62 10000 5.1 270 22:40 20.03.2020
848 Clouds 10 1017 58 10000 2.1 180 22:21 20.03.2020
849 Clouds 10 1017 58 10000 2.1 180 21:56 20.03.2020
850 Clouds 10 1017 58 10000 2.1 180 21:38 20.03.2020
851 Clouds 10 1017 50 10000 3.6 270 21:18 20.03.2020
852 Clouds 11 1017 50 10000 3.6 270 20:55 20.03.2020
853 Clouds 11 1016 54 10000 1.5 280 20:37 20.03.2020
854 Rain 12 1016 50 10000 1.5 240 20:18 20.03.2020
855 Clouds 12 1016 47 10000 1.5 0 19:44 20.03.2020
856 Clouds 13 1016 51 10000 3.6 50 19:18 20.03.2020
857 Clouds 13 1016 44 10000 3.1 40 18:55 20.03.2020
858 Clouds 13 1016 44 10000 3.1 40 18:36 20.03.2020
859 Clouds 15 1016 39 10000 1 0 18:18 20.03.2020
860 Clouds 17 1015 45 10000 2.6 260 17:39 20.03.2020
861 Clouds 17 1015 29 10000 2.1 230 17:21 20.03.2020
862 Clouds 20 1016 28 10000 1.5 250 16:57 20.03.2020
863 Clouds 20 1016 28 10000 1.5 250 16:39 20.03.2020
864 Clouds 20 1016 28 10000 1.5 250 16:39 20.03.2020
865 Clouds 19 1016 26 10000 1.5 250 16:18 20.03.2020
866 Clouds 20 1016 26 10000 1 0 15:42 20.03.2020
867 -273 0 0 0 0 0 15:21 20.03.2020
868 Clouds 19 1016 26 10000 1.5 180 14:54 20.03.2020
869 Clouds 19 1017 29 10000 1.5 290 14:36 20.03.2020
870 Clouds 19 1017 28 10000 1 0 14:18 20.03.2020
871 Clouds 18 1018 34 10000 1.5 260 13:40 20.03.2020
872 Clouds 17 1018 31 10000 0.5 0 13:19 20.03.2020
873 Clouds 17 1019 39 10000 2.1 270 12:39 20.03.2020
874 Clouds 17 1020 38 10000 2.1 270 12:20 20.03.2020
875 Clouds 16 1020 41 10000 3.1 270 11:57 20.03.2020
876 Clouds 16 1020 41 10000 3.1 270 11:38 20.03.2020
877 Clouds 14 1021 47 10000 3.6 270 11:19 20.03.2020
878 Clouds 13 1021 50 10000 3.6 270 10:41 20.03.2020
879 Clouds 12 1021 50 10000 4.1 260 10:21 20.03.2020
880 Clouds 12 1021 50 10000 4.1 260 09:56 20.03.2020
881 Clouds 12 1021 50 10000 4.1 260 09:56 20.03.2020
882 Clouds 10 1022 57 10000 3.1 250 09:37 20.03.2020
883 Clouds 9 1022 66 10000 2.6 270 09:18 20.03.2020
884 Clouds 8 1022 70 10000 1 0 08:42 20.03.2020
885 Clear 5 1023 80 10000 1 250 08:22 20.03.2020
886 Clear 4 1023 86 10000 1 240 07:49 20.03.2020
887 Clear 4 1023 86 10000 1 240 07:30 20.03.2020
888 Clear 4 1023 86 10000 1 0 06:58 20.03.2020
889 Clear 4 1023 93 10000 1 0 06:40 20.03.2020
890 Clear 4 1023 86 10000 0.5 0 04:51 20.03.2020
891 Clear 5 1023 86 10000 1 250 03:22 20.03.2020
892 Clear 6 1023 80 10000 1.58 186 01:58 20.03.2020
893 Clear 6 1023 81 10000 0.5 0 00:59 20.03.2020
894 Clear 6 1023 75 10000 1 0 00:30 20.03.2020
895 Clear 7 1023 75 10000 0.5 0 23:47 19.03.2020
896 Clear 8 1023 70 10000 0.5 0 23:28 19.03.2020
897 Clear 8 1023 75 10000 0.5 0 22:57 19.03.2020
898 Clear 7 1023 75 10000 0.5 0 22:38 19.03.2020
899 Clear 7 1023 70 10000 1.62 178 22:19 19.03.2020
900 Clear 8 1022 66 10000 0.5 0 21:42 19.03.2020
901 Clear 8 1022 70 10000 1 0 21:20 19.03.2020
902 Clear 8 1022 70 10000 1 0 20:59 19.03.2020
903 Clear 9 1022 66 10000 0.5 0 20:41 19.03.2020
904 Clear 10 1022 62 10000 0.5 0 20:22 19.03.2020
905 Clouds 10 1022 62 10000 0.5 0 19:55 19.03.2020
906 Clouds 11 1021 54 10000 0.5 0 19:37 19.03.2020
907 Clouds 12 1021 54 10000 0.5 0 19:19 19.03.2020
908 Clouds 17 1021 36 10000 1.5 0 18:54 19.03.2020
909 Clouds 17 1021 36 10000 1.5 0 18:36 19.03.2020
910 Clouds 15 1020 39 10000 3.6 50 18:18 19.03.2020
911 Clouds 17 1020 34 10000 2.1 0 17:41 19.03.2020
912 Clouds 19 1020 28 10000 1 0 17:19 19.03.2020
913 Clouds 21 1020 28 10000 1 0 16:44 19.03.2020
914 Clouds 21 1020 28 10000 1 0 16:24 19.03.2020
915 Clouds 21 1021 26 10000 1.5 80 15:46 19.03.2020
916 Clouds 19 1021 28 10000 1 0 15:27 19.03.2020
917 Clouds 21 1021 28 10000 1 0 14:58 19.03.2020
918 Clouds 19 1021 30 10000 1.5 80 14:40 19.03.2020
919 Clear 19 1022 30 10000 0.5 0 14:19 19.03.2020
920 Clear 17 1022 34 10000 1 0 13:40 19.03.2020
921 Clear 17 1022 34 10000 1 0 13:40 19.03.2020
922 Clear 17 1023 34 10000 1 0 13:19 19.03.2020
923 Clear 16 1023 36 10000 2.1 280 12:56 19.03.2020
924 Clear 16 1023 36 10000 2.1 280 12:37 19.03.2020
925 Clear 16 1024 41 10000 2.6 270 12:19 19.03.2020
926 Clear 15 1024 47 10000 3.6 270 11:42 19.03.2020
927 Clear 13 1025 47 10000 3.6 250 11:23 19.03.2020
928 Clear 13 1025 54 10000 3.6 270 10:56 19.03.2020
929 Clear 12 1025 54 10000 3.6 270 10:36 19.03.2020
930 Clear 11 1026 57 10000 3.1 270 10:18 19.03.2020
931 Clear 9 1026 66 10000 3.1 270 09:44 19.03.2020
932 Clear 8 1026 70 10000 0.5 0 09:26 19.03.2020
933 Clear 10 1026 70 10000 0.5 0 08:57 19.03.2020
934 Clear 7 1026 75 10000 1.5 280 08:37 19.03.2020
935 Clear 4 1027 80 10000 0.5 0 08:18 19.03.2020
936 Clear 4 1027 86 10000 0.5 0 07:42 19.03.2020
937 Clear 4 1027 75 10000 0.5 0 07:22 19.03.2020
938 Clear 3 1026 86 10000 1 0 06:27 19.03.2020
939 Clear 4 1026 80 10000 1.5 230 05:25 19.03.2020
940 Clear 4 1026 93 10000 0.5 0 04:51 19.03.2020
941 Clear 4 1026 86 10000 1 0 04:21 19.03.2020
942 Clear 5 1027 86 10000 1.5 260 02:33 19.03.2020
943 Clear 6 1027 81 10000 1.5 260 00:53 19.03.2020
944 Clear 5 1027 75 10000 0.5 0 00:20 19.03.2020
945 Clear 6 1027 75 10000 0.5 0 23:44 18.03.2020
946 Clear 6 1027 75 10000 1 270 23:26 18.03.2020
947 Clear 5 1027 75 10000 0.5 0 22:43 18.03.2020
948 Clear 6 1027 70 10000 1 260 22:23 18.03.2020
949 Clear 7 1027 70 10000 1 260 21:58 18.03.2020
950 Clear 7 1026 66 10000 0.5 0 21:40 18.03.2020
951 Clear 8 1026 66 10000 0.5 0 21:20 18.03.2020
952 Clear 8 1026 66 10000 0.5 0 20:56 18.03.2020
953 Clear 9 1026 66 10000 1 0 20:38 18.03.2020
954 Clouds 9 1026 62 10000 1 0 20:19 18.03.2020
955 Clouds 13 1025 54 10000 2.1 280 19:42 18.03.2020
956 Clouds 14 1025 47 10000 1.5 40 19:21 18.03.2020
957 Clouds 13 1024 41 10000 3.6 80 18:59 18.03.2020
958 Clouds 16 1024 41 10000 3.6 80 18:40 18.03.2020
959 Clouds 15 1024 41 10000 4.6 50 18:19 18.03.2020
960 Clouds 15 1024 41 10000 4.6 50 18:19 18.03.2020
961 Clouds 16 1024 36 10000 3.6 50 17:56 18.03.2020
962 Clouds 18 1024 36 10000 3.6 50 17:38 18.03.2020
963 Clouds 18 1024 32 10000 2.6 70 17:19 18.03.2020
964 Clouds 19 1024 32 10000 3.1 70 16:43 18.03.2020
965 Clouds 19 1024 37 10000 2.6 120 16:21 18.03.2020
966 Clouds 19 1024 37 10000 2.6 120 15:58 18.03.2020
967 Clouds 20 1025 32 10000 1.5 0 15:38 18.03.2020
968 Clouds 18 1025 34 10000 2.1 100 15:20 18.03.2020
969 Clouds 17 1025 34 10000 1.5 100 14:43 18.03.2020
970 Clouds 17 1026 39 10000 1.5 100 14:21 18.03.2020
971 Clouds 16 1026 42 10000 1.5 0 13:42 18.03.2020
972 Clouds 16 1027 48 10000 1 0 13:19 18.03.2020
973 Clouds 15 1028 51 10000 0.5 0 12:55 18.03.2020
974 Clouds 15 1028 51 10000 1 0 12:37 18.03.2020
975 Clouds 15 1028 51 10000 1 0 12:19 18.03.2020
976 Clouds 14 1028 54 10000 1 0 11:38 18.03.2020
977 Clouds 12 1029 58 10000 1.5 250 11:19 18.03.2020
978 Clouds 11 1030 62 10000 2.6 260 10:57 18.03.2020
979 Clouds 11 1030 62 10000 2.6 260 10:37 18.03.2020
980 Clouds 11 1030 71 10000 2.6 260 10:19 18.03.2020
981 Clouds 10 1031 70 10000 2.6 270 09:43 18.03.2020
982 Clouds 9 1031 75 10000 2.6 250 09:23 18.03.2020
983 Clouds 8 1031 75 10000 2.6 250 08:55 18.03.2020
984 Clouds 7 1031 81 10000 2.6 270 08:37 18.03.2020
985 Clouds 4 1031 81 10000 1.5 270 08:19 18.03.2020
986 Clouds 3 1031 86 10000 2.1 250 07:43 18.03.2020
987 Clouds 3 1031 86 10000 2.1 270 07:25 18.03.2020
988 Clouds 3 1031 86 10000 1.5 280 06:44 18.03.2020
989 Clouds 3 1031 86 10000 0.5 0 05:56 18.03.2020
990 Clouds 3 1031 86 10000 0.5 0 05:33 18.03.2020
991 Clouds 5 1030 87 10000 0.5 0 03:56 18.03.2020
992 Clouds 6 1030 75 10000 3.6 270 02:40 18.03.2020
993 Clouds 7 1030 76 10000 0.5 0 01:47 18.03.2020
994 Clouds 8 1030 76 10000 1.5 160 01:21 18.03.2020
995 Clouds 8 1030 71 10000 0.5 0 00:23 18.03.2020
996 Clouds 8 1031 71 10000 0.5 0 23:47 17.03.2020
997 Clouds 9 1031 66 10000 1 0 23:26 17.03.2020
998 Clouds 9 1031 71 10000 1 0 22:47 17.03.2020
999 Clouds 9 1030 71 10000 1 270 22:29 17.03.2020
1000 Clouds 10 1030 71 10000 1 270 21:59 17.03.2020
1001 Clouds 10 1030 66 10000 0.5 0 21:37 17.03.2020
1002 Clouds 10 1030 62 10000 1 0 21:19 17.03.2020
1003 Clouds 11 1030 58 10000 1 0 20:39 17.03.2020
1004 -273 0 0 0 0 0 20:21 17.03.2020
1005 Clouds 12 1030 58 10000 1.5 70 19:56 17.03.2020
1006 Clouds 12 1029 58 10000 2.1 100 19:38 17.03.2020
1007 Clouds 12 1029 54 10000 2.6 90 19:18 17.03.2020
1008 Clouds 12 1028 54 10000 2.6 80 18:54 17.03.2020
1009 Clouds 13 1028 54 10000 2.6 80 18:36 17.03.2020
1010 Clouds 12 1028 54 10000 3.1 60 18:18 17.03.2020
1011 Clouds 14 1028 47 10000 3.6 90 17:40 17.03.2020
1012 Clouds 13 1028 47 10000 4.1 70 17:20 17.03.2020
1013 Clouds 14 1028 44 10000 5.1 80 16:44 17.03.2020
1014 Clouds 15 1028 44 10000 6.7 60 16:20 17.03.2020
1015 Clouds 15 1028 44 10000 6.7 60 15:56 17.03.2020
1016 Clouds 15 1028 44 10000 6.7 60 15:56 17.03.2020
1017 Clouds 16 1028 39 10000 5.7 70 15:38 17.03.2020
1018 Clouds 16 1028 62 10000 3.1 90 15:18 17.03.2020
1019 Clouds 15 1028 31 10000 2.6 70 14:41 17.03.2020
1020 Clouds 15 1028 29 10000 3.1 110 14:18 17.03.2020
1021 Clouds 16 1028 33 10000 2.6 70 13:43 17.03.2020
1022 Clouds 15 1028 33 10000 2.6 70 13:24 17.03.2020
1023 Clouds 14 1029 38 10000 1 0 12:54 17.03.2020
1024 Clouds 14 1029 38 10000 1 0 12:36 17.03.2020
1025 Clouds 13 1030 54 10000 1.5 0 12:18 17.03.2020
1026 Clouds 12 1030 54 10000 1 0 11:42 17.03.2020
1027 Clouds 12 1030 54 10000 1 0 11:24 17.03.2020
1028 Clouds 10 1031 50 10000 1 0 10:57 17.03.2020
1029 Clouds 10 1031 50 10000 1 0 10:57 17.03.2020
1030 Clouds 9 1031 50 10000 1 0 10:37 17.03.2020
1031 Clouds 9 1031 62 10000 1.5 290 10:18 17.03.2020
1032 Clouds 8 1031 61 10000 1 0 09:46 17.03.2020
1033 Clouds 7 1031 62 10000 1 0 09:20 17.03.2020
1034 Clouds 6 1031 62 10000 0.5 0 08:59 17.03.2020
1035 Clouds 5 1031 62 10000 0.5 0 08:41 17.03.2020
1036 -273 0 0 0 0 0 08:20 17.03.2020
1037 Clouds 1 1031 86 10000 2.1 260 07:49 17.03.2020
1038 Clouds 1 1030 80 10000 1.5 250 07:24 17.03.2020
1039 Clouds 2 1030 80 10000 1.5 270 06:53 17.03.2020
1040 Clouds 2 1030 86 10000 1 260 06:27 17.03.2020
1041 Clouds 2 1029 77 10000 0.5 0 05:38 17.03.2020
1042 Clouds 3 1028 80 10000 1.5 260 03:36 17.03.2020
1043 Clouds 3 1028 74 10000 1 290 02:38 17.03.2020
1044 Clear 4 1028 69 10000 2.1 240 01:41 17.03.2020
1045 Clear 3 1027 74 10000 2.1 270 01:18 17.03.2020
1046 Clear 4 1027 69 10000 1.5 280 00:19 17.03.2020
1047 Clear 4 1027 65 10000 1.5 250 23:44 16.03.2020
1048 Clear 4 1027 65 10000 2.1 290 23:23 16.03.2020
1049 Clouds 4 1026 65 10000 2.6 270 22:39 16.03.2020
1050 Clouds 4 1026 65 10000 2.6 260 22:20 16.03.2020
1051 Clouds 6 1025 52 10000 2.1 260 21:55 16.03.2020
1052 Clouds 6 1025 52 10000 2.1 260 21:36 16.03.2020
1053 Clouds 6 1025 52 10000 1 0 21:18 16.03.2020
1054 Clouds 9 1024 43 10000 1 0 20:42 16.03.2020
1055 Clouds 9 1024 43 10000 1 0 20:24 16.03.2020
1056 Clear 11 1023 40 10000 0.5 0 19:47 16.03.2020
1057 Clear 12 1022 37 10000 1 0 19:25 16.03.2020
1058 Clear 12 1022 37 10000 1 0 18:59 16.03.2020
1059 Clear 14 1022 33 10000 1 0 18:40 16.03.2020
1060 Clear 14 1021 23 10000 3.6 110 18:20 16.03.2020
1061 Clear 18 1021 20 10000 3.1 160 17:46 16.03.2020
1062 Clear 16 1021 23 10000 2.6 130 17:26 16.03.2020
1063 Clear 18 1020 17 10000 1.5 150 16:58 16.03.2020
1064 Clear 18 1020 17 10000 1.5 150 16:40 16.03.2020
1065 Clear 18 1020 17 10000 1.5 150 16:40 16.03.2020
1066 Clear 18 1020 19 10000 1.5 0 16:21 16.03.2020
1067 Clear 19 1020 17 10000 1.5 0 15:43 16.03.2020
1068 Clear 19 1020 17 10000 1.5 0 15:24 16.03.2020
1069 Clear 17 1020 27 10000 3.1 260 14:48 16.03.2020
1070 Clear 16 1020 27 10000 2.6 260 14:24 16.03.2020
1071 Clear 16 1020 31 10000 3.1 270 13:51 16.03.2020
1072 Clear 16 1020 31 10000 3.1 270 13:29 16.03.2020
1073 Clear 15 1021 35 10000 4.6 270 12:58 16.03.2020
1074 Clear 15 1021 35 10000 4.6 270 12:39 16.03.2020
1075 Clear 14 1021 35 10000 3.6 270 12:20 16.03.2020
1076 Clear 13 1022 40 10000 4.6 270 11:44 16.03.2020
1077 Clear 12 1022 43 10000 5.1 260 11:26 16.03.2020
1078 Clear 10 1022 43 10000 6.2 260 10:45 16.03.2020
1079 Clear 10 1022 43 10000 6.2 260 10:25 16.03.2020
1080 Clear 9 1022 38 10000 6.2 270 09:59 16.03.2020
1081 Clear 9 1022 38 10000 6.2 270 09:38 16.03.2020
1082 Clear 7 1022 56 10000 5.7 280 09:19 16.03.2020
1083 Clear 6 1022 65 10000 4.6 270 08:43 16.03.2020
1084 Clear 4 1022 69 10000 3.6 270 08:23 16.03.2020
1085 Clear 1 1022 74 10000 2.6 250 07:44 16.03.2020
1086 Clear 1 1021 74 10000 2.1 220 07:21 16.03.2020
1087 Clear 1 1021 80 10000 4.1 250 06:46 16.03.2020
1088 Clear 1 1021 80 10000 3.6 250 06:22 16.03.2020
1089 Clear 1 1020 64 10000 3.1 260 04:26 16.03.2020
1090 Clouds 1 1020 80 10000 3.1 270 01:47 16.03.2020
1091 Clouds 2 1020 69 10000 4.1 250 00:48 16.03.2020
1092 Clouds 2 1020 69 10000 4.1 250 00:28 16.03.2020
1093 Clouds 3 1020 69 10000 4.1 280 23:41 15.03.2020
1094 Clear 4 1020 60 10000 3.1 270 23:19 15.03.2020
1095 Clear 5 1020 52 10000 2.1 0 22:42 15.03.2020
1096 Clear 7 1019 42 10000 3.6 0 22:21 15.03.2020
1097 Clear 8 1019 39 10000 6.7 160 21:39 15.03.2020
1098 Clear 8 1019 39 10000 7.2 160 21:21 15.03.2020
1099 Clear 8 1019 39 10000 7.2 160 20:58 15.03.2020
1100 Clear 9 1019 39 10000 7.2 150 20:40 15.03.2020
1101 Clear 9 1019 39 10000 8.2 140 20:20 15.03.2020
1102 Clear 9 1019 39 10000 8.2 140 19:55 15.03.2020
1103 Clear 9 1019 39 10000 8.2 140 19:55 15.03.2020
1104 Clear 10 1019 39 10000 7.2 160 19:37 15.03.2020
1105 Clear 11 1018 37 10000 8.2 150 19:18 15.03.2020
1106 Clear 11 1018 37 10000 8.2 150 18:55 15.03.2020
1107 Clear 11 1017 37 10000 8.7 160 18:36 15.03.2020
1108 Clear 12 1017 34 10000 9.3 150 18:18 15.03.2020
1109 Clear 13 1017 34 10000 9.3 140 17:40 15.03.2020
1110 Clear 13 1017 32 10000 8.2 150 17:20 15.03.2020
1111 Clear 14 1017 32 10000 8.2 140 16:56 15.03.2020
1112 Clear 14 1017 32 10000 8.2 140 16:37 15.03.2020
1113 Clear 14 1017 32 10000 8.2 150 16:18 15.03.2020
1114 Clear 15 1017 35 10000 5.7 140 15:43 15.03.2020
1115 Clear 15 1017 32 10000 5.1 150 15:25 15.03.2020
1116 Clear 15 1018 32 10000 6.7 120 14:47 15.03.2020
1117 Clear 13 1018 32 10000 6.7 120 14:28 15.03.2020
1118 Clouds 13 1018 32 10000 6.2 140 13:59 15.03.2020
1119 Clouds 14 1018 35 10000 2.1 0 13:40 15.03.2020
1120 Clouds 13 1019 40 10000 3.1 280 13:21 15.03.2020
1121 Clouds 13 1019 40 10000 3.1 280 12:58 15.03.2020
1122 Clouds 11 1019 48 10000 5.1 270 12:38 15.03.2020
1123 Clouds 11 1020 48 10000 5.1 270 12:20 15.03.2020
1124 Clouds 10 1020 48 10000 5.1 260 11:42 15.03.2020
1125 Clouds 8 1021 61 10000 4.1 270 11:22 15.03.2020
1126 Clouds 7 1021 65 10000 2.6 280 10:56 15.03.2020
1127 Clouds 7 1021 65 10000 2.6 280 10:38 15.03.2020
1128 Clouds 6 1022 70 10000 1 0 10:20 15.03.2020
1129 Clouds 5 1022 70 10000 0.5 0 09:41 15.03.2020
1130 Clouds 4 1023 75 10000 1 0 09:22 15.03.2020
1131 Clouds 2 1023 59 10000 1 0 08:54 15.03.2020
1132 Clouds 2 1023 59 10000 1 0 08:36 15.03.2020
1133 Clouds 0 1023 84 10000 1 0 08:18 15.03.2020
1134 Clouds 0 1023 84 10000 2.6 260 07:44 15.03.2020
1135 Clouds -1 1023 84 10000 2.1 270 06:54 15.03.2020
1136 Clouds -1 1023 84 10000 2.1 270 06:34 15.03.2020
1137 Clouds -1 1023 93 10000 2.1 260 05:43 15.03.2020
1138 Clouds 0 1023 94 10000 1 0 04:47 15.03.2020
1139 Clouds 0 1023 94 10000 1 0 04:28 15.03.2020
1140 Clouds 0 1023 93 10000 0.5 0 03:54 15.03.2020
1141 Clouds 1 1023 86 10000 1.5 280 02:48 15.03.2020
1142 Clouds 1 1023 86 10000 1.85 179 01:50 15.03.2020
1143 Clouds 3 1023 86 10000 1 250 00:51 15.03.2020
1144 Clouds 4 1023 86 10000 1 250 00:28 15.03.2020
1145 Clouds 4 1023 86 10000 1.5 250 23:58 14.03.2020
1146 Clouds 4 1023 86 10000 1.5 250 23:37 14.03.2020
1147 Clouds 4 1023 86 10000 1.5 270 23:18 14.03.2020
1148 Clouds 5 1023 80 10000 0.5 0 22:44 14.03.2020
1149 Clouds 5 1023 80 10000 0.5 0 22:26 14.03.2020
1150 Clouds 5 1023 80 10000 1 170 21:57 14.03.2020
1151 Clouds 5 1023 80 10000 1 170 21:57 14.03.2020
1152 Clouds 5 1023 86 10000 1 0 21:36 14.03.2020
1153 Clouds 5 1022 86 10000 2.1 260 21:18 14.03.2020
1154 Clouds 5 1022 86 10000 2.1 260 20:59 14.03.2020
1155 Rain 4 1022 80 10000 1 210 20:40 14.03.2020
1156 Clouds 4 1022 80 10000 1 0 20:19 14.03.2020
1157 Clouds 4 1022 80 10000 1 0 19:56 14.03.2020
1158 Clouds 3 1022 80 10000 2.1 90 19:38 14.03.2020
1159 Rain 4 1021 80 10000 3.1 60 19:19 14.03.2020
1160 Rain 4 1021 75 10000 3.6 60 18:37 14.03.2020
1161 Rain 4 1020 75 10000 2.6 50 18:19 14.03.2020
1162 Rain 5 1020 65 10000 2.6 360 17:39 14.03.2020
1163 Rain 5 1019 93 10000 4.6 250 17:20 14.03.2020
1164 Clouds 6 1019 93 10000 5.7 240 16:41 14.03.2020
1165 Clouds 7 1018 49 10000 4.1 270 16:23 14.03.2020
1166 Clouds 7 1018 49 10000 4.1 270 16:23 14.03.2020
1167 Clouds 7 1018 49 10000 4.1 270 15:59 14.03.2020
1168 Clouds 8 1018 49 10000 4.6 290 15:27 14.03.2020
1169 Clouds 9 1018 43 10000 2.6 240 14:59 14.03.2020
1170 Clouds 10 1018 93 10000 2.1 150 14:37 14.03.2020
1171 Clouds 9 1018 46 10000 1.5 0 14:19 14.03.2020
1172 Clouds 9 1018 45 10000 2.1 120 13:44 14.03.2020
1173 Clouds 8 1019 46 10000 3.1 90 13:24 14.03.2020
1174 Clouds 9 1019 46 10000 3.1 90 12:58 14.03.2020
1175 Clouds 9 1019 49 10000 3.1 60 12:38 14.03.2020
1176 Clouds 8 1019 52 10000 2.6 100 12:20 14.03.2020
1177 Clouds 6 1019 52 10000 2.1 0 11:42 14.03.2020
1178 Clouds 5 1020 60 10000 1 0 11:24 14.03.2020
1179 Clouds 5 1020 68 10000 1 0 10:47 14.03.2020
1180 Clouds 3 1020 68 10000 1 0 10:28 14.03.2020
1181 Clouds 2 1020 68 10000 1 0 09:59 14.03.2020
1182 Clouds 2 1021 80 10000 0.5 0 09:40 14.03.2020
1183 Clouds 1 1021 80 10000 0.5 0 09:20 14.03.2020
1184 Clouds 1 1021 86 10000 2.6 280 08:46 14.03.2020
1185 Clouds 0 1021 86 10000 1 0 08:26 14.03.2020
1186 Clouds 0 1021 86 10000 1 60 07:40 14.03.2020
1187 Clouds 0 1021 93 10000 0.5 0 07:21 14.03.2020
1188 Clouds 0 1021 93 10000 1.5 250 06:45 14.03.2020
1189 Clouds 0 1021 93 10000 2.1 270 06:26 14.03.2020
1190 Clouds 0 1021 96 10000 0.5 0 04:53 14.03.2020
1191 Clouds 0 1021 96 10000 0.5 0 03:34 14.03.2020
1192 Clouds 0 1021 86 10000 1 0 02:43 14.03.2020
1193 Clouds 0 1021 80 10000 1.5 140 01:42 14.03.2020
1194 Clouds 1 1021 80 10000 0.5 0 00:23 14.03.2020
1195 Clouds 1 1021 80 10000 0.5 0 23:42 13.03.2020
1196 Clouds 1 1021 80 10000 0.5 0 23:22 13.03.2020
1197 Clouds 1 1021 92 10000 0.5 0 22:41 13.03.2020
1198 Clouds 0 1021 92 10000 0.5 0 22:21 13.03.2020
1199 Clouds 1 1021 92 10000 0.5 0 21:40 13.03.2020
1200 Clouds 2 1020 92 10000 0.5 0 21:18 13.03.2020
1201 Clouds 2 1020 92 10000 1 0 20:42 13.03.2020
1202 Clouds 4 1020 94 10000 1.5 250 20:22 13.03.2020
1203 Clouds 3 1020 95 10000 1.5 250 19:55 13.03.2020
1204 Clouds 4 1020 95 10000 1.5 180 19:36 13.03.2020
1205 Clouds 5 1019 95 10000 3.6 110 19:18 13.03.2020
1206 Clouds 6 1019 95 10000 3.1 90 18:39 13.03.2020
1207 Clouds 6 1019 95 10000 5.7 80 18:21 13.03.2020
1208 Clouds 8 1018 95 10000 4.1 80 17:42 13.03.2020
1209 Clouds 9 1018 53 10000 4.6 90 17:21 13.03.2020
1210 Clouds 9 1018 53 10000 4.6 70 16:56 13.03.2020
1211 Clouds 9 1018 53 10000 4.6 70 16:38 13.03.2020
1212 Clouds 9 1018 53 10000 5.7 70 16:19 13.03.2020
1213 Clouds 10 1018 50 10000 3.1 90 15:42 13.03.2020
1214 Clouds 9 1018 53 10000 3.6 80 15:21 13.03.2020
1215 Clouds 9 1018 53 10000 3.6 80 14:55 13.03.2020
1216 Clouds 9 1019 57 10000 3.1 110 14:36 13.03.2020
1217 Clouds 10 1019 57 10000 3.6 110 14:18 13.03.2020
1218 Clouds 9 1019 57 10000 3.1 90 13:42 13.03.2020
1219 Clouds 9 1019 66 10000 0.5 0 13:21 13.03.2020
1220 Clouds 7 1019 70 10000 1 0 12:57 13.03.2020
1221 Clouds 7 1019 70 10000 1 0 12:38 13.03.2020
1222 Clouds 7 1019 70 10000 1 0 12:19 13.03.2020
1223 Clouds 6 1019 75 10000 0.5 0 11:46 13.03.2020
1224 Clouds 6 1019 75 10000 1.5 330 11:26 13.03.2020
1225 Clouds 6 1019 81 10000 1 0 10:59 13.03.2020
1226 Clouds 6 1019 81 10000 1 0 10:41 13.03.2020
1227 Rain 6 1019 81 10000 1.5 330 10:23 13.03.2020
1228 Rain 5 1019 75 10000 0.5 0 09:45 13.03.2020
1229 Rain 6 1019 75 10000 0.5 0 09:26 13.03.2020
1230 Rain 5 1018 81 10000 1.5 60 08:56 13.03.2020
1231 Rain 5 1018 81 10000 1.5 60 08:37 13.03.2020
1232 Rain 5 1018 87 10000 2.6 80 08:18 13.03.2020
1233 Rain 4 1018 87 10000 2.6 80 07:43 13.03.2020
1234 Rain 5 1017 81 10000 2.6 70 07:22 13.03.2020
1235 Rain 5 1017 81 10000 3.1 80 06:46 13.03.2020
1236 Rain 6 1016 81 10000 3.1 70 06:20 13.03.2020
1237 Drizzle 6 1016 76 10000 1.5 0 05:43 13.03.2020
1238 Rain 6 1015 87 10000 1 0 04:39 13.03.2020
1239 Clouds 7 1015 87 10000 1.5 270 03:51 13.03.2020
1240 Drizzle 8 1015 87 10000 1.5 280 02:29 13.03.2020
1241 Clouds 8 1015 87 10000 1.5 260 01:20 13.03.2020
1242 Clouds 8 1015 87 10000 1.5 260 00:59 13.03.2020
1243 Clouds 9 1014 81 10000 1 0 00:39 13.03.2020
1244 Clouds 8 1014 81 10000 1 0 00:18 13.03.2020
1245 Clouds 8 1014 81 10000 0.5 0 23:38 12.03.2020
1246 Clouds 8 1015 81 10000 0.5 0 23:19 12.03.2020
1247 Clouds 9 1014 76 10000 1 0 22:44 12.03.2020
1248 Clouds 9 1014 76 10000 1 0 22:44 12.03.2020
1249 Clouds 9 1014 76 10000 1 0 22:25 12.03.2020
1250 Clouds 9 1014 76 10000 0.5 0 21:55 12.03.2020
1251 Clouds 9 1014 76 10000 0.5 0 21:37 12.03.2020
1252 Clouds 9 1014 76 10000 0.5 0 21:18 12.03.2020
1253 Clouds 10 1014 71 10000 0.5 0 20:42 12.03.2020
1254 Clouds 12 1013 66 10000 1 0 20:20 12.03.2020
1255 Clouds 12 1013 66 10000 1 0 19:42 12.03.2020
1256 Clouds 12 1013 62 10000 1 0 19:21 12.03.2020
1257 Clouds 12 1013 62 10000 1 0 18:58 12.03.2020
1258 Clouds 14 1012 58 10000 0.5 0 18:39 12.03.2020
1259 Clouds 15 1012 48 10000 1.5 90 18:21 12.03.2020
1260 Clouds 16 1011 42 10000 3.6 70 17:41 12.03.2020
1261 Clouds 16 1011 37 10000 2.6 70 17:22 12.03.2020
1262 Clouds 17 1011 37 10000 2.1 110 16:58 12.03.2020
1263 Clouds 17 1011 37 10000 2.1 110 16:40 12.03.2020
1264 Clouds 17 1012 37 10000 2.1 90 16:21 12.03.2020
1265 Clouds 17 1012 42 10000 2.6 70 15:48 12.03.2020
1266 Clouds 17 1012 42 10000 2.6 70 15:28 12.03.2020
1267 Clouds 17 1013 39 10000 3.1 100 15:28 12.03.2020
1268 Clouds 17 1013 45 10000 3.1 90 14:55 12.03.2020
1269 Clouds 17 1013 45 10000 3.1 90 14:37 12.03.2020
1270 Clouds 17 1014 45 10000 1.5 110 14:18 12.03.2020
1271 Clouds 16 1015 41 10000 1.5 0 13:38 12.03.2020
1272 Clouds 15 1015 47 10000 1.5 0 13:20 12.03.2020
1273 Clouds 14 1016 47 10000 2.1 60 12:43 12.03.2020
1274 Clouds 14 1016 47 10000 1 0 12:24 12.03.2020
1275 Clouds 12 1016 54 10000 0.5 0 11:59 12.03.2020
1276 Clouds 13 1016 54 10000 0.5 0 11:59 12.03.2020
1277 Clouds 12 1016 54 10000 0.5 0 11:39 12.03.2020
1278 Clouds 12 1017 61 10000 1 0 11:21 12.03.2020
1279 Clouds 11 1017 61 10000 1 0 11:21 12.03.2020
1280 Clouds 10 1017 61 10000 1 0 10:59 12.03.2020
1281 Clouds 10 1017 61 10000 0.5 0 10:41 12.03.2020
1282 Clouds 9 1018 70 10000 1.5 250 10:23 12.03.2020
1283 Clouds 7 1018 81 10000 1 0 09:49 12.03.2020
1284 Clouds 7 1018 81 10000 1 0 09:29 12.03.2020
1285 Clouds 6 1019 86 10000 1 0 08:55 12.03.2020
1286 Clouds 5 1018 93 10000 0.5 0 08:37 12.03.2020
1287 Clouds 2 1018 70 10000 0.5 0 08:18 12.03.2020
1288 Clouds 3 1018 70 10000 0.5 0 07:47 12.03.2020
1289 Clouds 2 1018 70 10000 0.5 0 07:21 12.03.2020
1290 Clouds 2 1018 70 10000 1 0 06:18 12.03.2020
1291 Clouds 2 1018 70 10000 0.5 0 05:33 12.03.2020
1292 Clear 3 1018 93 10000 0.5 0 03:34 12.03.2020
1293 Clouds 4 1019 93 10000 1 0 01:57 12.03.2020
1294 Clouds 4 1020 100 10000 0.5 0 01:21 12.03.2020
1295 Clouds 4 1020 93 10000 1 0 00:42 12.03.2020
1296 Clouds 5 1020 93 10000 1 250 23:57 11.03.2020
1297 Clouds 6 1020 86 10000 0.5 0 23:28 11.03.2020
1298 Clouds 6 1020 87 10000 1 250 22:59 11.03.2020
1299 Clouds 7 1020 87 10000 1 250 22:39 11.03.2020
1300 Clouds 7 1020 87 10000 0.5 0 22:21 11.03.2020
1301 Clouds 6 1020 81 10000 0.5 0 21:57 11.03.2020
1302 Clouds 6 1020 81 10000 0.5 0 21:37 11.03.2020
1303 Clouds 6 1020 81 10000 0.5 0 21:37 11.03.2020
1304 Clouds 7 1020 81 10000 1.5 260 21:19 11.03.2020
1305 Clouds 7 1020 81 10000 1.5 260 20:56 11.03.2020
1306 Clouds 8 1020 81 10000 1 250 20:36 11.03.2020
1307 Clouds 9 1019 76 10000 1.5 0 20:18 11.03.2020
1308 Rain 9 1019 76 10000 0.5 0 19:42 11.03.2020
1309 Rain 10 1019 76 10000 0.5 0 19:24 11.03.2020
1310 Rain 13 1018 66 10000 1.5 180 18:56 11.03.2020
1311 Rain 13 1018 66 10000 1.5 180 18:37 11.03.2020
1312 Clouds 15 1018 58 10000 3.6 70 18:18 11.03.2020
1313 Clouds 16 1018 59 10000 3.1 90 17:54 11.03.2020
1314 Clouds 16 1017 55 10000 4.1 70 17:36 11.03.2020
1315 Clouds 16 1017 55 10000 4.1 70 17:18 11.03.2020
1316 Clouds 17 1017 52 10000 3.6 90 16:41 11.03.2020
1317 Clouds 16 1017 55 10000 3.6 70 16:19 11.03.2020
1318 Clouds 17 1017 55 10000 3.6 70 15:43 11.03.2020
1319 Clouds 16 1017 59 10000 3.6 80 15:23 11.03.2020
1320 Clouds 16 1017 59 10000 3.6 80 15:23 11.03.2020
1321 Clouds 16 1018 59 10000 4.1 60 14:46 11.03.2020
1322 Clouds 15 1018 59 10000 4.1 60 14:24 11.03.2020
1323 Clouds 14 1018 62 10000 3.6 70 13:59 11.03.2020
1324 Clouds 13 1018 62 10000 3.6 80 13:40 11.03.2020
1325 Clouds 12 1018 67 10000 4.1 70 13:22 11.03.2020
1326 Clouds 12 1018 67 10000 4.1 70 12:56 11.03.2020
1327 Clouds 12 1019 66 10000 2.6 90 12:37 11.03.2020
1328 Clouds 11 1019 71 10000 2.6 90 12:18 11.03.2020
1329 Clouds 10 1019 76 10000 2.6 80 11:40 11.03.2020
1330 Clouds 9 1019 76 10000 2.6 100 11:20 11.03.2020
1331 Clouds 8 1019 81 10000 2.1 60 10:47 11.03.2020
1332 Clouds 8 1019 81 10000 1.5 110 10:21 11.03.2020
1333 Clouds 7 1019 81 10000 1.5 110 09:59 11.03.2020
1334 Clouds 6 1019 87 10000 1.5 100 09:40 11.03.2020
1335 Clouds 6 1019 100 10000 1 0 09:21 11.03.2020
1336 Clouds 5 1019 100 10000 0.5 0 08:43 11.03.2020
1337 Clouds 4 1019 100 10000 0.5 0 08:24 11.03.2020
1338 Clouds 4 1019 93 8000 0.5 0 07:47 11.03.2020
1339 Clouds 4 1019 100 8000 0.5 0 07:20 11.03.2020
1340 Clouds 4 1019 100 8000 1.5 270 06:50 11.03.2020
1341 Clouds 4 1019 100 8000 1.5 270 06:31 11.03.2020
1342 Mist 4 1018 93 5000 1 0 05:32 11.03.2020
1343 Clouds 3 1018 100 8000 1 250 03:26 11.03.2020
1344 Clouds 3 1018 100 8000 1 250 03:26 11.03.2020
1345 Clouds 3 1019 100 10000 1 0 01:53 11.03.2020
1346 Rain 3 1019 100 10000 1 0 01:23 11.03.2020
1347 Rain 3 1019 100 10000 2.1 250 00:37 11.03.2020
1348 Rain 3 1019 100 10000 2.6 240 23:50 10.03.2020
1349 Rain 3 1019 93 10000 2.6 260 23:28 10.03.2020
1350 Rain 3 1019 100 10000 2.6 280 22:58 10.03.2020
1351 Rain 3 1019 100 10000 2.6 280 22:37 10.03.2020
1352 Rain 3 1019 93 10000 2.1 230 22:19 10.03.2020
1353 Rain 3 1019 93 10000 2.1 230 21:56 10.03.2020
1354 Rain 3 1019 93 8000 2.1 240 21:38 10.03.2020
1355 Rain 3 1019 93 10000 1.5 240 21:19 10.03.2020
1356 Rain 3 1019 93 6000 1 0 20:43 10.03.2020
1357 Rain 3 1019 93 8000 1.5 270 20:20 10.03.2020
1358 Rain 2 1019 93 8000 1.5 270 19:59 10.03.2020
1359 Rain 3 1018 100 10000 2.6 270 19:40 10.03.2020
1360 Rain 3 1018 100 10000 2.6 260 19:22 10.03.2020
1361 Rain 2 1018 100 10000 2.6 260 18:56 10.03.2020
1362 Rain 2 1018 100 10000 3.6 270 18:37 10.03.2020
1363 Rain 2 1018 93 10000 4.1 260 18:19 10.03.2020
1364 Rain 2 1017 93 10000 3.6 270 17:55 10.03.2020
1365 Snow 2 1017 100 10000 4.1 280 17:37 10.03.2020
1366 Rain 2 1017 100 10000 4.1 280 17:18 10.03.2020
1367 Rain 3 1017 93 10000 4.6 270 16:37 10.03.2020
1368 Rain 3 1017 93 10000 4.1 270 16:18 10.03.2020
1369 Rain 3 1017 93 10000 4.1 270 16:18 10.03.2020
1370 Rain 2 1017 93 10000 4.1 280 15:42 10.03.2020
1371 Rain 2 1017 93 10000 3.6 270 15:20 10.03.2020
1372 Rain 3 1017 93 10000 3.6 270 14:59 10.03.2020
1373 Rain 3 1017 93 10000 4.6 260 14:40 10.03.2020
1374 Rain 3 1018 86 10000 4.1 270 14:19 10.03.2020
1375 Rain 3 1018 86 10000 4.6 270 13:44 10.03.2020
1376 Rain 3 1018 86 10000 3.6 250 13:26 10.03.2020
1377 Rain 3 1018 86 10000 3.6 250 12:56 10.03.2020
1378 Rain 3 1018 80 10000 4.6 260 12:37 10.03.2020
1379 Rain 3 1019 90 10000 4.1 250 12:18 10.03.2020
1380 Rain 4 1018 65 10000 3.6 250 11:42 10.03.2020
1381 Rain 4 1018 65 10000 5.1 250 11:24 10.03.2020
1382 Clouds 4 1018 80 10000 4.1 280 10:57 10.03.2020
1383 Clouds 4 1018 80 10000 4.1 280 10:57 10.03.2020
1384 Clouds 4 1018 80 10000 4.1 280 10:39 10.03.2020
1385 Clouds 3 1018 86 10000 3.6 280 10:19 10.03.2020
1386 Clouds 3 1018 83 10000 3.6 260 09:45 10.03.2020
1387 Clouds 3 1018 83 10000 4.1 280 09:20 10.03.2020
1388 Clouds 2 1018 83 10000 4.1 280 08:58 10.03.2020
1389 Clouds 2 1018 83 10000 2.1 250 08:40 10.03.2020
1390 Clouds 1 1018 89 10000 1.5 280 08:20 10.03.2020
1391 Clouds 1 1018 90 10000 1 0 07:42 10.03.2020
1392 Clouds 1 1019 86 10000 1.5 310 07:23 10.03.2020
1393 Clouds 0 1019 90 10000 2.1 270 06:38 10.03.2020
1394 Clouds 0 1019 90 10000 1.5 250 05:55 10.03.2020
1395 Clouds 0 1019 90 10000 1.5 250 05:36 10.03.2020
1396 Clouds 0 1019 86 10000 1 0 04:33 10.03.2020
1397 Clouds 1 1019 86 10000 2.6 260 03:19 10.03.2020
1398 Clouds 2 1019 86 10000 1 0 01:43 10.03.2020
1399 Clouds 3 1019 86 10000 1 340 00:52 10.03.2020
1400 Clouds 4 1019 86 10000 1 0 00:29 10.03.2020
1401 Clouds 4 1019 86 10000 2.1 250 23:55 09.03.2020
1402 Clouds 3 1019 93 10000 1 270 23:36 09.03.2020
1403 Clouds 3 1019 93 10000 1 270 23:18 09.03.2020
1404 Clouds 3 1019 86 10000 0.5 0 22:38 09.03.2020
1405 Clouds 3 1019 86 10000 0.5 0 22:20 09.03.2020
1406 Clouds 3 1019 86 10000 0.5 0 21:45 09.03.2020
1407 Clouds 3 1019 86 10000 0.5 0 21:22 09.03.2020
1408 Clouds 3 1019 86 10000 0.5 0 21:22 09.03.2020
1409 Clouds 3 1019 86 10000 0.5 0 20:59 09.03.2020
1410 Clouds 5 1018 80 10000 1 0 20:41 09.03.2020
1411 Clouds 5 1018 80 10000 1 0 20:22 09.03.2020
1412 Clouds 5 1018 75 10000 1 0 19:59 09.03.2020
1413 Clouds 5 1018 75 10000 1 0 19:41 09.03.2020
1414 Clouds 5 1017 75 10000 2.6 80 19:19 09.03.2020
1415 Clouds 6 1017 70 10000 1.5 90 18:56 09.03.2020
1416 Clouds 6 1017 70 10000 1.5 90 18:56 09.03.2020
1417 Clouds 7 1017 70 10000 1.5 90 18:38 09.03.2020
1418 Clouds 7 1016 70 10000 2.6 70 18:18 09.03.2020
1419 Clouds 7 1016 70 10000 2.1 60 17:55 09.03.2020
1420 Clouds 7 1016 70 10000 2.1 60 17:37 09.03.2020
1421 Clouds 6 1015 70 10000 2.1 20 17:19 09.03.2020
1422 Clouds 6 1015 70 10000 1.5 60 16:56 09.03.2020
1423 Clouds 6 1015 70 10000 1.5 60 16:37 09.03.2020
1424 Clouds 6 1015 70 10000 2.1 100 16:19 09.03.2020
1425 Clouds 6 1015 70 10000 2.1 100 15:55 09.03.2020
1426 Clouds 6 1015 70 10000 0.5 0 15:37 09.03.2020
1427 Clouds 6 1015 70 10000 0.5 0 15:18 09.03.2020
1428 Rain 5 1015 70 10000 1 0 14:39 09.03.2020
1429 Rain 5 1015 70 10000 1 0 14:20 09.03.2020
1430 Clouds 5 1015 70 10000 2.1 100 13:58 09.03.2020
1431 Clouds 5 1015 70 10000 2.1 100 13:39 09.03.2020
1432 Rain 5 1015 70 10000 0.5 0 13:20 09.03.2020
1433 Rain 5 1015 75 10000 2.1 360 12:58 09.03.2020
1434 Rain 5 1015 75 10000 2.1 360 12:39 09.03.2020
1435 Rain 5 1015 91 10000 1 0 12:18 09.03.2020
1436 Clouds 5 1015 64 10000 2.1 250 11:40 09.03.2020
1437 Clouds 4 1015 64 10000 2.1 250 11:20 09.03.2020
1438 Clouds 4 1014 64 10000 1.5 270 10:57 09.03.2020
1439 Clouds 4 1014 69 10000 0.5 0 10:39 09.03.2020
1440 Clouds 4 1014 69 10000 0.5 0 10:18 09.03.2020
1441 Clouds 3 1014 74 10000 1 0 09:42 09.03.2020
1442 Clouds 3 1014 74 10000 1 240 09:24 09.03.2020
1443 Clouds 2 1014 80 10000 1 270 08:47 09.03.2020
1444 Clouds 2 1014 80 10000 2.6 270 08:28 09.03.2020
1445 Clouds 1 1013 80 10000 1 0 07:57 09.03.2020
1446 Clouds 0 1013 73 10000 1 0 07:37 09.03.2020
1447 Clouds 0 1013 73 10000 1 0 07:18 09.03.2020
1448 Clouds 0 1013 73 10000 0.5 0 06:39 09.03.2020
1449 Clouds 1 1013 73 10000 0.5 0 06:21 09.03.2020
1450 Clouds 1 1013 73 10000 1 0 05:42 09.03.2020
1451 Clouds 1 1014 80 10000 1 0 04:57 09.03.2020
1452 Clouds 1 1014 80 10000 1 0 04:39 09.03.2020
1453 Clouds 1 1013 80 10000 1 250 04:19 09.03.2020
1454 Clouds 2 1014 74 10000 0.5 0 02:51 09.03.2020
1455 Clouds 1 1014 69 10000 0.5 0 00:42 09.03.2020
1456 Clouds 1 1014 69 10000 1 260 00:24 09.03.2020
1457 Clouds 1 1015 69 10000 1.5 240 23:58 08.03.2020
1458 Clouds 1 1015 69 10000 1.5 240 23:58 08.03.2020
1459 Clouds 2 1015 64 10000 2.1 240 23:30 08.03.2020
1460 Clouds 2 1015 64 10000 1 0 22:59 08.03.2020
1461 Clouds 2 1015 64 10000 1 0 22:40 08.03.2020
1462 Clouds 2 1016 64 10000 1.5 260 22:22 08.03.2020
1463 Clouds 2 1016 64 10000 1 0 21:59 08.03.2020
1464 Clouds 3 1016 64 10000 2.1 280 21:40 08.03.2020
1465 Clouds 3 1016 64 10000 2.1 280 21:20 08.03.2020
1466 Clouds 3 1016 60 10000 1 0 20:56 08.03.2020
1467 Clouds 3 1016 60 10000 0.5 0 20:37 08.03.2020
1468 Clouds 4 1016 60 10000 0.5 0 20:19 08.03.2020
1469 Clouds 4 1016 60 10000 1 0 19:40 08.03.2020
1470 Clouds 4 1016 56 10000 1.5 290 19:19 08.03.2020
1471 Clouds 5 1016 56 10000 0.5 0 18:55 08.03.2020
1472 Clouds 6 1016 45 10000 1 0 18:37 08.03.2020
1473 Clouds 7 1016 45 10000 1 0 18:18 08.03.2020
1474 Clouds 10 1016 37 10000 2.1 80 17:39 08.03.2020
1475 Clouds 10 1016 37 10000 2.1 80 17:20 08.03.2020
1476 Clouds 10 1016 37 10000 2.1 80 16:57 08.03.2020
1477 Clouds 10 1016 37 10000 2.1 80 16:39 08.03.2020
1478 Clouds 10 1016 37 10000 2.1 80 16:20 08.03.2020
1479 Clouds 11 1018 34 10000 1 0 15:41 08.03.2020
1480 Clouds 10 1018 34 10000 1 0 15:21 08.03.2020
1481 Clouds 10 1018 34 10000 1 0 14:56 08.03.2020
1482 Clouds 9 1018 39 10000 1.5 0 14:37 08.03.2020
1483 Clouds 10 1018 39 10000 1.5 0 14:19 08.03.2020
1484 Clouds 10 1018 39 10000 1.5 0 14:19 08.03.2020
1485 Clouds 9 1019 36 10000 1 0 13:41 08.03.2020
1486 Clouds 8 1019 36 10000 1 0 13:20 08.03.2020
1487 Clouds 8 1020 45 10000 1 0 12:46 08.03.2020
1488 Clouds 7 1021 45 10000 1 0 12:28 08.03.2020
1489 Clouds 6 1021 52 10000 1 0 11:58 08.03.2020
1490 Clouds 6 1021 52 10000 1 0 11:58 08.03.2020
1491 Clouds 6 1021 52 10000 1 0 11:58 08.03.2020
1492 Clouds 6 1022 60 10000 0.5 0 11:40 08.03.2020
1493 Clouds 5 1022 60 10000 0.5 0 11:21 08.03.2020
1494 Clouds 4 1023 69 10000 1 0 10:42 08.03.2020
1495 Clouds 3 1023 69 10000 1 0 10:24 08.03.2020
1496 Clouds 2 1023 69 10000 1 0 09:59 08.03.2020
1497 Clouds 3 1023 74 10000 2.1 270 09:37 08.03.2020
1498 Clouds 1 1023 74 10000 2.1 270 09:19 08.03.2020
1499 Clouds 0 1023 80 10000 1 0 08:42 08.03.2020
1500 Clouds -2 1023 85 10000 1.5 300 08:20 08.03.2020
1501 Clouds -2 1023 85 10000 1 0 07:45 08.03.2020
1502 Clouds -2 1023 85 10000 1.5 280 07:25 08.03.2020
1503 Clouds -2 1023 85 10000 1.5 280 07:25 08.03.2020
1504 Clouds -3 1023 85 10000 1.5 250 06:43 08.03.2020
1505 Clouds -2 1023 86 10000 2.1 250 06:23 08.03.2020
1506 Clouds -1 1023 85 10000 1 310 05:41 08.03.2020
1507 Clouds 0 1023 89 10000 1 250 03:52 08.03.2020
1508 Clouds 1 1023 89 10000 1 0 02:38 08.03.2020
1509 Clouds 1 1023 92 10000 0.5 0 01:34 08.03.2020
1510 Clouds 2 1024 95 10000 0.5 0 00:55 08.03.2020
1511 Clouds 2 1024 95 10000 0.5 0 00:28 08.03.2020
1512 Drizzle 2 1024 95 10000 1.5 40 23:47 07.03.2020
1513 Snow 3 1024 86 10000 2.1 20 23:24 07.03.2020
1514 Snow 2 1024 86 10000 2.1 20 22:55 07.03.2020
1515 Snow 1 1023 98 10000 1.5 80 22:36 07.03.2020
1516 Snow 2 1023 98 10000 1.5 80 22:18 07.03.2020
1517 Rain 2 1023 98 10000 3.1 60 21:43 07.03.2020
1518 Clouds 2 1022 98 10000 3.1 60 21:19 07.03.2020
1519 Clouds 2 1022 69 10000 2.6 80 20:40 07.03.2020
1520 Clouds 2 1021 69 10000 3.1 70 20:20 07.03.2020
1521 Clouds 3 1021 98 10000 2.6 70 19:41 07.03.2020
1522 Clouds 2 1021 98 10000 3.6 70 19:22 07.03.2020
1523 Clouds 2 1020 65 10000 2.6 80 18:58 07.03.2020
1524 Clouds 4 1020 65 10000 4.1 110 18:39 07.03.2020
1525 Snow 2 1032 71 0 0.84 292 18:20 07.03.2020
1526 Clouds 3 1019 65 10000 5.7 60 17:41 07.03.2020
1527 Snow 3 1031 59 0 1.9 326 17:19 07.03.2020
1528 Snow 3 1030 60 0 1.9 326 16:56 07.03.2020
1529 Snow 3 1030 60 0 0.89 338 16:38 07.03.2020
1530 Snow 3 1030 57 0 0.89 347 16:19 07.03.2020
1531 Snow 3 1029 56 0 0.45 19 15:42 07.03.2020
1532 Rain 4 1017 48 10000 2.6 210 15:22 07.03.2020
1533 Rain 4 1017 52 10000 1.5 350 14:59 07.03.2020
1534 Snow 3 1029 57 0 0.89 353 14:41 07.03.2020
1535 Snow 3 1028 60 0 1.79 315 14:23 07.03.2020
1536 Snow 3 1028 64 0 1.34 40 13:43 07.03.2020
1537 Snow 3 1028 56 0 1.79 316 13:22 07.03.2020
1538 Snow 3 1028 53 0 1.79 299 12:59 07.03.2020
1539 Snow 3 1028 57 0 0.45 4 12:38 07.03.2020
1540 Snow 2 1018 85 0 1.34 32 12:19 07.03.2020
1541 Clouds 3 1016 70 10000 2.6 60 11:44 07.03.2020
1542 Snow 2 1028 69 0 0.45 315 11:24 07.03.2020
1543 Clouds 2 1016 86 10000 3.6 60 10:59 07.03.2020
1544 Snow 2 1027 76 0 2.01 303 10:38 07.03.2020
1545 Clouds 3 1016 86 10000 3.1 60 10:19 07.03.2020
1546 Rain 2 1015 93 10000 3.6 70 09:41 07.03.2020
1547 Rain 2 1015 93 10000 3.6 60 09:20 07.03.2020
1548 Rain 2 1014 93 10000 3.1 70 08:58 07.03.2020
1549 Rain 2 1014 93 10000 3.1 70 08:40 07.03.2020
1550 Rain 3 1014 93 10000 2.6 50 08:20 07.03.2020
1551 Rain 3 1014 93 10000 2.6 50 08:20 07.03.2020
1552 Rain 3 1013 93 10000 2.1 80 07:47 07.03.2020
1553 Rain 2 1012 93 10000 1.5 60 07:21 07.03.2020
1554 Snow 2 1013 93 0 1.1 308 06:43 07.03.2020
1555 Snow 1 1013 93 0 1.1 308 06:25 07.03.2020
1556 Rain 4 1010 80 10000 2.6 60 05:41 07.03.2020
1557 Rain 4 1010 80 10000 2.1 50 03:57 07.03.2020
1558 Drizzle 4 1009 75 10000 2.1 100 02:45 07.03.2020
1559 Clouds 4 1008 98 10000 2.1 70 02:18 07.03.2020
1560 Clouds 4 1008 98 10000 2.6 80 01:19 07.03.2020
1561 Clouds 5 1007 60 10000 2.1 90 00:28 07.03.2020
1562 Clouds 5 1007 60 10000 1.5 140 23:59 06.03.2020
1563 Clouds 5 1007 60 10000 1.5 140 23:40 06.03.2020
1564 Clouds 6 1006 52 10000 3.6 240 23:22 06.03.2020
1565 Clouds 6 1006 52 10000 5.7 250 22:46 06.03.2020
1566 Clouds 6 1005 52 10000 6.2 270 22:20 06.03.2020
1567 Clouds 7 1005 45 10000 4.6 250 21:49 06.03.2020
1568 Clouds 7 1004 45 10000 6.2 270 21:21 06.03.2020
1569 Clouds 7 1004 45 10000 7.7 260 20:46 06.03.2020
1570 Clouds 7 1003 45 10000 1.5 0 20:23 06.03.2020
1571 Clouds 7 1002 45 10000 1.5 280 19:59 06.03.2020
1572 Clouds 7 1002 42 10000 2.6 230 19:41 06.03.2020
1573 Clouds 7 1002 42 10000 2.6 230 19:22 06.03.2020
1574 Clouds 8 1001 39 10000 4.1 240 18:42 06.03.2020
1575 Clouds 8 1000 42 10000 3.6 240 18:21 06.03.2020
1576 Clouds 8 1000 42 10000 4.6 290 17:57 06.03.2020
1577 Clouds 8 1000 42 10000 4.6 290 17:57 06.03.2020
1578 Clouds 8 1000 42 10000 4.6 290 17:39 06.03.2020
1579 Clouds 8 999 39 10000 7.7 280 17:20 06.03.2020
1580 Clouds 9 998 34 10000 4.6 310 16:55 06.03.2020
1581 Clouds 9 998 34 10000 4.6 310 16:36 06.03.2020
1582 Clouds 10 998 34 10000 4.6 310 16:18 06.03.2020
1583 Clouds 10 997 32 10000 7.2 290 15:42 06.03.2020
1584 Clouds 10 997 32 10000 7.2 290 15:23 06.03.2020
1585 Clouds 10 997 34 10000 8.2 290 14:41 06.03.2020
1586 Clouds 10 996 32 10000 7.7 290 14:23 06.03.2020
1587 Clouds 10 996 32 10000 7.7 290 14:23 06.03.2020
1588 Clouds 10 996 32 10000 7.7 290 14:23 06.03.2020
1589 Clouds 10 996 32 10000 7.7 270 13:57 06.03.2020
1590 Clouds 10 996 34 10000 7.2 260 13:39 06.03.2020
1591 Clouds 11 996 34 10000 7.2 260 13:19 06.03.2020
1592 Clouds 10 996 50 10000 5.1 230 12:54 06.03.2020
1593 Clouds 10 996 50 10000 4.6 260 12:36 06.03.2020
1594 Clouds 10 996 50 10000 4.6 260 12:18 06.03.2020
1595 Clouds 9 996 57 10000 3.6 290 11:42 06.03.2020
1596 Clouds 9 996 57 10000 4.6 280 11:20 06.03.2020
1597 Clouds 8 996 65 10000 3.1 280 10:56 06.03.2020
1598 Clouds 7 996 70 10000 4.1 270 10:36 06.03.2020
1599 Clouds 7 996 70 10000 4.1 270 10:18 06.03.2020
1600 Clouds 7 996 70 10000 3.1 280 09:41 06.03.2020
1601 Clouds 6 996 80 10000 2.1 300 09:23 06.03.2020
1602 Clouds 5 996 80 10000 3.1 270 08:55 06.03.2020
1603 Rain 4 996 80 10000 4.6 270 08:36 06.03.2020
1604 Rain 4 996 80 10000 4.6 270 08:18 06.03.2020
1605 Clouds 4 996 93 10000 4.1 290 07:41 06.03.2020
1606 Clouds 4 996 93 10000 4.1 290 07:21 06.03.2020
1607 Clouds 4 995 86 10000 5.1 270 06:42 06.03.2020
1608 Clouds 4 995 86 10000 5.1 270 06:18 06.03.2020
1609 Rain 4 995 86 10000 4.6 250 05:37 06.03.2020
1610 Rain 4 995 86 10000 4.6 250 05:18 06.03.2020
1611 Clouds 3 995 93 10000 5.1 270 04:25 06.03.2020
1612 Clouds 3 995 93 10000 5.1 270 01:43 06.03.2020
1613 Clouds 3 996 93 10000 5.1 280 01:25 06.03.2020
1614 Clouds 4 996 86 10000 6.2 260 00:49 06.03.2020
1615 Drizzle 4 997 86 10000 6.2 270 00:30 06.03.2020
1616 Clouds 4 997 86 10000 6.7 270 23:43 05.03.2020
1617 Clouds 4 997 86 10000 5.7 270 23:24 05.03.2020
1618 Clouds 4 997 80 10000 5.7 250 22:55 05.03.2020
1619 Clouds 4 997 80 10000 6.2 260 22:36 05.03.2020
1620 Clouds 4 997 80 10000 6.2 260 22:18 05.03.2020
1621 Clouds 5 997 80 10000 4.6 250 21:54 05.03.2020
1622 Clouds 4 997 80 10000 3.6 250 21:36 05.03.2020
1623 Clouds 4 997 80 10000 3.6 250 21:36 05.03.2020
1624 Clouds 4 997 80 10000 3.6 250 21:18 05.03.2020
1625 Clouds 4 997 80 10000 3.6 260 20:42 05.03.2020
1626 Clouds 4 997 80 10000 3.6 260 20:42 05.03.2020
1627 Clouds 4 998 80 10000 5.1 260 20:21 05.03.2020
1628 Clouds 4 998 80 10000 4.1 260 19:59 05.03.2020
1629 Clouds 4 998 80 10000 4.1 260 19:39 05.03.2020
1630 Clouds 4 998 86 10000 3.6 250 19:21 05.03.2020
1631 Clouds 4 998 80 10000 4.6 270 18:58 05.03.2020
1632 Clouds 4 998 80 10000 4.6 270 18:58 05.03.2020
1633 Clouds 4 998 80 10000 4.6 270 18:37 05.03.2020
1634 Clouds 5 999 86 10000 4.6 260 18:19 05.03.2020
1635 Clouds 5 999 86 10000 6.2 270 17:57 05.03.2020
1636 Clouds 5 999 86 10000 6.2 270 17:57 05.03.2020
1637 Clouds 4 1000 80 10000 7.2 260 17:39 05.03.2020
1638 Clouds 4 1000 80 10000 7.2 260 17:20 05.03.2020
1639 Clouds 4 1000 80 10000 7.2 260 16:41 05.03.2020
1640 Rain 4 1001 80 10000 8.2 270 16:23 05.03.2020
1641 Rain 4 1001 75 10000 9.3 260 15:57 05.03.2020
1642 Rain 4 1001 75 10000 9.3 260 15:37 05.03.2020
1643 Clouds 5 1001 56 10000 5.1 240 15:19 05.03.2020
1644 Clouds 6 1001 56 10000 5.7 260 14:41 05.03.2020
1645 Clouds 8 1002 49 10000 5.1 270 14:22 05.03.2020
1646 Clouds 7 1002 45 10000 4.1 260 13:58 05.03.2020
1647 Clouds 8 1003 49 10000 5.7 270 13:39 05.03.2020
1648 Clouds 8 1003 49 10000 5.7 270 13:20 05.03.2020
1649 Clouds 8 1003 45 10000 5.1 140 12:55 05.03.2020
1650 Clouds 7 1003 45 10000 5.7 150 12:36 05.03.2020
1651 Clouds 7 1003 45 10000 5.7 150 12:18 05.03.2020
1652 Clouds 6 1004 45 10000 4.1 0 11:55 05.03.2020
1653 Clouds 6 1005 52 10000 4.1 260 11:36 05.03.2020
1654 Clouds 6 1005 52 10000 4.1 260 11:18 05.03.2020
1655 Clouds 5 1005 56 10000 5.7 270 10:55 05.03.2020
1656 Clouds 4 1006 60 10000 6.2 270 10:37 05.03.2020
1657 Clouds 5 1006 60 10000 6.2 270 10:19 05.03.2020
1658 Clouds 3 1007 69 10000 4.1 260 09:40 05.03.2020
1659 Clouds 2 1007 69 10000 4.1 260 09:22 05.03.2020
1660 Clouds 1 1008 75 10000 1 0 08:43 05.03.2020
1661 Clouds 0 1008 85 10000 1 0 08:24 05.03.2020
1662 Clouds 0 1008 84 10000 1 0 07:45 05.03.2020
1663 Clouds 0 1008 84 10000 1 0 07:22 05.03.2020
1664 Clouds 0 1009 84 10000 1.5 350 06:46 05.03.2020
1665 Clouds -1 1009 84 10000 1 0 06:21 05.03.2020
1666 Clouds -1 1010 84 10000 1 0 05:39 05.03.2020
1667 Clouds -1 1010 80 10000 1.5 250 04:26 05.03.2020
1668 Clouds -1 1010 79 10000 1 0 03:59 05.03.2020
1669 Clouds -2 1011 80 10000 1.5 260 03:19 05.03.2020
1670 Clouds -2 1012 80 10000 1.5 230 01:29 05.03.2020
1671 Clouds -3 1012 86 10000 0.5 0 00:58 05.03.2020
1672 Clouds -2 1013 80 10000 1 0 00:23 05.03.2020
1673 Clouds -2 1013 80 10000 1 0 23:41 04.03.2020
1674 Clouds -1 1013 82 10000 0.5 0 23:22 04.03.2020
1675 Clouds -1 1013 88 10000 1 0 22:57 04.03.2020
1676 Clouds -1 1013 74 10000 1 0 22:38 04.03.2020
1677 Clouds 0 1013 74 10000 1 0 22:19 04.03.2020
1678 Clouds 1 1013 74 10000 0.5 0 21:57 04.03.2020
1679 Clouds 1 1013 69 10000 0.5 0 21:38 04.03.2020
1680 Clouds 0 1013 69 10000 0.5 0 21:19 04.03.2020
1681 Clouds 1 1013 74 10000 1 0 20:41 04.03.2020
1682 Clouds 1 1013 64 10000 0.5 0 20:23 04.03.2020
1683 Clouds 2 1013 59 10000 0.5 0 19:59 04.03.2020
1684 Clouds 2 1013 59 10000 0.5 0 19:41 04.03.2020
1685 Clouds 4 1013 55 10000 0.5 0 19:22 04.03.2020
1686 Clouds 4 1012 60 10000 1 0 18:42 04.03.2020
1687 Clouds 5 1012 52 10000 2.1 30 18:24 04.03.2020
1688 Clouds 7 1012 42 10000 2.6 90 17:59 04.03.2020
1689 Clouds 7 1012 42 10000 2.6 90 17:40 04.03.2020
1690 Clouds 5 1012 42 10000 3.1 80 17:20 04.03.2020
1691 Clouds 6 1012 42 10000 3.6 90 16:57 04.03.2020
1692 Clouds 6 1012 42 10000 3.6 90 16:38 04.03.2020
1693 Clouds 6 1012 42 10000 3.6 80 16:19 04.03.2020
1694 Clouds 7 1012 42 10000 2.6 40 15:46 04.03.2020
1695 Clouds 8 1012 36 10000 0.5 0 15:27 04.03.2020
1696 Clouds 8 1012 45 10000 2.1 130 14:59 04.03.2020
1697 Clouds 8 1012 45 10000 2.1 130 14:59 04.03.2020
1698 Clouds 6 1012 45 10000 2.1 130 14:41 04.03.2020
1699 Clouds 6 1012 45 10000 2.6 70 14:20 04.03.2020
1700 Clouds 6 1012 45 10000 3.1 60 13:58 04.03.2020
1701 Clouds 6 1012 45 10000 3.1 60 13:58 04.03.2020
1702 Clouds 5 1012 48 10000 3.1 100 13:39 04.03.2020
1703 Clouds 5 1012 48 10000 3.1 100 13:21 04.03.2020
1704 Clouds 5 1013 49 10000 1 0 12:56 04.03.2020
1705 Clouds 5 1013 49 10000 1 0 12:56 04.03.2020
1706 Rain 6 1013 49 10000 1 0 12:37 04.03.2020
1707 Rain 5 1013 52 10000 1 0 12:19 04.03.2020
1708 Clouds 4 1014 52 10000 0.5 0 11:42 04.03.2020
1709 Clouds 4 1014 60 10000 1.5 250 11:23 04.03.2020
1710 Clouds 3 1014 64 10000 1 0 10:59 04.03.2020
1711 Clouds 3 1014 64 10000 1 0 10:41 04.03.2020
1712 Clouds 3 1015 64 10000 1.5 0 10:22 04.03.2020
1713 Snow 2 1015 80 10000 0.5 0 09:44 04.03.2020
1714 Snow 2 1015 74 10000 0.5 0 09:21 04.03.2020
1715 Snow 2 1015 86 10000 1 160 08:56 04.03.2020
1716 Clouds 1 1015 86 10000 1 160 08:37 04.03.2020
1717 Clouds 0 1014 94 10000 0.5 0 08:19 04.03.2020
1718 Rain 0 1013 94 10000 1 0 07:39 04.03.2020
1719 Rain 0 1013 94 10000 1 0 07:20 04.03.2020
1720 Clouds 0 1013 94 10000 0.5 0 06:47 04.03.2020
1721 Clouds 0 1013 94 10000 0.5 0 06:47 04.03.2020
1722 Clouds 0 1013 94 10000 0.5 0 06:24 04.03.2020
1723 Clouds 0 1013 94 10000 1 150 05:54 04.03.2020
1724 Clouds -1 1012 81 10000 1 0 04:40 04.03.2020
1725 Clouds -1 1012 81 10000 2.6 250 03:46 04.03.2020
1726 Clouds -1 1011 81 10000 2.6 290 03:27 04.03.2020
1727 Clouds -1 1011 81 10000 1.5 270 02:58 04.03.2020
1728 Clouds -1 1011 82 10000 2.1 280 02:22 04.03.2020
1729 Clouds -1 1011 82 10000 2.6 280 01:56 04.03.2020
1730 Clouds 0 1010 86 10000 1.5 260 00:53 04.03.2020
1731 Clouds 0 1010 83 10000 1 0 00:27 04.03.2020
1732 Clouds 0 1009 86 10000 2.1 280 23:59 03.03.2020
1733 Clouds 0 1009 86 10000 2.1 280 23:40 03.03.2020
1734 Clouds 1 1009 83 10000 2.6 250 23:22 03.03.2020
1735 Clouds 1 1009 92 10000 4.1 280 22:41 03.03.2020
1736 Drizzle 1 1009 92 10000 5.7 260 22:20 03.03.2020
1737 Clouds 1 1008 92 10000 3.6 260 21:58 03.03.2020
1738 Clouds 1 1008 92 10000 3.6 260 21:40 03.03.2020
1739 Clouds 2 1008 74 10000 2.6 280 21:40 03.03.2020
1740 Clouds 2 1008 74 10000 2.6 280 21:20 03.03.2020
1741 Clouds 1 1007 74 10000 1 0 20:56 03.03.2020
1742 Clouds 1 1007 74 10000 1.5 100 20:38 03.03.2020
1743 Clouds 1 1007 74 10000 1.5 100 20:18 03.03.2020
1744 Clouds 2 1007 74 10000 3.1 0 19:55 03.03.2020
1745 Clouds 1 1006 94 10000 2.1 290 19:36 03.03.2020
1746 Clouds 1 1006 94 10000 2.1 290 19:18 03.03.2020
1747 Clouds 3 1005 96 10000 4.6 270 18:55 03.03.2020
1748 Clouds 3 1005 96 10000 4.6 270 18:37 03.03.2020
1749 Snow 4 1005 69 10000 4.1 290 18:18 03.03.2020
1750 Clouds 4 1004 69 10000 2.6 270 17:40 03.03.2020
1751 Clouds 3 1004 88 10000 3.1 270 17:21 03.03.2020
1752 Clouds 3 1003 88 10000 3.1 290 16:59 03.03.2020
1753 Rain 3 1003 88 10000 5.7 280 16:38 03.03.2020
1754 Rain 3 1003 88 10000 5.7 280 16:38 03.03.2020
1755 Rain 3 1003 88 10000 5.7 280 16:20 03.03.2020
1756 Clouds 4 1003 56 10000 4.6 70 15:57 03.03.2020
1757 Clouds 5 1003 52 10000 4.1 70 15:39 03.03.2020
1758 Clouds 4 1003 52 10000 4.1 70 15:20 03.03.2020
1759 Clouds 5 1003 52 10000 5.1 90 14:43 03.03.2020
1760 Clouds 4 1002 56 10000 4.6 90 14:20 03.03.2020
1761 Clouds 4 1002 60 10000 5.7 70 13:58 03.03.2020
1762 Clouds 4 1002 60 10000 5.7 70 13:40 03.03.2020
1763 -273 0 0 0 0 0 13:21 03.03.2020
1764 Clouds 4 1002 90 10000 5.1 80 13:21 03.03.2020
1765 Snow 3 1013 62 0 1.34 337 12:47 03.03.2020
1766 Snow 3 1013 62 0 0.89 21 12:27 03.03.2020
1767 Snow 3 1013 63 0 1.34 17 11:58 03.03.2020
1768 Snow 3 1013 65 0 2.04 348 11:38 03.03.2020
1769 Clouds 4 1002 95 10000 3.1 40 11:19 03.03.2020
1770 Clouds 3 1002 70 10000 4.1 90 10:56 03.03.2020
1771 Clouds 3 1002 86 10000 3.6 100 10:38 03.03.2020
1772 Clouds 3 1002 86 10000 3.6 100 10:19 03.03.2020
1773 Clouds 3 1002 80 10000 1.5 40 09:45 03.03.2020
1774 Clouds 3 1002 80 10000 1.5 40 09:23 03.03.2020
1775 Clouds 3 1001 86 10000 1 0 08:58 03.03.2020
1776 Clouds 3 1000 93 10000 0.5 0 08:39 03.03.2020
1777 Clouds 3 1000 93 10000 0.5 0 08:21 03.03.2020
1778 Rain 3 1000 93 10000 1 0 07:44 03.03.2020
1779 Rain 3 1000 93 10000 1.5 70 07:22 03.03.2020
1780 Drizzle 3 999 93 10000 3.1 60 06:49 03.03.2020
1781 Drizzle 4 998 93 10000 3.1 60 06:23 03.03.2020
1782 Rain 3 998 93 10000 2.6 60 05:47 03.03.2020
1783 Rain 4 997 86 10000 1.5 0 05:28 03.03.2020
1784 Rain 4 996 86 10000 3.1 280 04:30 03.03.2020
1785 Rain 4 994 81 10000 4.6 270 01:40 03.03.2020
1786 Rain 4 993 75 10000 5.7 250 00:49 03.03.2020
1787 Rain 5 992 75 10000 3.6 240 00:27 03.03.2020
1788 Rain 5 992 70 10000 3.1 290 23:59 02.03.2020
1789 Rain 6 992 70 10000 3.1 290 23:40 02.03.2020
1790 Clouds 6 991 65 10000 5.7 290 23:22 02.03.2020
1791 Clouds 6 991 70 10000 3.6 270 22:55 02.03.2020
1792 Clouds 6 991 70 10000 3.6 270 22:55 02.03.2020
1793 Clouds 7 990 57 10000 0.5 0 22:37 02.03.2020
1794 Clouds 8 990 57 10000 0.5 0 22:18 02.03.2020
1795 Clouds 8 990 57 10000 3.1 120 21:42 02.03.2020
1796 Clouds 9 990 53 10000 5.1 60 21:23 02.03.2020
1797 Clouds 8 989 57 10000 5.1 80 20:58 02.03.2020
1798 Clouds 8 989 57 10000 5.1 80 20:58 02.03.2020
1799 Clouds 8 989 57 10000 7.7 60 20:40 02.03.2020
1800 Rain 7 989 57 10000 7.7 60 20:20 02.03.2020
1801 Rain 7 989 89 10000 7.2 60 19:57 02.03.2020
1802 Rain 7 989 89 10000 7.2 60 19:38 02.03.2020
1803 Clouds 7 989 89 10000 7.7 40 19:20 02.03.2020
1804 Clouds 7 989 53 10000 5.1 70 18:54 02.03.2020
1805 Clouds 7 989 53 10000 5.7 120 18:36 02.03.2020
1806 Clouds 8 989 53 10000 5.7 120 18:18 02.03.2020
1807 Clouds 8 989 89 10000 4.1 80 17:54 02.03.2020
1808 Clouds 9 989 89 10000 5.1 90 17:36 02.03.2020
1809 Clouds 9 989 81 10000 5.1 90 17:18 02.03.2020
1810 Clouds 9 989 81 10000 8.7 130 16:39 02.03.2020
1811 Clouds 8 989 81 10000 8.7 130 16:20 02.03.2020
1812 Clouds 8 990 81 10000 8.7 120 15:44 02.03.2020
1813 Clouds 8 990 43 10000 8.7 100 15:21 02.03.2020
1814 Clouds 9 991 43 10000 8.7 100 14:57 02.03.2020
1815 Clouds 8 992 43 10000 7.7 100 14:37 02.03.2020
1816 Clouds 9 992 43 10000 7.7 100 14:19 02.03.2020
1817 Clouds 7 990 63 0 3.18 159 13:44 02.03.2020
1818 Clouds 8 993 37 10000 9.3 120 13:19 02.03.2020
1819 Clouds 7 1005 46 0 4.92 115 12:57 02.03.2020
1820 Clouds 7 1005 46 0 4.92 115 12:57 02.03.2020
1821 Clouds 8 994 37 10000 7.7 60 12:39 02.03.2020
1822 Clouds 7 995 80 10000 3.1 250 12:18 02.03.2020
1823 Clouds 7 996 80 10000 4.1 250 11:38 02.03.2020
1824 Clouds 6 996 73 10000 4.1 250 11:19 02.03.2020
1825 Clouds 5 997 80 10000 4.1 270 10:55 02.03.2020
1826 Clouds 5 998 80 10000 3.1 260 10:37 02.03.2020
1827 Clouds 5 998 80 10000 3.1 260 10:18 02.03.2020
1828 Rain 4 998 86 10000 3.1 270 09:47 02.03.2020
1829 Rain 3 999 93 10000 4.1 270 09:28 02.03.2020
1830 Clouds 2 1000 73 10000 3.1 260 08:48 02.03.2020
1831 Clouds 1 1000 74 10000 1.5 0 08:22 02.03.2020
1832 Clouds -1 999 88 10000 2.6 240 07:50 02.03.2020
1833 Clouds -1 999 92 10000 1 0 07:31 02.03.2020
1834 Clouds -1 1000 88 10000 0.5 0 06:50 02.03.2020
1835 Clouds -1 1000 88 10000 1 0 06:20 02.03.2020
1836 Clouds 0 1000 88 10000 1 0 05:23 02.03.2020
1837 Clouds 3 1000 80 10000 0.5 0 03:26 02.03.2020
1838 Clouds 4 1000 80 10000 1 0 02:55 02.03.2020
1839 Clouds 4 1000 86 10000 2.6 20 02:29 02.03.2020
1840 Rain 4 1000 75 10000 4.6 240 01:33 02.03.2020
1841 Drizzle 4 999 70 7000 13.4 270 00:48 02.03.2020
1842 Clouds 4 998 80 10000 2.1 250 00:22 02.03.2020
1843 Clouds 4 998 80 10000 3.6 300 23:41 01.03.2020
1844 Clouds 4 998 75 10000 1 0 23:21 01.03.2020
1845 Clouds 4 998 80 10000 2.6 270 22:44 01.03.2020
1846 Clouds 4 998 75 10000 1.5 230 22:21 01.03.2020
1847 Clouds 4 998 80 10000 3.1 280 21:58 01.03.2020
1848 Clouds 4 998 80 10000 3.1 280 21:39 01.03.2020
1849 Clouds 5 998 75 10000 4.1 260 21:20 01.03.2020
1850 Clouds 7 997 65 10000 1.5 250 20:45 01.03.2020
1851 Clouds 6 998 61 10000 2.1 160 20:26 01.03.2020
1852 Clouds 7 998 61 10000 2.1 70 19:59 01.03.2020
1853 Clouds 7 997 57 10000 2.6 130 19:41 01.03.2020
1854 Clouds 7 997 57 10000 2.6 130 19:21 01.03.2020
1855 Clouds 7 997 57 10000 2.6 130 19:21 01.03.2020
1856 Clouds 8 997 57 10000 3.1 60 18:56 01.03.2020
1857 Clouds 11 997 53 10000 3.6 90 18:38 01.03.2020
1858 Clouds 11 997 53 10000 3.6 90 18:18 01.03.2020
1859 Clouds 11 997 53 10000 4.1 80 17:55 01.03.2020
1860 Clouds 12 998 50 10000 3.1 90 17:36 01.03.2020
1861 Clouds 11 998 50 10000 3.1 90 17:18 01.03.2020
1862 Clouds 13 998 50 10000 1.5 240 16:40 01.03.2020
1863 Clouds 13 998 50 10000 1.5 240 16:20 01.03.2020
1864 Clouds 13 999 47 10000 1 0 15:59 01.03.2020
1865 Clouds 13 999 47 10000 1.5 0 15:41 01.03.2020
1866 Clouds 13 999 47 10000 1.5 0 15:23 01.03.2020
1867 Clouds 12 1000 50 10000 1.5 0 14:58 01.03.2020
1868 Clouds 12 1000 50 10000 1.5 0 14:40 01.03.2020
1869 Clouds 11 1000 53 10000 2.1 0 14:22 01.03.2020
1870 Clouds 10 1001 57 10000 3.1 270 13:59 01.03.2020
1871 Clouds 9 1001 57 10000 3.1 270 13:41 01.03.2020
1872 Clouds 9 1002 61 10000 2.6 270 13:20 01.03.2020
1873 Clouds 9 1003 61 10000 1.5 0 12:57 01.03.2020
1874 Clouds 9 1003 61 10000 1.5 0 12:38 01.03.2020
1875 Clouds 9 1004 65 10000 2.1 0 12:20 01.03.2020
1876 Clouds 8 1004 65 10000 3.6 260 11:40 01.03.2020
1877 Clouds 8 1004 65 10000 3.6 260 11:40 01.03.2020
1878 Clouds 6 1005 70 10000 5.1 260 11:20 01.03.2020
1879 Clouds 6 1005 75 10000 5.7 260 10:56 01.03.2020
1880 Clouds 6 1005 75 10000 5.7 270 10:37 01.03.2020
1881 Clouds 6 1005 75 10000 5.7 260 10:37 01.03.2020
1882 Clouds 6 1005 75 10000 5.7 260 10:37 01.03.2020
1883 Clouds 6 1005 75 10000 5.7 260 10:37 01.03.2020
1884 Clouds 6 1005 75 10000 5.7 270 10:18 01.03.2020
1885 Clouds 5 1006 80 10000 4.6 260 09:45 01.03.2020
1886 Clouds 4 1006 86 10000 5.1 260 09:26 01.03.2020
1887 Clouds 4 1006 80 10000 5.1 270 08:51 01.03.2020
1888 Clouds 4 1006 80 10000 5.1 260 08:29 01.03.2020
1889 Clouds 5 1005 85 10000 4.6 270 07:59 01.03.2020
1890 Clouds 5 1005 85 10000 4.6 270 07:40 01.03.2020
1891 Clouds 5 1005 65 10000 3.6 270 07:22 01.03.2020
1892 Clouds 3 1005 74 10000 2.6 280 06:44 01.03.2020
1893 Clouds 3 1005 74 10000 2.6 280 06:23 01.03.2020
1894 Clouds 3 1004 69 10000 3.6 250 03:40 01.03.2020
1895 Clouds 3 1006 69 10000 5.1 270 02:23 01.03.2020
1896 Clouds 4 1006 60 10000 2.6 280 01:46 01.03.2020
1897 Clouds 3 1006 64 10000 1.5 0 01:20 01.03.2020
1898 Clouds 3 1006 64 10000 1.5 0 01:20 01.03.2020
1899 Clouds 3 1006 69 10000 3.6 260 00:40 01.03.2020
1900 Clouds 4 1006 60 10000 4.1 260 00:19 01.03.2020
1901 Clouds 7 1005 45 10000 5.7 130 23:42 29.02.2020
1902 Clouds 7 1005 45 10000 5.7 130 23:23 29.02.2020
1903 Clouds 9 1005 39 10000 6.2 130 22:40 29.02.2020
1904 Clouds 9 1005 36 10000 7.2 150 22:22 29.02.2020
1905 Clouds 9 1005 34 10000 6.7 140 21:42 29.02.2020
1906 Clouds 9 1005 36 10000 5.7 150 21:42 29.02.2020
1907 Clouds 9 1005 34 10000 6.7 140 21:22 29.02.2020
1908 Clouds 9 1005 34 10000 6.7 130 20:43 29.02.2020
1909 Clouds 7 1005 34 10000 6.7 130 20:21 29.02.2020
1910 Clouds 9 1005 34 10000 8.2 130 19:56 29.02.2020
1911 Clouds 9 1005 34 10000 7.7 140 19:37 29.02.2020
1912 Clouds 9 1005 34 10000 7.7 140 19:19 29.02.2020
1913 Clouds 9 1004 34 10000 7.7 130 18:42 29.02.2020
1914 Clouds 10 1004 29 10000 5.7 0 18:23 29.02.2020
1915 Clouds 10 1004 29 10000 5.1 0 17:57 29.02.2020
1916 Clouds 11 1004 29 10000 5.1 0 17:39 29.02.2020
1917 Clouds 11 1005 29 10000 7.2 150 17:20 29.02.2020
1918 Clouds 11 1004 29 10000 7.7 140 16:45 29.02.2020
1919 Clouds 10 1004 29 10000 7.2 140 16:21 29.02.2020
1920 Clouds 12 1005 27 10000 8.2 150 15:58 29.02.2020
1921 Clouds 12 1005 27 10000 8.2 150 15:39 29.02.2020
1922 Clouds 12 1005 29 10000 10.8 140 15:21 29.02.2020
1923 Clouds 11 1004 27 10000 9.8 140 14:41 29.02.2020
1924 Clouds 11 1005 27 10000 10.8 140 14:22 29.02.2020
1925 Clouds 10 1006 27 10000 8.7 140 13:46 29.02.2020
1926 Clouds 10 1005 25 10000 10.3 130 13:28 29.02.2020
1927 Clouds 9 1006 25 10000 8.7 140 12:58 29.02.2020
1928 Clouds 9 1007 27 10000 6.2 160 12:39 29.02.2020
1929 Clouds 9 1007 27 10000 6.2 160 12:20 29.02.2020
1930 Clouds 8 1008 27 10000 5.1 0 11:46 29.02.2020
1931 Clouds 6 1009 48 10000 4.1 0 11:27 29.02.2020
1932 Clouds 5 1009 56 10000 5.1 270 10:55 29.02.2020
1933 Clouds 4 1009 56 10000 5.1 270 10:37 29.02.2020
1934 Clouds 3 1010 60 10000 5.1 270 10:19 29.02.2020
1935 Clouds 3 1010 64 10000 6.2 270 09:47 29.02.2020
1936 Clouds 3 1011 69 10000 2.6 260 09:23 29.02.2020
1937 Clouds 3 1011 69 10000 5.1 280 08:41 29.02.2020
1938 Clouds 1 1011 74 10000 5.7 290 08:21 29.02.2020
1939 Clouds 1 1011 74 10000 4.6 280 07:53 29.02.2020
1940 Clouds 1 1011 69 10000 4.1 280 07:33 29.02.2020
1941 Clouds 2 1012 74 10000 3.6 280 06:57 29.02.2020
1942 Clouds 1 1012 69 10000 4.6 280 06:30 29.02.2020
1943 Clouds 1 1013 69 10000 5.1 270 05:54 29.02.2020
1944 Clouds 1 1013 69 10000 3.1 290 05:33 29.02.2020
1945 Clouds 2 1014 74 10000 4.1 270 04:25 29.02.2020
1946 Clouds 2 1014 69 10000 4.1 280 03:37 29.02.2020
1947 Clouds 2 1014 69 10000 4.1 280 03:18 29.02.2020
1948 Clouds 1 1015 69 10000 4.6 280 02:32 29.02.2020
1949 Clouds 0 1016 69 10000 4.6 280 00:54 29.02.2020
1950 Clouds 1 1017 69 10000 4.1 280 00:36 29.02.2020
1951 Clouds 0 1017 69 10000 3.6 280 23:42 28.02.2020
1952 Clouds 0 1018 67 10000 4.1 280 23:24 28.02.2020
1953 Clouds 0 1018 68 10000 4.1 280 23:24 28.02.2020
1954 Clouds 0 1018 68 10000 4.1 260 22:44 28.02.2020
1955 Clouds 1 1018 69 10000 2.1 260 22:24 28.02.2020
1956 Clouds 1 1018 64 10000 1 0 21:56 28.02.2020
1957 Clouds 1 1018 64 10000 1 0 21:38 28.02.2020
1958 Clouds 0 1019 68 10000 1 0 21:20 28.02.2020
1959 Clouds 0 1019 68 10000 1 0 20:39 28.02.2020
1960 Clouds 0 1019 76 10000 0.5 0 20:21 28.02.2020
1961 Clouds 0 1019 69 10000 0.5 0 19:57 28.02.2020
1962 Clouds 0 1019 69 10000 0.5 0 19:39 28.02.2020
1963 Clouds 0 1019 64 10000 0.5 0 19:20 28.02.2020
1964 Clouds 2 1019 59 10000 2.1 210 18:48 28.02.2020
1965 Clouds 3 1019 55 10000 3.1 250 18:29 28.02.2020
1966 Clouds 6 1019 38 10000 2.1 190 17:59 28.02.2020
1967 Clouds 7 1019 33 10000 1.5 250 17:40 28.02.2020
1968 Clouds 3 1019 33 10000 1.5 250 17:21 28.02.2020
1969 Clouds 4 1019 33 10000 2.1 190 16:44 28.02.2020
1970 Clouds 4 1019 33 10000 2.6 250 16:20 28.02.2020
1971 Clouds 4 1019 36 10000 3.1 250 15:58 28.02.2020
1972 Clouds 4 1019 36 10000 3.1 250 15:40 28.02.2020
1973 Clouds 4 1019 33 10000 3.6 230 15:19 28.02.2020
1974 Clouds 4 1019 33 10000 3.6 260 14:57 28.02.2020
1975 Clouds 4 1019 33 10000 3.6 260 14:38 28.02.2020
1976 Clouds 4 1019 33 10000 4.6 290 14:18 28.02.2020
1977 Clouds 4 1020 39 10000 6.2 290 13:41 28.02.2020
1978 Rain 2 1033 54 0 1.79 337 13:20 28.02.2020
1979 Rain 2 1033 63 0 0.45 304 12:58 28.02.2020
1980 Snow 2 1021 55 10000 2.6 0 12:39 28.02.2020
1981 Snow 1 1033 68 0 0.45 294 12:21 28.02.2020
1982 Snow 1 1033 71 0 1.34 330 11:41 28.02.2020
1983 Snow 0 1033 75 0 0.45 320 11:23 28.02.2020
1984 Clouds 1 1020 69 10000 2.6 0 10:57 28.02.2020
1985 Clouds 0 1019 74 10000 5.1 270 10:37 28.02.2020
1986 Clouds 0 1019 74 10000 5.1 270 10:18 28.02.2020
1987 Snow 0 1018 74 10000 6.7 260 09:43 28.02.2020
1988 Clouds 0 1018 74 10000 6.2 260 09:20 28.02.2020
1989 Clouds 0 1017 69 10000 9.3 250 08:54 28.02.2020
1990 Snow 0 1016 64 10000 4.6 270 08:36 28.02.2020
1991 Snow 0 1016 64 10000 4.6 270 08:18 28.02.2020
1992 Snow 0 1016 74 10000 5.1 250 07:38 28.02.2020
1993 Snow -1 1015 95 7000 10.8 270 07:19 28.02.2020
1994 Snow 1 1014 74 5000 7.7 250 06:41 28.02.2020
1995 Snow 2 1011 74 6000 8.7 250 05:37 28.02.2020
1996 Snow 0 1009 74 6000 7.7 240 04:32 28.02.2020
1997 Snow 1 1008 80 7000 8.2 240 03:34 28.02.2020
1998 Clouds 1 1007 80 6000 9.3 240 02:41 28.02.2020
1999 Clouds 0 1007 80 6000 9.3 240 02:18 28.02.2020
2000 Rain 2 1003 94 10000 5.7 240 00:35 28.02.2020
2001 Snow 1 1002 94 10000 2.6 210 23:57 27.02.2020
2002 Snow 1 1002 94 10000 2.6 210 23:38 27.02.2020
2003 Snow 1 1001 88 10000 2.1 250 23:18 27.02.2020
2004 Snow 1 1000 88 10000 1.5 270 22:40 27.02.2020
2005 Snow 1 1000 88 10000 1.5 270 22:22 27.02.2020
2006 Snow 2 1000 88 2500 3.1 260 21:54 27.02.2020
2007 Snow 2 999 86 2500 5.1 270 21:36 27.02.2020
2008 Snow 1 999 86 2500 5.1 270 21:18 27.02.2020
2009 Clouds 0 997 86 10000 5.7 270 20:41 27.02.2020
2010 Clouds 2 996 80 10000 3.1 280 20:23 27.02.2020
2011 Clouds 2 996 80 10000 3.1 280 20:23 27.02.2020
2012 Clouds 2 997 80 10000 4.1 280 19:57 27.02.2020
2013 Clouds 2 998 80 10000 5.7 270 19:39 27.02.2020
2014 Clouds 2 998 80 10000 5.7 270 19:21 27.02.2020
2015 Snow 2 999 80 10000 5.7 280 18:57 27.02.2020
2016 Snow 2 999 80 10000 5.7 280 18:39 27.02.2020
2017 Snow 2 999 80 10000 6.2 270 18:19 27.02.2020
2018 Snow 2 1000 86 10000 3.6 240 17:55 27.02.2020
2019 Snow 2 1000 74 10000 3.1 0 17:36 27.02.2020
2020 Snow 2 1000 74 10000 3.1 0 17:18 27.02.2020
2021 Snow 2 1000 74 10000 4.1 0 16:41 27.02.2020
2022 Clouds 3 1000 41 10000 4.1 0 16:20 27.02.2020
2023 Clouds 4 1000 41 10000 3.1 0 15:59 27.02.2020
2024 Clouds 4 1000 35 10000 4.1 0 15:38 27.02.2020
2025 Clouds 5 1000 35 10000 4.1 0 15:20 27.02.2020
2026 Clouds 5 1000 35 10000 3.6 0 14:59 27.02.2020
2027 Clouds 6 1001 41 10000 2.6 270 14:38 27.02.2020
2028 Clouds 5 1001 41 10000 2.6 270 14:20 27.02.2020
2029 Clouds 5 1003 48 10000 4.1 270 13:42 27.02.2020
2030 Clouds 5 1004 48 10000 4.6 270 13:22 27.02.2020
2031 Clouds 5 1005 45 10000 2.1 260 12:56 27.02.2020
2032 Clouds 4 1006 44 10000 2.1 300 12:38 27.02.2020
2033 Clouds 4 1006 44 10000 2.1 300 12:18 27.02.2020
2034 Clouds 3 1008 51 10000 0.5 0 11:42 27.02.2020
2035 Clouds 3 1008 51 10000 0.5 0 11:22 27.02.2020
2036 Clouds 3 1009 59 10000 1 0 10:44 27.02.2020
2037 Clouds 2 1009 59 10000 1 0 10:24 27.02.2020
2038 Clouds 1 1010 69 10000 1.5 260 09:50 27.02.2020
2039 Clouds 0 1010 74 10000 1 0 09:30 27.02.2020
2040 Clouds -1 1011 67 10000 1.5 240 08:59 27.02.2020
2041 Clouds -1 1011 67 10000 1.5 240 08:41 27.02.2020
2042 Clouds 0 1011 91 10000 2.6 300 08:22 27.02.2020
2043 Clouds -1 1011 90 10000 1.5 290 07:45 27.02.2020
2044 Clouds -1 1011 90 10000 1.5 250 07:25 27.02.2020
2045 Clouds -1 1010 90 10000 1.5 200 06:48 27.02.2020
2046 Clouds -1 1010 90 10000 0.5 0 05:58 27.02.2020
2047 Clouds -1 1010 94 10000 2.1 230 04:21 27.02.2020
2048 Clouds -1 1009 94 10000 1.5 0 02:33 27.02.2020
2049 Clouds -1 1008 69 10000 1.5 290 00:46 27.02.2020
2050 Clouds 0 1008 69 10000 5.7 260 00:26 27.02.2020
2051 Clouds 0 1008 74 10000 3.1 280 23:40 26.02.2020
2052 Clouds 0 1008 74 10000 3.6 280 23:19 26.02.2020
2053 Clouds 0 1008 74 10000 6.7 270 22:58 26.02.2020
2054 Clouds -1 1008 74 10000 5.7 250 22:39 26.02.2020
2055 Clouds -1 1008 74 10000 5.7 250 22:20 26.02.2020
2056 Snow -1 1007 74 10000 8.2 260 21:56 26.02.2020
2057 Snow -1 1007 74 10000 8.2 260 21:37 26.02.2020
2058 Snow -1 1007 74 10000 6.7 240 21:18 26.02.2020
2059 Snow -1 1007 74 10000 9.8 250 20:55 26.02.2020
2060 Snow 0 1005 59 6000 11.8 260 20:36 26.02.2020
2061 Snow 0 1005 59 6000 11.8 260 20:36 26.02.2020
2062 Snow 0 1005 59 6000 11.8 260 20:18 26.02.2020
2063 Snow 0 1005 59 6000 11.8 260 20:18 26.02.2020
2064 Clouds 1 1005 38 10000 4.6 250 19:45 26.02.2020
2065 -273 0 0 0 0 0 19:21 26.02.2020
2066 Clouds 1 1003 35 10000 7.2 280 18:58 26.02.2020
2067 Clouds 2 1003 35 10000 7.2 280 18:40 26.02.2020
2068 Clouds 3 1003 35 10000 6.7 300 18:22 26.02.2020
2069 Clouds 3 1002 38 10000 8.2 270 17:42 26.02.2020
2070 Clouds 3 1002 38 10000 8.2 270 17:42 26.02.2020
2071 Clouds 2 1002 41 10000 9.3 280 17:24 26.02.2020
2072 Clouds 3 1002 38 10000 11.8 280 16:59 26.02.2020
2073 Clouds 3 1002 38 10000 11.8 280 16:41 26.02.2020
2074 Clouds 3 1001 38 10000 10.3 280 16:22 26.02.2020
2075 Clouds 2 1001 41 10000 12.9 280 15:54 26.02.2020
2076 Clouds 3 1000 48 10000 13.4 270 15:36 26.02.2020
2077 Clouds 3 1000 48 10000 13.4 270 15:18 26.02.2020
2078 Clouds 3 1000 64 10000 8.2 260 14:42 26.02.2020
2079 Clouds 3 1000 80 10000 6.2 230 14:22 26.02.2020
2080 Snow 2 999 64 2000 20.1 270 13:43 26.02.2020
2081 Clouds 4 997 33 10000 7.7 300 13:22 26.02.2020
2082 Clouds 6 997 36 10000 9.3 270 12:42 26.02.2020
2083 Clouds 8 997 49 10000 3.1 0 12:22 26.02.2020
2084 Clouds 5 998 52 10000 2.6 0 11:59 26.02.2020
2085 Rain 5 998 52 10000 2.6 60 11:40 26.02.2020
2086 Rain 5 998 52 10000 2.6 60 11:22 26.02.2020
2087 Clouds 5 998 65 10000 3.1 80 10:43 26.02.2020
2088 Clouds 5 999 56 10000 2.6 0 10:24 26.02.2020
2089 Clouds 3 999 64 10000 2.1 320 09:59 26.02.2020
2090 Clouds 3 999 64 10000 2.1 320 09:41 26.02.2020
2091 Clouds 2 1000 69 10000 1 0 09:21 26.02.2020
2092 Clouds 2 1000 69 10000 1 0 09:21 26.02.2020
2093 Clouds 2 1000 74 10000 2.1 90 08:54 26.02.2020
2094 Clouds 2 1000 74 10000 2.6 190 08:36 26.02.2020
2095 Clouds 2 1000 74 10000 2.6 190 08:18 26.02.2020
2096 Rain 1 999 93 9000 1.5 130 07:41 26.02.2020
2097 -273 0 0 0 0 0 07:21 26.02.2020
2098 Clouds 2 998 93 10000 2.6 90 06:46 26.02.2020
2099 Rain 2 998 86 10000 3.1 100 06:23 26.02.2020
2100 Clouds 2 999 93 10000 2.6 70 05:48 26.02.2020
2101 Rain 2 998 93 10000 3.1 110 05:18 26.02.2020
2102 Rain 4 999 86 10000 1.5 0 03:27 26.02.2020
2103 Drizzle 3 999 93 10000 1 0 01:59 26.02.2020
2104 Clouds 3 999 93 10000 1.5 200 01:26 26.02.2020
2105 Clouds 3 999 93 10000 1.5 0 00:44 26.02.2020
2106 Clouds 3 1000 93 10000 2.1 280 00:20 26.02.2020
2107 Clouds 4 1000 86 10000 1 0 23:42 25.02.2020
2108 Clouds 4 1000 86 10000 2.1 120 23:24 25.02.2020
2109 Clouds 4 1001 86 10000 1.5 110 22:57 25.02.2020
2110 Clouds 4 1001 86 10000 1.5 110 22:37 25.02.2020
2111 Clouds 4 1002 93 10000 0.5 0 22:18 25.02.2020
2112 Rain 4 1002 87 10000 2.1 280 21:38 25.02.2020
2113 Clouds 5 1002 81 10000 1 0 21:20 25.02.2020
2114 Clouds 5 1002 81 10000 2.1 100 20:57 25.02.2020
2115 Clouds 6 1003 81 10000 2.1 120 20:39 25.02.2020
2116 Clouds 6 1003 81 10000 2.1 120 20:20 25.02.2020
2117 Clouds 6 1003 81 10000 3.1 110 19:56 25.02.2020
2118 Clouds 6 1003 81 10000 3.1 100 19:37 25.02.2020
2119 Clouds 6 1003 81 10000 3.1 100 19:18 25.02.2020
2120 Clouds 7 1002 75 10000 4.1 80 18:40 25.02.2020
2121 Clouds 7 1002 75 10000 4.1 80 18:21 25.02.2020
2122 Clouds 8 1002 53 10000 1.5 0 17:56 25.02.2020
2123 Clouds 8 1002 46 10000 5.1 110 17:37 25.02.2020
2124 Clouds 8 1013 57 0 1.34 150 17:19 25.02.2020
2125 Clouds 8 1013 58 0 2.24 151 16:56 25.02.2020
2126 Clouds 8 1013 57 0 1.79 175 16:38 25.02.2020
2127 Clouds 9 1002 46 10000 5.1 140 16:20 25.02.2020
2128 Clouds 9 1003 46 10000 5.1 150 15:55 25.02.2020
2129 Clouds 9 1003 53 10000 2.6 0 15:36 25.02.2020
2130 Clouds 9 1003 53 10000 2.6 0 15:18 25.02.2020
2131 Clouds 9 1003 53 10000 2.6 0 15:18 25.02.2020
2132 Clouds 7 1004 70 10000 3.1 270 14:40 25.02.2020
2133 Clouds 7 1004 70 10000 3.1 270 14:19 25.02.2020
2134 Clouds 7 1004 70 10000 3.1 270 14:19 25.02.2020
2135 Clouds 7 1004 70 10000 3.1 270 14:19 25.02.2020
2136 Clouds 8 1005 75 10000 3.1 270 13:59 25.02.2020
2137 Clouds 7 1005 75 10000 3.1 270 13:41 25.02.2020
2138 Clouds 7 1006 81 10000 2.6 270 13:21 25.02.2020
2139 Clouds 6 1006 86 10000 1 0 12:59 25.02.2020
2140 Clouds 7 1006 86 10000 1 0 12:39 25.02.2020
2141 Clouds 7 1007 93 10000 0.5 0 12:20 25.02.2020
2142 Clouds 6 1007 93 6000 0.5 0 11:56 25.02.2020
2143 Mist 6 1008 93 5000 1 0 11:37 25.02.2020
2144 Mist 4 1008 93 5000 1 0 11:18 25.02.2020
2145 Mist 4 1008 93 4000 1 0 10:42 25.02.2020
2146 Mist 4 1008 93 4000 1 0 10:23 25.02.2020
2147 Mist 4 1009 93 4000 1.5 260 09:56 25.02.2020
2148 Mist 3 1009 93 4000 2.1 280 09:38 25.02.2020
2149 Mist 3 1009 93 4000 2.1 280 09:18 25.02.2020
2150 Mist 3 1009 100 3000 1.5 250 08:42 25.02.2020
2151 Mist 3 1009 100 2000 2.1 280 08:24 25.02.2020
2152 Drizzle 3 1010 100 2000 2.1 250 07:49 25.02.2020
2153 Mist 3 1010 100 2000 3.1 270 07:24 25.02.2020
2154 Mist 3 1010 93 3000 3.1 260 06:55 25.02.2020
2155 Mist 3 1010 100 2700 1.5 230 05:54 25.02.2020
2156 Mist 4 1010 100 2300 2.6 260 05:19 25.02.2020
2157 Fog 4 1012 93 800 1.5 280 02:34 25.02.2020
2158 Fog 4 1013 93 700 1.5 270 00:58 25.02.2020
2159 Clouds 3 1013 93 10000 1.5 230 00:32 25.02.2020
2160 Clouds 3 1014 100 10000 1 230 23:48 24.02.2020
2161 Clouds 3 1014 93 10000 0.5 0 23:29 24.02.2020
2162 Clouds 4 1014 93 10000 0.5 0 22:59 24.02.2020
2163 Clouds 4 1015 93 10000 0.5 0 22:37 24.02.2020
2164 Clouds 4 1015 93 10000 0.5 0 22:18 24.02.2020
2165 Clear 3 1015 93 10000 1 0 21:54 24.02.2020
2166 Clear 4 1015 93 10000 0.5 0 21:36 24.02.2020
2167 Clear 4 1015 93 10000 0.5 0 21:18 24.02.2020
2168 Clear 4 1016 93 10000 1 0 20:41 24.02.2020
2169 Clouds 4 1016 93 10000 1 0 20:21 24.02.2020
2170 Clouds 4 1016 93 10000 0.5 0 19:59 24.02.2020
2171 Clouds 5 1016 93 10000 0.5 0 19:41 24.02.2020
2172 Clouds 5 1016 87 10000 0.5 0 19:22 24.02.2020
2173 Clouds 6 1016 87 10000 1 0 18:59 24.02.2020
2174 Clouds 6 1016 87 10000 1 0 18:41 24.02.2020
2175 Clouds 6 1016 81 10000 2.1 270 18:22 24.02.2020
2176 Clouds 7 1016 76 10000 1.5 190 17:54 24.02.2020
2177 Clouds 8 1017 71 10000 1 0 17:36 24.02.2020
2178 Clouds 9 1017 71 10000 1 0 17:18 24.02.2020
2179 Clouds 9 1026 81 0 1.33 211 16:54 24.02.2020
2180 Clouds 9 1018 71 10000 1 0 16:36 24.02.2020
2181 Clouds 9 1018 71 10000 1 0 16:18 24.02.2020
2182 Clouds 9 1019 71 10000 1 0 15:54 24.02.2020
2183 Clouds 9 1020 71 10000 1 0 15:36 24.02.2020
2184 Clouds 9 1020 71 10000 1 0 15:18 24.02.2020
2185 Clouds 8 1021 75 10000 1 0 14:40 24.02.2020
2186 Clouds 8 1021 75 10000 1 0 14:19 24.02.2020
2187 Clouds 6 1022 81 10000 2.6 100 13:57 24.02.2020
2188 Clouds 6 1023 81 10000 1.5 90 13:38 24.02.2020
2189 Clouds 6 1023 81 10000 1.5 90 13:20 24.02.2020
2190 Clouds 5 1023 87 10000 1.5 70 12:57 24.02.2020
2191 Clouds 6 1024 81 10000 3.1 80 12:38 24.02.2020
2192 Clouds 5 1024 81 10000 3.1 80 12:19 24.02.2020
2193 Clouds 5 1024 81 10000 3.6 70 11:45 24.02.2020
2194 Rain 4 1025 86 10000 2.6 80 11:26 24.02.2020
2195 Rain 4 1025 86 10000 3.6 70 10:45 24.02.2020
2196 Rain 4 1025 86 10000 3.6 70 10:27 24.02.2020
2197 Rain 4 1024 86 10000 4.1 70 09:54 24.02.2020
2198 Rain 4 1024 86 10000 3.6 80 09:36 24.02.2020
2199 Rain 4 1024 86 10000 3.6 80 09:18 24.02.2020
2200 Rain 4 1024 86 10000 4.1 80 08:45 24.02.2020
2201 Rain 4 1023 86 10000 5.1 80 08:27 24.02.2020
2202 Rain 4 1023 93 10000 4.1 90 07:45 24.02.2020
2203 Rain 5 1023 87 10000 6.2 80 07:27 24.02.2020
2204 Rain 5 1024 89 0 3.13 45 06:36 24.02.2020
2205 Rain 5 1024 89 0 3.58 90 06:18 24.02.2020
2206 Rain 8 1019 51 10000 9.8 280 05:29 24.02.2020
2207 Clouds 12 1018 42 10000 9.8 280 03:54 24.02.2020
2208 Clouds 13 1018 34 10000 10.3 270 02:54 24.02.2020
2209 Clouds 13 1019 94 10000 8.2 290 01:43 24.02.2020
2210 Clouds 18 1018 27 10000 11.3 290 00:57 24.02.2020
2211 Clouds 19 1018 24 10000 11.3 290 00:27 24.02.2020
2212 Rain 19 1017 22 10000 9.3 290 23:59 23.02.2020
2213 Rain 19 1017 22 10000 9.3 290 23:40 23.02.2020
2214 Clouds 17 1016 24 10000 9.3 290 23:18 23.02.2020
2215 Clouds 18 1016 20 10000 9.3 290 22:56 23.02.2020
2216 Clouds 18 1016 20 10000 10.3 300 22:37 23.02.2020
2217 Clouds 18 1016 20 10000 10.3 300 22:18 23.02.2020
2218 Clouds 20 1016 22 10000 8.7 290 21:43 23.02.2020
2219 Clouds 20 1016 22 10000 8.7 290 21:43 23.02.2020
2220 Clouds 20 1016 22 10000 8.7 290 21:43 23.02.2020
2221 Clouds 15 1016 24 10000 10.8 290 21:19 23.02.2020
2222 Clouds 14 1016 90 10000 9.8 290 20:56 23.02.2020
2223 Clouds 14 1017 28 10000 9.8 290 20:38 23.02.2020
2224 Clouds 14 1017 28 10000 9.8 290 20:20 23.02.2020
2225 Clouds 14 1017 34 10000 6.7 280 19:56 23.02.2020
2226 Clouds 14 1017 34 10000 6.7 280 19:37 23.02.2020
2227 Clouds 14 1017 34 10000 7.7 290 19:18 23.02.2020
2228 Clouds 14 1017 34 10000 7.7 290 19:18 23.02.2020
2229 Clouds 13 1017 42 10000 5.7 290 18:54 23.02.2020
2230 Clouds 12 1017 66 10000 2.6 0 18:36 23.02.2020
2231 Clouds 13 1017 66 10000 2.6 0 18:18 23.02.2020
2232 Clouds 13 1017 66 10000 2.6 0 18:18 23.02.2020
2233 Clouds 13 1017 76 10000 1.5 90 17:54 23.02.2020
2234 Clouds 13 1018 76 10000 1 0 17:36 23.02.2020
2235 Clouds 12 1018 76 10000 1 0 17:18 23.02.2020
2236 Clouds 12 1018 71 10000 2.6 110 16:42 23.02.2020
2237 Clouds 12 1019 71 10000 1.5 110 16:23 23.02.2020
2238 Clouds 12 1020 71 10000 1 0 15:56 23.02.2020
2239 Clouds 12 1020 71 10000 1 0 15:37 23.02.2020
2240 Clouds 12 1020 76 10000 0.5 0 15:19 23.02.2020
2241 Clouds 12 1021 76 10000 1.5 290 14:55 23.02.2020
2242 Clouds 11 1022 76 10000 2.1 210 14:37 23.02.2020
2243 Clouds 11 1022 76 10000 2.1 210 14:19 23.02.2020
2244 Clouds 10 1022 81 10000 2.1 280 13:55 23.02.2020
2245 Rain 10 1023 75 10000 1.5 250 13:37 23.02.2020
2246 Rain 10 1023 75 10000 1.5 250 13:19 23.02.2020
2247 Rain 9 1024 81 10000 2.6 260 12:40 23.02.2020
2248 Rain 9 1024 81 10000 2.6 260 12:40 23.02.2020
2249 Rain 9 1024 75 10000 2.1 240 12:21 23.02.2020
2250 Rain 8 1026 75 10000 2.6 260 11:39 23.02.2020
2251 Rain 7 1026 75 10000 2.6 260 11:20 23.02.2020
2252 Rain 7 1026 86 10000 3.1 270 10:58 23.02.2020
2253 Rain 7 1026 86 10000 3.1 270 10:40 23.02.2020
2254 Rain 7 1026 81 10000 2.1 270 10:22 23.02.2020
2255 Rain 7 1027 75 10000 0.5 0 09:56 23.02.2020
2256 Rain 7 1027 75 10000 0.5 0 09:38 23.02.2020
2257 Rain 6 1027 80 10000 1.5 140 09:18 23.02.2020
2258 Rain 5 1027 75 10000 1 0 08:46 23.02.2020
2259 Rain 5 1027 80 10000 0.5 0 08:25 23.02.2020
2260 Rain 4 1027 80 10000 1 0 07:47 23.02.2020
2261 Clouds 4 1027 80 10000 1 0 07:28 23.02.2020
2262 Clouds 4 1026 70 10000 1 0 06:25 23.02.2020
2263 Clouds 3 1026 65 10000 1.5 150 05:22 23.02.2020
2264 Clouds 3 1025 80 10000 0.5 0 04:23 23.02.2020
2265 Clouds 4 1026 74 10000 1.5 130 02:50 23.02.2020
2266 Clouds 3 1027 80 10000 0.5 0 01:43 23.02.2020
2267 -273 0 0 0 0 0 01:21 23.02.2020
2268 Clouds 3 1026 80 10000 0.5 0 00:44 23.02.2020
2269 Clouds 3 1027 74 10000 2.1 310 00:23 23.02.2020
2270 Clouds 4 1027 69 10000 1 0 23:43 22.02.2020
2271 Clouds 5 1027 65 10000 1.5 300 23:24 22.02.2020
2272 Clouds 5 1027 69 10000 1 0 22:46 22.02.2020
2273 Clouds 5 1027 63 10000 1.5 300 22:22 22.02.2020
2274 Clouds 5 1027 60 10000 1 0 21:55 22.02.2020
2275 Clouds 6 1027 63 10000 1.5 280 21:37 22.02.2020
2276 Clouds 6 1027 63 10000 1.5 280 21:18 22.02.2020
2277 Clouds 7 1027 63 10000 1 0 20:41 22.02.2020
2278 Clouds 7 1027 70 10000 1.5 0 20:22 22.02.2020
2279 Clouds 8 1027 49 10000 2.1 250 19:43 22.02.2020
2280 Clouds 8 1026 70 10000 1.5 290 19:24 22.02.2020
2281 Clouds 9 1026 70 10000 1.5 330 18:58 22.02.2020
2282 Clouds 11 1026 70 10000 1.5 220 18:38 22.02.2020
2283 Clouds 11 1026 70 10000 1.5 220 18:20 22.02.2020
2284 Clouds 11 1025 50 10000 0.5 0 17:54 22.02.2020
2285 Clouds 12 1025 70 10000 1.5 190 17:36 22.02.2020
2286 Clouds 12 1025 66 10000 1.5 190 17:18 22.02.2020
2287 Clouds 13 1025 36 10000 1.5 200 16:40 22.02.2020
2288 Clouds 14 1025 31 10000 1.5 170 16:20 22.02.2020
2289 Clouds 14 1025 27 10000 0.5 0 15:57 22.02.2020
2290 Clouds 14 1025 27 10000 0.5 0 15:39 22.02.2020
2291 Clouds 14 1026 31 10000 1 0 15:21 22.02.2020
2292 Clouds 14 1027 29 10000 1.5 160 14:42 22.02.2020
2293 Clouds 13 1027 28 10000 1 0 14:22 22.02.2020
2294 Clouds 12 1028 30 10000 2.6 250 13:44 22.02.2020
2295 Clouds 12 1028 30 10000 2.6 260 13:20 22.02.2020
2296 Clouds 12 1029 34 10000 2.1 240 12:59 22.02.2020
2297 Clouds 12 1029 39 10000 2.1 240 12:40 22.02.2020
2298 Clouds 10 1029 39 10000 2.1 240 12:21 22.02.2020
2299 Clouds 9 1029 39 10000 2.1 260 11:44 22.02.2020
2300 Clear 9 1029 42 10000 2.6 270 11:26 22.02.2020
2301 Clear 8 1030 48 10000 2.6 260 10:56 22.02.2020
2302 Clear 8 1030 48 10000 2.6 260 10:38 22.02.2020
2303 Clear 6 1030 56 10000 3.1 260 10:19 22.02.2020
2304 Clear 5 1030 64 10000 1.5 290 09:56 22.02.2020
2305 Clear 5 1030 64 10000 1.5 290 09:37 22.02.2020
2306 Clear 5 1031 69 10000 1.5 270 09:37 22.02.2020
2307 Clear 4 1031 69 10000 1.5 270 09:18 22.02.2020
2308 Clear 3 1042 55 0 1.21 223 08:44 22.02.2020
2309 Clear 1 1031 38 10000 1 0 08:26 22.02.2020
2310 Clouds 0 1031 42 10000 1 310 07:43 22.02.2020
2311 Clouds 0 1030 42 10000 1.5 240 07:18 22.02.2020
2312 Clouds 1 1030 42 10000 0.5 0 06:46 22.02.2020
2313 Clouds 1 1030 42 10000 1 0 05:44 22.02.2020
2314 Clouds 1 1030 69 10000 0.5 0 04:29 22.02.2020
2315 Clouds 2 1030 64 10000 0.5 0 02:43 22.02.2020
2316 Clouds 2 1030 60 10000 0.5 0 01:53 22.02.2020
2317 Clouds 2 1030 60 10000 0.5 0 01:30 22.02.2020
2318 Clouds 2 1030 64 10000 0.5 0 00:58 22.02.2020
2319 Clouds 2 1030 60 10000 0.5 0 00:36 22.02.2020
2320 Clouds 2 1030 60 10000 0.5 0 00:18 22.02.2020
2321 Clouds 2 1030 55 10000 0.5 0 23:38 21.02.2020
2322 Clouds 3 1030 55 10000 0.5 0 23:20 21.02.2020
2323 Clouds 2 1029 55 10000 0.5 0 22:42 21.02.2020
2324 Clouds 3 1029 48 10000 1 0 22:24 21.02.2020
2325 Clouds 3 1029 52 10000 1.5 170 21:56 21.02.2020
2326 Clouds 4 1030 45 10000 2.1 60 21:37 21.02.2020
2327 Clouds 4 1030 45 10000 2.1 60 21:19 21.02.2020
2328 Clouds 4 1029 48 10000 1 0 20:43 21.02.2020
2329 Clouds 4 1029 45 10000 2.6 70 20:25 21.02.2020
2330 Clouds 7 1028 45 10000 2.1 90 19:40 21.02.2020
2331 Clouds 7 1028 45 10000 2.1 90 19:22 21.02.2020
2332 Clear 8 1028 39 10000 2.6 80 18:44 21.02.2020
2333 Clear 9 1027 31 10000 2.1 150 18:24 21.02.2020
2334 Clear 10 1027 27 10000 2.6 290 17:58 21.02.2020
2335 Clear 10 1027 27 10000 2.6 290 17:38 21.02.2020
2336 Clear 10 1027 27 10000 2.6 290 17:38 21.02.2020
2337 Clouds 8 1026 27 10000 4.6 260 17:20 21.02.2020
2338 Clouds 9 1026 23 10000 7.2 260 16:55 21.02.2020
2339 Clouds 12 1026 25 10000 6.2 260 16:37 21.02.2020
2340 Clouds 12 1026 25 10000 6.2 260 16:37 21.02.2020
2341 Clouds 12 1026 25 10000 6.2 260 16:19 21.02.2020
2342 Clouds 12 1026 25 10000 4.6 260 15:44 21.02.2020
2343 Clouds 11 1026 34 10000 3.6 110 15:19 21.02.2020
2344 Clouds 11 1026 34 10000 4.6 100 14:54 21.02.2020
2345 Clouds 10 1026 34 10000 5.7 70 14:36 21.02.2020
2346 Clouds 10 1026 34 10000 5.7 70 14:18 21.02.2020
2347 Clouds 9 1027 36 10000 5.1 80 13:41 21.02.2020
2348 Clouds 9 1027 36 10000 5.1 80 13:21 21.02.2020
2349 Clouds 7 1027 48 10000 2.6 70 12:46 21.02.2020
2350 Clouds 7 1027 48 10000 2.6 70 12:27 21.02.2020
2351 Clouds 6 1027 48 10000 3.1 110 11:58 21.02.2020
2352 Clouds 6 1027 48 10000 3.1 110 11:38 21.02.2020
2353 Clouds 6 1027 54 10000 3.1 80 11:20 21.02.2020
2354 Clouds 5 1027 54 10000 2.1 120 10:42 21.02.2020
2355 Clouds 4 1027 54 10000 1 0 10:23 21.02.2020
2356 Clouds 4 1027 80 10000 1 0 09:58 21.02.2020
2357 Clouds 3 1027 80 10000 1 0 09:40 21.02.2020
2358 Clouds 2 1026 80 10000 1 0 09:22 21.02.2020
2359 Clouds 2 1026 86 10000 1 0 08:56 21.02.2020
2360 Clouds 2 1026 86 10000 1 0 08:37 21.02.2020
2361 Clouds 2 1026 86 10000 1 0 08:18 21.02.2020
2362 Clouds 1 1025 95 10000 2.6 260 07:43 21.02.2020
2363 Snow 1 1025 80 10000 2.6 210 07:21 21.02.2020
2364 Clouds 1 1024 95 8000 3.1 80 06:56 21.02.2020
2365 Rain 1 1022 95 10000 3.1 100 06:33 21.02.2020
2366 Clouds 1 1022 95 10000 1 0 05:56 21.02.2020
2367 Clouds 1 1021 95 10000 2.1 0 05:31 21.02.2020
2368 Clouds 0 1020 86 10000 1.5 0 04:26 21.02.2020
2369 Clouds 0 1021 86 10000 1 0 03:52 21.02.2020
2370 Clouds 0 1020 86 10000 1.5 250 02:59 21.02.2020
2371 Clear -1 1020 86 10000 1 0 01:43 21.02.2020
2372 Clear -1 1020 80 10000 2.1 280 01:22 21.02.2020
2373 Clear -1 1020 71 10000 1 0 00:39 21.02.2020
2374 Clear -1 1020 71 10000 1 0 00:39 21.02.2020
2375 Clear -1 1020 86 10000 2.1 260 00:19 21.02.2020
2376 Clear 0 1020 71 10000 2.6 260 23:41 20.02.2020
2377 Clear 0 1020 65 10000 2.6 270 23:22 20.02.2020
2378 Clear 0 1020 65 10000 2.6 270 22:42 20.02.2020
2379 Clear 0 1020 65 10000 2.6 270 22:23 20.02.2020
2380 Clear 0 1020 65 10000 2.1 270 21:58 20.02.2020
2381 Clear 1 1020 65 10000 1.5 250 21:39 20.02.2020
2382 Clear 1 1020 65 10000 1.5 250 21:39 20.02.2020
2383 Clear 1 1020 65 10000 1.5 250 21:20 20.02.2020
2384 Clear 1 1020 74 10000 2.1 230 20:57 20.02.2020
2385 Clear 2 1020 74 10000 2.1 230 20:39 20.02.2020
2386 Clouds 2 1020 80 10000 2.6 270 20:19 20.02.2020
2387 Clouds 2 1021 74 10000 2.1 230 19:59 20.02.2020
2388 Clouds 3 1020 69 10000 1.5 310 19:41 20.02.2020
2389 Clouds 3 1020 69 10000 1.5 310 19:23 20.02.2020
2390 Clouds 3 1020 69 10000 1 0 18:55 20.02.2020
2391 Clouds 4 1020 69 10000 0.5 0 18:37 20.02.2020
2392 Clouds 5 1020 69 10000 0.5 0 18:18 20.02.2020
2393 Clouds 8 1020 49 10000 1 180 17:39 20.02.2020
2394 Clouds 9 1020 49 10000 1 180 17:39 20.02.2020
2395 Clouds 7 1020 49 10000 1 180 17:19 20.02.2020
2396 Clouds 7 1020 45 10000 1 0 16:58 20.02.2020
2397 Clouds 8 1020 45 10000 0.5 0 16:39 20.02.2020
2398 Clouds 8 1020 45 10000 0.5 0 16:19 20.02.2020
2399 Clouds 7 1021 49 10000 1 0 15:43 20.02.2020
2400 Clouds 6 1021 45 10000 0.5 0 15:24 20.02.2020
2401 Clouds 6 1022 48 10000 1 0 14:59 20.02.2020
2402 Clouds 6 1022 48 10000 1 0 14:41 20.02.2020
2403 Clouds 6 1022 48 10000 1 0 14:41 20.02.2020
2404 Clouds 5 1022 52 10000 1 0 14:23 20.02.2020
2405 Clouds 5 1022 52 10000 1 0 14:23 20.02.2020
2406 Clouds 5 1023 52 10000 1 0 13:56 20.02.2020
2407 Clouds 4 1023 52 10000 1 0 13:38 20.02.2020
2408 Clouds 4 1023 56 10000 2.1 280 13:19 20.02.2020
2409 Clouds 4 1024 60 10000 2.1 270 12:42 20.02.2020
2410 Clouds 4 1024 65 10000 1.5 290 12:21 20.02.2020
2411 Clouds 4 1025 64 10000 2.1 260 11:58 20.02.2020
2412 Clouds 4 1025 64 10000 2.1 260 11:40 20.02.2020
2413 Rain 3 1025 69 10000 2.6 270 11:21 20.02.2020
2414 Rain 2 1025 80 10000 3.1 270 10:56 20.02.2020
2415 Clouds 2 1025 80 10000 2.6 260 10:38 20.02.2020
2416 Clouds 1 1025 80 10000 2.6 260 10:19 20.02.2020
2417 Clouds 1 1025 80 10000 1 0 09:39 20.02.2020
2418 Clouds 1 1025 53 10000 2.1 280 09:21 20.02.2020
2419 Clouds 0 1025 53 10000 1.5 270 08:44 20.02.2020
2420 Clouds 0 1025 92 10000 1 250 08:24 20.02.2020
2421 Clouds -1 1025 92 10000 1 0 07:55 20.02.2020
2422 Clouds -1 1025 92 10000 1 240 07:37 20.02.2020
2423 Clouds -1 1025 92 10000 1 240 07:19 20.02.2020
2424 Clouds -1 1025 92 10000 1 0 06:43 20.02.2020
2425 Clouds -1 1025 100 10000 1.5 280 05:58 20.02.2020
2426 Clouds -1 1025 92 10000 0.5 0 05:34 20.02.2020
2427 Clouds -1 1025 92 9000 0.5 0 04:48 20.02.2020
2428 Clouds -1 1026 100 7000 0.5 0 03:46 20.02.2020
2429 Clouds -1 1026 92 10000 0.5 0 02:47 20.02.2020
2430 Clouds -1 1026 92 10000 1 0 01:25 20.02.2020
2431 Clouds -1 1026 76 10000 1 0 00:46 20.02.2020
2432 Clouds -1 1026 76 10000 0.5 0 00:24 20.02.2020
2433 Clouds -1 1026 76 10000 1 170 23:46 19.02.2020
2434 Clouds -1 1026 76 10000 1 170 23:46 19.02.2020
2435 Clouds 0 1026 86 10000 1 0 23:18 19.02.2020
2436 Snow 0 1026 85 10000 1.5 100 22:43 19.02.2020
2437 Clouds 0 1026 86 10000 1 0 22:24 19.02.2020
2438 Snow 0 1026 86 10000 0.5 0 21:58 19.02.2020
2439 Clouds 0 1025 86 10000 0.5 0 21:40 19.02.2020
2440 Clouds 0 1025 86 10000 0.5 0 21:19 19.02.2020
2441 Clouds 1 1025 86 10000 0.5 0 20:57 19.02.2020
2442 Clouds 1 1025 86 10000 0.5 0 20:38 19.02.2020
2443 Clouds 1 1025 91 10000 1.5 260 20:19 19.02.2020
2444 Clouds 1 1025 80 10000 1.5 360 19:57 19.02.2020
2445 Clouds 1 1024 91 10000 1 0 19:37 19.02.2020
2446 Clouds 1 1024 91 10000 1 0 19:19 19.02.2020
2447 Snow 1 1024 91 10000 2.6 280 18:57 19.02.2020
2448 Clouds 2 1024 91 10000 2.6 260 18:39 19.02.2020
2449 Clouds 1 1024 91 10000 2.6 260 18:21 19.02.2020
2450 Snow 3 1023 74 10000 7.2 260 17:44 19.02.2020
2451 Rain 2 1022 69 10000 3.6 330 17:20 19.02.2020
2452 Clouds 2 1022 91 10000 1.5 0 16:57 19.02.2020
2453 Clouds 2 1022 91 10000 1.5 0 16:38 19.02.2020
2454 Rain 2 1021 80 10000 5.1 270 16:18 19.02.2020
2455 Rain 2 1021 80 10000 3.6 290 15:43 19.02.2020
2456 Rain 3 1020 75 10000 7.7 250 15:24 19.02.2020
2457 Rain 3 1020 75 10000 7.7 250 15:24 19.02.2020
2458 Rain 3 1019 75 10000 6.7 240 14:57 19.02.2020
2459 Rain 3 1019 75 10000 6.7 240 14:39 19.02.2020
2460 Rain 3 1019 70 10000 7.2 250 14:21 19.02.2020
2461 Clouds 5 1018 49 10000 7.2 240 13:41 19.02.2020
2462 Clouds 5 1018 45 10000 7.2 270 13:22 19.02.2020
2463 Clouds 5 1019 45 10000 4.6 290 12:55 19.02.2020
2464 Clouds 5 1019 44 10000 4.6 260 12:36 19.02.2020
2465 Clouds 5 1019 44 10000 4.6 260 12:18 19.02.2020
2466 Clouds 5 1020 51 10000 4.1 260 11:38 19.02.2020
2467 Clouds 3 1020 59 10000 3.1 270 11:20 19.02.2020
2468 Clouds 3 1020 64 10000 2.1 250 10:58 19.02.2020
2469 Clouds 2 1021 74 10000 3.6 280 10:38 19.02.2020
2470 Clouds 2 1021 74 10000 3.6 280 10:20 19.02.2020
2471 Clouds 2 1022 56 10000 2.6 260 09:58 19.02.2020
2472 Clouds 2 1022 56 10000 2.6 250 09:37 19.02.2020
2473 Clouds 1 1022 56 10000 2.6 250 09:19 19.02.2020
2474 Clouds 1 1022 80 10000 1.5 250 08:45 19.02.2020
2475 Clouds 0 1022 80 10000 1 0 08:24 19.02.2020
2476 Clouds 0 1022 86 10000 0.5 0 07:44 19.02.2020
2477 Clouds -1 1022 80 10000 1 0 07:26 19.02.2020
2478 Clouds -1 1023 80 10000 1.5 170 06:57 19.02.2020
2479 Clouds 0 1023 80 10000 1 0 06:34 19.02.2020
2480 Clouds -1 1024 79 10000 2.6 270 04:28 19.02.2020
2481 Clouds 0 1024 80 10000 1.5 200 03:20 19.02.2020
2482 Clouds 0 1025 80 10000 1 0 02:33 19.02.2020
2483 Clouds 0 1026 91 10000 1 0 01:33 19.02.2020
2484 Clouds -1 1026 91 10000 0.5 0 00:53 19.02.2020
2485 Clouds -1 1026 91 10000 0.5 0 00:34 19.02.2020
2486 Clouds 1 1026 69 10000 1 0 23:57 18.02.2020
2487 Clouds 1 1026 69 10000 0.5 0 23:39 18.02.2020
2488 Clouds 2 1026 69 10000 0.5 0 23:19 18.02.2020
2489 Clouds 1 1026 74 10000 0.5 0 22:45 18.02.2020
2490 Clouds 1 1026 69 10000 0.5 0 22:20 18.02.2020
2491 Clouds 3 1026 69 10000 1.5 240 21:59 18.02.2020
2492 Clouds 1 1026 69 10000 1.5 240 21:38 18.02.2020
2493 Clouds 1 1026 64 10000 2.1 250 21:19 18.02.2020
2494 Clouds 2 1026 64 10000 2.6 260 20:59 18.02.2020
2495 Clouds 1 1026 64 10000 2.6 260 20:39 18.02.2020
2496 Clouds 3 1026 60 10000 1 0 20:20 18.02.2020
2497 Clouds 3 1026 52 10000 3.6 50 19:56 18.02.2020
2498 Clouds 3 1025 52 10000 1.5 40 19:37 18.02.2020
2499 Clouds 4 1025 52 10000 1.5 40 19:18 18.02.2020
2500 Clouds 7 1025 52 10000 3.1 90 18:42 18.02.2020
2501 Clouds 7 1024 49 10000 4.6 40 18:21 18.02.2020
2502 Clouds 9 1024 34 10000 3.6 260 17:57 18.02.2020
2503 Clouds 11 1024 27 10000 3.6 230 17:38 18.02.2020
2504 Clouds 8 1024 27 10000 3.6 230 17:19 18.02.2020
2505 Clouds 10 1024 27 10000 6.2 260 16:40 18.02.2020
2506 Clouds 10 1024 27 10000 6.2 260 16:21 18.02.2020
2507 Clouds 11 1024 23 10000 5.1 250 15:42 18.02.2020
2508 Clouds 9 1024 27 10000 7.2 260 15:21 18.02.2020
2509 Clouds 11 1025 25 10000 6.2 250 14:58 18.02.2020
2510 Clouds 11 1025 25 10000 6.2 250 14:58 18.02.2020
2511 Clouds 11 1025 27 10000 5.7 240 14:40 18.02.2020
2512 Clouds 11 1025 27 10000 5.7 240 14:21 18.02.2020
2513 Clouds 11 1025 27 10000 5.7 240 13:57 18.02.2020
2514 Clouds 11 1025 27 10000 7.7 250 13:38 18.02.2020
2515 Clouds 11 1025 27 10000 7.7 250 13:20 18.02.2020
2516 Clouds 9 1026 46 10000 2.1 0 12:43 18.02.2020
2517 Clouds 9 1026 46 10000 2.1 0 12:24 18.02.2020
2518 Clouds 8 1027 61 10000 2.1 60 11:56 18.02.2020
2519 Clouds 8 1027 61 10000 3.1 80 11:38 18.02.2020
2520 Clouds 8 1027 61 10000 3.1 80 11:19 18.02.2020
2521 Clouds 8 1027 61 10000 3.6 80 10:44 18.02.2020
2522 Clouds 6 1027 65 10000 2.1 70 10:22 18.02.2020
2523 Clouds 5 1027 75 10000 0.5 0 09:56 18.02.2020
2524 Clouds 6 1027 75 10000 0.5 0 09:38 18.02.2020
2525 Clouds 4 1027 86 10000 0.5 0 09:19 18.02.2020
2526 Clouds 4 1027 93 10000 0.5 0 08:55 18.02.2020
2527 Clouds 3 1027 93 10000 1.5 160 08:37 18.02.2020
2528 Clouds 3 1027 93 10000 1.5 160 08:18 18.02.2020
2529 Clouds 3 1026 93 10000 1 0 07:45 18.02.2020
2530 Clouds 3 1025 93 10000 0.5 0 07:25 18.02.2020
2531 Clouds 2 1025 93 10000 1.5 260 06:50 18.02.2020
2532 Clouds 2 1025 93 10000 1 0 06:28 18.02.2020
2533 Clouds 3 1025 86 10000 1 0 05:47 18.02.2020
2534 Clouds 4 1025 86 10000 1 0 05:18 18.02.2020
2535 Clouds 6 1024 87 10000 1 0 03:41 18.02.2020
2536 Clouds 6 1024 81 10000 1 0 02:58 18.02.2020
2537 Clouds 8 1022 75 10000 2.1 110 01:25 18.02.2020
2538 Rain 9 1022 66 10000 1.5 360 00:22 18.02.2020
2539 Rain 9 1022 70 10000 1.5 0 23:59 17.02.2020
2540 Rain 9 1022 70 10000 1.5 0 23:39 17.02.2020
2541 -273 0 0 0 0 0 23:19 17.02.2020
2542 Rain 8 1021 81 10000 1.5 250 22:57 17.02.2020
2543 Rain 8 1021 81 10000 1.5 250 22:38 17.02.2020
2544 Rain 9 1020 61 10000 1.5 140 22:18 17.02.2020
2545 Clouds 10 1020 57 10000 1 0 21:39 17.02.2020
2546 Clouds 10 1020 57 10000 1 0 21:18 17.02.2020
2547 Clouds 9 1019 61 10000 0.5 0 20:55 17.02.2020
2548 Clouds 10 1019 57 10000 3.6 260 20:36 17.02.2020
2549 Clouds 10 1019 57 10000 3.6 260 20:36 17.02.2020
2550 Clouds 9 1019 57 10000 3.6 260 20:18 17.02.2020
2551 Clouds 9 1019 98 10000 1.5 0 19:42 17.02.2020
2552 Clouds 10 1018 53 10000 1 0 19:21 17.02.2020
2553 Clouds 12 1017 41 10000 5.1 160 18:39 17.02.2020
2554 Clouds 11 1018 50 10000 1.5 90 18:39 17.02.2020
2555 Clouds 12 1017 41 10000 5.1 160 18:20 17.02.2020
2556 Clouds 14 1017 41 10000 5.7 160 18:00 17.02.2020
2557 Clouds 14 1017 41 10000 5.7 160 17:38 17.02.2020
2558 Clouds 12 1017 41 10000 5.7 140 17:19 17.02.2020
2559 Clouds 13 1017 41 10000 5.1 130 16:58 17.02.2020
2560 Clouds 14 1017 41 10000 5.1 130 16:40 17.02.2020
2561 Clouds 14 1017 41 10000 2.1 250 16:21 17.02.2020
2562 Clouds 15 1017 38 10000 3.1 260 15:45 17.02.2020
2563 Clouds 15 1017 80 10000 2.6 260 15:27 17.02.2020
2564 Clouds 13 1017 80 10000 3.1 260 14:57 17.02.2020
2565 Clouds 13 1017 80 10000 3.1 260 14:39 17.02.2020
2566 Clouds 13 1017 41 10000 5.1 260 14:20 17.02.2020
2567 Clouds 13 1017 69 10000 5.1 270 13:55 17.02.2020
2568 Clouds 12 1017 69 10000 4.6 260 13:36 17.02.2020
2569 Clouds 12 1017 69 10000 4.6 260 13:36 17.02.2020
2570 Clouds 12 1017 69 10000 4.6 260 13:36 17.02.2020
2571 Clouds 12 1017 64 10000 4.6 260 13:18 17.02.2020
2572 Clouds 12 1017 64 10000 4.6 260 13:18 17.02.2020
2573 Clouds 12 1019 64 10000 4.1 260 12:42 17.02.2020
2574 Clouds 12 1019 64 10000 4.1 260 12:23 17.02.2020
2575 Clouds 11 1019 53 10000 1.5 270 11:50 17.02.2020
2576 Clouds 9 1019 64 10000 0.5 0 11:29 17.02.2020
2577 Clouds 9 1019 64 10000 0.5 0 11:29 17.02.2020
2578 Clouds 8 1020 61 10000 1 0 10:59 17.02.2020
2579 Clouds 7 1020 70 10000 3.1 260 10:40 17.02.2020
2580 Clouds 6 1020 70 10000 3.1 260 10:22 17.02.2020
2581 Clouds 7 1020 60 10000 2.1 220 09:58 17.02.2020
2582 Clouds 6 1020 60 10000 2.1 220 09:40 17.02.2020
2583 Clouds 4 1020 60 10000 2.1 260 09:20 17.02.2020
2584 Clouds 4 1020 60 10000 1 0 08:56 17.02.2020
2585 Clouds 4 1020 60 10000 1 0 08:38 17.02.2020
2586 Clouds 3 1020 80 10000 3.6 270 08:19 17.02.2020
2587 Clouds 2 1020 80 10000 2.1 290 07:42 17.02.2020
2588 Clouds 3 1020 74 10000 3.1 250 07:22 17.02.2020
2589 Clouds 3 1020 80 10000 2.1 0 06:51 17.02.2020
2590 Clouds 3 1021 74 10000 1.5 270 06:30 17.02.2020
2591 Clouds 3 1021 74 10000 1.5 270 06:30 17.02.2020
2592 Clouds 3 1020 80 10000 2.6 290 05:40 17.02.2020
2593 Clouds 4 1020 74 10000 2.1 260 04:58 17.02.2020
2594 Clouds 4 1020 50 10000 2.1 240 03:20 17.02.2020
2595 Clouds 4 1020 50 10000 3.6 250 01:47 17.02.2020
2596 Clouds 5 1020 47 10000 3.1 240 00:41 17.02.2020
2597 Clouds 5 1020 47 10000 4.6 290 00:19 17.02.2020
2598 Clouds 5 1020 47 10000 5.7 260 23:53 16.02.2020
2599 Clouds 5 1020 47 10000 4.6 250 23:29 16.02.2020
2600 Clouds 5 1020 52 10000 5.1 280 22:57 16.02.2020
2601 Clouds 5 1020 52 10000 5.7 270 22:38 16.02.2020
2602 Clouds 5 1020 52 10000 5.7 270 22:20 16.02.2020
2603 Clouds 6 1020 52 10000 5.7 260 21:56 16.02.2020
2604 Clouds 6 1020 52 10000 6.2 270 21:38 16.02.2020
2605 Clouds 6 1020 52 10000 6.2 270 21:38 16.02.2020
2606 Clouds 6 1020 52 10000 6.2 270 21:20 16.02.2020
2607 Clouds 6 1020 52 10000 4.1 270 20:57 16.02.2020
2608 Clouds 6 1020 52 10000 4.1 270 20:38 16.02.2020
2609 Clouds 7 1020 65 10000 4.6 270 20:20 16.02.2020
2610 Clouds 7 1020 51 10000 3.1 250 19:57 16.02.2020
2611 Clouds 9 1020 51 10000 3.1 250 19:37 16.02.2020
2612 Clouds 9 1020 61 10000 1.5 0 19:18 16.02.2020
2613 Clouds 9 1020 61 10000 1.5 0 19:18 16.02.2020
2614 Clouds 10 1020 53 10000 3.1 260 18:42 16.02.2020
2615 Clouds 10 1019 53 10000 3.1 270 18:23 16.02.2020
2616 Clouds 12 1019 51 10000 4.6 250 17:55 16.02.2020
2617 Clouds 11 1019 51 10000 3.6 270 17:36 16.02.2020
2618 Clouds 11 1019 57 10000 3.6 270 17:18 16.02.2020
2619 Clouds 11 1019 57 10000 5.7 260 16:39 16.02.2020
2620 Clouds 12 1019 35 10000 3.6 250 16:21 16.02.2020
2621 Clouds 12 1019 35 10000 3.6 250 16:21 16.02.2020
2622 Clouds 12 1019 57 10000 3.1 270 15:59 16.02.2020
2623 Clouds 12 1019 57 10000 3.1 270 15:40 16.02.2020
2624 Clouds 12 1020 40 10000 4.1 270 15:21 16.02.2020
2625 Clouds 11 1020 40 10000 4.6 270 14:41 16.02.2020
2626 Clouds 11 1020 40 10000 4.6 260 14:23 16.02.2020
2627 Clouds 11 1021 40 10000 3.1 270 13:55 16.02.2020
2628 Clouds 10 1022 43 10000 1 0 13:36 16.02.2020
2629 Clouds 10 1022 43 10000 1 0 13:18 16.02.2020
2630 Clouds 10 1022 49 10000 1 0 12:39 16.02.2020
2631 Clouds 9 1023 49 10000 0.5 0 12:19 16.02.2020
2632 Clouds 8 1023 56 10000 1 0 11:40 16.02.2020
2633 Clouds 6 1023 60 10000 1.5 40 11:19 16.02.2020
2634 Clouds 5 1024 69 10000 0.5 0 10:58 16.02.2020
2635 Clouds 4 1024 69 10000 0.5 0 10:40 16.02.2020
2636 Clouds 4 1024 69 10000 2.1 260 10:21 16.02.2020
2637 Clouds 4 1024 69 10000 2.1 260 10:21 16.02.2020
2638 Clouds 4 1024 74 10000 2.6 270 09:59 16.02.2020
2639 Clouds 4 1024 74 10000 2.6 270 09:59 16.02.2020
2640 Clouds 3 1024 80 10000 1.5 270 09:38 16.02.2020
2641 Clouds 2 1024 80 10000 1.5 270 09:20 16.02.2020
2642 Clouds 2 1025 42 10000 1 0 08:50 16.02.2020
2643 Clouds 1 1025 86 10000 1 0 08:22 16.02.2020
2644 Clouds 1 1025 86 10000 1 0 07:59 16.02.2020
2645 Clouds 0 1025 86 10000 1 0 07:39 16.02.2020
2646 Clouds 0 1024 86 10000 1 0 06:39 16.02.2020
2647 Clouds 0 1025 92 10000 1 0 05:43 16.02.2020
2648 Clouds 0 1025 86 10000 1 0 04:35 16.02.2020
2649 Clouds 1 1026 37 10000 0.5 0 03:18 16.02.2020
2650 Clouds 1 1025 80 10000 0.5 0 01:57 16.02.2020
2651 Clouds 1 1025 80 10000 0.5 0 01:37 16.02.2020
2652 Clouds 1 1026 80 10000 2.6 260 01:19 16.02.2020
2653 Clouds 1 1026 42 10000 2.6 260 00:41 16.02.2020
2654 Clouds 1 1025 42 10000 2.1 270 00:21 16.02.2020
2655 Clouds 1 1025 42 10000 1 0 23:43 15.02.2020
2656 Clear 1 1026 74 10000 1 0 23:24 15.02.2020
2657 Clear 1 1025 74 10000 1 0 22:57 15.02.2020
2658 Clear 1 1025 74 10000 1.5 260 22:39 15.02.2020
2659 Clear 1 1025 74 10000 1.5 260 22:19 15.02.2020
2660 Clear 2 1025 74 10000 1 0 21:43 15.02.2020
2661 Clear 2 1025 69 10000 2.1 230 21:24 15.02.2020
2662 Clear 2 1025 74 10000 1.5 210 20:56 15.02.2020
2663 Clear 3 1025 69 10000 1.5 290 20:37 15.02.2020
2664 Clouds 3 1025 69 10000 1.5 290 20:19 15.02.2020
2665 Clouds 4 1025 64 10000 1 0 19:41 15.02.2020
2666 Clouds 4 1024 60 10000 1.5 230 19:22 15.02.2020
2667 Clouds 4 1023 56 10000 2.1 250 18:41 15.02.2020
2668 Clouds 5 1023 60 10000 1.5 190 18:21 15.02.2020
2669 Clouds 6 1023 55 10000 1 0 17:56 15.02.2020
2670 Clouds 8 1023 49 10000 1.5 160 17:37 15.02.2020
2671 Clouds 8 1023 49 10000 1.5 160 17:19 15.02.2020
2672 Clouds 9 1023 43 10000 1.5 180 16:41 15.02.2020
2673 Clouds 10 1023 43 10000 1.5 170 16:23 15.02.2020
2674 Clouds 12 1023 34 10000 1.5 270 15:54 15.02.2020
2675 Clouds 12 1023 34 10000 3.1 270 15:36 15.02.2020
2676 Clouds 12 1023 34 10000 3.1 270 15:18 15.02.2020
2677 Clouds 11 1023 34 10000 3.6 280 14:39 15.02.2020
2678 Clouds 9 1024 39 10000 4.6 270 14:18 15.02.2020
2679 Clouds 9 1024 39 10000 5.1 260 13:42 15.02.2020
2680 Clouds 8 1024 45 10000 5.7 260 13:23 15.02.2020
2681 Clouds 8 1025 48 10000 5.1 270 12:57 15.02.2020
2682 Clouds 8 1025 48 10000 5.7 260 12:38 15.02.2020
2683 Clouds 6 1025 48 10000 5.7 260 12:19 15.02.2020
2684 Clouds 5 1026 60 10000 5.7 260 11:46 15.02.2020
2685 Clouds 4 1026 60 10000 5.1 270 11:27 15.02.2020
2686 Clouds 3 1026 69 10000 4.1 270 10:49 15.02.2020
2687 Clouds 2 1027 86 10000 1 0 10:30 15.02.2020
2688 Clouds 1 1027 48 10000 0.5 0 09:57 15.02.2020
2689 Clouds 1 1027 48 10000 0.5 0 09:38 15.02.2020
2690 Clouds 1 1027 92 10000 2.1 270 09:20 15.02.2020
2691 Clouds 0 1027 92 10000 2.1 270 08:43 15.02.2020
2692 Clouds 0 1027 92 10000 1 0 08:24 15.02.2020
2693 Clouds -1 1027 92 10000 0.5 0 07:50 15.02.2020
2694 Clouds -1 1027 92 10000 1 0 07:30 15.02.2020
2695 Clouds -1 1027 100 10000 1.5 270 06:51 15.02.2020
2696 Clouds -1 1027 100 10000 1.5 300 06:31 15.02.2020
2697 Clouds -1 1027 92 10000 1 0 05:41 15.02.2020
2698 Clouds -2 1028 100 10000 0.5 0 04:45 15.02.2020
2699 Clouds -2 1029 92 10000 1 0 03:24 15.02.2020
2700 Clouds -1 1029 100 10000 2.1 260 02:50 15.02.2020
2701 Clouds -1 1029 92 10000 1 0 02:21 15.02.2020
2702 Clouds -1 1029 92 10000 1 0 01:39 15.02.2020
2703 Clouds -1 1029 92 10000 1 0 00:42 15.02.2020
2704 Clouds 0 1029 88 10000 1 300 00:21 15.02.2020
2705 Clouds 0 1028 86 10000 1 0 23:40 14.02.2020
2706 Clouds 1 1028 86 10000 1 0 23:19 14.02.2020
2707 Clouds 2 1028 90 10000 1 0 22:44 14.02.2020
2708 Clouds 2 1028 86 10000 1.5 280 22:23 14.02.2020
2709 Clouds 2 1028 86 10000 1 0 21:54 14.02.2020
2710 Clouds 2 1027 90 10000 0.5 0 21:36 14.02.2020
2711 Clouds 2 1027 90 10000 0.5 0 21:18 14.02.2020
2712 Clouds 3 1027 90 10000 0.5 0 20:42 14.02.2020
2713 Clouds 2 1026 91 10000 1 0 20:19 14.02.2020
2714 Clouds 2 1026 91 10000 0.5 0 19:55 14.02.2020
2715 Clouds 3 1025 80 10000 0.79 223 19:37 14.02.2020
2716 Clouds 4 1025 80 10000 0.79 223 19:18 14.02.2020
2717 Clouds 4 1025 80 10000 0.5 0 18:55 14.02.2020
2718 Clouds 5 1024 75 10000 1.5 100 18:36 14.02.2020
2719 Clouds 5 1024 75 10000 1.5 100 18:18 14.02.2020
2720 Clouds 7 1023 70 10000 4.1 100 17:40 14.02.2020
2721 Clouds 5 1023 70 10000 4.1 100 17:19 14.02.2020
2722 Clouds 5 1023 65 10000 3.1 90 16:43 14.02.2020
2723 Clouds 5 1023 75 10000 3.6 70 16:24 14.02.2020
2724 Clouds 5 1023 65 10000 3.6 90 15:58 14.02.2020
2725 Clouds 5 1023 65 10000 3.6 90 15:58 14.02.2020
2726 Clouds 6 1023 65 10000 3.6 90 15:40 14.02.2020
2727 Clouds 6 1022 65 10000 4.1 90 15:21 14.02.2020
2728 Clouds 6 1022 70 10000 4.6 70 14:59 14.02.2020
2729 Clouds 6 1022 70 10000 4.6 70 14:59 14.02.2020
2730 Clouds 6 1022 70 10000 4.1 80 14:41 14.02.2020
2731 Clouds 5 1022 70 10000 4.1 80 14:22 14.02.2020
2732 Clouds 5 1022 75 10000 3.6 80 13:57 14.02.2020
2733 Clouds 5 1022 75 10000 3.6 80 13:39 14.02.2020
2734 Clouds 5 1022 81 10000 2.1 80 13:20 14.02.2020
2735 Clouds 5 1022 81 10000 2.6 90 12:57 14.02.2020
2736 Clouds 5 1022 81 10000 2.6 90 12:57 14.02.2020
2737 Clouds 5 1022 81 10000 3.1 90 12:38 14.02.2020
2738 Clouds 5 1022 81 10000 3.1 90 12:20 14.02.2020
2739 Clouds 4 1022 86 10000 2.1 120 11:56 14.02.2020
2740 Clouds 4 1022 80 10000 1.5 60 11:37 14.02.2020
2741 Clouds 4 1022 80 10000 1.5 60 11:19 14.02.2020
2742 Rain 3 1020 86 10000 1 0 10:41 14.02.2020
2743 Rain 3 1020 86 10000 1 0 10:22 14.02.2020
2744 Rain 3 1020 86 10000 1.5 80 09:55 14.02.2020
2745 Rain 3 1019 93 10000 1.5 60 09:36 14.02.2020
2746 Rain 2 1018 93 10000 1 0 09:18 14.02.2020
2747 Rain 3 1018 93 10000 1 0 08:40 14.02.2020
2748 Rain 3 1018 93 10000 1 0 08:22 14.02.2020
2749 Rain 3 1018 93 10000 1 0 08:22 14.02.2020
2750 Rain 3 1018 93 10000 1 0 08:22 14.02.2020
2751 Rain 3 1018 93 10000 1 0 08:22 14.02.2020
2752 Rain 3 1016 93 10000 1 0 07:50 14.02.2020
2753 Rain 3 1016 93 10000 2.1 40 07:30 14.02.2020
2754 Rain 2 1015 93 10000 1 0 06:41 14.02.2020
2755 Rain 2 1015 93 10000 1 0 06:41 14.02.2020
2756 Rain 3 1015 80 10000 2.1 230 06:21 14.02.2020
2757 Rain 3 1015 80 10000 2.1 230 06:21 14.02.2020
2758 Drizzle 3 1014 86 10000 1.5 310 05:41 14.02.2020
2759 Drizzle 3 1014 86 10000 1.5 310 05:41 14.02.2020
2760 Clouds 3 1013 80 10000 1.5 220 03:50 14.02.2020
2761 Clouds 3 1013 80 10000 4.6 250 02:58 14.02.2020
2762 Rain 3 1012 80 10000 6.7 260 02:18 14.02.2020
2763 Clouds 3 1011 79 10000 5.1 270 00:59 14.02.2020
2764 Clouds 4 1011 65 10000 2.6 90 00:32 14.02.2020
2765 Clouds 4 1011 65 10000 2.6 120 23:59 13.02.2020
2766 Clouds 4 1011 65 10000 2.6 120 23:41 13.02.2020
2767 Clouds 6 1011 60 10000 3.6 0 23:19 13.02.2020
2768 Clouds 5 1012 56 10000 4.1 280 22:40 13.02.2020
2769 Clouds 4 1012 56 10000 4.1 280 22:19 13.02.2020
2770 Clouds 4 1011 52 10000 2.6 260 21:58 13.02.2020
2771 Clouds 5 1011 52 10000 2.6 260 21:40 13.02.2020
2772 Clouds 6 1009 52 10000 5.7 250 21:20 13.02.2020
2773 Clouds 8 1008 31 10000 5.1 160 20:43 13.02.2020
2774 Clouds 6 1008 29 10000 6.7 0 20:22 13.02.2020
2775 Clouds 5 1007 29 10000 8.2 150 19:58 13.02.2020
2776 Clouds 6 1008 29 10000 6.2 0 19:39 13.02.2020
2777 Clouds 7 1008 29 10000 6.2 0 19:20 13.02.2020
2778 Clouds 9 1009 26 10000 6.2 0 18:58 13.02.2020
2779 Clouds 9 1009 26 10000 6.2 0 18:58 13.02.2020
2780 Clouds 9 1008 26 10000 5.7 140 18:39 13.02.2020
2781 Clouds 9 1008 26 10000 5.7 140 18:21 13.02.2020
2782 Clouds 9 1009 29 10000 6.7 150 17:57 13.02.2020
2783 Clouds 10 1009 27 10000 6.7 130 17:37 13.02.2020
2784 Clouds 8 1009 27 10000 6.7 130 17:19 13.02.2020
2785 Clouds 9 1009 27 10000 6.2 0 16:42 13.02.2020
2786 Clouds 9 1010 27 10000 7.2 140 16:21 13.02.2020
2787 Clouds 9 1010 27 10000 6.7 0 15:58 13.02.2020
2788 Clouds 9 1011 29 10000 5.1 40 15:39 13.02.2020
2789 Clouds 9 1011 29 10000 5.1 40 15:20 13.02.2020
2790 Clouds 8 1011 31 10000 2.6 0 14:59 13.02.2020
2791 Clouds 8 1011 31 10000 2.6 0 14:40 13.02.2020
2792 Clouds 8 1012 33 10000 5.1 260 14:40 13.02.2020
2793 Clouds 8 1012 33 10000 5.1 260 14:22 13.02.2020
2794 Clouds 7 1013 33 10000 6.2 270 13:59 13.02.2020
2795 Clouds 7 1013 33 10000 6.2 270 13:41 13.02.2020
2796 Clouds 6 1014 45 10000 7.7 260 13:18 13.02.2020
2797 Clouds 6 1015 48 10000 7.2 260 12:48 13.02.2020
2798 Clouds 5 1015 48 10000 7.2 260 12:30 13.02.2020
2799 Clouds 5 1016 55 10000 6.7 270 11:58 13.02.2020
2800 Clouds 4 1017 55 10000 7.7 260 11:40 13.02.2020
2801 Clouds 4 1017 55 10000 7.7 260 11:19 13.02.2020
2802 Clouds 2 1017 69 10000 6.7 270 10:43 13.02.2020
2803 Clouds 1 1019 56 10000 1.5 250 10:24 13.02.2020
2804 Clouds 1 1019 56 10000 1.5 250 09:47 13.02.2020
2805 Clouds 0 1019 86 10000 1.5 0 09:24 13.02.2020
2806 Clouds -1 1019 92 10000 0.5 0 08:48 13.02.2020
2807 Clouds -3 1019 86 10000 1 0 08:20 13.02.2020
2808 Clouds -3 1019 92 10000 1.5 0 07:45 13.02.2020
2809 Clouds -3 1019 86 10000 1.5 280 07:24 13.02.2020
2810 Clouds -3 1020 92 10000 3.1 250 06:59 13.02.2020
2811 Clouds -3 1020 86 10000 2.6 270 06:41 13.02.2020
2812 Clouds -3 1020 86 10000 1 270 05:57 13.02.2020
2813 Clouds -1 1021 86 10000 2.1 260 05:20 13.02.2020
2814 Clouds -1 1021 86 10000 1.5 240 04:24 13.02.2020
2815 Clouds -1 1022 80 10000 1.5 260 03:45 13.02.2020
2816 Clouds -2 1022 86 10000 1 0 02:59 13.02.2020
2817 Clouds -1 1022 73 10000 1.5 250 02:37 13.02.2020
2818 Clouds 0 1022 77 10000 1.5 250 02:18 13.02.2020
2819 Clouds 0 1022 77 10000 1 0 01:25 13.02.2020
2820 Clouds 1 1022 69 10000 3.1 40 00:32 13.02.2020
2821 Clouds 1 1022 69 10000 2.1 90 23:58 12.02.2020
2822 Clouds 1 1022 80 10000 0.5 0 23:37 12.02.2020
2823 Clouds 1 1022 80 10000 0.5 0 23:18 12.02.2020
2824 Clouds 0 1021 74 10000 0.5 0 22:43 12.02.2020
2825 Clouds 0 1021 74 10000 0.5 0 22:43 12.02.2020
2826 Clouds 0 1022 80 10000 0.5 0 22:24 12.02.2020
2827 Clouds 0 1022 80 10000 0.5 0 21:56 12.02.2020
2828 Clouds 0 1022 74 10000 0.5 0 21:37 12.02.2020
2829 Clouds 0 1022 74 10000 0.5 0 21:37 12.02.2020
2830 Clouds 0 1022 74 10000 0.5 0 21:37 12.02.2020
2831 Clouds 1 1022 74 10000 0.5 0 21:18 12.02.2020
2832 Clouds 1 1021 74 10000 0.5 0 20:55 12.02.2020
2833 Clouds 1 1021 74 10000 1 0 20:36 12.02.2020
2834 Clouds 2 1021 74 10000 1 0 20:18 12.02.2020
2835 Clouds 2 1021 74 10000 2.1 350 19:43 12.02.2020
2836 Clouds 3 1021 64 10000 1.5 350 19:22 12.02.2020
2837 Clouds 3 1020 69 10000 1.5 310 18:54 12.02.2020
2838 Clouds 3 1020 64 10000 2.6 290 18:36 12.02.2020
2839 Clouds 2 1020 64 10000 2.6 290 18:18 12.02.2020
2840 Clouds 3 1019 64 10000 3.6 260 17:40 12.02.2020
2841 Clouds 2 1019 64 10000 4.1 260 17:19 12.02.2020
2842 Clouds 3 1019 56 10000 4.1 230 16:57 12.02.2020
2843 Clouds 2 1019 64 10000 5.1 250 16:37 12.02.2020
2844 Clouds 2 1019 64 10000 5.1 250 16:18 12.02.2020
2845 Clouds 2 1019 60 10000 5.7 230 15:40 12.02.2020
2846 Clouds 3 1019 60 10000 5.7 230 15:20 12.02.2020
2847 Clouds 3 1019 60 10000 5.7 240 14:54 12.02.2020
2848 Clouds 3 1019 60 10000 5.7 220 14:36 12.02.2020
2849 Clouds 3 1019 60 10000 5.7 220 14:18 12.02.2020
2850 Clouds 3 1019 56 10000 4.6 230 13:55 12.02.2020
2851 Clouds 3 1019 64 10000 5.1 270 13:36 12.02.2020
2852 Clouds 3 1019 64 10000 5.1 270 13:18 12.02.2020
2853 Rain 3 1019 64 10000 3.6 240 12:55 12.02.2020
2854 Rain 3 1020 69 10000 3.1 260 12:36 12.02.2020
2855 Rain 3 1020 69 10000 3.1 260 12:18 12.02.2020
2856 Snow 2 1020 72 10000 3.6 260 11:42 12.02.2020
2857 Clouds 2 1020 94 10000 1.5 260 11:21 12.02.2020
2858 Clouds 2 1020 94 10000 0.5 0 10:59 12.02.2020
2859 Clouds 2 1020 94 10000 0.5 0 10:40 12.02.2020
2860 Clouds 1 1019 94 10000 0.5 0 10:21 12.02.2020
2861 Clouds 1 1019 94 6000 2.1 40 09:56 12.02.2020
2862 Clouds 1 1019 94 6000 2.1 40 09:56 12.02.2020
2863 Snow 1 1019 94 3000 0.5 0 09:38 12.02.2020
2864 Snow 0 1019 94 3000 0.5 0 09:19 12.02.2020
2865 Snow 0 1019 94 3000 0.5 0 09:19 12.02.2020
2866 Snow 1 1019 94 2500 0.5 0 08:55 12.02.2020
2867 Snow 1 1019 94 6000 0.5 0 08:36 12.02.2020
2868 Snow 0 1019 96 6000 0.5 0 08:18 12.02.2020
2869 Snow 0 1018 96 5000 1.5 310 07:42 12.02.2020
2870 Clouds 1 1018 96 5000 1 0 07:22 12.02.2020
2871 Clouds 0 1017 96 10000 0.5 0 06:52 12.02.2020
2872 Clouds 0 1017 96 10000 1 0 06:20 12.02.2020
2873 Clouds 0 1017 96 10000 3.6 80 05:35 12.02.2020
2874 Clouds 1 1017 89 10000 1 0 04:56 12.02.2020
2875 Clouds 1 1017 89 10000 1 0 04:38 12.02.2020
2876 Snow 1 1017 89 10000 2.6 90 03:31 12.02.2020
2877 Rain 1 1017 89 10000 2.1 80 02:58 12.02.2020
2878 Clouds 1 1016 80 10000 2.1 0 02:28 12.02.2020
2879 Clouds 1 1016 80 10000 1 0 01:40 12.02.2020
2880 Clouds 0 1016 86 10000 2.6 0 00:44 12.02.2020
2881 Clouds 0 1015 92 10000 1 0 00:25 12.02.2020
2882 Clouds 0 1015 92 10000 1 0 23:55 11.02.2020
2883 Clouds 0 1015 92 10000 1 0 23:36 11.02.2020
2884 Clouds 0 1015 97 10000 1 0 23:18 11.02.2020
2885 Clouds 1 1015 86 10000 1 0 22:42 11.02.2020
2886 Clouds 1 1015 86 10000 1 0 22:21 11.02.2020
2887 Clouds 1 1015 86 10000 1.5 30 21:57 11.02.2020
2888 Clouds 1 1015 97 10000 1 0 21:39 11.02.2020
2889 Clouds 1 1015 97 10000 1 0 21:19 11.02.2020
2890 Clouds 1 1015 86 10000 3.1 110 20:59 11.02.2020
2891 Clouds 1 1015 86 10000 2.1 100 20:39 11.02.2020
2892 Clouds 1 1015 86 10000 2.1 100 20:39 11.02.2020
2893 Clouds 2 1015 86 10000 2.1 100 20:20 11.02.2020
2894 Snow 1 1027 82 0 2.24 351 19:58 11.02.2020
2895 Rain 2 1013 80 10000 6.7 250 19:40 11.02.2020
2896 Rain 2 1013 80 10000 6.7 250 19:22 11.02.2020
2897 Rain 2 1013 80 10000 10.3 280 18:46 11.02.2020
2898 Snow 1 1024 88 0 2.68 349 18:28 11.02.2020
2899 Snow 1 1014 93 0 1.34 194 17:59 11.02.2020
2900 Snow 1 1013 93 0 1.79 25 17:40 11.02.2020
2901 Snow 2 1012 93 0 0.45 67 17:20 11.02.2020
2902 Rain 3 1010 97 10000 4.6 240 16:58 11.02.2020
2903 Rain 3 1010 97 10000 4.6 240 16:58 11.02.2020
2904 Clouds 4 1010 56 10000 8.2 270 16:40 11.02.2020
2905 Clouds 4 1010 56 10000 8.2 270 16:21 11.02.2020
2906 Clouds 4 1009 49 10000 11.3 280 15:58 11.02.2020
2907 Clouds 5 1009 49 10000 9.3 290 15:39 11.02.2020
2908 Clouds 5 1009 49 10000 9.3 290 15:21 11.02.2020
2909 Clouds 6 1009 42 10000 10.3 300 14:42 11.02.2020
2910 Clouds 6 1008 39 10000 12.3 280 14:19 11.02.2020
2911 Clouds 6 1008 39 10000 12.3 280 14:19 11.02.2020
2912 Clouds 6 1008 39 10000 9.8 300 13:57 11.02.2020
2913 Clouds 7 1009 42 10000 8.2 280 13:38 11.02.2020
2914 Clouds 7 1009 42 10000 8.2 280 13:20 11.02.2020
2915 Clouds 7 1010 42 10000 10.3 270 12:55 11.02.2020
2916 Snow 4 1011 66 0 2.24 225 12:36 11.02.2020
2917 Snow 4 1022 58 0 3.13 12 12:18 11.02.2020
2918 Clouds 5 1011 45 10000 10.3 290 11:41 11.02.2020
2919 Clouds 5 1012 52 10000 9.8 290 11:19 11.02.2020
2920 Clouds 4 1011 56 10000 5.7 260 10:54 11.02.2020
2921 Clouds 4 1011 56 10000 5.7 260 10:54 11.02.2020
2922 Clouds 3 1011 80 10000 6.7 250 10:36 11.02.2020
2923 Clouds 3 1011 80 10000 6.7 250 10:36 11.02.2020
2924 Clouds 3 1011 80 10000 6.7 250 10:18 11.02.2020
2925 Rain 2 1010 86 10000 2.6 120 09:43 11.02.2020
2926 Rain 1 1022 85 0 1.34 4 09:22 11.02.2020
2927 Rain 2 1009 86 10000 5.7 60 08:56 11.02.2020
2928 Rain 2 1009 93 10000 1.5 340 08:38 11.02.2020
2929 Rain 1 1020 89 0 0.89 115 08:19 11.02.2020
2930 Rain 2 1019 89 0 2.58 307 07:45 11.02.2020
2931 Rain 1 1019 88 0 0.45 42 07:24 11.02.2020
2932 Rain 3 1008 75 10000 3.6 110 06:42 11.02.2020
2933 Snow 2 1009 92 0 4.47 174 06:20 11.02.2020
2934 Snow 2 1009 89 0 3.13 81 05:47 11.02.2020
2935 Rain 3 1018 82 0 2.68 256 05:21 11.02.2020
2936 Drizzle 3 1004 93 10000 1 0 04:35 11.02.2020
2937 Rain 4 1004 93 10000 2.1 60 02:41 11.02.2020
2938 Clouds 4 1004 93 10000 2.1 130 02:22 11.02.2020
2939 Rain 4 1005 93 10000 1.5 0 01:34 11.02.2020
2940 Rain 4 1006 86 10000 2.1 270 00:32 11.02.2020
2941 Clouds 4 1006 93 10000 1.5 0 23:52 10.02.2020
2942 Clouds 4 1007 86 10000 1.5 90 23:31 10.02.2020
2943 Rain 4 1007 86 10000 1 0 22:58 10.02.2020
2944 Rain 4 1007 86 10000 1 0 22:38 10.02.2020
2945 Clouds 4 1007 86 10000 4.1 0 22:20 10.02.2020
2946 Clouds 4 1007 80 10000 2.6 100 21:43 10.02.2020
2947 Clouds 4 1008 80 10000 2.6 110 21:25 10.02.2020
2948 Clouds 4 1008 80 10000 2.6 110 21:25 10.02.2020
2949 Clouds 4 1009 86 10000 2.1 90 20:57 10.02.2020
2950 Clouds 4 1009 86 10000 2.1 90 20:57 10.02.2020
2951 Clouds 4 1010 86 10000 3.1 50 20:38 10.02.2020
2952 Clouds 4 1010 86 10000 3.1 50 20:20 10.02.2020
2953 Clouds 4 1009 86 10000 3.6 90 19:58 10.02.2020
2954 Clouds 4 1010 86 10000 3.6 70 19:38 10.02.2020
2955 Clouds 4 1010 86 10000 3.6 70 19:18 10.02.2020
2956 Clouds 5 1010 81 10000 3.6 100 18:58 10.02.2020
2957 Clouds 5 1010 81 10000 3.6 100 18:39 10.02.2020
2958 Clouds 6 1010 87 10000 3.6 80 18:20 10.02.2020
2959 Clouds 6 1009 81 10000 3.6 80 17:56 10.02.2020
2960 Clouds 6 1009 81 10000 4.1 50 17:37 10.02.2020
2961 Clouds 6 1009 81 10000 4.1 50 17:19 10.02.2020
2962 Clouds 6 1009 75 10000 3.6 90 16:58 10.02.2020
2963 Rain 7 1010 66 10000 6.2 240 16:38 10.02.2020
2964 Rain 7 1010 66 10000 6.2 240 16:18 10.02.2020
2965 Rain 6 1009 75 10000 6.7 240 15:42 10.02.2020
2966 Rain 7 1008 70 10000 5.7 250 15:22 10.02.2020
2967 Rain 8 1008 76 10000 2.6 0 14:59 10.02.2020
2968 Rain 7 1008 76 10000 2.6 0 14:41 10.02.2020
2969 Rain 7 1008 76 10000 4.1 220 14:19 10.02.2020
2970 Rain 7 1007 66 10000 7.7 280 13:56 10.02.2020
2971 Rain 7 1007 66 10000 7.7 280 13:56 10.02.2020
2972 Rain 7 1007 53 10000 4.1 270 13:38 10.02.2020
2973 Rain 7 1007 53 10000 4.1 270 13:18 10.02.2020
2974 Rain 7 1007 53 10000 4.1 270 13:18 10.02.2020
2975 Snow 7 1018 60 0 2.68 173 12:44 10.02.2020
2976 Snow 8 1017 59 0 1.79 111 12:25 10.02.2020
2977 Clouds 8 1006 65 10000 3.6 0 11:55 10.02.2020
2978 Clouds 8 1006 96 10000 3.6 0 11:37 10.02.2020
2979 Clouds 9 1006 71 10000 3.6 0 11:19 10.02.2020
2980 Clouds 9 1006 71 10000 6.2 250 10:45 10.02.2020
2981 Clouds 4 1007 71 10000 4.6 0 10:26 10.02.2020
2982 Clouds 8 1006 71 10000 4.6 270 09:45 10.02.2020
2983 Clouds 7 1006 69 10000 3.6 260 09:25 10.02.2020
2984 Clouds 6 1006 74 10000 3.1 280 08:55 10.02.2020
2985 Clouds 6 1006 64 10000 3.6 250 08:36 10.02.2020
2986 Clouds 8 1006 64 10000 3.6 250 08:18 10.02.2020
2987 Clouds 7 1007 69 10000 3.6 270 07:46 10.02.2020
2988 Clouds 7 1008 64 10000 2.6 0 07:25 10.02.2020
2989 Clouds 8 1009 49 10000 9.3 160 05:52 10.02.2020
2990 Clouds 9 1011 49 10000 9.8 160 04:26 10.02.2020
2991 Clouds 7 1012 52 10000 3.6 0 03:31 10.02.2020
2992 Clouds 8 1013 45 10000 7.7 160 02:54 10.02.2020
2993 Clouds 6 1014 49 10000 4.6 0 01:36 10.02.2020
2994 Clouds 6 1014 49 10000 4.6 0 01:36 10.02.2020
2995 Clouds 6 1015 49 10000 8.2 160 00:48 10.02.2020
2996 Clouds 3 1015 69 10000 2.6 0 00:28 10.02.2020
2997 Clouds 3 1016 69 10000 3.1 0 23:45 09.02.2020
2998 Clouds 3 1016 69 10000 3.1 0 23:45 09.02.2020
2999 Clouds 5 1017 48 10000 5.1 160 23:26 09.02.2020
3000 Clouds 9 1017 42 10000 6.7 0 22:59 09.02.2020
3001 Clouds 4 1017 45 10000 6.2 160 22:38 09.02.2020
3002 Clouds 4 1017 45 10000 6.2 160 22:19 09.02.2020
3003 Clouds 4 1018 48 10000 6.2 0 21:41 09.02.2020
3004 Clouds 2 1018 60 10000 3.1 0 21:22 09.02.2020
3005 Clouds 2 1018 60 10000 3.1 0 21:22 09.02.2020
3006 Clouds 5 1018 39 10000 6.7 170 20:47 09.02.2020
3007 Clouds 4 1018 37 10000 7.2 160 20:23 09.02.2020
3008 Clouds 2 1016 67 0 4.45 183 19:58 09.02.2020
3009 Clouds 3 1016 67 0 4.45 183 19:39 09.02.2020
3010 Clouds 3 1019 56 0 0.45 165 19:20 09.02.2020
3011 Clouds 3 1019 56 0 0.45 165 19:20 09.02.2020
3012 Clouds 6 1019 34 10000 6.7 150 18:42 09.02.2020
3013 Clouds 6 1019 39 10000 2.1 0 18:24 09.02.2020
3014 Clouds 7 1018 32 10000 8.2 160 17:59 09.02.2020
3015 Clouds 11 1019 32 10000 7.2 170 17:39 09.02.2020
3016 Clouds 11 1019 32 10000 7.2 170 17:39 09.02.2020
3017 Clear 7 1019 32 10000 7.2 170 17:21 09.02.2020
3018 Clear 8 1019 37 10000 4.1 0 16:43 09.02.2020
3019 Clear 8 1019 42 10000 2.6 240 16:24 09.02.2020
3020 Clear 8 1019 52 10000 5.1 270 15:59 09.02.2020
3021 Clear 8 1020 39 10000 3.6 250 15:41 09.02.2020
3022 Clear 7 1019 52 10000 5.1 270 15:41 09.02.2020
3023 Clear 9 1020 39 10000 3.6 250 15:21 09.02.2020
3024 Clear 8 1020 45 10000 3.6 270 14:57 09.02.2020
3025 Clear 8 1020 45 10000 3.6 270 14:38 09.02.2020
3026 Clouds 8 1021 52 10000 3.1 260 14:20 09.02.2020
3027 Clouds 7 1022 45 10000 2.6 250 13:44 09.02.2020
3028 Clouds 6 1023 56 10000 4.1 280 13:26 09.02.2020
3029 Clouds 6 1024 64 10000 3.6 270 12:56 09.02.2020
3030 Clouds 6 1024 64 10000 3.6 270 12:38 09.02.2020
3031 Clouds 5 1025 69 10000 1.5 250 12:18 09.02.2020
3032 Clouds 5 1026 74 10000 0.5 0 11:41 09.02.2020
3033 Clouds 2 1026 74 10000 0.5 0 11:20 09.02.2020
3034 Clouds 1 1026 52 10000 1.5 90 10:57 09.02.2020
3035 Clouds 0 1026 52 10000 1.5 90 10:39 09.02.2020
3036 Clouds 0 1027 92 10000 3.1 260 10:20 09.02.2020
3037 Clouds 0 1027 92 10000 1.5 0 09:41 09.02.2020
3038 Clouds -1 1027 100 10000 0.5 0 09:22 09.02.2020
3039 Clouds -2 1027 100 10000 0.5 0 08:45 09.02.2020
3040 Clouds -2 1027 100 10000 0.5 0 08:45 09.02.2020
3041 Clouds -2 1027 92 10000 0.5 0 08:26 09.02.2020
3042 Clouds -4 1027 92 10000 0.5 0 07:58 09.02.2020
3043 Clouds -4 1027 92 10000 1.5 210 07:34 09.02.2020
3044 Fog -4 1027 100 10000 0.5 0 06:46 09.02.2020
3045 Mist -4 1027 100 4700 0.5 0 05:59 09.02.2020
3046 Clouds -3 1027 92 10000 1 0 05:37 09.02.2020
3047 Clear -3 1027 92 10000 1 0 05:18 09.02.2020
3048 Clear -3 1027 100 10000 0.5 0 03:52 09.02.2020
3049 Mist -2 1027 92 5000 0.5 0 02:44 09.02.2020
3050 Clouds -2 1026 92 10000 0.5 0 02:24 09.02.2020
3051 Clouds -2 1026 92 10000 0.5 0 01:34 09.02.2020
3052 Clouds -1 1026 92 10000 1.5 80 00:41 09.02.2020
3053 Clouds -1 1026 92 10000 1 0 00:21 09.02.2020
3054 Clouds -1 1026 100 10000 1 0 23:42 08.02.2020
3055 Clouds -1 1026 92 10000 1 0 23:20 08.02.2020
3056 Clouds -1 1026 92 10000 1 0 23:20 08.02.2020
3057 Clouds 0 1026 92 10000 1 0 22:42 08.02.2020
3058 Clouds 0 1027 92 10000 0.5 0 22:21 08.02.2020
3059 Clouds 0 1027 92 10000 0.5 0 21:58 08.02.2020
3060 Clouds 0 1027 92 10000 0.5 0 21:40 08.02.2020
3061 Clouds 0 1026 63 10000 1 0 21:19 08.02.2020
3062 Clouds 1 1026 63 10000 1 0 20:55 08.02.2020
3063 Clouds 0 1026 63 10000 1 0 20:37 08.02.2020
3064 Clouds 1 1026 75 10000 1 0 20:18 08.02.2020
3065 Clouds 0 1025 75 10000 1 140 19:54 08.02.2020
3066 Clouds 1 1025 86 10000 0.5 0 19:36 08.02.2020
3067 Clouds 1 1025 86 10000 0.5 0 19:18 08.02.2020
3068 Clouds 1 1024 80 10000 1.5 240 18:42 08.02.2020
3069 Clouds 2 1024 80 10000 0.5 0 18:22 08.02.2020
3070 Clouds 2 1024 80 10000 1 0 17:43 08.02.2020
3071 Clouds 4 1023 69 10000 0.5 0 17:21 08.02.2020
3072 Clouds 4 1023 69 10000 0.5 0 17:21 08.02.2020
3073 Clouds 4 1023 65 10000 1.5 170 16:58 08.02.2020
3074 Clouds 5 1023 65 10000 1.5 170 16:38 08.02.2020
3075 Clouds 6 1023 60 10000 1 160 16:20 08.02.2020
3076 Clouds 7 1024 52 10000 1.5 160 15:42 08.02.2020
3077 Clouds 7 1024 52 10000 1.5 160 15:19 08.02.2020
3078 Clouds 7 1024 56 10000 0.5 0 14:57 08.02.2020
3079 Clouds 7 1024 56 10000 0.5 0 14:39 08.02.2020
3080 Clear 7 1024 56 10000 1.5 260 14:18 08.02.2020
3081 Clear 6 1024 56 10000 0.5 0 13:43 08.02.2020
3082 Clear 5 1025 60 10000 0.5 0 13:23 08.02.2020
3083 Clear 4 1025 69 10000 0.87 31 12:50 08.02.2020
3084 Clear 5 1026 74 10000 1.5 270 12:25 08.02.2020
3085 Clear 5 1026 69 10000 0.5 0 11:59 08.02.2020
3086 Clear 4 1026 69 10000 0.5 0 11:40 08.02.2020
3087 Clear 1 1027 80 10000 0.5 0 11:21 08.02.2020
3088 Clear 1 1027 51 10000 0.5 0 10:43 08.02.2020
3089 Clear 0 1027 92 10000 0.5 0 10:24 08.02.2020
3090 Clear -1 1027 92 10000 0.5 0 09:53 08.02.2020
3091 Clear -1 1027 92 10000 0.5 0 09:30 08.02.2020
3092 Clear -3 1027 92 10000 1.5 310 08:59 08.02.2020
3093 Clear -3 1027 92 10000 1.5 310 08:39 08.02.2020
3094 Clouds -5 1026 92 10000 0.5 0 08:21 08.02.2020
3095 Fog -5 1026 92 10000 1 0 07:50 08.02.2020
3096 Clear -5 1026 92 10000 1 0 07:31 08.02.2020
3097 Clear -5 1026 92 10000 1 0 06:33 08.02.2020
3098 Clear -4 1026 100 10000 1 0 05:50 08.02.2020
3099 Clear -5 1026 100 800 0.5 0 05:31 08.02.2020
3100 Clear -5 1026 92 900 0.5 0 04:51 08.02.2020
3101 Mist -4 1026 92 1800 0.5 0 03:57 08.02.2020
3102 Clear -4 1026 92 6000 1 0 02:58 08.02.2020
3103 Clear -3 1026 100 10000 1 0 02:28 08.02.2020
3104 Clear -3 1026 92 10000 0.5 0 01:28 08.02.2020
3105 Clear -3 1026 92 10000 1 0 00:46 08.02.2020
3106 Clear -3 1026 100 10000 1 0 00:24 08.02.2020
3107 Clear -3 1026 100 10000 1 0 23:56 07.02.2020
3108 Clear -3 1026 100 10000 1 0 23:37 07.02.2020
3109 Clear -3 1026 92 10000 0.5 0 23:19 07.02.2020
3110 Clear -2 1026 92 10000 1 0 22:41 07.02.2020
3111 Clear -2 1026 92 10000 1 0 22:19 07.02.2020
3112 Clear -2 1026 85 10000 0.5 0 21:45 07.02.2020
3113 Clear -2 1026 86 10000 2.1 250 21:23 07.02.2020
3114 Clear -2 1026 86 10000 0.5 0 20:59 07.02.2020
3115 Clear -1 1026 86 10000 0.5 0 20:39 07.02.2020
3116 Clear -1 1026 86 10000 0.5 0 20:18 07.02.2020
3117 Clear -1 1026 86 10000 0.5 0 19:43 07.02.2020
3118 Clear -1 1026 86 10000 1 0 19:22 07.02.2020
3119 Clear 0 1026 86 10000 1 0 18:59 07.02.2020
3120 Clear 0 1026 86 10000 1 0 18:59 07.02.2020
3121 Clear -1 1026 86 10000 1 0 18:41 07.02.2020
3122 Clear -1 1025 80 10000 0.5 0 18:22 07.02.2020
3123 Clear 0 1025 52 10000 1 0 17:43 07.02.2020
3124 Clear 2 1025 74 10000 1 180 17:22 07.02.2020
3125 Clear 1 1025 74 10000 1 180 17:22 07.02.2020
3126 Clear 2 1025 64 10000 1.5 170 16:57 07.02.2020
3127 Clear 3 1025 56 10000 1 160 16:39 07.02.2020
3128 Clear 4 1025 56 10000 1 160 16:20 07.02.2020
3129 Clear 4 1025 60 10000 0.5 0 15:49 07.02.2020
3130 Clear 4 1025 52 10000 0.5 0 15:27 07.02.2020
3131 Clear 4 1025 55 10000 1.5 260 14:54 07.02.2020
3132 Clear 4 1026 59 10000 2.1 260 14:36 07.02.2020
3133 Clear 3 1026 59 10000 2.1 260 14:18 07.02.2020
3134 Clear 3 1026 60 10000 0.87 55 13:40 07.02.2020
3135 Clear 3 1027 59 10000 0.5 0 13:22 07.02.2020
3136 Clear 2 1028 69 10000 0.5 0 12:58 07.02.2020
3137 Clear 2 1028 69 10000 0.5 0 12:40 07.02.2020
3138 Clear 2 1028 46 10000 0.5 0 12:21 07.02.2020
3139 Clear 2 1029 79 10000 1 0 11:42 07.02.2020
3140 Clear 0 1029 79 10000 1 0 11:22 07.02.2020
3141 Clear -1 1029 86 10000 0.5 0 10:43 07.02.2020
3142 Clear -3 1029 85 10000 1.5 230 10:24 07.02.2020
3143 Clear -3 1030 92 10000 1.5 250 09:59 07.02.2020
3144 Clear -2 1030 92 10000 1.5 250 09:39 07.02.2020
3145 Clear -2 1030 92 10000 1.5 250 09:39 07.02.2020
3146 Clear -4 1030 92 10000 1 0 09:21 07.02.2020
3147 Clear -5 1030 92 10000 0.5 0 08:43 07.02.2020
3148 Clear -6 1030 100 10000 1 0 08:21 07.02.2020
3149 Clear -6 1030 100 10000 1 0 08:21 07.02.2020
3150 Clear -6 1030 92 10000 0.5 0 07:49 07.02.2020
3151 Clear -6 1030 100 10000 1.5 270 07:30 07.02.2020
3152 Clear -6 1030 92 10000 1 0 06:47 07.02.2020
3153 Clear -6 1030 92 10000 1.5 260 06:47 07.02.2020
3154 Clear -6 1030 92 10000 1.5 260 06:27 07.02.2020
3155 Clear -6 1030 100 10000 0.5 0 05:57 07.02.2020
3156 Clear -6 1030 92 800 0.5 0 05:35 07.02.2020
3157 Clouds -6 1030 92 10000 0.5 0 03:33 07.02.2020
3158 Clouds -5 1031 100 10000 2.1 250 01:51 07.02.2020
3159 Clouds -5 1031 92 10000 0.5 0 00:49 07.02.2020
3160 Clouds -5 1031 100 10000 0.5 0 00:21 07.02.2020
3161 Clouds -5 1031 92 10000 0.5 0 23:38 06.02.2020
3162 Clouds -5 1031 85 10000 0.5 0 23:19 06.02.2020
3163 Clouds -4 1031 92 10000 1 0 22:45 06.02.2020
3164 Clouds -4 1031 85 10000 0.5 0 22:25 06.02.2020
3165 Clouds -4 1031 85 10000 1 0 21:55 06.02.2020
3166 Clouds -3 1031 85 10000 1 0 21:36 06.02.2020
3167 Clouds -4 1031 85 10000 1 0 21:18 06.02.2020
3168 Clouds -4 1031 85 10000 0.5 0 20:54 06.02.2020
3169 Clouds -3 1031 85 10000 0.5 0 20:36 06.02.2020
3170 Clear -3 1031 85 10000 0.5 0 20:18 06.02.2020
3171 Clear -3 1031 85 10000 1 280 19:42 06.02.2020
3172 Clear -3 1031 86 10000 0.5 0 19:23 06.02.2020
3173 Clear -2 1031 79 10000 0.5 0 18:59 06.02.2020
3174 Clear -3 1031 79 10000 0.5 0 18:40 06.02.2020
3175 Clear -2 1030 79 10000 0.5 0 18:22 06.02.2020
3176 Clear -1 1030 74 10000 0.5 0 17:46 06.02.2020
3177 Clear 0 1030 49 10000 1 0 17:22 06.02.2020
3178 Clear 0 1030 49 10000 1 0 17:21 06.02.2020
3179 Clear 0 1030 59 10000 1 180 16:59 06.02.2020
3180 Clear 1 1030 59 10000 1 180 16:41 06.02.2020
3181 Clear 2 1030 59 10000 1 160 16:22 06.02.2020
3182 Rain 2 1031 51 10000 0.5 0 15:43 06.02.2020
3183 Snow 2 1031 51 10000 0.5 0 15:22 06.02.2020
3184 Snow 2 1031 55 10000 0.5 0 14:51 06.02.2020
3185 Snow 1 1031 55 10000 1.5 270 14:28 06.02.2020
3186 Snow 1 1032 33 10000 2.1 270 13:59 06.02.2020
3187 Snow 0 1032 63 10000 2.6 260 13:40 06.02.2020
3188 Snow 0 1032 63 10000 2.6 260 13:19 06.02.2020
3189 Snow 0 1032 63 10000 2.1 270 12:44 06.02.2020
3190 Snow 0 1033 74 10000 1.5 270 12:19 06.02.2020
3191 Snow 0 1034 79 10000 2.1 290 11:57 06.02.2020
3192 Snow 0 1034 79 10000 2.1 290 11:39 06.02.2020
3193 Snow -3 1034 92 10000 1 0 11:19 06.02.2020
3194 Clouds -4 1034 92 10000 2.1 260 10:56 06.02.2020
3195 Clouds -4 1034 92 10000 1 0 10:38 06.02.2020
3196 Clouds -4 1034 92 10000 1 0 10:19 06.02.2020
3197 Fog -5 1034 92 10000 0.5 0 09:55 06.02.2020
3198 Fog -6 1034 100 10000 0.5 0 09:36 06.02.2020
3199 Fog -6 1034 100 10000 0.5 0 09:36 06.02.2020
3200 Fog -6 1034 100 10000 0.5 0 09:18 06.02.2020
3201 Clouds -6 1048 84 0 0.84 188 08:40 06.02.2020
3202 Fog -7 1034 92 10000 1 0 08:20 06.02.2020
3203 Clouds -7 1034 92 10000 0.5 0 07:46 06.02.2020
3204 Fog -7 1034 92 10000 2.1 320 07:24 06.02.2020
3205 Clouds -9 1034 92 10000 0.5 0 06:21 06.02.2020
3206 Clouds -9 1034 92 10000 0.5 0 06:21 06.02.2020
3207 Clouds -9 1034 92 10000 0.5 0 06:21 06.02.2020
3208 Clouds -7 1034 92 10000 1 0 05:48 06.02.2020
3209 Clear -9 1034 92 10000 0.5 0 04:20 06.02.2020
3210 Clouds -8 1035 100 9000 1.5 260 03:19 06.02.2020
3211 Clear -7 1035 92 500 0.5 0 02:28 06.02.2020
3212 Clouds -7 1035 100 7000 0.5 0 01:26 06.02.2020
3213 Clouds -7 1035 92 10000 0.5 0 00:57 06.02.2020
3214 Clouds -6 1035 92 10000 1 0 00:25 06.02.2020
3215 Clouds -6 1035 100 10000 1.5 350 23:44 05.02.2020
3216 Clouds -5 1035 92 10000 0.5 0 23:25 05.02.2020
3217 Clouds -4 1035 100 10000 1 0 22:57 05.02.2020
3218 Clouds -4 1035 92 10000 0.5 0 22:39 05.02.2020
3219 Clouds -3 1035 92 10000 0.5 0 22:20 05.02.2020
3220 Clouds -3 1035 86 10000 0.5 0 21:41 05.02.2020
3221 Clouds -3 1035 86 10000 0.5 0 21:23 05.02.2020
3222 Clouds -2 1035 92 10000 1 0 20:57 05.02.2020
3223 Clouds -2 1035 92 10000 1 0 20:38 05.02.2020
3224 Clouds -2 1035 92 10000 1 0 20:38 05.02.2020
3225 Clouds -1 1035 92 10000 0.5 0 20:19 05.02.2020
3226 Clouds -2 1034 98 10000 1 0 19:55 05.02.2020
3227 Clouds -1 1034 98 10000 2.1 140 19:37 05.02.2020
3228 Clouds -1 1034 98 10000 2.1 140 19:18 05.02.2020
3229 Snow 0 1033 98 10000 1.5 60 18:44 05.02.2020
3230 Snow 0 1032 98 10000 1.5 0 18:21 05.02.2020
3231 Snow 0 1032 98 10000 1.5 0 17:58 05.02.2020
3232 Snow 0 1031 98 8000 2.1 60 17:37 05.02.2020
3233 Snow -1 1031 95 6000 2.6 60 17:18 05.02.2020
3234 Snow 0 1030 95 3000 4.1 80 16:44 05.02.2020
3235 Snow 0 1030 95 3000 4.1 80 16:25 05.02.2020
3236 Snow 0 1029 95 6000 4.1 80 15:59 05.02.2020
3237 Snow 0 1029 95 6000 4.1 80 15:40 05.02.2020
3238 Snow 0 1029 95 6000 5.7 60 15:19 05.02.2020
3239 Snow -1 1028 95 6000 4.6 70 14:43 05.02.2020
3240 Snow 0 1027 74 10000 8.2 250 14:25 05.02.2020
3241 Snow 0 1027 80 10000 8.2 250 13:59 05.02.2020
3242 Snow 0 1027 80 10000 8.2 250 13:39 05.02.2020
3243 Snow -1 1028 95 5000 13.4 260 13:19 05.02.2020
3244 Snow 0 1027 74 6000 9.8 250 12:43 05.02.2020
3245 Snow -1 1027 94 1500 11.8 250 12:23 05.02.2020
3246 Snow -1 1026 94 1500 10.3 250 11:55 05.02.2020
3247 Snow -1 1026 94 1500 9.3 240 11:36 05.02.2020
3248 Snow -1 1026 96 1500 9.3 240 11:18 05.02.2020
3249 Snow -1 1025 96 3000 8.2 250 10:42 05.02.2020
3250 Snow -1 1025 96 3000 8.2 250 10:24 05.02.2020
3251 Snow -1 1025 69 4000 9.3 270 09:45 05.02.2020
3252 Snow -1 1024 69 3000 10.3 260 09:23 05.02.2020
3253 Snow 0 1023 74 7000 7.2 260 08:59 05.02.2020
3254 Snow -1 1023 74 7000 7.2 260 08:41 05.02.2020
3255 Snow 0 1022 69 4000 7.7 250 08:22 05.02.2020
3256 Snow 0 1021 74 4000 10.8 240 07:45 05.02.2020
3257 Snow 0 1021 69 3000 13.9 260 07:26 05.02.2020
3258 Snow 0 1020 80 3000 6.2 230 06:43 05.02.2020
3259 Snow 2 1019 69 4000 11.8 240 06:23 05.02.2020
3260 Clouds 1 1018 80 4200 9.8 250 05:49 05.02.2020
3261 Snow 0 1018 80 3000 12.3 240 05:18 05.02.2020
3262 Snow 0 1019 80 2400 10.8 250 04:44 05.02.2020
3263 Snow 0 1018 97 8000 3.1 0 03:21 05.02.2020
3264 Snow 0 1019 97 3200 1.5 0 02:23 05.02.2020
3265 Snow 0 1018 97 6000 3.1 90 01:35 05.02.2020
3266 Snow 0 1018 97 9000 1 0 00:39 05.02.2020
3267 Snow 0 1018 97 7000 2.1 0 23:43 04.02.2020
3268 Snow 0 1017 80 7000 6.7 240 23:23 04.02.2020
3269 Snow -1 1018 74 8000 5.7 220 22:58 04.02.2020
3270 Snow 0 1018 74 8000 5.7 220 22:40 04.02.2020
3271 Snow 0 1017 97 3700 10.8 230 22:21 04.02.2020
3272 Snow 0 1016 97 4200 9.8 240 21:59 04.02.2020
3273 Snow 0 1016 97 1500 5.1 240 21:40 04.02.2020
3274 Snow 0 1016 97 1500 5.1 240 21:19 04.02.2020
3275 Snow 0 1016 97 1500 5.1 240 21:19 04.02.2020
3276 Snow 0 1016 97 2000 1.5 0 20:57 04.02.2020
3277 Snow 0 1016 97 2000 1.5 0 20:38 04.02.2020
3278 Snow 0 1016 97 5000 1.5 0 20:19 04.02.2020
3279 Snow -1 1015 97 5000 3.6 70 19:55 04.02.2020
3280 Snow 1 1015 86 7000 2.1 0 19:37 04.02.2020
3281 Snow 1 1015 86 7000 2.1 0 19:18 04.02.2020
3282 Snow 0 1015 97 10000 1.5 0 18:41 04.02.2020
3283 Snow 0 1014 86 8000 2.6 110 18:22 04.02.2020
3284 Snow 0 1014 86 10000 2.1 0 17:58 04.02.2020
3285 Snow 1 1014 86 10000 2.1 0 17:58 04.02.2020
3286 Snow 1 1013 97 10000 1 0 17:40 04.02.2020
3287 Snow 0 1013 96 10000 1 0 17:20 04.02.2020
3288 Snow 0 1013 86 8000 2.1 20 17:20 04.02.2020
3289 Snow 0 1013 96 2000 6.2 240 16:39 04.02.2020
3290 Snow 1 1013 96 2000 6.2 240 16:21 04.02.2020
3291 Rain 0 1012 86 7000 7.7 240 15:58 04.02.2020
3292 Rain 0 1012 86 7000 7.7 240 15:58 04.02.2020
3293 Rain 0 1012 86 7000 7.7 240 15:39 04.02.2020
3294 Rain 0 1012 86 4000 8.2 240 15:20 04.02.2020
3295 Snow 0 1011 96 10000 3.1 230 14:56 04.02.2020
3296 Clouds 0 1012 96 6000 4.6 250 14:37 04.02.2020
3297 Clouds 0 1012 95 6000 4.6 250 14:19 04.02.2020
3298 Mist 0 1012 95 4000 5.1 250 13:41 04.02.2020
3299 Clouds 0 1011 96 2000 7.7 250 13:23 04.02.2020
3300 Snow 0 1011 86 1000 6.7 240 12:57 04.02.2020
3301 Snow 0 1011 86 1000 6.7 240 12:38 04.02.2020
3302 Rain 1 1011 74 10000 6.7 270 12:19 04.02.2020
3303 Clouds 2 1010 96 10000 3.6 270 11:55 04.02.2020
3304 Rain 2 1011 96 10000 6.7 250 11:37 04.02.2020
3305 Rain 2 1011 95 10000 6.7 250 11:18 04.02.2020
3306 Clouds 2 1009 75 10000 2.6 360 10:44 04.02.2020
3307 Clouds 3 1009 75 10000 2.6 360 10:25 04.02.2020
3308 Clouds 5 1010 80 10000 1.5 180 09:56 04.02.2020
3309 Rain 3 1010 75 10000 6.2 290 09:37 04.02.2020
3310 Rain 4 1010 75 10000 6.2 290 09:19 04.02.2020
3311 Rain 5 1010 75 10000 8.2 280 08:44 04.02.2020
3312 Rain 4 1009 75 10000 12.9 260 08:26 04.02.2020
3313 Rain 4 1008 70 10000 16.5 260 07:50 04.02.2020
3314 Rain 5 1006 70 8000 19 260 07:24 04.02.2020
3315 Rain 5 1002 93 8000 9.3 250 06:48 04.02.2020
3316 Mist 3 1000 100 5000 3.6 260 06:30 04.02.2020
3317 Mist 4 1000 100 5000 1 0 05:33 04.02.2020
3318 Clouds 5 1003 100 6000 3.1 250 04:27 04.02.2020
3319 Fog 4 1005 100 550 2.6 240 03:43 04.02.2020
3320 Fog 4 1005 100 550 2.6 240 03:25 04.02.2020
3321 Mist 4 1008 100 1100 3.1 270 02:34 04.02.2020
3322 Fog 4 1009 100 550 3.6 260 01:57 04.02.2020
3323 Fog 4 1011 93 900 2.6 290 01:36 04.02.2020
3324 Fog 5 1012 93 550 2.1 260 00:52 04.02.2020
3325 Fog 5 1013 100 500 1.5 270 00:22 04.02.2020
3326 Fog 5 1014 100 800 0.5 0 23:42 03.02.2020
3327 Fog 5 1014 100 800 0.5 0 23:42 03.02.2020
3328 Fog 5 1014 100 800 0.5 0 23:42 03.02.2020
3329 Rain 5 1015 100 4000 2.6 250 23:23 03.02.2020
3330 Rain 5 1016 100 4000 1 0 22:40 03.02.2020
3331 Rain 4 1017 93 5000 1.5 270 22:22 03.02.2020
3332 Rain 4 1017 100 6000 2.1 270 21:59 03.02.2020
3333 Rain 4 1018 93 5000 0.5 0 21:40 03.02.2020
3334 Rain 4 1018 93 5000 0.5 0 21:19 03.02.2020
3335 Rain 4 1018 93 5000 0.5 0 21:19 03.02.2020
3336 Rain 4 1018 93 6000 1 270 20:42 03.02.2020
3337 Rain 4 1019 100 8000 1.5 210 20:20 03.02.2020
3338 Rain 4 1019 100 6000 1.5 10 19:58 03.02.2020
3339 Rain 4 1019 100 7000 1 0 19:40 03.02.2020
3340 Rain 4 1019 100 7000 1 0 19:21 03.02.2020
3341 Rain 4 1020 100 6000 0.5 0 18:57 03.02.2020
3342 Rain 4 1019 100 6000 0.5 0 18:38 03.02.2020
3343 Rain 4 1019 100 6000 0.5 0 18:20 03.02.2020
3344 Rain 4 1019 100 10000 1 0 17:54 03.02.2020
3345 Rain 5 1018 100 10000 2.1 280 17:36 03.02.2020
3346 Rain 4 1018 100 10000 2.1 280 17:18 03.02.2020
3347 Rain 5 1018 87 10000 1.5 90 16:39 03.02.2020
3348 Rain 5 1018 93 10000 2.1 70 16:21 03.02.2020
3349 Rain 5 1018 93 10000 2.1 80 15:56 03.02.2020
3350 Rain 5 1018 93 10000 3.1 70 15:37 03.02.2020
3351 Rain 5 1018 93 10000 3.1 70 15:37 03.02.2020
3352 Rain 5 1018 93 10000 3.1 70 15:19 03.02.2020
3353 Rain 5 1018 93 10000 3.6 70 14:43 03.02.2020
3354 Rain 6 1018 93 8000 3.1 70 14:25 03.02.2020
3355 Rain 6 1018 93 10000 3.6 80 13:58 03.02.2020
3356 Rain 5 1018 93 10000 4.1 70 13:39 03.02.2020
3357 Rain 6 1018 93 10000 4.1 70 13:19 03.02.2020
3358 Rain 6 1018 93 10000 4.1 70 12:56 03.02.2020
3359 Rain 6 1018 93 10000 4.1 70 12:36 03.02.2020
3360 Rain 6 1018 93 10000 4.1 70 12:18 03.02.2020
3361 Rain 7 1017 93 8000 3.1 90 11:39 03.02.2020
3362 Rain 7 1017 93 8000 3.1 90 11:19 03.02.2020
3363 Rain 7 1017 93 8000 3.1 90 11:19 03.02.2020
3364 Rain 7 1017 93 10000 1.5 90 10:57 03.02.2020
3365 Rain 7 1017 93 10000 1.5 90 10:38 03.02.2020
3366 Rain 7 1017 93 10000 2.1 100 10:20 03.02.2020
3367 Rain 7 1016 93 10000 2.6 90 09:39 03.02.2020
3368 Rain 6 1016 93 10000 2.6 90 09:20 03.02.2020
3369 Clouds 6 1015 93 10000 1.5 0 08:41 03.02.2020
3370 Clouds 6 1014 93 10000 1.5 120 08:23 03.02.2020
3371 Clouds 5 1014 87 10000 2.1 90 07:56 03.02.2020
3372 Clouds 6 1014 87 10000 2.1 90 07:38 03.02.2020
3373 Clouds 7 1014 87 10000 1.5 90 07:19 03.02.2020
3374 Clouds 6 1014 93 10000 1.5 0 06:42 03.02.2020
3375 Clouds 6 1014 93 10000 2.1 80 06:24 03.02.2020
3376 Mist 6 1015 100 1000 1 0 05:35 03.02.2020
3377 Rain 6 1015 100 650 1 0 04:50 03.02.2020
3378 Rain 6 1016 100 1200 1 0 02:58 03.02.2020
3379 Rain 6 1016 100 4100 1 0 02:32 03.02.2020
3380 Rain 5 1016 100 3000 0.5 0 00:55 03.02.2020
3381 Rain 5 1017 100 2600 0.5 0 00:36 03.02.2020
3382 Rain 5 1017 100 2600 0.5 0 00:18 03.02.2020
3383 Rain 5 1017 93 10000 0.5 0 23:37 02.02.2020
3384 Rain 5 1017 93 10000 0.5 0 23:18 02.02.2020
3385 Rain 6 1017 93 10000 1 0 22:40 02.02.2020
3386 Rain 6 1017 93 10000 1 0 22:22 02.02.2020
3387 Rain 6 1017 100 10000 1 0 21:58 02.02.2020
3388 Rain 6 1017 100 10000 1 0 21:39 02.02.2020
3389 Rain 6 1017 93 10000 1.5 320 21:21 02.02.2020
3390 Rain 6 1017 100 10000 1 0 20:58 02.02.2020
3391 Rain 6 1017 100 10000 1 0 20:39 02.02.2020
3392 Rain 6 1017 93 10000 1 0 20:20 02.02.2020
3393 Rain 6 1017 100 10000 1 0 19:58 02.02.2020
3394 Rain 6 1017 100 10000 1 0 19:40 02.02.2020
3395 Rain 6 1016 93 10000 1.5 170 19:21 02.02.2020
3396 Rain 7 1016 87 10000 1 0 18:56 02.02.2020
3397 Rain 7 1016 93 10000 1.5 270 18:37 02.02.2020
3398 Clouds 7 1016 93 10000 1.5 270 18:19 02.02.2020
3399 Rain 7 1016 87 10000 2.1 290 17:57 02.02.2020
3400 Rain 7 1015 93 10000 4.1 280 17:37 02.02.2020
3401 Rain 7 1015 93 10000 4.1 280 17:18 02.02.2020
3402 Rain 7 1016 87 10000 3.1 250 16:57 02.02.2020
3403 Rain 7 1016 87 10000 3.6 280 16:38 02.02.2020
3404 Rain 7 1016 87 10000 3.6 280 16:18 02.02.2020
3405 Rain 7 1016 93 10000 2.6 270 15:56 02.02.2020
3406 Rain 7 1015 93 10000 1.5 200 15:37 02.02.2020
3407 Rain 7 1015 93 10000 1.5 200 15:19 02.02.2020
3408 Rain 7 1015 93 10000 3.1 270 14:44 02.02.2020
3409 Rain 6 1015 93 10000 2.1 270 14:19 02.02.2020
3410 Rain 6 1015 100 10000 3.1 290 13:59 02.02.2020
3411 Rain 6 1015 100 10000 3.1 290 13:59 02.02.2020
3412 Rain 6 1015 100 10000 3.1 290 13:41 02.02.2020
3413 Clouds 6 1015 93 10000 3.6 260 13:20 02.02.2020
3414 Clouds 6 1016 93 10000 3.6 260 12:56 02.02.2020
3415 Clouds 6 1016 100 10000 3.1 270 12:38 02.02.2020
3416 Clouds 6 1016 100 10000 3.1 270 12:18 02.02.2020
3417 Clouds 6 1017 100 10000 3.6 260 11:42 02.02.2020
3418 Clouds 5 1017 100 10000 1.5 270 11:19 02.02.2020
3419 Clouds 5 1017 100 10000 0.5 0 10:57 02.02.2020
3420 Clouds 5 1017 100 10000 0.5 0 10:39 02.02.2020
3421 Fog 4 1018 100 4000 0.5 0 10:21 02.02.2020
3422 Fog 4 1018 100 800 2.1 270 09:57 02.02.2020
3423 Fog 4 1018 100 800 2.1 270 09:57 02.02.2020
3424 Fog 3 1018 100 200 1 0 09:39 02.02.2020
3425 Fog 3 1018 100 200 1 0 09:20 02.02.2020
3426 Fog 3 1018 100 200 1.5 260 08:45 02.02.2020
3427 Fog 3 1018 100 200 1.5 270 08:26 02.02.2020
3428 Fog 2 1018 100 400 1 0 07:48 02.02.2020
3429 Fog 3 1018 100 350 0.5 0 07:30 02.02.2020
3430 Fog 3 1018 100 400 1 0 06:46 02.02.2020
3431 Rain 3 1028 87 0 2.08 193 06:28 02.02.2020
3432 Fog 3 1017 100 300 2.1 260 05:52 02.02.2020
3433 Fog 3 1017 100 800 1.5 10 04:58 02.02.2020
3434 Fog 3 1017 100 800 1.5 10 04:58 02.02.2020
3435 Mist 3 1017 100 2400 1 0 03:40 02.02.2020
3436 Mist 4 1017 93 1700 1.5 20 02:39 02.02.2020
3437 Clouds 4 1016 100 10000 1 0 01:57 02.02.2020
3438 Clouds 4 1016 93 10000 1.5 200 01:35 02.02.2020
3439 Rain 5 1016 93 10000 2.6 140 00:45 02.02.2020
3440 Rain 5 1016 93 10000 0.5 0 00:23 02.02.2020
3441 Rain 5 1016 86 10000 2.1 180 23:54 01.02.2020
3442 Rain 5 1015 86 10000 2.1 260 23:36 01.02.2020
3443 Rain 5 1015 86 10000 2.1 260 23:18 01.02.2020
3444 Rain 5 1015 80 10000 2.1 250 22:42 01.02.2020
3445 Rain 5 1015 80 10000 2.1 250 22:42 01.02.2020
3446 Clouds 5 1014 80 10000 0.5 0 22:18 01.02.2020
3447 Rain 5 1014 75 10000 2.1 220 21:39 01.02.2020
3448 Rain 5 1014 75 10000 2.1 220 21:19 01.02.2020
3449 Clouds 6 1013 70 10000 3.6 290 20:42 01.02.2020
3450 Clouds 6 1013 70 10000 3.6 290 20:21 01.02.2020
3451 Clouds 6 1013 70 10000 3.6 290 20:21 01.02.2020
3452 Clouds 6 1012 75 10000 3.6 260 19:58 01.02.2020
3453 Clouds 6 1012 75 10000 3.6 260 19:39 01.02.2020
3454 Clouds 6 1012 70 10000 3.1 260 19:20 01.02.2020
3455 Clouds 7 1012 65 10000 2.6 230 18:59 01.02.2020
3456 Clouds 7 1012 65 10000 2.6 230 18:40 01.02.2020
3457 Clouds 6 1012 75 10000 3.6 280 18:22 01.02.2020
3458 Clouds 7 1012 65 10000 1.5 0 17:58 01.02.2020
3459 Clouds 7 1012 65 10000 1.5 0 17:40 01.02.2020
3460 Clouds 8 1011 57 10000 3.6 250 17:20 01.02.2020
3461 Clouds 8 1011 61 10000 3.6 260 16:57 01.02.2020
3462 Clouds 8 1011 61 10000 3.6 260 16:38 01.02.2020
3463 Clouds 8 1011 57 10000 4.1 260 16:20 01.02.2020
3464 Clouds 9 1010 53 10000 4.1 270 15:41 01.02.2020
3465 Clouds 10 1010 53 10000 3.6 270 15:22 01.02.2020
3466 Clouds 9 1011 61 10000 4.6 270 14:57 01.02.2020
3467 Clouds 9 1011 57 10000 5.1 260 14:38 01.02.2020
3468 Clouds 9 1011 57 10000 5.1 260 14:20 01.02.2020
3469 Clouds 8 1012 61 10000 4.6 280 13:43 01.02.2020
3470 Clouds 8 1012 65 10000 6.2 270 13:20 01.02.2020
3471 Clouds 8 1013 61 10000 5.7 270 12:43 01.02.2020
3472 Clouds 8 1013 65 10000 5.7 270 12:24 01.02.2020
3473 Clouds 7 1014 87 10000 3.6 260 11:56 01.02.2020
3474 Clouds 5 1014 93 10000 1 0 11:37 01.02.2020
3475 Clouds 4 1014 93 10000 1 0 11:18 01.02.2020
3476 Clouds 3 1015 100 10000 1.5 120 10:54 01.02.2020
3477 Clouds 3 1015 100 10000 2.1 250 10:36 01.02.2020
3478 Clouds 2 1015 100 10000 2.1 250 10:18 01.02.2020
3479 Clouds 2 1015 100 10000 2.1 250 10:18 01.02.2020
3480 Clouds 2 1015 69 10000 1.5 270 09:41 01.02.2020
3481 Clouds 1 1015 100 10000 1.5 270 09:22 01.02.2020
3482 Clouds 0 1016 100 1000 1 0 08:58 01.02.2020
3483 Clouds -1 1016 100 500 0.5 0 08:22 01.02.2020
3484 Fog -1 1016 100 800 1 0 07:43 01.02.2020
3485 Fog 0 1016 100 700 2.1 240 07:24 01.02.2020
3486 Fog 0 1017 85 500 2.1 270 06:44 01.02.2020
3487 Fog 0 1017 85 300 2.1 280 05:54 01.02.2020
3488 Fog 0 1017 89 500 1 0 04:58 01.02.2020
3489 Fog 1 1017 89 300 2.1 250 03:26 01.02.2020
3490 Fog 1 1018 89 450 2.6 250 02:59 01.02.2020
3491 Fog 1 1018 89 650 1.5 230 02:40 01.02.2020
3492 Fog 1 1018 88 650 1.5 230 02:20 01.02.2020
3493 Fog 1 1018 88 350 1.5 60 01:46 01.02.2020
3494 Fog 1 1018 88 600 0.5 0 01:27 01.02.2020
3495 Mist 2 1018 100 1000 1 250 00:24 01.02.2020
3496 Clear 2 1018 100 10000 0.5 0 23:41 31.01.2020
3497 Clouds 3 1018 100 10000 0.5 0 23:19 31.01.2020
3498 Clouds 3 1018 93 10000 1 0 22:57 31.01.2020
3499 Clouds 3 1018 100 10000 3.1 240 22:38 31.01.2020
3500 Clouds 3 1018 100 10000 3.1 240 22:20 31.01.2020
3501 Clouds 2 1018 100 10000 2.1 0 21:55 31.01.2020
3502 Clouds 3 1018 100 10000 0.5 0 21:37 31.01.2020
3503 Clouds 3 1018 100 10000 0.5 0 21:18 31.01.2020
3504 Clouds 3 1018 93 10000 1.5 250 20:54 31.01.2020
3505 Clouds 3 1018 93 10000 1.5 250 20:54 31.01.2020
3506 Clouds 4 1018 93 10000 1 0 20:36 31.01.2020
3507 Clouds 4 1018 93 10000 1 0 20:36 31.01.2020
3508 Clouds 4 1018 93 10000 1 0 20:18 31.01.2020
3509 Clouds 4 1017 93 10000 1 0 19:41 31.01.2020
3510 Clouds 5 1017 93 10000 1 0 19:22 31.01.2020
3511 Clouds 6 1017 93 10000 0.5 0 18:58 31.01.2020
3512 Clouds 6 1017 87 10000 1 0 18:38 31.01.2020
3513 Clouds 6 1017 87 10000 1 0 18:19 31.01.2020
3514 Clouds 8 1016 87 10000 1.5 250 17:44 31.01.2020
3515 Clouds 9 1016 81 10000 1 0 17:26 31.01.2020
3516 Clouds 8 1016 76 10000 1.5 260 16:57 31.01.2020
3517 Clouds 8 1016 76 10000 1.5 260 16:38 31.01.2020
3518 Clouds 9 1016 66 10000 1 0 16:19 31.01.2020
3519 Clouds 9 1016 71 10000 0.5 0 15:57 31.01.2020
3520 Clouds 9 1016 71 10000 0.5 0 15:39 31.01.2020
3521 Clouds 9 1016 71 10000 2.1 220 15:20 31.01.2020
3522 Clouds 9 1016 66 10000 2.1 230 14:43 31.01.2020
3523 Clouds 8 1016 76 10000 2.6 270 14:24 31.01.2020
3524 Clouds 8 1017 81 10000 1 0 13:55 31.01.2020
3525 Clouds 8 1017 81 10000 0.5 0 13:36 31.01.2020
3526 Clouds 8 1017 81 10000 3.1 270 12:59 31.01.2020
3527 Clouds 7 1017 86 10000 3.6 260 12:41 31.01.2020
3528 Clouds 7 1017 86 10000 3.6 260 12:22 31.01.2020
3529 Clouds 6 1018 86 10000 2.6 250 11:46 31.01.2020
3530 Clouds 6 1018 93 10000 1 0 11:26 31.01.2020
3531 Clouds 4 1018 93 10000 1 0 10:59 31.01.2020
3532 Clouds 4 1018 93 10000 0.5 0 10:41 31.01.2020
3533 Clouds 4 1018 93 10000 0.5 0 10:21 31.01.2020
3534 Clouds 3 1018 100 10000 1 0 09:57 31.01.2020
3535 Clouds 3 1018 100 10000 1 0 09:39 31.01.2020
3536 Clouds 3 1017 93 10000 2.1 240 09:19 31.01.2020
3537 Clouds 3 1017 93 10000 3.1 250 08:52 31.01.2020
3538 Clouds 2 1016 100 10000 2.1 270 08:27 31.01.2020
3539 Clouds 2 1016 93 10000 2.6 250 07:53 31.01.2020
3540 Clouds 2 1016 93 10000 2.6 250 07:53 31.01.2020
3541 Clouds 2 1016 100 10000 2.1 270 07:25 31.01.2020
3542 Clouds 2 1016 93 10000 2.1 300 06:49 31.01.2020
3543 Clouds 3 1016 93 10000 2.6 250 06:19 31.01.2020
3544 Clouds 3 1016 93 10000 1 0 05:48 31.01.2020
3545 Clouds 3 1016 93 10000 2.1 250 04:56 31.01.2020
3546 Clouds 3 1016 86 10000 3.6 270 02:58 31.01.2020
3547 Rain 3 1016 93 10000 5.1 260 01:39 31.01.2020
3548 Rain 3 1017 93 10000 4.1 270 00:46 31.01.2020
3549 Rain 2 1016 93 10000 4.1 270 00:27 31.01.2020
3550 Rain 2 1017 86 10000 1 0 23:57 30.01.2020
3551 Rain 2 1017 93 10000 2.1 0 23:25 30.01.2020
3552 Rain 3 1017 86 10000 2.6 200 22:57 30.01.2020
3553 Rain 3 1017 86 10000 2.6 200 22:57 30.01.2020
3554 Rain 2 1017 77 10000 3.6 300 22:36 30.01.2020
3555 Rain 2 1017 77 10000 3.6 300 22:36 30.01.2020
3556 Rain 2 1017 77 10000 3.6 300 22:18 30.01.2020
3557 Clouds 2 1016 77 10000 5.7 280 21:55 30.01.2020
3558 Clouds 2 1016 77 10000 4.6 280 21:37 30.01.2020
3559 Clouds 1 1016 77 10000 4.6 280 21:18 30.01.2020
3560 Snow 1 1015 77 10000 0.5 0 20:40 30.01.2020
3561 Snow 1 1015 71 10000 0.5 0 20:22 30.01.2020
3562 Snow 1 1015 71 10000 0.5 0 20:22 30.01.2020
3563 Clouds 2 1016 63 10000 1 0 19:56 30.01.2020
3564 Clouds 2 1016 63 10000 2.6 260 19:38 30.01.2020
3565 Clouds 1 1016 63 10000 2.6 260 19:18 30.01.2020
3566 Clouds 2 1016 63 10000 1 0 18:41 30.01.2020
3567 Clouds 1 1016 63 10000 2.6 270 18:21 30.01.2020
3568 Clouds 2 1016 63 10000 1 0 17:57 30.01.2020
3569 Clouds 2 1016 86 10000 1 170 17:37 30.01.2020
3570 Clouds 3 1016 86 10000 1 170 17:19 30.01.2020
3571 Clouds 3 1016 66 10000 1.5 250 16:56 30.01.2020
3572 Clouds 3 1016 66 10000 2.1 250 16:38 30.01.2020
3573 Clouds 3 1016 66 10000 2.1 250 16:19 30.01.2020
3574 Clouds 4 1016 75 10000 2.1 250 15:43 30.01.2020
3575 Rain 4 1016 66 10000 2.1 270 15:20 30.01.2020
3576 Rain 4 1016 66 10000 3.1 260 14:50 30.01.2020
3577 Rain 4 1016 66 10000 3.1 260 14:50 30.01.2020
3578 Rain 4 1017 66 10000 3.1 260 14:27 30.01.2020
3579 Rain 5 1017 76 10000 3.1 270 13:57 30.01.2020
3580 Rain 4 1017 76 10000 3.1 270 13:38 30.01.2020
3581 Rain 4 1018 74 10000 1.5 250 13:19 30.01.2020
3582 Rain 4 1018 74 10000 2.6 270 12:43 30.01.2020
3583 Rain 4 1018 74 10000 2.6 270 12:24 30.01.2020
3584 Rain 4 1019 74 10000 2.6 270 11:58 30.01.2020
3585 Rain 2 1019 74 10000 2.6 260 11:40 30.01.2020
3586 Clouds 1 1019 76 10000 2.6 260 11:21 30.01.2020
3587 Clouds 2 1019 76 10000 1 0 10:42 30.01.2020
3588 Clouds 1 1019 76 10000 1 0 10:24 30.01.2020
3589 Clouds 1 1019 76 9000 0.5 0 09:49 30.01.2020
3590 Clouds 1 1019 76 9000 0.5 0 09:49 30.01.2020
3591 Clouds 1 1020 76 7000 2.1 210 09:30 30.01.2020
3592 Mist 0 1019 76 4000 1 0 08:59 30.01.2020
3593 Mist 0 1019 76 2500 1.5 270 08:41 30.01.2020
3594 Mist -1 1019 87 2500 1.5 270 08:20 30.01.2020
3595 Mist -1 1019 87 2500 2.1 280 07:49 30.01.2020
3596 Mist -1 1020 87 3500 2.1 250 07:29 30.01.2020
3597 Mist 0 1019 87 4000 0.5 0 06:47 30.01.2020
3598 Mist 0 1019 87 5000 1 350 06:29 30.01.2020
3599 Mist 0 1020 87 5000 1 0 05:44 30.01.2020
3600 -273 0 0 0 0 0 05:22 30.01.2020
3601 Rain 1 1020 96 5000 1.5 170 03:55 30.01.2020
3602 Rain 0 1020 96 4900 1.5 80 03:37 30.01.2020
3603 Rain 1 1020 100 5000 1 0 02:47 30.01.2020
3604 Clouds 0 1018 98 3000 1.5 270 00:43 30.01.2020
3605 Snow 0 1018 98 3600 1 0 00:21 30.01.2020
3606 Clouds 0 1017 98 3600 1 0 23:47 29.01.2020
3607 Clouds 0 1017 98 3600 1 0 23:47 29.01.2020
3608 Snow 0 1017 98 5000 1 0 23:22 29.01.2020
3609 Snow 0 1016 97 5000 0.5 0 22:58 29.01.2020
3610 Snow 0 1016 97 2500 0.5 0 22:39 29.01.2020
3611 Snow 0 1016 97 2500 0.5 0 22:19 29.01.2020
3612 Snow 0 1016 97 4000 0.5 0 21:58 29.01.2020
3613 Snow 1 1015 97 3000 1 0 21:38 29.01.2020
3614 Snow 1 1015 97 3000 1 0 21:38 29.01.2020
3615 Snow 0 1015 97 3000 1 0 21:19 29.01.2020
3616 Snow 1 1015 97 6000 0.5 0 20:58 29.01.2020
3617 Snow 1 1015 97 6000 1 360 20:38 29.01.2020
3618 Snow 0 1015 97 6000 1 360 20:19 29.01.2020
3619 Snow 1 1014 97 6000 0.5 0 19:56 29.01.2020
3620 Snow 0 1014 97 6000 1 0 19:37 29.01.2020
3621 Snow 0 1014 97 6000 1 0 19:37 29.01.2020
3622 Snow 0 1014 97 6000 1 0 19:37 29.01.2020
3623 Snow 1 1014 97 6000 1 0 19:18 29.01.2020
3624 Snow 0 1014 97 6000 1 0 18:46 29.01.2020
3625 Snow 0 1013 97 5000 1 0 18:19 29.01.2020
3626 Snow 0 1013 97 10000 1 0 17:58 29.01.2020
3627 Snow 0 1013 97 10000 1 0 17:39 29.01.2020
3628 Snow 1 1013 93 10000 1 0 17:20 29.01.2020
3629 Rain 1 1012 93 10000 1 170 16:41 29.01.2020
3630 Rain 1 1012 93 10000 0.5 0 16:23 29.01.2020
3631 Rain 1 1012 93 9000 1.5 290 15:56 29.01.2020
3632 Rain 1 1012 93 10000 1 0 15:37 29.01.2020
3633 Rain 1 1012 93 10000 1 0 15:18 29.01.2020
3634 Rain 1 1011 93 10000 1 0 14:42 29.01.2020
3635 Rain 2 1012 71 10000 1 0 14:20 29.01.2020
3636 Rain 1 1012 71 6000 1.5 270 13:54 29.01.2020
3637 Rain 2 1012 93 8000 0.5 0 13:36 29.01.2020
3638 Rain 2 1012 93 8000 0.5 0 13:18 29.01.2020
3639 Rain 2 1012 83 10000 1.5 60 12:54 29.01.2020
3640 Rain 2 1012 93 10000 2.1 60 12:36 29.01.2020
3641 Rain 2 1012 93 10000 2.1 60 12:18 29.01.2020
3642 Clouds 1 1012 83 8000 1 0 11:42 29.01.2020
3643 Snow 1 1012 82 6000 1 0 11:20 29.01.2020
3644 Snow 1 1011 82 5000 0.5 0 10:46 29.01.2020
3645 Mist 1 1011 82 5000 1.5 80 10:23 29.01.2020
3646 Snow 1 1011 82 4000 0.5 0 09:58 29.01.2020
3647 Snow 1 1011 82 4000 0.5 0 09:39 29.01.2020
3648 Snow 1 1011 82 4000 0.5 0 09:18 29.01.2020
3649 Snow 0 1010 82 4000 1 70 08:44 29.01.2020
3650 Snow 0 1010 82 2500 0.5 0 08:24 29.01.2020
3651 Snow 0 1010 93 2500 0.5 0 08:24 29.01.2020
3652 Snow 0 1009 93 2500 0.5 0 07:45 29.01.2020
3653 Snow 0 1009 93 1500 1 0 07:26 29.01.2020
3654 Snow 0 1009 93 2000 1 0 06:56 29.01.2020
3655 Snow 0 1009 93 2000 1 0 06:38 29.01.2020
3656 Snow 0 1008 93 4000 1 0 06:19 29.01.2020
3657 Snow 0 1008 93 2000 1 0 05:50 29.01.2020
3658 Snow 0 1007 93 2200 2.6 280 05:32 29.01.2020
3659 Snow 0 1007 93 3300 2.6 250 04:38 29.01.2020
3660 Snow 0 1007 93 2800 2.6 260 03:59 29.01.2020
3661 Clouds 0 1006 86 10000 1 0 02:34 29.01.2020
3662 Clouds 0 1007 86 10000 1.5 30 01:18 29.01.2020
3663 Clouds 1 1007 86 10000 2.1 300 00:39 29.01.2020
3664 Clouds 0 1007 86 10000 1.5 220 00:20 29.01.2020
3665 Clouds 0 1007 80 10000 2.1 350 23:40 28.01.2020
3666 Clouds 1 1008 80 10000 5.1 260 23:19 28.01.2020
3667 Clouds 1 1008 80 10000 4.6 240 22:51 28.01.2020
3668 Clouds 1 1008 74 10000 5.7 240 22:27 28.01.2020
3669 Clouds 2 1007 74 10000 5.7 240 21:58 28.01.2020
3670 Clouds 2 1007 74 10000 5.7 240 21:39 28.01.2020
3671 Clouds 2 1007 60 10000 11.3 300 21:19 28.01.2020
3672 Clouds 2 1005 52 10000 8.7 280 20:46 28.01.2020
3673 Clouds 2 1005 56 10000 3.6 240 20:26 28.01.2020
3674 Clouds 1 1004 69 10000 1 0 19:56 28.01.2020
3675 Snow 1 1008 85 0 0.89 207 19:37 28.01.2020
3676 Clouds 1 1004 74 10000 1.5 60 19:19 28.01.2020
3677 Clouds 3 1005 69 10000 2.1 90 18:42 28.01.2020
3678 Clouds 3 1004 69 10000 2.6 60 18:23 28.01.2020
3679 Clouds 3 1004 69 10000 1.5 60 17:59 28.01.2020
3680 Clouds 3 1004 69 10000 1.5 60 17:40 28.01.2020
3681 Clouds 3 1004 79 10000 2.1 0 17:21 28.01.2020
3682 Rain 3 1004 79 10000 7.7 250 16:59 28.01.2020
3683 Clouds 3 1003 79 10000 2.6 40 16:41 28.01.2020
3684 Clouds 3 1003 79 10000 2.6 40 16:22 28.01.2020
3685 Clouds 3 1003 79 10000 1.5 0 15:55 28.01.2020
3686 Clouds 3 1003 79 10000 4.1 250 15:37 28.01.2020
3687 Clouds 3 1003 79 10000 4.1 250 15:18 28.01.2020
3688 Rain 3 1003 79 10000 7.7 260 14:43 28.01.2020
3689 Clouds 3 1003 80 10000 7.7 240 14:19 28.01.2020
3690 Rain 3 1003 80 6000 16.5 260 13:42 28.01.2020
3691 Clouds 3 1000 81 10000 6.7 250 13:24 28.01.2020
3692 Clouds 5 1000 75 10000 1.5 0 12:45 28.01.2020
3693 Clouds 5 1000 75 10000 1.5 0 12:45 28.01.2020
3694 Clouds 5 1000 75 10000 3.6 290 12:25 28.01.2020
3695 Clouds 5 1001 75 10000 3.1 280 11:59 28.01.2020
3696 Clouds 4 1001 81 10000 3.6 260 11:41 28.01.2020
3697 Clouds 4 1001 73 10000 3.6 260 11:21 28.01.2020
3698 Clouds 4 1002 73 10000 3.6 290 10:44 28.01.2020
3699 Clouds 3 1002 73 10000 4.1 300 10:26 28.01.2020
3700 Clouds 3 1003 73 10000 4.1 290 09:59 28.01.2020
3701 Clouds 3 1003 73 10000 4.1 290 09:41 28.01.2020
3702 Clouds 3 1003 80 10000 2.6 250 09:20 28.01.2020
3703 Clouds 3 1003 80 10000 2.6 250 09:20 28.01.2020
3704 Clouds 3 1003 74 10000 2.6 290 08:45 28.01.2020
3705 Clouds 2 1003 74 10000 3.1 290 08:25 28.01.2020
3706 Clouds 2 1004 87 10000 3.6 260 07:53 28.01.2020
3707 Snow 2 1005 90 0 0.89 282 07:31 28.01.2020
3708 Clouds 2 1004 80 10000 5.1 270 06:47 28.01.2020
3709 Clouds 2 1005 80 10000 3.6 260 06:24 28.01.2020
3710 Clouds 2 1004 74 10000 4.6 280 05:38 28.01.2020
3711 Clouds 2 1004 74 10000 4.6 280 05:20 28.01.2020
3712 Clouds 1 1006 80 10000 2.6 270 03:47 28.01.2020
3713 Clouds 2 1007 74 10000 3.6 260 02:46 28.01.2020
3714 Clouds 2 1007 74 10000 3.1 270 02:25 28.01.2020
3715 Clouds 2 1007 74 10000 3.6 260 01:53 28.01.2020
3716 Clouds 2 1008 74 10000 4.1 260 01:20 28.01.2020
3717 Clouds 1 1008 74 10000 4.1 270 00:43 28.01.2020
3718 Clouds 2 1008 74 10000 5.1 270 00:19 28.01.2020
3719 Clouds 2 1008 74 10000 3.6 250 23:43 27.01.2020
3720 Clouds 2 1008 74 10000 3.6 270 23:19 27.01.2020
3721 Clouds 2 1008 74 10000 3.6 270 22:45 27.01.2020
3722 Clouds 2 1009 74 10000 3.1 260 22:20 27.01.2020
3723 Clouds 2 1009 74 10000 3.1 260 22:20 27.01.2020
3724 Clouds 2 1009 69 10000 2.6 240 21:57 27.01.2020
3725 Clouds 2 1009 69 10000 2.6 240 21:57 27.01.2020
3726 Clouds 2 1009 69 10000 2.6 240 21:39 27.01.2020
3727 Clouds 3 1009 69 10000 3.1 250 21:19 27.01.2020
3728 Clouds 3 1010 69 10000 2.6 260 20:56 27.01.2020
3729 Clouds 2 1010 74 10000 2.6 250 20:37 27.01.2020
3730 Clouds 2 1010 74 10000 2.6 250 20:19 27.01.2020
3731 Clouds 3 1011 69 10000 2.1 270 19:55 27.01.2020
3732 Clouds 2 1010 69 10000 2.1 220 19:37 27.01.2020
3733 Clouds 2 1010 69 10000 2.1 220 19:19 27.01.2020
3734 Clouds 2 1011 74 10000 1.5 0 18:39 27.01.2020
3735 Clouds 2 1011 74 10000 1.5 0 18:21 27.01.2020
3736 Clouds 3 1011 69 10000 1.5 220 17:57 27.01.2020
3737 Clouds 3 1011 69 10000 1.5 220 17:57 27.01.2020
3738 Clouds 6 1012 60 10000 0.5 0 17:37 27.01.2020
3739 Clouds 6 1012 60 10000 0.5 0 17:18 27.01.2020
3740 Clouds 6 1012 60 10000 0.5 0 16:55 27.01.2020
3741 Clouds 6 1012 56 10000 1 0 16:36 27.01.2020
3742 Clouds 6 1012 56 10000 1 0 16:18 27.01.2020
3743 Clouds 7 1013 52 10000 1 0 15:41 27.01.2020
3744 Clouds 8 1013 52 10000 1 0 15:19 27.01.2020
3745 Clouds 8 1013 49 10000 1 0 14:56 27.01.2020
3746 Clouds 7 1014 52 10000 1 0 14:37 27.01.2020
3747 Clouds 7 1014 52 10000 1 0 14:37 27.01.2020
3748 Clouds 7 1014 52 10000 1 0 14:19 27.01.2020
3749 Clouds 7 1014 52 10000 0.5 0 13:42 27.01.2020
3750 Clouds 7 1015 52 10000 1 0 13:22 27.01.2020
3751 Clouds 7 1016 60 10000 1.5 260 12:57 27.01.2020
3752 Clouds 7 1016 60 10000 1 0 12:38 27.01.2020
3753 Clouds 6 1016 60 10000 1 0 12:20 27.01.2020
3754 Clouds 5 1017 69 10000 1.5 270 11:42 27.01.2020
3755 Clouds 5 1017 69 10000 1.5 270 11:42 27.01.2020
3756 Clouds 4 1018 74 10000 1 0 11:21 27.01.2020
3757 Clouds 3 1018 74 10000 1 0 10:55 27.01.2020
3758 Clouds 2 1018 80 10000 2.6 240 10:36 27.01.2020
3759 Clouds 2 1018 80 10000 2.6 240 10:18 27.01.2020
3760 Clouds 1 1019 73 10000 1.5 290 09:39 27.01.2020
3761 Clouds 1 1019 73 10000 1.5 290 09:39 27.01.2020
3762 Clouds 0 1019 86 10000 2.1 270 09:19 27.01.2020
3763 Clouds 0 1019 92 10000 1 140 08:48 27.01.2020
3764 Clouds 0 1019 86 10000 0.5 0 08:23 27.01.2020
3765 Clouds 1 1019 78 10000 1.21 183 07:55 27.01.2020
3766 Clouds 0 1019 78 10000 1 0 07:37 27.01.2020
3767 Clouds 0 1019 78 10000 1 0 07:19 27.01.2020
3768 Clouds 0 1019 78 10000 1 270 06:33 27.01.2020
3769 Clouds 0 1019 92 10000 0.5 0 05:38 27.01.2020
3770 Clouds 0 1019 92 10000 1 0 04:21 27.01.2020
3771 Clouds -1 1019 92 10000 1 0 03:35 27.01.2020
3772 Clouds 0 1019 83 10000 1 210 01:47 27.01.2020
3773 Clouds 0 1019 86 10000 0.5 0 01:22 27.01.2020
3774 Clouds 0 1019 92 10000 0.5 0 00:40 27.01.2020
3775 Clouds -1 1019 92 10000 0.5 0 00:21 27.01.2020
3776 Clouds 0 1019 86 10000 1 250 23:43 26.01.2020
3777 Clouds 0 1019 86 10000 1 250 23:21 26.01.2020
3778 Clouds 0 1019 87 10000 1 250 22:57 26.01.2020
3779 Clouds 0 1019 87 10000 1 250 22:38 26.01.2020
3780 Clouds 0 1019 86 10000 1 0 22:20 26.01.2020
3781 Clouds 0 1019 87 10000 0.5 0 21:57 26.01.2020
3782 Clouds 0 1019 87 10000 0.5 0 21:38 26.01.2020
3783 Clouds 1 1019 80 10000 2.1 270 21:20 26.01.2020
3784 Clouds 1 1019 80 10000 1 0 20:57 26.01.2020
3785 Clouds 1 1019 80 10000 1 0 20:57 26.01.2020
3786 Clouds 2 1019 74 10000 0.5 0 20:38 26.01.2020
3787 Clouds 2 1019 74 10000 0.5 0 20:18 26.01.2020
3788 Clouds 2 1019 74 10000 0.5 0 19:57 26.01.2020
3789 Clouds 2 1019 74 10000 0.5 0 19:38 26.01.2020
3790 Clouds 2 1018 74 10000 1 150 19:18 26.01.2020
3791 Clouds 2 1018 74 10000 1.5 140 18:54 26.01.2020
3792 Clouds 3 1018 69 10000 1 150 18:36 26.01.2020
3793 Clouds 3 1018 69 10000 1 150 18:18 26.01.2020
3794 Clouds 4 1018 60 10000 2.1 100 17:40 26.01.2020
3795 Clouds 4 1018 60 10000 2.1 80 17:20 26.01.2020
3796 Clouds 4 1018 60 10000 2.1 80 17:20 26.01.2020
3797 Clouds 4 1030 61 0 0.46 313 16:59 26.01.2020
3798 Clouds 4 1018 65 10000 1 140 16:40 26.01.2020
3799 Clouds 5 1018 56 10000 0.5 0 16:22 26.01.2020
3800 Clouds 5 1018 56 10000 0.5 0 16:22 26.01.2020
3801 Clouds 4 1020 70 0 0.46 313 15:58 26.01.2020
3802 Clouds 4 1030 59 0 0.46 313 15:58 26.01.2020
3803 Clouds 4 1030 59 0 0.46 313 15:58 26.01.2020
3804 Clouds 4 1020 70 0 0.46 313 15:40 26.01.2020
3805 Clouds 4 1021 63 0 0.89 44 15:19 26.01.2020
3806 Clouds 5 1020 65 0 0.89 53 14:41 26.01.2020
3807 Clouds 5 1020 65 0 0.89 53 14:23 26.01.2020
3808 Clouds 5 1020 65 0 0.89 53 14:23 26.01.2020
3809 Clouds 4 1030 62 0 0.26 192 13:57 26.01.2020
3810 Clouds 4 1030 61 0 0.26 192 13:38 26.01.2020
3811 Clouds 4 1031 61 0 0.18 239 13:18 26.01.2020
3812 Clouds 4 1031 64 0 0.18 239 12:43 26.01.2020
3813 Clouds 3 1023 68 0 0.18 239 12:24 26.01.2020
3814 Clouds 3 1032 67 0 0.18 239 11:58 26.01.2020
3815 Clouds 3 1032 67 0 0.18 239 11:40 26.01.2020
3816 Clouds 1 1021 86 10000 0.5 0 11:19 26.01.2020
3817 Clouds 1 1021 86 10000 0.5 0 10:59 26.01.2020
3818 Clouds 1 1021 86 10000 0.5 0 10:39 26.01.2020
3819 Clouds 0 1021 86 10000 0.5 0 10:21 26.01.2020
3820 Clouds 0 1021 92 10000 0.5 0 09:58 26.01.2020
3821 Clouds 0 1021 92 10000 0.5 0 09:40 26.01.2020
3822 Clouds 0 1021 92 10000 1 280 09:40 26.01.2020
3823 Clouds -1 1021 92 10000 1 280 09:21 26.01.2020
3824 Clouds -1 1020 86 10000 1 0 08:45 26.01.2020
3825 Clouds -1 1020 92 10000 0.5 0 08:23 26.01.2020
3826 Clouds -1 1020 86 10000 0.5 0 07:58 26.01.2020
3827 Clouds -1 1020 86 10000 0.5 0 07:40 26.01.2020
3828 Clouds -1 1020 92 10000 1 300 07:21 26.01.2020
3829 Clouds -1 1020 92 10000 1 270 06:31 26.01.2020
3830 Clouds -1 1020 92 10000 0.5 0 05:32 26.01.2020
3831 Clouds -1 1020 86 10000 1.15 196 04:45 26.01.2020
3832 Clouds 0 1021 86 10000 1.5 250 02:59 26.01.2020
3833 Clouds 0 1021 92 10000 0.5 0 01:57 26.01.2020
3834 Clouds -1 1021 92 10000 0.5 0 01:37 26.01.2020
3835 Clouds -1 1021 92 10000 0.5 0 01:18 26.01.2020
3836 Clouds 0 1021 86 10000 1 0 00:38 26.01.2020
3837 Clouds 0 1021 92 10000 1.5 250 00:20 26.01.2020
3838 Clouds 1 1033 72 0 1.41 199 23:37 25.01.2020
3839 Clouds 1 1033 72 0 1.46 186 23:18 25.01.2020
3840 Clouds 1 1033 72 0 1.46 186 23:18 25.01.2020
3841 Clouds 1 1024 82 0 1.46 186 22:41 25.01.2020
3842 Clouds 1 1024 81 0 1.46 186 22:20 25.01.2020
3843 Clouds 1 1024 81 0 1.46 186 21:57 25.01.2020
3844 Clouds 1 1033 70 0 1.46 186 21:39 25.01.2020
3845 Clouds 1 1024 80 0 1.46 186 21:20 25.01.2020
3846 Clouds -1 1023 71 0 1.46 186 20:45 25.01.2020
3847 Clouds 1 1024 79 0 0.97 179 20:26 25.01.2020
3848 Clouds 1 1024 78 0 0.97 179 19:56 25.01.2020
3849 Clouds 1 1024 78 0 0.97 179 19:56 25.01.2020
3850 Clouds 2 1033 68 0 1.08 180 19:37 25.01.2020
3851 Clouds 1 1024 76 0 0.97 179 19:19 25.01.2020
3852 Clouds 1 1024 89 0 1.08 180 18:55 25.01.2020
3853 Clouds 1 1024 89 0 0.97 179 18:37 25.01.2020
3854 Clouds 1 1023 88 0 0.97 179 18:18 25.01.2020
3855 Clouds 1 1023 88 0 0.97 179 18:18 25.01.2020
3856 Clouds 2 1023 86 0 0.97 179 17:39 25.01.2020
3857 Clouds 3 1024 67 0 0.66 2 17:19 25.01.2020
3858 Clouds 4 1024 67 0 0.66 2 16:56 25.01.2020
3859 Clouds 3 1032 58 0 0.66 2 16:37 25.01.2020
3860 Clouds 3 1032 58 0 0.66 2 16:18 25.01.2020
3861 Clouds 4 1024 66 0 0.66 2 15:42 25.01.2020
3862 Clouds 4 1024 64 0 0.66 2 15:23 25.01.2020
3863 Clouds 4 1033 59 0 0.66 2 14:46 25.01.2020
3864 Clouds 4 1033 59 0 0.31 351 14:19 25.01.2020
3865 Clouds 3 1024 62 0 0.89 270 13:57 25.01.2020
3866 Clouds 3 1033 57 0 0.31 351 13:39 25.01.2020
3867 Clouds 3 1033 59 0 0.2 341 13:18 25.01.2020
3868 Clouds 3 1033 59 0 0.2 341 13:18 25.01.2020
3869 Clouds 3 1023 74 10000 0.5 0 12:42 25.01.2020
3870 Clouds 2 1023 74 10000 0.5 0 12:21 25.01.2020
3871 Clouds 2 1023 74 10000 0.5 0 11:43 25.01.2020
3872 Clouds 1 1023 57 10000 1 0 11:21 25.01.2020
3873 Clouds 0 1023 80 10000 1 0 10:56 25.01.2020
3874 Clouds 0 1023 80 10000 1 0 10:38 25.01.2020
3875 Clouds 0 1023 80 10000 0.5 0 10:19 25.01.2020
3876 Clouds -1 1023 86 10000 0.5 0 09:40 25.01.2020
3877 Clouds -1 1023 79 10000 0.5 0 09:20 25.01.2020
3878 Clouds -1 1023 86 10000 1 0 08:43 25.01.2020
3879 Clouds -2 1022 86 10000 1 0 08:20 25.01.2020
3880 Clouds -3 1022 85 10000 0.5 0 07:41 25.01.2020
3881 Clouds -2 1022 86 10000 1 0 06:44 25.01.2020
3882 Clouds -2 1022 92 10000 1.5 300 06:24 25.01.2020
3883 Clouds -2 1022 85 10000 1 320 05:44 25.01.2020
3884 Clouds -2 1022 85 10000 1 0 04:25 25.01.2020
3885 Clouds -2 1022 86 10000 1 260 03:50 25.01.2020
3886 Clouds -2 1022 86 10000 0.5 0 02:48 25.01.2020
3887 Clouds -1 1023 79 10000 1 0 01:58 25.01.2020
3888 Clouds -1 1023 80 10000 1.5 250 01:34 25.01.2020
3889 Clouds -1 1023 80 10000 2.6 260 00:41 25.01.2020
3890 Clouds -1 1023 80 10000 1 0 00:23 25.01.2020
3891 Clouds -1 1023 80 10000 1 0 23:42 24.01.2020
3892 Clouds -1 1023 80 10000 1 0 23:24 24.01.2020
3893 Clouds 0 1024 80 10000 1.5 0 22:56 24.01.2020
3894 Clouds -1 1024 86 10000 1.5 230 22:37 24.01.2020
3895 Clouds -1 1024 86 10000 1.5 230 22:19 24.01.2020
3896 Clouds -1 1024 86 10000 0.5 0 21:41 24.01.2020
3897 Clouds -1 1024 79 10000 0.5 0 21:19 24.01.2020
3898 Clouds -1 1024 79 10000 0.5 0 20:44 24.01.2020
3899 Clouds 0 1023 80 10000 0.5 0 20:23 24.01.2020
3900 Clear 0 1023 74 10000 0.5 0 19:59 24.01.2020
3901 Clear 0 1023 74 10000 0.5 0 19:41 24.01.2020
3902 Clear 0 1023 52 10000 1 0 19:22 24.01.2020
3903 Clear 0 1023 52 10000 1 0 18:58 24.01.2020
3904 Clear 0 1023 52 10000 1 0 18:40 24.01.2020
3905 Clear 0 1023 52 10000 0.5 0 18:21 24.01.2020
3906 Clear 2 1022 64 10000 0.5 0 17:44 24.01.2020
3907 Clear 4 1022 59 10000 0.5 0 17:22 24.01.2020
3908 Clear 4 1022 56 10000 1.5 160 16:57 24.01.2020
3909 Clear 4 1022 56 10000 1.5 160 16:57 24.01.2020
3910 Clear 5 1022 56 10000 1.5 160 16:38 24.01.2020
3911 Clear 5 1022 48 10000 1.5 170 16:18 24.01.2020
3912 Clear 5 1022 48 10000 0.5 0 15:41 24.01.2020
3913 Clear 6 1022 42 10000 1 0 15:21 24.01.2020
3914 Clear 5 1023 45 10000 2.1 180 14:42 24.01.2020
3915 Clear 6 1023 52 10000 0.5 0 14:24 24.01.2020
3916 Clear 6 1023 45 10000 0.5 0 13:58 24.01.2020
3917 Clear 5 1023 45 10000 0.5 0 13:40 24.01.2020
3918 Clear 6 1024 48 10000 1 0 13:21 24.01.2020
3919 Clear 5 1024 51 10000 0.5 0 12:42 24.01.2020
3920 Clear 5 1025 55 10000 1 0 12:20 24.01.2020
3921 Clear 4 1025 64 10000 1 0 11:44 24.01.2020
3922 Clear 2 1026 69 10000 1 0 11:19 24.01.2020
3923 Clear 1 1026 80 10000 0.5 0 10:43 24.01.2020
3924 Clear 0 1026 79 10000 0.5 0 10:23 24.01.2020
3925 Clear -1 1026 86 10000 1 0 10:00 24.01.2020
3926 Clear 0 1026 86 10000 1 0 09:40 24.01.2020
3927 Clear -2 1026 92 10000 1 0 09:22 24.01.2020
3928 Clear -2 1026 92 10000 1 240 08:41 24.01.2020
3929 Clear -5 1026 92 10000 0.5 0 08:20 24.01.2020
3930 Clear -5 1025 92 10000 0.5 0 07:53 24.01.2020
3931 Clear -5 1025 92 10000 0.5 0 07:35 24.01.2020
3932 Clear -6 1025 85 10000 1 0 06:48 24.01.2020
3933 Clear -6 1025 85 10000 1 0 06:29 24.01.2020
3934 Clear -6 1025 92 10000 0.5 0 05:59 24.01.2020
3935 Clear -4 1025 85 10000 1.5 110 04:57 24.01.2020
3936 Clear -4 1025 79 10000 1.5 310 02:53 24.01.2020
3937 Clear -4 1025 79 10000 1.5 210 02:26 24.01.2020
3938 Clear -3 1025 85 10000 1 0 01:46 24.01.2020
3939 Clear -3 1025 86 10000 0.5 0 01:28 24.01.2020
3940 Clear -3 1025 79 10000 1.5 210 00:25 24.01.2020
3941 Clear -3 1025 85 10000 1.5 0 23:49 23.01.2020
3942 Clear -3 1025 79 10000 1 0 23:31 23.01.2020
3943 Clear -3 1025 79 10000 1.5 0 22:59 23.01.2020
3944 Clear -2 1025 79 10000 1.5 0 22:38 23.01.2020
3945 Clear -3 1025 79 10000 1 0 22:19 23.01.2020
3946 Clear -2 1025 79 10000 1 0 21:57 23.01.2020
3947 Clear -2 1025 79 10000 1 0 21:39 23.01.2020
3948 Clear -2 1025 79 10000 2.1 280 21:20 23.01.2020
3949 Clear -2 1025 85 10000 1 0 20:58 23.01.2020
3950 Clear -2 1026 86 10000 1 0 20:38 23.01.2020
3951 Clear -2 1026 86 10000 1 0 20:19 23.01.2020
3952 Clear -1 1026 79 10000 1 0 19:54 23.01.2020
3953 Clear -1 1026 79 10000 0.5 0 19:36 23.01.2020
3954 Clear -1 1026 79 10000 0.5 0 19:18 23.01.2020
3955 Clear 0 1025 74 10000 1 0 18:42 23.01.2020
3956 Clear 0 1025 46 10000 1 0 18:20 23.01.2020
3957 Clear -1 1025 46 10000 1 0 17:58 23.01.2020
3958 Clear -1 1025 46 10000 1 0 17:40 23.01.2020
3959 Clear 2 1025 55 10000 1.5 0 17:19 23.01.2020
3960 Clear 2 1025 64 10000 1 0 16:55 23.01.2020
3961 Clear 2 1025 52 10000 1 0 16:36 23.01.2020
3962 Clear 2 1025 52 10000 1 0 16:18 23.01.2020
3963 Clear 2 1028 75 0 1.79 355 15:54 23.01.2020
3964 Clear 3 1028 74 0 1.79 32 15:36 23.01.2020
3965 Clear 4 1026 52 10000 1 0 15:18 23.01.2020
3966 Clear 4 1026 52 10000 0.5 0 14:54 23.01.2020
3967 Clear 5 1027 56 10000 0.5 0 14:36 23.01.2020
3968 Clear 5 1027 56 10000 0.5 0 14:18 23.01.2020
3969 Clear 4 1028 60 10000 0.5 0 13:38 23.01.2020
3970 Clear 4 1028 59 10000 1 0 13:19 23.01.2020
3971 Clear 4 1029 69 10000 1 260 12:47 23.01.2020
3972 Clear 4 1029 44 10000 1.5 270 12:25 23.01.2020
3973 Clear 4 1029 44 10000 1.5 270 12:25 23.01.2020
3974 Clear 3 1030 80 10000 1.5 280 11:58 23.01.2020
3975 Clear 3 1031 86 10000 1 0 11:38 23.01.2020
3976 Clear 0 1031 86 10000 1 0 11:19 23.01.2020
3977 Clear -1 1031 86 10000 2.1 250 10:44 23.01.2020
3978 Clear -2 1031 92 10000 2.6 250 10:22 23.01.2020
3979 Clear -2 1032 92 10000 1 260 09:59 23.01.2020
3980 Clouds -3 1032 92 10000 1.5 260 09:37 23.01.2020
3981 Clouds -3 1032 92 10000 1.5 260 09:19 23.01.2020
3982 Clouds -4 1032 92 10000 1 0 08:41 23.01.2020
3983 Fog -5 1032 92 10000 0.5 0 08:22 23.01.2020
3984 Fog -5 1032 92 10000 0.5 0 07:45 23.01.2020
3985 Fog -4 1032 92 10000 0.5 0 07:26 23.01.2020
3986 Fog -4 1032 92 10000 0.5 0 06:54 23.01.2020
3987 Clouds -4 1032 92 10000 0.5 0 06:23 23.01.2020
3988 Clear -4 1032 92 10000 0.5 0 05:58 23.01.2020
3989 Clear -4 1033 92 6000 0.5 0 04:24 23.01.2020
3990 Clear -3 1033 85 10000 1 0 02:35 23.01.2020
3991 Clear -3 1033 85 10000 1 0 01:41 23.01.2020
3992 Clear -3 1034 92 10000 2.6 250 00:28 23.01.2020
3993 Clear -2 1034 92 10000 0.5 0 23:48 22.01.2020
3994 Clear -2 1034 92 10000 0.5 0 23:30 22.01.2020
3995 Clear -2 1034 86 10000 0.5 0 22:59 22.01.2020
3996 Clear -2 1034 86 10000 0.5 0 22:41 22.01.2020
3997 Clear -2 1034 86 10000 1.5 130 22:23 22.01.2020
3998 Clear -2 1033 86 10000 1.5 110 21:41 22.01.2020
3999 Clear -1 1033 92 10000 0.5 0 21:22 22.01.2020
4000 Clear -1 1032 86 10000 1 110 20:58 22.01.2020
4001 Clear -1 1032 86 10000 1 250 20:39 22.01.2020
4002 Clear -1 1032 86 10000 1 250 20:21 22.01.2020
4003 Clear -1 1032 80 10000 0.5 0 19:57 22.01.2020
4004 Clear 0 1032 80 10000 0.5 0 19:39 22.01.2020
4005 Clear 0 1032 80 10000 0.5 0 19:19 22.01.2020
4006 Clear 0 1031 77 10000 1.5 270 18:57 22.01.2020
4007 Clear 1 1031 77 10000 0.5 0 18:38 22.01.2020
4008 Clear 0 1031 77 10000 1.5 270 18:38 22.01.2020
4009 Clear 0 1031 77 10000 0.5 0 18:19 22.01.2020
4010 Clear 1 1031 74 10000 1.5 140 17:55 22.01.2020
4011 Clear 1 1030 64 10000 2.1 140 17:37 22.01.2020
4012 Clear 2 1030 64 10000 2.1 140 17:18 22.01.2020
4013 Clear 2 1030 60 10000 2.1 100 16:43 22.01.2020
4014 Clear 3 1030 60 10000 2.1 100 16:43 22.01.2020
4015 Clear 4 1030 56 10000 2.1 160 16:23 22.01.2020
4016 Clear 4 1030 52 10000 1.5 180 15:59 22.01.2020
4017 Clear 3 1035 82 0 0.41 274 15:40 22.01.2020
4018 Clear 3 1035 82 0 0.41 274 15:40 22.01.2020
4019 Clear 5 1030 48 10000 1.5 180 15:22 22.01.2020
4020 Clear 4 1030 48 10000 1 190 14:57 22.01.2020
4021 Clear 5 1030 48 10000 0.5 0 14:37 22.01.2020
4022 Clear 5 1030 48 10000 0.5 0 14:18 22.01.2020
4023 Clear 5 1031 55 10000 1 270 13:54 22.01.2020
4024 Clear 4 1031 56 10000 0.5 0 13:36 22.01.2020
4025 Clear 4 1031 56 10000 0.5 0 13:18 22.01.2020
4026 Clear 5 1032 55 10000 0.5 0 12:54 22.01.2020
4027 Clear 5 1033 69 10000 1 0 12:36 22.01.2020
4028 Clear 5 1033 69 10000 1 0 12:18 22.01.2020
4029 Clear 5 1033 64 10000 0.5 0 11:55 22.01.2020
4030 Clear 4 1033 42 10000 0.5 0 11:36 22.01.2020
4031 Clear 2 1033 36 10000 0.5 0 11:18 22.01.2020
4032 Clear 0 1034 86 10000 1 190 10:42 22.01.2020
4033 Clear -1 1034 92 10000 1.5 60 10:19 22.01.2020
4034 Clear -1 1034 92 10000 1 0 09:43 22.01.2020
4035 Clear -2 1034 92 10000 2.1 250 09:24 22.01.2020
4036 Clear -3 1034 92 10000 1 250 08:57 22.01.2020
4037 Clear -3 1034 92 10000 1 250 08:57 22.01.2020
4038 Clear -3 1034 92 10000 1 250 08:39 22.01.2020
4039 Clouds -4 1034 92 10000 0.5 0 08:20 22.01.2020
4040 Clouds -4 1034 92 10000 1 280 07:47 22.01.2020
4041 Clouds -4 1034 92 10000 0.5 0 07:29 22.01.2020
4042 Clouds -5 1034 92 10000 0.5 0 06:50 22.01.2020
4043 Clouds -5 1034 92 10000 1 0 06:26 22.01.2020
4044 Clouds -4 1034 92 10000 1 0 05:33 22.01.2020
4045 Clear -4 1035 92 10000 1 0 04:18 22.01.2020
4046 Clear -4 1035 92 10000 1 10 03:21 22.01.2020
4047 Clear -3 1036 92 10000 1 0 01:43 22.01.2020
4048 Clear -3 1036 92 10000 0.5 0 00:44 22.01.2020
4049 Clear -4 1036 92 10000 1 0 00:26 22.01.2020
4050 Clear -3 1036 85 10000 1 0 23:38 21.01.2020
4051 Clear -3 1036 85 10000 1 0 23:20 21.01.2020
4052 Clear -2 1037 85 10000 0.5 0 22:56 21.01.2020
4053 Clear -2 1037 85 10000 0.5 0 22:56 21.01.2020
4054 Clear -3 1037 92 10000 1 0 22:37 21.01.2020
4055 Clear -3 1037 92 10000 1 0 22:37 21.01.2020
4056 Clear -3 1037 92 10000 1 0 22:19 21.01.2020
4057 Clear -3 1037 85 10000 1 0 21:55 21.01.2020
4058 Clear -3 1037 92 10000 0.5 0 21:37 21.01.2020
4059 Clear -3 1037 92 10000 0.5 0 21:18 21.01.2020
4060 Clear -2 1037 85 10000 1 0 20:55 21.01.2020
4061 Clear -2 1037 92 10000 1 0 20:36 21.01.2020
4062 Clear -2 1037 92 10000 1 0 20:18 21.01.2020
4063 Clear -2 1037 86 10000 0.5 0 19:55 21.01.2020
4064 Clear -1 1037 86 10000 1 0 19:36 21.01.2020
4065 Clear -1 1037 86 10000 1 0 19:18 21.01.2020
4066 Clear -1 1037 86 10000 0.5 0 18:54 21.01.2020
4067 Clear -1 1037 79 10000 0.5 0 18:36 21.01.2020
4068 Clear -1 1037 79 10000 0.5 0 18:18 21.01.2020
4069 Clear 0 1037 74 10000 1 0 17:42 21.01.2020
4070 Clear 1 1037 74 10000 1 0 17:19 21.01.2020
4071 Clear 1 1037 45 10000 1 0 16:55 21.01.2020
4072 Clear 3 1037 64 10000 1 0 16:36 21.01.2020
4073 Clear 3 1037 64 10000 1 0 16:18 21.01.2020
4074 Clear 3 1038 64 10000 1 160 15:39 21.01.2020
4075 Clear 4 1038 55 10000 0.5 0 15:20 21.01.2020
4076 Clear 4 1038 51 10000 1 0 14:40 21.01.2020
4077 Rain 4 1038 51 10000 1.5 150 14:22 21.01.2020
4078 Rain 3 1039 55 10000 1 0 13:58 21.01.2020
4079 Rain 3 1039 55 10000 1 0 13:38 21.01.2020
4080 Rain 2 1040 51 10000 1 0 13:18 21.01.2020
4081 Rain 2 1040 36 10000 0.5 0 12:42 21.01.2020
4082 Rain 2 1041 63 10000 0.5 0 12:24 21.01.2020
4083 Rain 2 1041 63 10000 0.5 0 11:56 21.01.2020
4084 Rain 1 1041 63 10000 0.5 0 11:38 21.01.2020
4085 Rain 1 1041 63 10000 0.5 0 11:38 21.01.2020
4086 Rain 0 1042 79 10000 0.5 0 11:19 21.01.2020
4087 Rain -1 1042 79 10000 0.5 0 11:19 21.01.2020
4088 Clear -2 1042 85 10000 0.5 0 10:43 21.01.2020
4089 Clear -2 1042 92 10000 0.5 0 10:23 21.01.2020
4090 Clear -3 1045 84 0 0.45 270 09:57 21.01.2020
4091 Clear -4 1042 92 10000 0.5 0 09:39 21.01.2020
4092 Clear -6 1042 92 10000 0.5 0 09:21 21.01.2020
4093 Clear -6 1042 92 10000 0.5 0 08:45 21.01.2020
4094 Clear -5 1056 71 0 1.23 184 08:27 21.01.2020
4095 Clear -6 1042 92 10000 0.5 0 07:44 21.01.2020
4096 Clear -6 1042 92 10000 0.5 0 07:25 21.01.2020
4097 Clear -6 1042 92 10000 0.5 0 06:58 21.01.2020
4098 Clear -6 1042 92 10000 0.5 0 06:38 21.01.2020
4099 Clear -6 1042 92 10000 0.5 0 06:20 21.01.2020
4100 Clear -7 1042 92 10000 0.5 0 05:40 21.01.2020
4101 Clear -6 1042 92 7000 1 260 04:38 21.01.2020
4102 Clear -6 1043 92 10000 0.5 0 02:29 21.01.2020
4103 Clear -5 1043 92 10000 0.5 0 01:37 21.01.2020
4104 Clear -5 1043 92 10000 0.5 0 00:52 21.01.2020
4105 Clear -5 1043 92 10000 1 0 00:29 21.01.2020
4106 Clear -5 1043 92 10000 0.5 0 23:56 20.01.2020
4107 Clouds -6 1043 92 10000 1.5 260 23:36 20.01.2020
4108 Clouds -4 1044 92 10000 0.5 0 23:18 20.01.2020
4109 Clouds -5 1044 92 10000 0.5 0 22:54 20.01.2020
4110 Clouds -4 1043 92 10000 0.5 0 22:36 20.01.2020
4111 Clouds -4 1043 92 10000 0.5 0 22:18 20.01.2020
4112 Clouds -4 1043 92 10000 0.5 0 21:54 20.01.2020
4113 Clouds -5 1043 92 10000 1 0 21:36 20.01.2020
4114 Clouds -5 1043 92 10000 1 0 21:18 20.01.2020
4115 Clouds -5 1043 85 10000 0.5 0 20:42 20.01.2020
4116 Clouds -5 1043 85 10000 1 0 20:20 20.01.2020
4117 Clouds -4 1043 85 10000 1 0 19:59 20.01.2020
4118 Clouds -4 1043 85 10000 1 0 19:40 20.01.2020
4119 Clouds -4 1043 85 10000 1 0 19:19 20.01.2020
4120 Clouds -4 1043 85 10000 1 0 18:55 20.01.2020
4121 Clouds -4 1042 85 10000 1.5 250 18:37 20.01.2020
4122 Clouds -4 1042 85 10000 1.5 250 18:19 20.01.2020
4123 Clouds -4 1042 86 10000 0.5 0 17:38 20.01.2020
4124 Clouds -2 1042 79 10000 1 0 17:19 20.01.2020
4125 Clouds -2 1042 79 10000 1 0 16:46 20.01.2020
4126 Clouds 0 1042 69 10000 2.1 170 16:26 20.01.2020
4127 Rain 0 1042 69 10000 1.5 170 15:59 20.01.2020
4128 Rain 0 1042 59 10000 0.5 0 15:40 20.01.2020
4129 -273 0 0 0 0 0 15:22 20.01.2020
4130 Rain 0 1042 58 10000 1.5 280 14:58 20.01.2020
4131 Rain 0 1042 58 10000 1.5 280 14:39 20.01.2020
4132 Rain 0 1042 56 10000 2.6 260 14:20 20.01.2020
4133 Rain -1 1042 56 10000 3.1 260 13:44 20.01.2020
4134 Rain -1 1043 74 10000 2.6 270 13:24 20.01.2020
4135 Rain -1 1043 74 10000 2.6 260 12:58 20.01.2020
4136 Rain -1 1043 74 10000 2.6 260 12:40 20.01.2020
4137 Rain -1 1043 74 10000 1.5 260 12:21 20.01.2020
4138 Rain -1 1044 57 10000 0.5 0 11:55 20.01.2020
4139 Clouds 0 1044 74 10000 0.5 0 11:36 20.01.2020
4140 Clouds -3 1044 74 10000 0.5 0 11:18 20.01.2020
4141 Clouds -2 1045 86 10000 0.5 0 10:41 20.01.2020
4142 Clouds -3 1044 92 10000 1 0 10:20 20.01.2020
4143 Clouds -4 1044 92 10000 1 270 09:42 20.01.2020
4144 Clouds -4 1044 92 10000 1 0 09:24 20.01.2020
4145 Clouds -4 1044 92 10000 1 0 08:55 20.01.2020
4146 Clouds -4 1043 92 10000 1.5 280 08:34 20.01.2020
4147 Clouds -9 1043 85 10000 1.5 270 07:56 20.01.2020
4148 Clouds -8 1043 85 10000 1.5 270 07:37 20.01.2020
4149 Clouds -8 1042 92 10000 2.6 260 07:19 20.01.2020
4150 Clouds -9 1042 92 10000 2.1 270 06:40 20.01.2020
4151 Clouds -9 1042 85 10000 1.5 260 06:20 20.01.2020
4152 Clouds -8 1042 92 10000 1.5 310 05:38 20.01.2020
4153 Clouds -7 1042 92 10000 1.5 310 05:19 20.01.2020
4154 Clouds -6 1041 92 10000 3.1 280 03:55 20.01.2020
4155 Clouds -5 1041 92 10000 1 0 01:58 20.01.2020
4156 Clouds -5 1041 92 10000 0.5 0 01:39 20.01.2020
4157 Clouds -5 1040 100 10000 1 0 00:56 20.01.2020
4158 Clouds -5 1040 92 6000 2.1 260 00:37 20.01.2020
4159 Clouds -5 1040 92 6000 2.1 260 00:19 20.01.2020
4160 Fog -4 1039 92 10000 0.5 0 23:37 19.01.2020
4161 Fog -4 1039 92 10000 0.5 0 23:18 19.01.2020
4162 Fog -4 1039 92 10000 0.5 0 22:55 19.01.2020
4163 Fog -4 1039 92 10000 0.5 0 22:37 19.01.2020
4164 Fog -4 1039 92 10000 0.5 0 22:18 19.01.2020
4165 Clouds -4 1038 92 10000 1 0 21:56 19.01.2020
4166 Clouds -3 1038 92 10000 0.5 0 21:37 19.01.2020
4167 Clouds -2 1038 92 10000 0.5 0 21:19 19.01.2020
4168 Clouds -3 1038 92 10000 1 0 20:56 19.01.2020
4169 Clouds -2 1037 95 10000 1.5 240 20:37 19.01.2020
4170 Clouds -2 1037 99 10000 1.5 240 20:19 19.01.2020
4171 Clouds -2 1037 97 10000 0.5 0 19:55 19.01.2020
4172 Clouds -2 1037 97 10000 2.1 290 19:37 19.01.2020
4173 Clouds -2 1037 97 10000 2.1 290 19:19 19.01.2020
4174 Snow -2 1036 97 10000 1 0 18:55 19.01.2020
4175 Snow -2 1036 97 6000 3.6 70 18:37 19.01.2020
4176 Snow -2 1036 97 6000 3.6 70 18:18 19.01.2020
4177 Snow -2 1036 97 6000 3.6 70 18:18 19.01.2020
4178 Snow -2 1035 97 10000 1 130 17:57 19.01.2020
4179 Snow -1 1035 97 10000 1 130 17:38 19.01.2020
4180 Clouds -1 1035 80 10000 0.5 0 17:19 19.01.2020
4181 Clouds -1 1034 90 10000 2.6 270 16:57 19.01.2020
4182 Clouds -1 1033 80 10000 3.1 270 16:37 19.01.2020
4183 Clouds -1 1033 80 10000 3.1 270 16:37 19.01.2020
4184 Rain -1 1033 80 10000 3.1 270 16:19 19.01.2020
4185 Rain 0 1033 74 10000 2.6 240 15:55 19.01.2020
4186 Clouds 1 1033 69 10000 1 0 15:36 19.01.2020
4187 Clouds 0 1033 69 10000 1 0 15:18 19.01.2020
4188 Clouds 0 1033 69 10000 1 0 15:18 19.01.2020
4189 Clouds 0 1032 69 10000 2.1 110 14:40 19.01.2020
4190 Clouds 0 1032 69 10000 2.6 170 14:21 19.01.2020
4191 Clouds 0 1032 64 10000 1.5 0 13:59 19.01.2020
4192 Clouds 0 1032 74 10000 1 0 13:40 19.01.2020
4193 Clouds 0 1032 74 10000 1 0 13:22 19.01.2020
4194 Clouds 0 1032 74 10000 1 0 13:22 19.01.2020
4195 Clouds 0 1032 86 10000 2.1 250 12:59 19.01.2020
4196 Clouds 0 1032 86 10000 2.1 250 12:41 19.01.2020
4197 Clouds 0 1032 80 10000 2.6 260 12:21 19.01.2020
4198 Clouds 0 1032 80 10000 3.1 280 11:57 19.01.2020
4199 Clouds 0 1032 80 10000 3.1 280 11:38 19.01.2020
4200 Snow 0 1032 93 10000 3.6 270 11:18 19.01.2020
4201 Clouds 0 1031 93 8000 3.6 280 10:41 19.01.2020
4202 Mist -1 1031 93 5000 2.1 280 10:21 19.01.2020
4203 Mist -1 1030 93 4000 0.5 0 09:57 19.01.2020
4204 Snow -1 1030 93 4000 1 110 09:38 19.01.2020
4205 Snow -1 1030 93 4000 1 110 09:20 19.01.2020
4206 Snow -1 1029 93 1800 1 0 08:55 19.01.2020
4207 Snow -1 1029 94 2000 1 0 08:33 19.01.2020
4208 Snow -1 1029 96 1500 1 80 07:58 19.01.2020
4209 Snow -1 1028 96 3000 1.5 70 07:29 19.01.2020
4210 Snow -1 1028 96 3500 1.5 70 06:55 19.01.2020
4211 Snow -1 1028 96 3500 0.5 0 06:23 19.01.2020
4212 Clouds -1 1027 96 6000 0.5 0 04:18 19.01.2020
4213 Mist -1 1027 96 4800 0.5 0 02:34 19.01.2020
4214 Mist 0 1027 89 4200 1 0 01:45 19.01.2020
4215 Mist -1 1027 95 2900 1 90 01:21 19.01.2020
4216 Snow 0 1027 95 3700 1 0 00:45 19.01.2020
4217 Clouds 1 1027 95 3400 2.1 260 00:25 19.01.2020
4218 Clouds -1 1027 95 3400 2.1 260 23:55 18.01.2020
4219 Rain 0 1027 95 10000 1.5 260 23:36 18.01.2020
4220 Rain 0 1027 94 10000 1.5 260 23:18 18.01.2020
4221 Clouds 1 1027 94 10000 0.5 0 22:42 18.01.2020
4222 Rain 1 1027 94 10000 0.5 0 22:24 18.01.2020
4223 Rain 1 1027 94 10000 0.5 0 22:24 18.01.2020
4224 Clouds 1 1027 94 10000 0.5 0 21:58 18.01.2020
4225 Clouds 1 1027 94 10000 0.5 0 21:39 18.01.2020
4226 Clouds 1 1027 94 10000 0.5 0 21:21 18.01.2020
4227 Clouds 1 1027 94 10000 0.5 0 20:59 18.01.2020
4228 Clouds 1 1027 94 10000 0.5 0 20:41 18.01.2020
4229 Clouds 1 1027 99 10000 0.5 0 20:19 18.01.2020
4230 Clouds 1 1027 99 10000 0.5 0 19:44 18.01.2020
4231 Clouds 1 1027 99 10000 1 0 19:25 18.01.2020
4232 Clouds 1 1026 99 10000 1.5 90 18:56 18.01.2020
4233 Rain 1 1026 93 10000 1.5 70 18:37 18.01.2020
4234 Rain 1 1026 93 10000 1.5 70 18:19 18.01.2020
4235 Clouds 1 1026 99 10000 2.1 60 17:41 18.01.2020
4236 Rain 1 1026 93 10000 2.1 70 17:21 18.01.2020
4237 Rain 1 1025 93 10000 2.1 60 16:57 18.01.2020
4238 Clouds 1 1025 93 10000 0.5 0 16:38 18.01.2020
4239 Clouds 1 1025 93 10000 0.5 0 16:19 18.01.2020
4240 Clouds 1 1025 93 10000 0.5 0 16:19 18.01.2020
4241 Clouds 1 1025 93 10000 1 130 15:47 18.01.2020
4242 Clouds 1 1025 93 8000 1.5 110 15:26 18.01.2020
4243 Clouds 1 1025 93 8000 1.5 110 15:26 18.01.2020
4244 Rain 1 1025 96 6000 0.5 0 15:00 18.01.2020
4245 Rain 1 1025 96 6000 0.5 0 14:41 18.01.2020
4246 Rain 2 1026 93 6000 0.5 0 14:19 18.01.2020
4247 Rain 1 1026 96 5000 2.74 7 13:57 18.01.2020
4248 Rain 1 1026 96 4000 0.5 0 13:36 18.01.2020
4249 Rain 1 1026 96 4000 0.5 0 13:36 18.01.2020
4250 Rain 1 1026 95 4000 0.5 0 13:18 18.01.2020
4251 Rain 2 1026 95 3000 0.5 0 12:41 18.01.2020
4252 Rain 1 1026 95 2000 0.5 0 12:22 18.01.2020
4253 Rain 1 1027 95 1500 0.5 0 11:57 18.01.2020
4254 Snow 1 1027 95 1500 0.5 0 11:38 18.01.2020
4255 Snow 1 1027 94 1500 0.5 0 11:19 18.01.2020
4256 Snow 1 1027 94 2500 0.5 0 10:43 18.01.2020
4257 Snow 1 1027 94 4000 0.5 0 10:21 18.01.2020
4258 Snow 1 1027 94 4000 1 100 09:55 18.01.2020
4259 Snow 0 1027 94 3000 1.5 100 09:37 18.01.2020
4260 Snow 0 1026 94 2000 1 0 08:59 18.01.2020
4261 Snow 0 1026 94 3000 1 0 08:41 18.01.2020
4262 Snow 0 1026 98 3000 1 0 08:20 18.01.2020
4263 Snow 0 1026 98 3000 0.5 0 07:56 18.01.2020
4264 Snow 0 1026 98 3000 1 70 07:37 18.01.2020
4265 Snow 0 1025 98 3000 0.5 0 06:50 18.01.2020
4266 Snow 0 1025 86 4000 0.5 0 06:22 18.01.2020
4267 Snow 0 1025 80 10000 1 0 05:45 18.01.2020
4268 Clouds 0 1024 98 10000 2.1 240 04:19 18.01.2020
4269 Clouds 0 1023 80 10000 0.5 0 02:33 18.01.2020
4270 Clouds 0 1022 80 10000 0.18 186 01:36 18.01.2020
4271 Clouds 0 1022 80 10000 1 0 00:39 18.01.2020
4272 Clouds -1 1022 79 10000 1 0 00:19 18.01.2020
4273 Clouds 0 1022 74 10000 1.5 0 23:56 17.01.2020
4274 Clouds 0 1022 74 10000 1.5 0 23:38 17.01.2020
4275 Clouds 0 1022 80 10000 0.5 0 23:18 17.01.2020
4276 Clouds 0 1022 79 10000 1 0 22:40 17.01.2020
4277 Clouds 0 1022 79 10000 1 0 22:19 17.01.2020
4278 Clouds 0 1022 79 10000 1 0 22:19 17.01.2020
4279 Clouds 0 1022 79 10000 1 0 21:43 17.01.2020
4280 Clouds 1 1022 97 10000 0.5 0 21:24 17.01.2020
4281 Clouds 1 1022 97 10000 2.1 250 20:59 17.01.2020
4282 Clouds 1 1022 97 10000 2.1 250 20:41 17.01.2020
4283 Clouds 1 1022 73 10000 1.5 190 20:21 17.01.2020
4284 Clouds 2 1021 69 10000 1.5 0 19:57 17.01.2020
4285 Clouds 2 1021 69 10000 1.5 0 19:38 17.01.2020
4286 Clouds 2 1021 69 10000 0.5 0 19:20 17.01.2020
4287 Clouds 2 1021 69 10000 1.5 250 18:58 17.01.2020
4288 Clouds 1 1021 69 10000 1.5 250 18:38 17.01.2020
4289 Clouds 2 1021 69 10000 0.5 0 18:20 17.01.2020
4290 Clouds 3 1021 64 10000 0.5 0 17:40 17.01.2020
4291 Clear 4 1020 59 10000 1 0 17:21 17.01.2020
4292 Clear 4 1020 55 10000 1 100 16:57 17.01.2020
4293 Clear 4 1020 55 10000 1 100 16:57 17.01.2020
4294 Clear 4 1020 55 10000 1 100 16:38 17.01.2020
4295 Clear 6 1020 48 10000 2.1 170 16:18 17.01.2020
4296 Clear 7 1020 42 10000 1.5 160 15:44 17.01.2020
4297 Clear 9 1020 39 10000 1.5 170 15:26 17.01.2020
4298 Clear 9 1020 39 10000 1 150 14:44 17.01.2020
4299 Clouds 8 1020 36 10000 1 0 14:26 17.01.2020
4300 Clouds 7 1021 42 10000 1.5 140 13:58 17.01.2020
4301 Clouds 7 1021 42 10000 1 0 13:37 17.01.2020
4302 Clouds 7 1021 42 10000 1 0 13:18 17.01.2020
4303 Clouds 6 1022 45 10000 1 0 12:42 17.01.2020
4304 Clouds 5 1022 52 10000 0.5 0 12:21 17.01.2020
4305 Clouds 4 1023 55 10000 0.5 0 11:38 17.01.2020
4306 Clouds 3 1023 55 10000 0.5 0 11:18 17.01.2020
4307 Clouds 2 1023 69 10000 0.5 0 10:44 17.01.2020
4308 Clouds 1 1023 69 10000 1.5 90 10:23 17.01.2020
4309 Clouds 0 1023 48 10000 2.1 90 09:58 17.01.2020
4310 Clouds -1 1023 48 10000 2.1 90 09:39 17.01.2020
4311 Clouds -1 1023 48 10000 2.1 90 09:39 17.01.2020
4312 Clouds -2 1024 79 10000 1 0 09:19 17.01.2020
4313 Clouds -2 1024 79 10000 1 0 08:43 17.01.2020
4314 Clouds -2 1024 86 10000 1.5 170 08:25 17.01.2020
4315 Clear -1 1024 79 10000 1 0 07:54 17.01.2020
4316 Clear -2 1023 79 10000 1 0 07:31 17.01.2020
4317 Clear -2 1023 74 10000 1 0 06:58 17.01.2020
4318 Clear -2 1023 74 10000 1 0 06:58 17.01.2020
4319 Clear -2 1023 74 10000 1 0 06:40 17.01.2020
4320 Clear -1 1023 74 10000 1.5 260 05:53 17.01.2020
4321 Clear -1 1027 81 0 2.64 189 03:39 17.01.2020
4322 Clear -1 1027 82 0 2.64 189 02:52 17.01.2020
4323 Clear 0 1028 82 0 3.22 182 01:47 17.01.2020
4324 Clear 0 1028 82 0 3.22 182 01:29 17.01.2020
4325 Clear 0 1028 81 0 3.18 183 00:50 17.01.2020
4326 Clear 0 1029 79 0 3.18 183 00:26 17.01.2020
4327 Clear -1 1027 86 10000 0.5 0 23:44 16.01.2020
4328 Clear 0 1027 86 10000 0.5 0 23:26 16.01.2020
4329 Clear 0 1027 86 10000 1 0 22:57 16.01.2020
4330 Clear 1 1027 86 10000 1 0 22:39 16.01.2020
4331 Clear 1 1027 86 10000 1 0 22:20 16.01.2020
4332 Clear 0 1027 86 10000 1 0 21:55 16.01.2020
4333 Clear 1 1028 86 10000 1 0 21:36 16.01.2020
4334 Clear 0 1028 86 10000 1 0 21:18 16.01.2020
4335 Clear 0 1028 86 10000 1 0 21:18 16.01.2020
4336 Clear 1 1028 70 10000 1 0 20:41 16.01.2020
4337 Clouds 2 1028 83 10000 0.5 0 20:21 16.01.2020
4338 Clouds 2 1028 79 10000 1.5 240 19:59 16.01.2020
4339 Clouds 1 1028 79 10000 1.5 240 19:41 16.01.2020
4340 Clouds 2 1028 74 10000 1 0 19:22 16.01.2020
4341 Clouds 2 1028 74 10000 1 0 19:22 16.01.2020
4342 Clouds 3 1028 74 10000 0.5 0 18:57 16.01.2020
4343 Clouds 2 1028 74 10000 1.5 280 18:38 16.01.2020
4344 Clouds 2 1028 74 10000 1.5 280 18:20 16.01.2020
4345 Clouds 3 1027 69 10000 0.5 0 17:59 16.01.2020
4346 Clouds 3 1027 64 10000 0.5 0 17:40 16.01.2020
4347 Clouds 5 1027 64 10000 0.5 0 17:20 16.01.2020
4348 Clouds 6 1027 56 10000 1 0 16:42 16.01.2020
4349 Clouds 7 1027 60 10000 0.5 0 16:24 16.01.2020
4350 Clouds 7 1027 48 10000 1 0 15:59 16.01.2020
4351 Clouds 6 1027 48 10000 1 0 15:40 16.01.2020
4352 Clouds 6 1027 52 10000 1.5 160 15:21 16.01.2020
4353 Clouds 8 1027 49 10000 1.5 240 14:45 16.01.2020
4354 Clouds 7 1028 48 10000 2.6 260 14:24 16.01.2020
4355 Clouds 7 1028 48 10000 3.1 260 13:56 16.01.2020
4356 Clouds 7 1029 48 10000 2.6 250 13:37 16.01.2020
4357 Clouds 6 1029 48 10000 2.6 250 13:19 16.01.2020
4358 Clouds 6 1029 48 10000 2.6 250 13:19 16.01.2020
4359 Clouds 7 1029 52 10000 3.1 250 12:42 16.01.2020
4360 Clouds 6 1030 56 10000 1.5 240 12:22 16.01.2020
4361 Clouds 5 1031 60 10000 3.6 260 11:43 16.01.2020
4362 Clouds 5 1031 60 10000 1.5 260 11:25 16.01.2020
4363 Clouds 4 1031 64 10000 2.1 260 10:59 16.01.2020
4364 Clouds 3 1031 74 10000 0.5 0 10:38 16.01.2020
4365 Clouds 3 1031 74 10000 0.5 0 10:20 16.01.2020
4366 Clouds 2 1031 80 10000 1 0 09:56 16.01.2020
4367 Clouds 1 1031 70 10000 1.5 270 09:37 16.01.2020
4368 Clouds 0 1031 70 10000 1.5 270 09:19 16.01.2020
4369 Clouds 0 1031 86 10000 1 250 08:48 16.01.2020
4370 Clouds 0 1031 86 10000 1 310 08:29 16.01.2020
4371 Clouds 0 1031 80 10000 0.5 0 07:44 16.01.2020
4372 Clouds 0 1031 80 10000 0.5 0 07:25 16.01.2020
4373 Clouds 0 1031 86 10000 1 0 06:59 16.01.2020
4374 Clouds 0 1031 86 10000 1 0 06:37 16.01.2020
4375 Clouds 0 1031 80 10000 0.5 0 05:58 16.01.2020
4376 Clouds 0 1031 80 10000 0.5 0 05:39 16.01.2020
4377 Clouds -1 1031 86 10000 1 0 04:37 16.01.2020
4378 Clouds -1 1031 86 10000 1 0 04:37 16.01.2020
4379 Clouds -1 1031 92 10000 0.5 0 03:28 16.01.2020
4380 Clouds -1 1030 86 10000 1 0 02:36 16.01.2020
4381 Clouds 0 1029 86 10000 3.1 250 00:48 16.01.2020
4382 Clouds -1 1029 86 10000 0.5 0 00:24 16.01.2020
4383 Clouds -1 1029 86 10000 0.5 0 23:48 15.01.2020
4384 Clear 0 1028 80 10000 0.5 0 23:23 15.01.2020
4385 Clear 0 1028 86 10000 0.5 0 22:57 15.01.2020
4386 Clear 0 1028 86 10000 0.5 0 22:39 15.01.2020
4387 Clear 0 1027 80 10000 0.5 0 22:19 15.01.2020
4388 Clear 0 1027 80 10000 0.5 0 21:57 15.01.2020
4389 Clear 0 1026 57 10000 1 250 21:37 15.01.2020
4390 Clear 0 1026 57 10000 1 250 21:19 15.01.2020
4391 Clear 0 1026 57 10000 1 0 20:57 15.01.2020
4392 Clear 1 1026 57 10000 1 0 20:39 15.01.2020
4393 Clear 1 1025 75 10000 0.5 0 20:20 15.01.2020
4394 Clear 0 1024 74 10000 0.5 0 19:55 15.01.2020
4395 Clear 1 1024 64 10000 0.5 0 19:37 15.01.2020
4396 Clear 1 1024 64 10000 0.5 0 19:19 15.01.2020
4397 Clear 1 1023 69 10000 0.5 0 18:56 15.01.2020
4398 Clear 2 1023 69 10000 0.5 0 18:38 15.01.2020
4399 Clear 3 1022 60 10000 2.1 150 18:19 15.01.2020
4400 Clear 3 1021 52 10000 3.1 120 17:56 15.01.2020
4401 Clear 4 1021 56 10000 2.1 130 17:37 15.01.2020
4402 Clear 5 1021 56 10000 2.1 130 17:18 15.01.2020
4403 Clear 5 1020 48 10000 1.5 120 16:40 15.01.2020
4404 Clear 7 1019 43 10000 2.1 220 16:22 15.01.2020
4405 Clear 8 1019 37 10000 2.6 270 15:57 15.01.2020
4406 Clear 8 1019 37 10000 2.6 270 15:39 15.01.2020
4407 Clear 10 1018 34 10000 4.1 280 15:19 15.01.2020
4408 Clear 9 1018 34 10000 5.1 270 14:43 15.01.2020
4409 Clear 9 1019 34 10000 4.6 270 14:20 15.01.2020
4410 Clear 8 1019 37 10000 1.5 0 13:46 15.01.2020
4411 Clear 8 1020 39 10000 1 0 13:27 15.01.2020
4412 Clear 7 1020 48 10000 1.5 0 12:59 15.01.2020
4413 Clear 6 1020 48 10000 1.5 0 12:40 15.01.2020
4414 Clear 5 1021 52 10000 2.1 110 12:20 15.01.2020
4415 Clear 5 1021 52 10000 0.5 0 11:57 15.01.2020
4416 Clear 4 1021 59 10000 1 0 11:37 15.01.2020
4417 Clear 3 1021 59 10000 1 0 11:19 15.01.2020
4418 Clear 1 1022 69 10000 1 0 10:43 15.01.2020
4419 Clear 1 1022 80 10000 2.1 260 10:25 15.01.2020
4420 Clear -1 1022 86 10000 0.5 0 09:45 15.01.2020
4421 Clear -2 1022 85 10000 0.5 0 09:26 15.01.2020
4422 Clear -2 1022 85 10000 0.5 0 08:58 15.01.2020
4423 Clear -2 1022 85 10000 0.5 0 08:39 15.01.2020
4424 Clouds -2 1022 85 10000 1 0 08:21 15.01.2020
4425 Clouds -2 1022 85 10000 1 0 07:51 15.01.2020
4426 Clouds -2 1022 85 10000 1.5 0 07:31 15.01.2020
4427 Clouds -2 1022 85 10000 0.5 0 06:46 15.01.2020
4428 Clouds -2 1022 79 10000 0.5 0 06:20 15.01.2020
4429 Clouds -2 1022 85 10000 1 0 04:42 15.01.2020
4430 Clouds -2 1022 79 10000 1.5 280 02:38 15.01.2020
4431 Clouds -1 1022 74 10000 2.1 250 01:28 15.01.2020
4432 Clouds -1 1022 74 10000 2.1 270 00:46 15.01.2020
4433 Clouds -1 1022 74 10000 2.1 250 00:27 15.01.2020
4434 Clouds -1 1022 74 10000 1.5 240 23:56 14.01.2020
4435 Clouds -1 1022 79 10000 1 0 23:38 14.01.2020
4436 Clouds -1 1022 79 10000 1 0 23:19 14.01.2020
4437 Clouds 0 1022 74 10000 2.1 240 22:41 14.01.2020
4438 Clouds 0 1022 74 10000 2.1 250 22:19 14.01.2020
4439 Clouds 0 1022 74 10000 2.1 260 21:58 14.01.2020
4440 Clouds 0 1022 74 10000 2.1 260 21:58 14.01.2020
4441 Clouds 0 1022 32 10000 2.6 270 21:40 14.01.2020
4442 Clouds 0 1022 32 10000 2.6 270 21:21 14.01.2020
4443 Clouds 0 1022 68 10000 2.1 280 20:59 14.01.2020
4444 Clouds 0 1022 68 10000 2.1 280 20:40 14.01.2020
4445 Clouds 1 1022 36 10000 2.6 260 20:20 14.01.2020
4446 Clouds 1 1022 36 10000 2.6 260 19:56 14.01.2020
4447 Clouds 0 1022 36 10000 1.5 250 19:38 14.01.2020
4448 Clouds 0 1022 36 10000 1.5 250 19:18 14.01.2020
4449 Clouds 0 1022 68 10000 1.5 240 18:55 14.01.2020
4450 Clouds 1 1021 59 10000 1 0 18:37 14.01.2020
4451 Clouds 1 1021 59 10000 1 0 18:18 14.01.2020
4452 Clouds 2 1021 59 10000 1 0 17:38 14.01.2020
4453 Clouds 3 1021 59 10000 1 0 17:19 14.01.2020
4454 Clouds 3 1021 55 10000 1 0 16:55 14.01.2020
4455 Clouds 5 1020 51 10000 1 190 16:37 14.01.2020
4456 Clouds 4 1020 51 10000 1 190 16:19 14.01.2020
4457 Clouds 6 1020 45 10000 1 160 15:42 14.01.2020
4458 Clouds 6 1020 45 10000 1 0 15:19 14.01.2020
4459 Clouds 7 1019 39 10000 1 0 14:47 14.01.2020
4460 Clouds 7 1019 41 10000 1 0 14:23 14.01.2020
4461 Clouds 6 1020 48 10000 1 0 13:59 14.01.2020
4462 Clouds 6 1020 48 10000 1 0 13:40 14.01.2020
4463 Clouds 5 1020 51 10000 1.5 240 13:19 14.01.2020
4464 Clouds 4 1021 59 10000 1 0 12:42 14.01.2020
4465 Clouds 3 1021 64 10000 1 0 12:23 14.01.2020
4466 Clouds 2 1021 34 10000 0.5 0 11:57 14.01.2020
4467 Clouds 2 1022 79 10000 1 0 11:39 14.01.2020
4468 Clouds 1 1022 79 10000 1 0 11:20 14.01.2020
4469 Clouds -1 1021 79 10000 2.1 250 10:56 14.01.2020
4470 Clouds -1 1021 79 10000 1 250 10:37 14.01.2020
4471 Clouds -2 1021 79 10000 1 250 10:19 14.01.2020
4472 Clouds -3 1021 92 10000 0.5 0 09:42 14.01.2020
4473 Clouds -3 1021 92 10000 0.5 0 09:23 14.01.2020
4474 Clouds -4 1021 85 10000 1 0 08:58 14.01.2020
4475 Clouds -4 1021 85 10000 1 0 08:39 14.01.2020
4476 Clouds -4 1021 92 10000 1.5 260 08:20 14.01.2020
4477 Clouds -4 1021 92 10000 1 0 07:46 14.01.2020
4478 Clouds -4 1021 92 10000 0.5 0 07:18 14.01.2020
4479 Clouds -4 1021 92 10000 0.5 0 06:42 14.01.2020
4480 Clouds -4 1020 85 10000 1 0 05:56 14.01.2020
4481 Clouds -4 1020 92 10000 0.5 0 04:49 14.01.2020
4482 Clouds -3 1021 92 10000 0.5 0 03:45 14.01.2020
4483 Clouds -3 1021 85 10000 1 0 02:32 14.01.2020
4484 Clouds -4 1021 85 10000 0.5 0 01:19 14.01.2020
4485 Clouds -3 1021 85 10000 1 0 00:47 14.01.2020
4486 Clouds -3 1021 85 10000 1 0 00:21 14.01.2020
4487 Clouds -2 1021 85 10000 1.5 250 23:42 13.01.2020
4488 Clear -2 1021 85 10000 1 0 23:19 13.01.2020
4489 Clear -2 1021 85 10000 1.5 270 22:56 13.01.2020
4490 Clear -2 1023 81 0 1.49 191 22:37 13.01.2020
4491 Clear -2 1021 79 10000 0.5 0 22:19 13.01.2020
4492 Clear -2 1022 85 10000 0.5 0 21:54 13.01.2020
4493 Clear -2 1022 79 10000 1 0 21:36 13.01.2020
4494 Clear -2 1022 79 10000 1 0 21:18 13.01.2020
4495 Clear -2 1022 86 10000 2.1 260 20:42 13.01.2020
4496 Clear -1 1022 79 10000 1 0 20:23 13.01.2020
4497 Clouds -1 1022 74 10000 0.5 0 19:59 13.01.2020
4498 Clouds -1 1022 74 10000 0.5 0 19:41 13.01.2020
4499 Clouds -1 1022 79 10000 1 0 19:20 13.01.2020
4500 Clouds 0 1021 68 10000 0.5 0 18:58 13.01.2020
4501 Clouds 0 1021 68 10000 0.5 0 18:38 13.01.2020
4502 Clouds 0 1021 44 10000 0.5 0 18:19 13.01.2020
4503 Clouds 0 1021 44 10000 0.5 0 18:19 13.01.2020
4504 Clouds 0 1021 44 10000 0.5 0 17:58 13.01.2020
4505 Clouds 1 1021 64 10000 1 180 17:38 13.01.2020
4506 Clouds 1 1021 64 10000 1 180 17:20 13.01.2020
4507 Clouds 1 1023 64 0 0.93 323 16:41 13.01.2020
4508 Clouds 2 1033 55 0 0.93 323 16:22 13.01.2020
4509 Clouds 2 1033 55 0 0.93 323 15:56 13.01.2020
4510 Clouds 3 1022 52 0 0.93 323 15:38 13.01.2020
4511 Clouds 4 1022 62 0 0.93 323 15:19 13.01.2020
4512 Clouds 3 1022 62 0 0.93 323 14:43 13.01.2020
4513 Clouds 2 1023 64 0 0.57 314 14:24 13.01.2020
4514 Clouds 2 1023 65 0 0.57 314 13:58 13.01.2020
4515 Clouds 2 1033 59 0 0.57 314 13:39 13.01.2020
4516 Clouds 2 1033 59 0 0.57 314 13:39 13.01.2020
4517 Clouds 2 1023 66 0 1.34 270 13:21 13.01.2020
4518 Clouds 2 1034 57 0 0.84 315 12:56 13.01.2020
4519 Clouds 2 1024 74 10000 1.5 260 12:37 13.01.2020
4520 Clouds 2 1024 74 10000 1.5 260 12:37 13.01.2020
4521 Clouds 2 1024 74 10000 1.5 260 12:19 13.01.2020
4522 Clouds 1 1024 74 10000 1 0 11:39 13.01.2020
4523 Clouds 0 1024 74 10000 1 0 11:20 13.01.2020
4524 Clouds -1 1025 79 10000 1 0 10:57 13.01.2020
4525 Clouds -1 1025 79 10000 1 0 10:39 13.01.2020
4526 Clouds -1 1025 79 10000 1 0 10:39 13.01.2020
4527 Clouds -2 1025 79 10000 1 0 10:20 13.01.2020
4528 Clouds -3 1025 85 10000 1 0 09:58 13.01.2020
4529 Clouds -3 1026 85 10000 2.1 250 09:38 13.01.2020
4530 Clouds -3 1026 85 10000 2.1 250 09:19 13.01.2020
4531 Clouds -4 1028 84 0 0.69 200 08:39 13.01.2020
4532 Clouds -5 1026 92 10000 2.1 260 08:20 13.01.2020
4533 Clouds -4 1026 85 10000 1 0 07:47 13.01.2020
4534 Clouds -4 1026 85 10000 0.5 0 07:27 13.01.2020
4535 Clouds -4 1026 85 10000 0.5 0 07:27 13.01.2020
4536 Clouds -4 1026 85 10000 1.5 240 06:43 13.01.2020
4537 Clouds -4 1026 92 10000 0.5 0 06:21 13.01.2020
4538 Clouds -3 1027 85 10000 1 240 05:27 13.01.2020
4539 Clouds -3 1028 85 10000 1 280 03:55 13.01.2020
4540 Clouds -3 1028 85 10000 0.5 0 03:24 13.01.2020
4541 Clouds -3 1028 79 10000 1.5 210 02:45 13.01.2020
4542 Clouds -3 1028 79 10000 0.5 0 02:26 13.01.2020
4543 Clouds -2 1028 79 10000 1.5 260 01:20 13.01.2020
4544 Clouds -2 1028 79 10000 0.5 0 00:41 13.01.2020
4545 Clouds -2 1028 79 10000 0.5 0 00:22 13.01.2020
4546 Clouds -2 1028 79 10000 1.5 270 23:44 12.01.2020
4547 Clouds -2 1028 79 10000 0.5 0 23:24 12.01.2020
4548 Clouds -1 1028 74 10000 1.5 240 22:58 12.01.2020
4549 Clouds -1 1028 74 10000 1 290 22:40 12.01.2020
4550 Clouds -1 1028 74 10000 1 290 22:21 12.01.2020
4551 Clouds 0 1028 74 10000 1 210 21:56 12.01.2020
4552 Clouds 0 1028 74 10000 1 210 21:38 12.01.2020
4553 Clouds 0 1028 74 10000 1 210 21:38 12.01.2020
4554 Clouds -1 1028 79 10000 2.1 260 21:19 12.01.2020
4555 Clouds 0 1028 68 10000 1 0 20:56 12.01.2020
4556 Clouds 0 1028 68 10000 1 0 20:56 12.01.2020
4557 Clouds 0 1028 74 10000 0.5 0 20:38 12.01.2020
4558 Clouds 0 1028 74 10000 0.5 0 20:20 12.01.2020
4559 Clouds 0 1028 68 10000 0.5 0 19:56 12.01.2020
4560 Clouds 0 1027 74 10000 0.5 0 19:37 12.01.2020
4561 Clouds 0 1027 74 10000 0.5 0 19:18 12.01.2020
4562 Clouds 0 1027 68 10000 0.5 0 18:57 12.01.2020
4563 Clouds 0 1027 68 10000 0.5 0 18:39 12.01.2020
4564 Clouds 1 1027 68 10000 0.5 0 18:21 12.01.2020
4565 Clouds 1 1027 59 10000 1.5 250 17:43 12.01.2020
4566 Clouds 2 1026 59 10000 0.5 0 17:23 12.01.2020
4567 Clouds 2 1026 59 10000 0.5 0 17:23 12.01.2020
4568 Clouds 2 1026 55 10000 0.5 0 16:59 12.01.2020
4569 Clouds 3 1026 59 10000 1 160 16:39 12.01.2020
4570 Clouds 3 1026 59 10000 1 160 16:21 12.01.2020
4571 Clouds 3 1026 48 10000 1 0 15:58 12.01.2020
4572 Clouds 4 1026 48 10000 1 0 15:39 12.01.2020
4573 Clouds 4 1026 35 10000 1 170 15:21 12.01.2020
4574 Clouds 5 1026 38 10000 1 0 14:43 12.01.2020
4575 Clouds 6 1026 41 10000 1 0 14:24 12.01.2020
4576 Clouds 5 1026 38 10000 1 0 13:57 12.01.2020
4577 Clouds 5 1026 38 10000 1 0 13:57 12.01.2020
4578 Clouds 5 1026 38 10000 1 0 13:39 12.01.2020
4579 Clear 4 1027 44 10000 1 0 13:20 12.01.2020
4580 Clear 4 1027 47 10000 2.1 250 12:57 12.01.2020
4581 Clear 4 1028 59 10000 2.1 250 12:38 12.01.2020
4582 Clear 3 1028 59 10000 2.1 250 12:19 12.01.2020
4583 Clear 2 1028 28 10000 2.1 270 11:42 12.01.2020
4584 Clear 1 1029 28 10000 1 0 11:22 12.01.2020
4585 Clouds 1 1029 74 10000 1 0 10:57 12.01.2020
4586 Clouds 0 1029 74 10000 1 0 10:39 12.01.2020
4587 Clouds 0 1029 74 10000 1 0 10:39 12.01.2020
4588 Clouds 0 1029 86 10000 1 0 10:20 12.01.2020
4589 Clouds -3 1029 92 10000 1 360 09:42 12.01.2020
4590 Clouds -3 1029 92 10000 1 0 09:23 12.01.2020
4591 Clouds -3 1031 87 0 1.34 293 08:48 12.01.2020
4592 Clear -3 1029 92 10000 1 0 08:24 12.01.2020
4593 Clear -3 1029 92 10000 1 290 07:56 12.01.2020
4594 Clear -3 1029 92 10000 1 0 07:37 12.01.2020
4595 Clear -3 1029 92 10000 1 0 07:19 12.01.2020
4596 Clear -3 1030 100 10000 1 130 06:40 12.01.2020
4597 Clear -3 1030 92 10000 0.5 0 05:58 12.01.2020
4598 Clear -3 1030 92 10000 1 260 05:18 12.01.2020
4599 Clear -2 1030 92 10000 1 0 03:44 12.01.2020
4600 Clear -2 1031 92 10000 1 0 02:52 12.01.2020
4601 Clear -2 1030 92 10000 2.6 250 02:27 12.01.2020
4602 Clear -2 1031 92 10000 1.5 240 01:35 12.01.2020
4603 Clear -2 1031 92 10000 0.5 0 00:49 12.01.2020
4604 Clear -1 1031 92 10000 1.5 240 00:22 12.01.2020
4605 Clear -1 1031 92 10000 1.5 240 00:22 12.01.2020
4606 Clear -1 1031 92 10000 1 0 23:59 11.01.2020
4607 Clear -1 1031 92 10000 1 0 23:41 11.01.2020
4608 Clouds -1 1031 92 10000 1 220 23:18 11.01.2020
4609 Clouds -1 1031 92 10000 0.5 0 22:56 11.01.2020
4610 Clouds -1 1031 86 10000 1.5 250 22:38 11.01.2020
4611 Clouds -1 1031 86 10000 1.5 250 22:19 11.01.2020
4612 Clouds -1 1031 92 10000 2.1 250 21:44 11.01.2020
4613 Clouds -1 1032 86 10000 1.5 260 21:19 11.01.2020
4614 Clouds -1 1032 67 10000 1.5 270 20:57 11.01.2020
4615 Clouds 0 1032 67 10000 0.5 0 20:39 11.01.2020
4616 Clouds -1 1032 87 10000 0.5 0 20:19 11.01.2020
4617 Clouds 0 1032 87 10000 0.5 0 19:57 11.01.2020
4618 Clouds 0 1031 86 10000 1 0 19:38 11.01.2020
4619 Clouds 0 1032 87 10000 0.5 0 19:38 11.01.2020
4620 Clouds 1 1031 86 10000 1 0 19:20 11.01.2020
4621 Clouds 1 1031 80 10000 1.5 250 18:55 11.01.2020
4622 Clouds 1 1031 86 10000 1 0 18:37 11.01.2020
4623 Clouds 2 1031 86 10000 1 0 18:18 11.01.2020
4624 Clouds 2 1031 87 10000 1.5 140 17:57 11.01.2020
4625 Clouds 2 1031 87 10000 1.5 140 17:39 11.01.2020
4626 Clouds 3 1031 88 10000 2.1 60 17:18 11.01.2020
4627 Clouds 3 1031 88 10000 1 0 16:44 11.01.2020
4628 Clouds 4 1031 88 10000 1.5 190 16:25 11.01.2020
4629 Clouds 5 1031 65 10000 1.5 170 15:56 11.01.2020
4630 Clouds 5 1031 65 10000 2.1 120 15:38 11.01.2020
4631 Clouds 5 1031 65 10000 1.5 170 15:20 11.01.2020
4632 Clouds 5 1031 65 10000 1.5 170 14:46 11.01.2020
4633 Clouds 5 1031 65 10000 1 0 14:25 11.01.2020
4634 Clouds 5 1031 70 10000 1 0 13:57 11.01.2020
4635 Clouds 4 1031 75 10000 1.5 250 13:38 11.01.2020
4636 Clouds 4 1031 75 10000 1.5 250 13:19 11.01.2020
4637 Clouds 4 1032 76 10000 2.6 260 12:55 11.01.2020
4638 Clouds 4 1032 74 10000 2.6 250 12:36 11.01.2020
4639 Clouds 4 1032 74 10000 2.6 250 12:18 11.01.2020
4640 Clouds 4 1033 80 10000 2.6 270 11:42 11.01.2020
4641 Clouds 3 1033 86 10000 2.6 270 11:23 11.01.2020
4642 Clouds 3 1033 86 10000 2.1 280 10:44 11.01.2020
4643 Clouds 2 1033 86 10000 1 0 10:24 11.01.2020
4644 Clouds 2 1033 86 10000 1 0 10:24 11.01.2020
4645 Clouds 2 1033 95 10000 0.5 0 09:43 11.01.2020
4646 Clouds 2 1033 95 10000 2.6 260 09:21 11.01.2020
4647 Clouds 1 1032 95 10000 2.6 250 08:43 11.01.2020
4648 Clouds 1 1032 86 10000 1.5 280 08:24 11.01.2020
4649 Clouds 2 1032 86 10000 1 250 07:59 11.01.2020
4650 Clouds 2 1032 86 10000 1 250 07:41 11.01.2020
4651 Snow 2 1034 84 0 1.11 353 07:22 11.01.2020
4652 Snow 1 1043 81 0 1.11 353 06:42 11.01.2020
4653 Clouds 1 1031 86 10000 0.5 0 05:22 11.01.2020
4654 Clouds 1 1030 86 10000 1 0 04:38 11.01.2020
4655 Clouds 1 1030 86 10000 0.5 0 04:20 11.01.2020
4656 Clouds 1 1029 98 10000 1 0 02:46 11.01.2020
4657 Clouds 2 1029 80 10000 1 0 01:45 11.01.2020
4658 Clouds 2 1029 80 10000 1 0 01:22 11.01.2020
4659 Clouds 2 1028 86 10000 1.5 0 00:52 11.01.2020
4660 Clouds 2 1028 86 10000 2.1 0 00:24 11.01.2020
4661 Clouds 2 1029 86 10000 2.6 280 23:56 10.01.2020
4662 Clouds 2 1028 86 10000 1 0 23:38 10.01.2020
4663 Clouds 2 1028 86 10000 1 0 23:20 10.01.2020
4664 Clouds 2 1028 80 10000 1 0 22:41 10.01.2020
4665 Clouds 2 1028 80 10000 1.5 230 22:22 10.01.2020
4666 Clouds 2 1028 80 10000 1 0 21:58 10.01.2020
4667 Clouds 2 1027 80 10000 0.5 0 21:39 10.01.2020
4668 Clouds 2 1027 80 10000 0.5 0 21:20 10.01.2020
4669 Clouds 2 1027 80 10000 0.5 0 20:55 10.01.2020
4670 Clouds 3 1027 74 10000 0.5 0 20:37 10.01.2020
4671 Clouds 2 1027 74 10000 0.5 0 20:19 10.01.2020
4672 Clouds 2 1026 80 10000 0.5 0 19:39 10.01.2020
4673 Clouds 2 1026 80 10000 0.5 0 19:20 10.01.2020
4674 Clouds 2 1025 80 10000 0.5 0 18:54 10.01.2020
4675 Clouds 3 1025 80 10000 1 100 18:36 10.01.2020
4676 Clouds 4 1025 80 10000 1 100 18:18 10.01.2020
4677 Clouds 4 1025 80 10000 1 100 18:18 10.01.2020
4678 Snow 3 1024 80 10000 0.5 0 17:55 10.01.2020
4679 Snow 4 1023 74 10000 0.5 0 17:37 10.01.2020
4680 Clouds 4 1023 74 10000 0.5 0 17:18 10.01.2020
4681 Clouds 5 1022 64 10000 0.5 0 16:41 10.01.2020
4682 Clouds 6 1022 64 10000 0.5 0 16:21 10.01.2020
4683 Clouds 7 1022 52 10000 1.5 170 15:56 10.01.2020
4684 Clouds 7 1022 56 10000 1 0 15:37 10.01.2020
4685 Clouds 7 1022 56 10000 1 0 15:19 10.01.2020
4686 Clouds 7 1022 56 10000 1 0 15:19 10.01.2020
4687 Clouds 8 1021 52 10000 1 0 14:57 10.01.2020
4688 Clouds 8 1021 52 10000 1 0 14:39 10.01.2020
4689 Clear 7 1021 56 10000 1 0 14:19 10.01.2020
4690 Clear 7 1021 56 10000 1 0 13:54 10.01.2020
4691 Clear 6 1022 65 10000 1.5 250 13:36 10.01.2020
4692 Clear 5 1022 65 10000 1.5 250 13:18 10.01.2020
4693 Clear 5 1022 69 10000 1 0 12:54 10.01.2020
4694 Clear 5 1022 55 10000 1.5 260 12:36 10.01.2020
4695 Clear 4 1022 55 10000 1.5 260 12:18 10.01.2020
4696 Clear 3 1023 80 10000 0.5 0 11:42 10.01.2020
4697 Clear 3 1023 80 10000 0.5 0 11:42 10.01.2020
4698 Clear 3 1023 80 10000 0.5 0 11:42 10.01.2020
4699 Clear 3 1023 80 10000 0.5 0 11:42 10.01.2020
4700 Clear 2 1023 80 10000 0.5 0 11:21 10.01.2020
4701 Clear 2 1023 53 10000 1 0 10:59 10.01.2020
4702 Clear 1 1023 92 10000 0.5 0 10:38 10.01.2020
4703 Clear 0 1023 92 10000 0.5 0 10:19 10.01.2020
4704 Clear -1 1023 92 10000 1.5 250 09:46 10.01.2020
4705 Clear -1 1034 63 0 2.13 180 09:26 10.01.2020
4706 Clear -2 1022 92 10000 1.5 240 08:58 10.01.2020
4707 Clear -2 1022 92 10000 1.5 240 08:38 10.01.2020
4708 Clouds -2 1022 100 10000 0.5 0 08:20 10.01.2020
4709 Clouds -2 1021 100 10000 1 240 07:41 10.01.2020
4710 Clouds -2 1021 100 10000 1 240 07:41 10.01.2020
4711 Clouds -2 1021 92 10000 0.5 0 07:22 10.01.2020
4712 Clouds -2 1021 92 10000 0.5 0 06:42 10.01.2020
4713 Clouds -2 1021 100 10000 0.5 0 06:24 10.01.2020
4714 Clouds -1 1020 92 10000 1 0 05:33 10.01.2020
4715 Clouds -1 1019 92 10000 2.1 250 03:32 10.01.2020
4716 Clouds -1 1020 92 10000 1 0 02:54 10.01.2020
4717 Clouds -1 1019 92 10000 0.5 0 02:33 10.01.2020
4718 Clouds -1 1020 92 10000 0.5 0 01:34 10.01.2020
4719 Clouds 0 1020 92 10000 2.1 210 00:56 10.01.2020
4720 Clouds 0 1020 92 10000 1.5 0 00:38 10.01.2020
4721 Clouds 0 1020 92 10000 1 0 23:57 09.01.2020
4722 Clouds -1 1020 92 10000 1 0 23:37 09.01.2020
4723 Clouds 0 1020 92 10000 1 0 23:19 09.01.2020
4724 Clouds 0 1020 92 10000 1 0 23:19 09.01.2020
4725 Clouds 0 1021 92 10000 1 0 22:56 09.01.2020
4726 Clouds 0 1021 86 10000 0.5 0 22:37 09.01.2020
4727 Clouds 0 1021 86 10000 0.5 0 22:18 09.01.2020
4728 Clouds 1 1021 92 10000 1.5 240 21:55 09.01.2020
4729 Clouds 1 1021 92 10000 1 0 21:37 09.01.2020
4730 Clouds 1 1021 92 10000 1 0 21:18 09.01.2020
4731 Clouds 1 1021 86 10000 0.5 0 20:55 09.01.2020
4732 Clouds 1 1021 86 10000 0.5 0 20:37 09.01.2020
4733 Clouds 2 1021 58 10000 1.5 240 20:19 09.01.2020
4734 Clouds 2 1021 86 10000 1.5 240 19:39 09.01.2020
4735 Clouds 3 1021 80 10000 0.5 0 19:21 09.01.2020
4736 Clouds 3 1021 80 10000 0.5 0 18:59 09.01.2020
4737 Clouds 2 1021 80 10000 0.5 0 18:40 09.01.2020
4738 Clouds 3 1021 80 10000 0.5 0 18:21 09.01.2020
4739 Clouds 3 1021 80 10000 0.5 0 17:58 09.01.2020
4740 Clouds 4 1020 74 10000 0.5 0 17:40 09.01.2020
4741 Clouds 5 1020 74 10000 1 0 17:18 09.01.2020
4742 Clouds 6 1020 69 10000 0.5 0 16:46 09.01.2020
4743 Clouds 5 1020 65 10000 1 0 16:22 09.01.2020
4744 Clouds 7 1020 52 10000 0.5 0 15:43 09.01.2020
4745 Clouds 7 1020 52 10000 0.5 0 15:23 09.01.2020
4746 Clouds 7 1021 56 10000 1 0 14:59 09.01.2020
4747 Clouds 7 1021 56 10000 1 0 14:41 09.01.2020
4748 Clouds 8 1021 56 10000 0.5 0 14:19 09.01.2020
4749 Clouds 8 1021 56 10000 0.5 0 13:56 09.01.2020
4750 Clouds 8 1022 56 10000 0.5 0 13:38 09.01.2020
4751 Clouds 7 1023 60 10000 1 0 13:19 09.01.2020
4752 Clouds 7 1023 60 10000 1 0 12:56 09.01.2020
4753 Clouds 6 1023 64 10000 1.5 250 12:38 09.01.2020
4754 Clouds 6 1024 64 10000 2.1 270 12:18 09.01.2020
4755 Clouds 5 1025 69 10000 0.5 0 11:42 09.01.2020
4756 Clouds 5 1025 69 10000 0.5 0 11:24 09.01.2020
4757 Clouds 5 1025 69 10000 0.5 0 11:24 09.01.2020
4758 Clouds 4 1025 69 10000 0.5 0 10:58 09.01.2020
4759 Clouds 3 1026 74 10000 0.5 0 10:40 09.01.2020
4760 Clouds 2 1026 54 10000 1 250 10:21 09.01.2020
4761 Clouds 1 1026 86 10000 0.5 0 09:46 09.01.2020
4762 Clouds 1 1026 86 10000 0.5 0 09:25 09.01.2020
4763 Clouds 0 1026 86 10000 0.5 0 08:58 09.01.2020
4764 Clouds 0 1038 68 0 0.45 166 08:39 09.01.2020
4765 Clouds 0 1026 86 10000 0.5 0 08:20 09.01.2020
4766 Clouds 0 1026 86 10000 1 10 07:48 09.01.2020
4767 Clouds 0 1026 86 10000 1 10 07:30 09.01.2020
4768 Clouds 0 1027 86 10000 1 0 06:40 09.01.2020
4769 Clouds 0 1027 86 10000 0.5 0 06:22 09.01.2020
4770 Clouds 1 1027 80 10000 0.5 0 05:51 09.01.2020
4771 Clouds 1 1027 80 10000 1.5 250 05:20 09.01.2020
4772 Clouds 1 1027 80 10000 3.1 270 04:39 09.01.2020
4773 Clouds 2 1029 80 10000 0.5 0 03:27 09.01.2020
4774 Clouds 2 1029 34 10000 1.5 230 02:46 09.01.2020
4775 Clouds 2 1030 74 10000 1 0 01:42 09.01.2020
4776 Clouds 2 1030 74 10000 1.5 240 01:18 09.01.2020
4777 Clouds 3 1030 80 10000 2.6 270 00:38 09.01.2020
4778 Clouds 3 1030 74 10000 2.1 270 00:19 09.01.2020
4779 Clouds 3 1030 74 10000 1 0 23:40 08.01.2020
4780 Clouds 3 1030 74 10000 1.5 270 23:22 08.01.2020
4781 Clouds 3 1030 74 10000 1 0 22:56 08.01.2020
4782 Clouds 3 1030 74 10000 1 0 22:37 08.01.2020
4783 Clouds 3 1030 74 10000 0.5 0 22:18 08.01.2020
4784 Clouds 2 1030 74 10000 0.5 0 21:55 08.01.2020
4785 Clouds 2 1030 74 10000 0.5 0 21:37 08.01.2020
4786 Clouds 2 1030 74 10000 0.5 0 21:18 08.01.2020
4787 Clouds 3 1030 69 10000 1 0 20:41 08.01.2020
4788 Clouds 3 1030 69 10000 1 280 20:21 08.01.2020
4789 Clouds 3 1031 69 10000 0.5 0 19:58 08.01.2020
4790 Clouds 3 1031 69 10000 0.5 0 19:38 08.01.2020
4791 Clouds 3 1031 69 10000 0.5 0 19:20 08.01.2020
4792 Clouds 3 1031 69 10000 0.5 0 18:58 08.01.2020
4793 Clouds 3 1031 69 10000 1 0 18:39 08.01.2020
4794 Clouds 3 1031 64 10000 1 0 18:19 08.01.2020
4795 Clouds 3 1031 64 10000 1 0 17:57 08.01.2020
4796 Clouds 3 1031 64 10000 1 0 17:38 08.01.2020
4797 Clouds 3 1030 64 10000 0.5 0 17:19 08.01.2020
4798 Clouds 3 1030 64 10000 0.5 0 16:56 08.01.2020
4799 Clouds 3 1030 59 10000 1 0 16:38 08.01.2020
4800 Clouds 3 1030 55 10000 1 0 16:18 08.01.2020
4801 Clouds 3 1030 55 10000 0.5 0 15:44 08.01.2020
4802 Clouds 3 1030 55 10000 1.5 290 15:21 08.01.2020
4803 Clouds 3 1030 55 10000 1.5 290 14:58 08.01.2020
4804 Clouds 3 1030 55 10000 0.5 0 14:40 08.01.2020
4805 Clouds 3 1030 55 10000 0.5 0 14:40 08.01.2020
4806 Clouds 3 1030 55 10000 0.5 0 14:40 08.01.2020
4807 Clouds 3 1031 51 10000 0.5 0 14:21 08.01.2020
4808 Clouds 3 1031 55 10000 0.5 0 13:41 08.01.2020
4809 Clouds 3 1031 59 10000 0.5 0 13:22 08.01.2020
4810 Clouds 2 1031 59 10000 0.5 0 12:55 08.01.2020
4811 Clouds 2 1032 64 10000 0.5 0 12:36 08.01.2020
4812 Clouds 2 1032 27 10000 0.5 0 12:18 08.01.2020
4813 Clouds 2 1032 80 10000 1 0 11:47 08.01.2020
4814 Clouds 1 1033 80 10000 0.5 0 11:19 08.01.2020
4815 Clouds 0 1033 80 10000 0.5 0 10:59 08.01.2020
4816 Clouds -1 1033 79 10000 2.1 240 10:40 08.01.2020
4817 Clouds -1 1032 79 10000 1.5 240 10:20 08.01.2020
4818 Clouds -2 1033 86 10000 1.5 270 09:43 08.01.2020
4819 Clouds -2 1033 86 10000 2.1 220 09:20 08.01.2020
4820 Clouds -2 1033 86 10000 2.1 220 08:58 08.01.2020
4821 Clouds -3 1033 85 10000 0.5 0 08:39 08.01.2020
4822 Clouds -3 1033 92 10000 1.5 260 08:20 08.01.2020
4823 Clouds -3 1032 92 10000 0.5 0 07:52 08.01.2020
4824 Clouds -4 1032 92 10000 1 250 07:33 08.01.2020
4825 Clouds -4 1032 92 10000 1 250 06:58 08.01.2020
4826 Clouds -3 1032 92 10000 0.5 0 06:40 08.01.2020
4827 Clouds -3 1032 92 10000 1.5 270 05:54 08.01.2020
4828 Clouds -3 1044 70 0 0.45 177 05:25 08.01.2020
4829 Clear -3 1032 92 10000 1 0 04:35 08.01.2020
4830 Clear -2 1032 92 10000 1 0 02:46 08.01.2020
4831 Clear -2 1032 92 10000 1 0 02:28 08.01.2020
4832 Clear -2 1032 92 10000 2.6 210 01:52 08.01.2020
4833 Clear -2 1032 92 10000 2.6 210 01:29 08.01.2020
4834 Clear -2 1032 92 10000 1 0 00:42 08.01.2020
4835 Clear -1 1032 92 10000 1.5 220 00:21 08.01.2020
4836 Clear -1 1032 92 10000 1.5 220 23:45 07.01.2020
4837 Clouds -1 1032 92 10000 0.5 0 23:20 07.01.2020
4838 Clouds -1 1032 86 10000 0.5 0 22:41 07.01.2020
4839 Clouds -1 1032 86 10000 1.5 240 22:21 07.01.2020
4840 Clouds -1 1032 86 10000 1.5 240 21:58 07.01.2020
4841 Clouds 0 1032 92 10000 1.5 250 21:40 07.01.2020
4842 Clouds 0 1032 86 10000 1.5 250 21:21 07.01.2020
4843 Clouds 0 1032 86 10000 1.5 250 20:57 07.01.2020
4844 Clouds 0 1032 92 10000 1 320 20:39 07.01.2020
4845 Clouds 0 1032 92 10000 1 250 20:21 07.01.2020
4846 Clouds 0 1032 92 10000 1 250 19:56 07.01.2020
4847 Clouds 0 1032 86 10000 0.5 0 19:37 07.01.2020
4848 Clouds 0 1031 92 10000 1.5 280 19:18 07.01.2020
4849 Clouds 0 1031 92 10000 1.5 280 19:18 07.01.2020
4850 Clouds 0 1031 92 10000 1.5 280 18:55 07.01.2020
4851 Clouds 0 1031 94 10000 0.5 0 18:37 07.01.2020
4852 Clouds 0 1031 94 10000 0.5 0 18:18 07.01.2020
4853 Clouds 0 1030 80 10000 0.5 0 17:40 07.01.2020
4854 Clouds 1 1030 80 10000 0.5 0 17:22 07.01.2020
4855 Clouds 1 1030 74 10000 0.48 50 16:57 07.01.2020
4856 Clouds 1 1030 74 10000 0.48 50 16:38 07.01.2020
4857 Clouds 1 1030 74 10000 0.48 50 16:38 07.01.2020
4858 Clouds 1 1030 74 10000 0.48 50 16:38 07.01.2020
4859 Clouds 1 1030 74 10000 0.48 50 16:38 07.01.2020
4860 Clouds 2 1029 69 10000 1 0 16:19 07.01.2020
4861 Clouds 2 1029 69 10000 1 0 15:59 07.01.2020
4862 Clouds 2 1029 56 10000 1.5 120 15:40 07.01.2020
4863 Clouds 2 1029 60 10000 2.1 80 15:22 07.01.2020
4864 Clouds 2 1029 60 10000 2.1 80 14:56 07.01.2020
4865 Clouds 2 1029 64 10000 2.1 90 14:37 07.01.2020
4866 Clouds 2 1029 60 10000 2.6 120 14:18 07.01.2020
4867 Clouds 1 1029 69 10000 1 0 13:40 07.01.2020
4868 Clouds 2 1029 64 10000 1.5 90 13:19 07.01.2020
4869 Clouds 2 1029 69 10000 2.1 120 12:42 07.01.2020
4870 Clouds 1 1029 74 10000 0.5 0 12:21 07.01.2020
4871 Clouds 1 1029 95 10000 1 0 11:59 07.01.2020
4872 Clouds 1 1029 95 10000 1 0 11:40 07.01.2020
4873 Clouds 0 1030 86 10000 1 0 11:21 07.01.2020
4874 Clouds -1 1029 80 10000 1 0 10:42 07.01.2020
4875 Clouds -1 1029 80 10000 1 0 10:24 07.01.2020
4876 Clouds -1 1029 80 10000 1 0 09:59 07.01.2020
4877 Clouds -2 1028 79 10000 1 0 09:38 07.01.2020
4878 Clouds -2 1028 86 10000 1 0 09:20 07.01.2020
4879 Clouds -3 1028 86 10000 0.5 0 08:46 07.01.2020
4880 Clouds -3 1027 86 10000 0.5 0 08:26 07.01.2020
4881 Clouds -3 1027 92 10000 0.5 0 07:54 07.01.2020
4882 Clouds -3 1027 92 10000 1 0 07:29 07.01.2020
4883 Clouds -4 1027 92 10000 1 0 06:54 07.01.2020
4884 Clouds -4 1027 92 10000 1 0 06:54 07.01.2020
4885 Clouds -4 1027 92 10000 1.5 270 06:35 07.01.2020
4886 Clouds -3 1027 85 10000 1.5 200 05:57 07.01.2020
4887 Clouds -3 1027 85 10000 1.5 200 05:35 07.01.2020
4888 Clear -3 1027 85 10000 1 0 03:29 07.01.2020
4889 Clear -3 1027 85 10000 1 0 02:24 07.01.2020
4890 Clear -2 1027 85 10000 1 260 01:57 07.01.2020
4891 Clear -3 1027 85 10000 1 260 01:32 07.01.2020
4892 Clear -2 1028 85 10000 1 260 00:40 07.01.2020
4893 Clear -2 1028 85 10000 1 0 00:20 07.01.2020
4894 Clear -2 1028 79 10000 1 0 23:55 06.01.2020
4895 Clear -2 1028 79 10000 1 0 23:36 06.01.2020
4896 Clear -2 1028 85 10000 1 0 23:18 06.01.2020
4897 Clear -2 1028 79 10000 1 230 22:43 06.01.2020
4898 Clear -1 1028 79 10000 0.5 0 22:23 06.01.2020
4899 Clear -1 1028 79 10000 0.5 0 21:57 06.01.2020
4900 Clear -1 1028 86 10000 1 0 21:39 06.01.2020
4901 Clear -2 1028 86 10000 1 0 21:20 06.01.2020
4902 Clear -2 1028 86 10000 1 0 21:20 06.01.2020
4903 Clear -1 1028 86 10000 1 250 20:56 06.01.2020
4904 Clear -1 1028 86 10000 1 250 20:38 06.01.2020
4905 Clear -1 1028 79 10000 0.5 0 20:20 06.01.2020
4906 Clear -1 1028 79 10000 0.5 0 19:56 06.01.2020
4907 Clear -1 1028 74 10000 1 0 19:38 06.01.2020
4908 Clear -1 1028 79 10000 0.5 0 19:19 06.01.2020
4909 Clear 0 1028 74 10000 0.5 0 18:47 06.01.2020
4910 Clear 0 1028 74 10000 0.5 0 18:47 06.01.2020
4911 Clear 0 1028 74 10000 0.5 0 18:21 06.01.2020
4912 Clear 0 1028 74 10000 0.5 0 17:58 06.01.2020
4913 Clear 0 1028 74 10000 0.5 0 17:37 06.01.2020
4914 Clear 0 1028 74 10000 0.5 0 17:37 06.01.2020
4915 Clear 1 1027 49 10000 1 0 17:18 06.01.2020
4916 Clear 2 1027 64 10000 1.5 270 16:44 06.01.2020
4917 Clear 3 1027 69 10000 1 170 16:24 06.01.2020
4918 Clear 3 1027 69 10000 1 170 15:59 06.01.2020
4919 Clear 4 1027 44 10000 1.5 190 15:38 06.01.2020
4920 Clear 4 1027 44 10000 1 0 15:18 06.01.2020
4921 Clear 4 1027 44 10000 1 0 14:56 06.01.2020
4922 Clear 5 1027 44 10000 1.5 250 14:37 06.01.2020
4923 Clear 5 1028 44 10000 2.1 250 14:18 06.01.2020
4924 Clear 4 1028 48 10000 1.5 230 13:40 06.01.2020
4925 Clear 4 1029 51 10000 1.5 240 13:22 06.01.2020
4926 Clear 4 1029 55 10000 1.5 260 12:59 06.01.2020
4927 Clear 4 1029 55 10000 1.5 260 12:41 06.01.2020
4928 Clear 3 1030 59 10000 1.5 240 12:20 06.01.2020
4929 Clear 3 1030 34 10000 1 0 11:55 06.01.2020
4930 Clear 3 1030 34 10000 1 0 11:37 06.01.2020
4931 Clear 1 1031 26 10000 1 0 11:18 06.01.2020
4932 Clear 0 1031 80 10000 1.5 270 10:41 06.01.2020
4933 Clear -1 1032 86 10000 1 0 10:21 06.01.2020
4934 Clear -1 1032 86 10000 1 0 10:21 06.01.2020
4935 Clear -3 1032 86 10000 1 0 09:42 06.01.2020
4936 Clear -3 1032 92 10000 0.5 0 09:24 06.01.2020
4937 Clear -3 1032 92 10000 0.5 0 08:57 06.01.2020
4938 Clear -3 1032 92 10000 1 0 08:38 06.01.2020
4939 Clear -3 1032 92 10000 1 0 08:38 06.01.2020
4940 Clouds -4 1032 92 10000 0.5 0 07:58 06.01.2020
4941 Clouds -3 1032 92 10000 1 280 07:39 06.01.2020
4942 Clouds -3 1032 92 10000 0.5 0 06:53 06.01.2020
4943 Clouds -3 1032 92 10000 0.5 0 06:35 06.01.2020
4944 Clouds -4 1032 92 10000 1 0 05:48 06.01.2020
4945 Clouds -3 1033 92 10000 1 0 05:23 06.01.2020
4946 Clear -3 1033 92 10000 1.5 290 04:23 06.01.2020
4947 Clear -3 1033 92 10000 1.5 250 03:30 06.01.2020
4948 Clear -2 1034 92 10000 1.5 270 02:27 06.01.2020
4949 Clear -3 1034 86 10000 1 0 01:53 06.01.2020
4950 Clear -2 1034 86 10000 1 0 01:30 06.01.2020
4951 Clear -2 1034 86 10000 2.1 250 00:45 06.01.2020
4952 Clear -2 1034 92 10000 1 0 00:26 06.01.2020
4953 Clear -2 1034 92 10000 1 0 23:57 05.01.2020
4954 Clear -2 1035 92 10000 1.5 250 23:38 05.01.2020
4955 Clouds -2 1035 92 10000 1 0 23:19 05.01.2020
4956 Clouds -3 1035 92 10000 1.5 250 22:40 05.01.2020
4957 Clouds -2 1035 92 10000 1.5 270 22:20 05.01.2020
4958 Clouds -2 1035 92 10000 1.5 270 22:20 05.01.2020
4959 Clouds -1 1035 86 10000 1 0 21:57 05.01.2020
4960 Clouds -1 1035 86 10000 1 0 21:39 05.01.2020
4961 Clouds -1 1035 92 10000 1 0 21:20 05.01.2020
4962 Clouds -2 1035 92 10000 1 0 20:56 05.01.2020
4963 Clouds -2 1035 92 10000 1 0 20:38 05.01.2020
4964 Clouds -1 1035 92 10000 0.5 0 20:19 05.01.2020
4965 Clouds -1 1035 92 10000 0.5 0 20:19 05.01.2020
4966 Clouds 0 1035 92 10000 0.5 0 19:58 05.01.2020
4967 Clouds 0 1035 84 10000 0.5 0 19:38 05.01.2020
4968 Clouds 0 1035 84 10000 0.5 0 19:20 05.01.2020
4969 Clouds -1 1035 84 10000 0.5 0 18:55 05.01.2020
4970 Clouds -1 1034 84 10000 1 250 18:37 05.01.2020
4971 Clouds -1 1034 84 10000 1 250 18:37 05.01.2020
4972 Clouds -1 1034 84 10000 0.5 0 18:19 05.01.2020
4973 Clouds 1 1034 80 10000 1 0 17:57 05.01.2020
4974 Clouds 1 1034 80 10000 1 0 17:38 05.01.2020
4975 Clouds 1 1034 80 10000 1 0 17:38 05.01.2020
4976 Clouds 2 1034 74 10000 1 0 17:19 05.01.2020
4977 Clouds 2 1034 69 10000 1 0 16:56 05.01.2020
4978 Clouds 3 1034 69 10000 1 0 16:38 05.01.2020
4979 Clouds 3 1033 69 10000 2.6 170 16:19 05.01.2020
4980 Clouds 3 1033 69 10000 2.6 170 16:19 05.01.2020
4981 Clouds 3 1033 69 10000 2.6 170 16:19 05.01.2020
4982 Clouds 5 1033 85 10000 1.5 140 15:38 05.01.2020
4983 Clouds 5 1033 85 10000 1.5 160 15:20 05.01.2020
4984 Clouds 5 1033 85 10000 1.5 160 14:55 05.01.2020
4985 Clouds 5 1033 85 10000 2.1 130 14:37 05.01.2020
4986 Clouds 5 1033 85 10000 2.1 130 14:37 05.01.2020
4987 Clouds 5 1033 70 10000 2.6 120 14:19 05.01.2020
4988 Clouds 5 1033 70 10000 2.6 120 13:55 05.01.2020
4989 Clouds 4 1033 60 10000 2.6 90 13:37 05.01.2020
4990 Clouds 4 1033 78 10000 2.1 110 13:18 05.01.2020
4991 Clouds 4 1033 78 10000 2.1 110 13:18 05.01.2020
4992 Clouds 4 1033 78 10000 2.1 110 13:18 05.01.2020
4993 Clouds 4 1033 78 10000 2.1 110 12:55 05.01.2020
4994 Clouds 4 1034 78 10000 2.1 120 12:37 05.01.2020
4995 Clouds 3 1034 75 10000 2.1 100 12:18 05.01.2020
4996 Clouds 3 1034 80 10000 3.1 110 11:43 05.01.2020
4997 Clouds 3 1034 80 10000 3.1 110 11:43 05.01.2020
4998 Clouds 3 1034 80 10000 3.1 110 11:43 05.01.2020
4999 Rain 3 1034 80 10000 3.1 110 11:43 05.01.2020
5000 Clouds 3 1035 80 10000 2.1 100 11:19 05.01.2020
5001 Clouds 2 1035 80 10000 2.1 100 10:58 05.01.2020
5002 Clouds 2 1035 88 10000 1.5 100 10:39 05.01.2020
5003 Clouds 2 1035 88 10000 1.5 100 10:39 05.01.2020
5004 Clouds 2 1035 88 10000 1.5 100 10:39 05.01.2020
5005 Clouds 2 1035 88 10000 1.5 100 10:39 05.01.2020
5006 Clouds 1 1035 88 10000 1 0 10:18 05.01.2020
5007 Clouds 1 1035 88 10000 1 0 09:42 05.01.2020
5008 Clouds 1 1035 86 10000 1 0 09:22 05.01.2020
5009 Clouds 1 1035 86 10000 1 0 08:50 05.01.2020
5010 Clouds 1 1034 86 10000 0.5 0 08:30 05.01.2020
5011 Clouds 1 1034 86 10000 0.5 0 07:56 05.01.2020
5012 Snow 1 1034 86 10000 0.5 0 07:37 05.01.2020
5013 Clouds 1 1034 80 10000 0.5 0 07:19 05.01.2020
5014 Snow 1 1033 80 10000 1.5 140 05:59 05.01.2020
5015 Clouds 1 1033 80 10000 1 0 05:33 05.01.2020
5016 Clouds 1 1033 80 10000 1 0 05:33 05.01.2020
5017 Clouds 1 1032 80 10000 1 0 04:43 05.01.2020
5018 Clouds 1 1032 80 10000 2.1 90 04:18 05.01.2020
5019 Clouds 2 1030 38 10000 6.7 290 02:46 05.01.2020
5020 Clouds 3 1030 38 10000 6.7 290 02:24 05.01.2020
5021 Clouds 2 1030 64 10000 5.7 250 01:48 05.01.2020
5022 Clouds 1 1030 96 10000 1 0 01:19 05.01.2020
5023 Clouds 1 1030 96 10000 1 0 00:42 05.01.2020
5024 Clouds 1 1030 96 10000 1 0 00:42 05.01.2020
5025 Clouds 2 1030 96 6000 2.1 0 00:23 05.01.2020
5026 Clouds 2 1030 96 6000 2.1 0 23:59 04.01.2020
5027 Mist 2 1031 96 5000 1.5 0 23:40 04.01.2020
5028 Clouds 2 1031 100 10000 1 160 23:19 04.01.2020
5029 Clouds 2 1031 100 10000 1 160 23:19 04.01.2020
5030 Clouds 2 1031 100 10000 1 160 23:19 04.01.2020
5031 Clouds 1 1031 100 10000 1 0 22:40 04.01.2020
5032 Clouds 1 1030 93 9000 1 0 22:22 04.01.2020
5033 Clouds 2 1030 93 9000 1 0 21:58 04.01.2020
5034 Clouds 2 1030 100 8000 1.5 0 21:39 04.01.2020
5035 Clouds 3 1030 93 8000 0.5 0 21:20 04.01.2020
5036 Clouds 2 1030 93 8000 0.5 0 20:59 04.01.2020
5037 Clouds 2 1030 93 10000 1 0 20:40 04.01.2020
5038 Rain 1 1030 93 8000 2.1 40 20:21 04.01.2020
5039 Clouds 2 1030 93 8000 2.1 40 19:56 04.01.2020
5040 Clouds 2 1029 93 10000 1.5 0 19:38 04.01.2020
5041 Rain 2 1030 100 10000 2.1 100 19:19 04.01.2020
5042 Rain 2 1029 100 10000 2.1 110 18:54 04.01.2020
5043 Rain 2 1029 100 10000 2.1 110 18:36 04.01.2020
5044 Rain 2 1029 100 7000 1.5 100 18:18 04.01.2020
5045 Rain 1 1029 93 6000 0.5 0 17:41 04.01.2020
5046 Rain 2 1028 93 10000 0.5 0 17:23 04.01.2020
5047 Rain 2 1028 93 10000 0.5 0 16:57 04.01.2020
5048 Rain 2 1028 86 10000 1 0 16:39 04.01.2020
5049 Rain 2 1028 86 10000 1 0 16:39 04.01.2020
5050 Rain 2 1028 86 10000 0.5 0 16:21 04.01.2020
5051 Rain 2 1027 86 10000 1 0 15:43 04.01.2020
5052 Rain 2 1027 98 10000 1.5 50 15:20 04.01.2020
5053 Rain 2 1027 98 10000 1.5 50 14:59 04.01.2020
5054 Rain 2 1027 98 10000 2.6 90 14:41 04.01.2020
5055 Snow 3 1029 91 0 1.34 68 14:20 04.01.2020
5056 Rain 3 1027 98 10000 1 110 13:59 04.01.2020
5057 Snow 3 1039 79 0 1.68 319 13:38 04.01.2020
5058 Snow 3 1039 80 0 0.45 67 13:19 04.01.2020
5059 Drizzle 3 1027 98 10000 0.5 0 12:57 04.01.2020
5060 Clouds 3 1028 74 10000 0.5 0 12:38 04.01.2020
5061 Clouds 2 1027 80 10000 0.5 0 12:18 04.01.2020
5062 Clouds 3 1027 80 10000 0.5 0 11:55 04.01.2020
5063 Clouds 3 1028 80 10000 0.5 0 11:36 04.01.2020
5064 Clouds 2 1028 80 10000 0.5 0 11:18 04.01.2020
5065 Clouds 2 1028 86 10000 1 0 10:40 04.01.2020
5066 Clouds 1 1029 98 10000 1 0 10:21 04.01.2020
5067 Drizzle 1 1029 98 10000 1 0 09:47 04.01.2020
5068 Drizzle 1 1029 98 10000 1 0 09:26 04.01.2020
5069 Clouds 1 1028 92 10000 1 0 08:49 04.01.2020
5070 Clouds 1 1028 92 10000 1 0 08:29 04.01.2020
5071 Clouds 1 1028 92 10000 0.5 0 07:56 04.01.2020
5072 Snow 1 1028 92 10000 1 0 07:38 04.01.2020
5073 Clouds 1 1028 92 10000 1.5 240 06:44 04.01.2020
5074 Clouds 0 1028 92 10000 2.1 270 05:59 04.01.2020
5075 Clouds 0 1028 86 10000 1.5 250 04:51 04.01.2020
5076 Clouds 0 1028 86 10000 1.5 250 04:30 04.01.2020
5077 Clouds 0 1028 86 10000 1 240 03:29 04.01.2020
5078 Clouds 0 1028 92 10000 1.5 260 02:49 04.01.2020
5079 Clouds 0 1028 92 10000 1 0 02:18 04.01.2020
5080 Clouds 0 1028 92 10000 1 0 01:41 04.01.2020
5081 Clouds 0 1028 92 10000 1 0 01:23 04.01.2020
5082 Clouds -1 1028 92 10000 0.5 0 00:29 04.01.2020
5083 Clouds -1 1028 86 10000 1 0 23:57 03.01.2020
5084 Clouds -1 1028 92 10000 0.5 0 23:30 03.01.2020
5085 Clouds -1 1028 92 10000 0.5 0 23:30 03.01.2020
5086 Clouds 0 1028 86 10000 0.5 0 22:59 03.01.2020
5087 Clouds 0 1028 86 10000 1 230 22:40 03.01.2020
5088 Clouds 0 1028 92 10000 1 240 22:19 03.01.2020
5089 Clouds 0 1027 92 10000 1.5 250 21:57 03.01.2020
5090 Clouds 0 1027 92 10000 1.5 250 21:38 03.01.2020
5091 Clouds 0 1027 92 10000 1 0 21:19 03.01.2020
5092 Clouds 0 1027 86 10000 0.5 0 20:55 03.01.2020
5093 Clouds 0 1027 86 10000 0.5 0 20:36 03.01.2020
5094 Clouds 0 1027 92 10000 1 260 20:18 03.01.2020
5095 Clouds 0 1027 86 10000 1 0 19:44 03.01.2020
5096 Clouds 1 1026 61 10000 0.5 0 19:23 03.01.2020
5097 Clouds 1 1026 61 10000 0.5 0 18:57 03.01.2020
5098 Clouds 1 1026 61 10000 0.5 0 18:38 03.01.2020
5099 Clouds 1 1026 80 10000 1 0 18:20 03.01.2020
5100 Clouds 1 1026 80 10000 1 0 17:42 03.01.2020
5101 Clouds 1 1025 74 10000 1 0 17:21 03.01.2020
5102 Clouds 2 1025 74 10000 1 0 16:58 03.01.2020
5103 Clouds 2 1025 80 10000 1 0 16:39 03.01.2020
5104 Clouds 2 1024 74 10000 0.5 0 16:20 03.01.2020
5105 Clouds 2 1024 69 10000 0.73 281 15:41 03.01.2020
5106 Clouds 3 1024 74 10000 1 0 15:19 03.01.2020
5107 Clouds 3 1024 80 10000 0.5 0 14:40 03.01.2020
5108 Clouds 3 1024 80 10000 0.5 0 14:40 03.01.2020
5109 Clouds 3 1024 74 10000 1 0 14:20 03.01.2020
5110 Clouds 3 1024 74 10000 1 0 13:59 03.01.2020
5111 Clouds 3 1025 80 10000 1 0 13:40 03.01.2020
5112 Clouds 3 1025 80 10000 1 0 13:21 03.01.2020
5113 Clouds 3 1026 80 10000 1.5 290 12:41 03.01.2020
5114 Clouds 3 1026 47 10000 1 0 12:22 03.01.2020
5115 Clouds 3 1026 47 10000 1 0 11:57 03.01.2020
5116 Clouds 3 1026 47 10000 1 0 11:57 03.01.2020
5117 Clouds 2 1027 86 10000 1 0 11:39 03.01.2020
5118 Clouds 0 1027 80 10000 1.5 240 10:59 03.01.2020
5119 Clouds 0 1028 86 10000 1.5 270 10:40 03.01.2020
5120 Clouds -1 1028 92 10000 1 0 10:22 03.01.2020
5121 Clouds -1 1028 92 10000 1 0 09:56 03.01.2020
5122 Clouds -2 1028 92 10000 0.5 0 09:38 03.01.2020
5123 Clouds -1 1029 92 10000 1.5 300 09:20 03.01.2020
5124 Clouds -2 1029 92 10000 1.5 320 08:45 03.01.2020
5125 Clouds -3 1028 92 10000 1 0 08:23 03.01.2020
5126 Clouds -3 1028 92 10000 1 0 07:57 03.01.2020
5127 Clouds -3 1028 100 10000 0.5 0 07:38 03.01.2020
5128 Clouds -3 1028 92 10000 0.5 0 07:18 03.01.2020
5129 Clouds -3 1028 92 10000 0.5 0 06:42 03.01.2020
5130 Clouds -3 1028 92 10000 2.1 260 06:22 03.01.2020
5131 Clouds -3 1028 92 10000 0.5 0 05:20 03.01.2020
5132 Clouds -4 1028 92 10000 1 0 03:42 03.01.2020
5133 Clouds -3 1028 92 10000 0.5 0 02:53 03.01.2020
5134 Clear -3 1028 92 10000 1 0 01:51 03.01.2020
5135 Clear -3 1028 92 10000 1 0 01:33 03.01.2020
5136 Clear -3 1028 92 10000 1 0 00:43 03.01.2020
5137 Clear -2 1028 86 10000 0.5 0 00:24 03.01.2020
5138 Clear -2 1028 92 10000 0.5 0 23:39 02.01.2020
5139 Clear -2 1028 86 10000 1 0 23:21 02.01.2020
5140 Clear -2 1028 86 10000 1 0 22:59 02.01.2020
5141 Clear -2 1028 86 10000 1 0 22:41 02.01.2020
5142 Clear -1 1028 86 10000 1 0 22:20 02.01.2020
5143 Clear -1 1028 86 10000 1 0 21:57 02.01.2020
5144 Clear -1 1028 92 10000 1 0 21:38 02.01.2020
5145 Clear -2 1028 86 10000 1.5 250 21:19 02.01.2020
5146 Clear -1 1028 86 10000 1.5 250 20:56 02.01.2020
5147 Clear -1 1028 92 10000 1 0 20:37 02.01.2020
5148 Clouds -1 1028 86 10000 0.5 0 20:19 02.01.2020
5149 Clouds 0 1028 86 10000 0.5 0 19:54 02.01.2020
5150 Clouds 0 1028 86 10000 0.5 0 19:54 02.01.2020
5151 Clouds 0 1028 86 10000 1 0 19:36 02.01.2020
5152 Clouds 0 1028 86 10000 0.5 0 19:18 02.01.2020
5153 Clouds 0 1028 86 10000 0.5 0 19:18 02.01.2020
5154 Clouds 0 1028 86 10000 0.5 0 18:43 02.01.2020
5155 Clouds 1 1028 60 10000 1 0 18:25 02.01.2020
5156 Clouds 1 1028 60 10000 1 0 17:58 02.01.2020
5157 Clouds 1 1028 60 10000 1 0 17:39 02.01.2020
5158 Clouds 2 1027 74 10000 1 0 17:21 02.01.2020
5159 Clouds 2 1027 74 10000 1 0 16:59 02.01.2020
5160 Clouds 2 1027 74 10000 1 0 16:41 02.01.2020
5161 Clouds 3 1027 69 10000 1.5 170 16:20 02.01.2020
5162 Clouds 3 1027 69 10000 1.5 170 15:58 02.01.2020
5163 Clouds 3 1027 69 10000 1.5 170 15:58 02.01.2020
5164 Clouds 4 1027 64 10000 1.5 160 15:40 02.01.2020
5165 Clouds 4 1027 56 10000 2.1 170 15:21 02.01.2020
5166 Clouds 4 1027 60 10000 1 0 14:57 02.01.2020
5167 Clouds 6 1027 60 10000 1 0 14:36 02.01.2020
5168 Clouds 5 1027 60 10000 1 0 14:36 02.01.2020
5169 Clouds 5 1027 60 10000 1 0 14:18 02.01.2020
5170 Clouds 5 1028 60 10000 1 0 13:49 02.01.2020
5171 Clear 4 1028 60 10000 1 0 13:31 02.01.2020
5172 Clear 4 1029 64 10000 1.5 0 12:46 02.01.2020
5173 Clear 4 1029 64 10000 1.5 0 12:26 02.01.2020
5174 Clear 4 1030 74 10000 1 0 11:59 02.01.2020
5175 Clear 4 1030 74 10000 1 0 11:40 02.01.2020
5176 Clouds 0 1030 40 10000 0.5 0 11:20 02.01.2020
5177 Clouds 0 1030 40 10000 0.5 0 11:20 02.01.2020
5178 Clouds 0 1031 86 10000 0.5 0 10:44 02.01.2020
5179 Clouds 0 1031 86 10000 0.5 0 10:26 02.01.2020
5180 Clouds -1 1031 92 10000 1 0 09:51 02.01.2020
5181 Clouds -1 1031 92 10000 1 0 09:33 02.01.2020
5182 Clouds -2 1031 92 10000 0.5 0 08:47 02.01.2020
5183 Clouds -2 1031 92 10000 0.5 0 08:27 02.01.2020
5184 Clear -4 1031 92 10000 0.5 0 07:54 02.01.2020
5185 Clear -4 1031 92 10000 1 0 07:30 02.01.2020
5186 Clear -4 1031 92 10000 1 0 06:55 02.01.2020
5187 Clear -5 1030 92 10000 0.5 0 06:36 02.01.2020
5188 Clear -4 1031 92 10000 0.5 0 05:36 02.01.2020
5189 Clear -4 1031 92 10000 0.5 0 04:33 02.01.2020
5190 Clear -4 1031 92 10000 1.5 250 02:54 02.01.2020
5191 Clear -3 1031 92 10000 1 0 01:59 02.01.2020
5192 Clear -3 1032 92 10000 1 230 01:39 02.01.2020
5193 Clear -3 1032 92 10000 1.5 260 00:59 02.01.2020
5194 Clear -3 1032 92 10000 1.5 260 00:34 02.01.2020
5195 Clear -3 1032 92 10000 1 0 23:56 01.01.2020
5196 Clear -3 1032 92 10000 0.5 0 23:37 01.01.2020
5197 Clear -3 1032 92 10000 1 0 23:18 01.01.2020
5198 Clear -2 1032 92 10000 1.5 260 22:38 01.01.2020
5199 Clear -2 1033 92 10000 1 330 22:19 01.01.2020
5200 Clear -2 1033 92 10000 1 330 21:56 01.01.2020
5201 Clear -2 1033 92 10000 1 250 21:38 01.01.2020
5202 Clear -2 1033 92 10000 0.5 0 21:19 01.01.2020
5203 Clear -2 1033 92 10000 0.5 0 21:19 01.01.2020
5204 Clear -2 1033 92 10000 0.5 0 20:55 01.01.2020
5205 Clear -2 1033 92 10000 0.5 0 20:37 01.01.2020
5206 Fog -2 1033 92 6000 0.5 0 20:19 01.01.2020
5207 Fog -2 1033 92 6000 0.5 0 20:19 01.01.2020
5208 Fog -1 1033 92 6000 0.5 0 19:55 01.01.2020
5209 Fog -1 1033 86 6000 1 250 19:55 01.01.2020
5210 Fog -1 1033 86 6000 1 250 19:37 01.01.2020
5211 Fog -1 1033 86 8000 1 240 19:19 01.01.2020
5212 Fog -1 1033 86 8000 1 240 18:55 01.01.2020
5213 Fog -1 1033 92 8000 1 270 18:36 01.01.2020
5214 Fog 0 1033 86 8000 2.31 175 18:18 01.01.2020
5215 Fog -1 1033 86 8000 2.31 175 17:56 01.01.2020
5216 Fog -1 1033 86 8000 2.31 175 17:56 01.01.2020
5217 Clear 0 1032 47 10000 0.5 0 17:37 01.01.2020
5218 Clear 0 1032 55 10000 0.5 0 17:18 01.01.2020
5219 Clear 1 1032 55 10000 1 0 16:40 01.01.2020
5220 Clear 1 1032 55 10000 1 0 16:40 01.01.2020
5221 Clear 2 1031 86 10000 0.5 0 16:21 01.01.2020
5222 Clear 1 1031 86 10000 0.5 0 15:57 01.01.2020
5223 Clear 2 1031 69 10000 1 220 15:39 01.01.2020
5224 Clear 4 1031 55 10000 1 0 15:20 01.01.2020
5225 Clear 3 1031 55 10000 1 0 14:58 01.01.2020
5226 Clear 4 1031 74 10000 0.5 0 14:40 01.01.2020
5227 Clear 3 1032 74 10000 1 0 14:21 01.01.2020
5228 Clear 4 1032 74 10000 1 0 13:56 01.01.2020
5229 Clear 4 1032 100 10000 1 0 13:37 01.01.2020
5230 Clear 4 1032 100 10000 1 0 13:37 01.01.2020
5231 Clouds 3 1033 100 10000 0.5 0 13:18 01.01.2020
5232 Mist 2 1033 100 7000 0.5 0 12:55 01.01.2020
5233 Mist 2 1033 100 7000 0.5 0 12:37 01.01.2020
5234 Fog 2 1034 100 2000 1 0 12:18 01.01.2020
5235 Fog 2 1034 100 600 0.5 0 11:43 01.01.2020
5236 Fog 0 1034 100 350 2.1 250 11:22 01.01.2020
5237 Fog -1 1034 100 350 2.1 250 10:58 01.01.2020
5238 Fog -1 1035 100 250 2.1 240 10:40 01.01.2020
5239 Fog -1 1034 100 250 1 0 10:20 01.01.2020
5240 Fog 0 1034 100 250 1 0 09:55 01.01.2020
5241 Fog 0 1034 100 200 1 0 09:36 01.01.2020
5242 Fog -1 1035 100 250 0.5 0 09:18 01.01.2020
5243 Fog -1 1035 100 250 0.5 0 08:54 01.01.2020
5244 Fog -1 1034 100 250 1 250 08:36 01.01.2020
5245 Fog -2 1034 100 300 1 270 08:18 01.01.2020
5246 Fog -2 1034 100 300 1 270 07:45 01.01.2020
5247 Fog -2 1034 100 300 1 270 07:26 01.01.2020
5248 Fog -2 1034 100 300 0.5 0 06:44 01.01.2020
5249 Fog -2 1033 100 200 0.5 0 06:19 01.01.2020
5250 Mist -2 1033 92 2300 1 0 04:38 01.01.2020
5251 Mist -2 1034 92 2000 0.5 0 03:41 01.01.2020
5252 Mist -2 1034 92 2200 0.5 0 03:22 01.01.2020
5253 Mist -1 1034 92 2200 0.5 0 02:55 01.01.2020
5254 Mist -1 1034 100 2400 1.5 230 02:32 01.01.2020
5255 Mist -1 1034 100 1100 1.5 240 01:45 01.01.2020
5256 Mist -2 1034 100 1100 1.5 240 01:24 01.01.2020
5257 Fog -1 1034 92 500 1 0 00:56 01.01.2020
5258 Mist -1 1034 92 2200 0.5 0 00:37 01.01.2020
5259 Mist -1 1034 92 4800 0.5 0 00:18 01.01.2020
5260 Mist -1 1035 92 4100 1 0 23:39 31.12.2019
5261 Mist -1 1035 92 5000 0.5 0 23:19 31.12.2019
5262 Mist -1 1035 92 5000 0.5 0 22:57 31.12.2019
5263 Clear -1 1034 92 6000 0.5 0 22:38 31.12.2019
5264 Clear 0 1034 92 9000 1.5 230 22:18 31.12.2019
5265 Clear -1 1034 92 9000 1.5 230 21:54 31.12.2019
5266 Clear -1 1034 92 9000 1 0 21:36 31.12.2019
5267 Clear -1 1034 100 7000 2.1 250 21:18 31.12.2019
5268 Clear -1 1034 100 7000 2.1 250 21:18 31.12.2019
5269 Mist 0 1034 100 3000 1.5 260 20:40 31.12.2019
5270 Clouds 0 1034 92 8000 0.5 0 20:21 31.12.2019
5271 Clouds 0 1034 92 8000 0.5 0 19:59 31.12.2019
5272 Clouds 0 1034 92 6000 1 280 19:40 31.12.2019
5273 Clouds 0 1034 67 10000 0.5 0 19:22 31.12.2019
5274 Clouds 0 1034 67 10000 0.5 0 18:57 31.12.2019
5275 Clouds 1 1033 67 10000 0.5 0 18:39 31.12.2019
5276 Clouds 1 1033 67 10000 1.5 270 18:19 31.12.2019
5277 Clouds 1 1033 67 10000 1.5 270 17:56 31.12.2019
5278 Clouds 1 1033 67 10000 1 0 17:37 31.12.2019
5279 Clouds 1 1033 67 10000 1 0 17:37 31.12.2019
5280 Clouds 2 1033 71 10000 1 0 17:19 31.12.2019
5281 Clouds 3 1033 71 10000 1 0 16:56 31.12.2019
5282 Clouds 3 1033 71 10000 1 0 16:56 31.12.2019
5283 Clouds 3 1032 71 10000 1.5 170 16:37 31.12.2019
5284 Clouds 3 1032 80 10000 1 180 16:19 31.12.2019
5285 Clouds 4 1032 80 10000 1 200 15:56 31.12.2019
5286 Clouds 4 1032 80 10000 1 200 15:38 31.12.2019
5287 Clouds 4 1031 71 10000 1 0 15:20 31.12.2019
5288 Clouds 5 1031 71 10000 1 0 14:56 31.12.2019
5289 Clouds 6 1032 60 10000 0.5 0 14:37 31.12.2019
5290 Clouds 5 1032 63 10000 1 0 14:19 31.12.2019
5291 Clouds 6 1032 63 10000 1 0 13:56 31.12.2019
5292 Clouds 6 1032 63 10000 1 0 13:38 31.12.2019
5293 Clouds 6 1032 63 10000 1 0 13:38 31.12.2019
5294 Clouds 5 1032 65 10000 1 0 13:20 31.12.2019
5295 Clouds 5 1032 65 10000 1 0 12:56 31.12.2019
5296 Clouds 5 1032 65 10000 1 0 12:56 31.12.2019
5297 Clouds 6 1033 69 10000 1 0 12:37 31.12.2019
5298 Clouds 4 1033 74 10000 1 0 12:19 31.12.2019
5299 Clouds 4 1033 74 10000 1 0 11:55 31.12.2019
5300 Clouds 5 1033 74 10000 0.5 0 11:37 31.12.2019
5301 Clouds 5 1033 74 10000 0.5 0 11:37 31.12.2019
5302 Clear 3 1034 86 10000 1 0 11:19 31.12.2019
5303 Clear 2 1034 86 10000 1 0 10:56 31.12.2019
5304 Clear 1 1034 52 10000 1 0 10:37 31.12.2019
5305 Clear 0 1033 92 10000 1.5 260 10:19 31.12.2019
5306 Clear 0 1033 92 10000 1.5 260 09:57 31.12.2019
5307 Clear -1 1033 92 10000 2.1 280 09:38 31.12.2019
5308 Clear -1 1033 100 10000 1.5 240 09:19 31.12.2019
5309 Clouds -1 1033 92 10000 1 0 08:43 31.12.2019
5310 Clouds -2 1033 92 10000 1 230 08:23 31.12.2019
5311 Clouds -2 1033 92 10000 1 230 07:58 31.12.2019
5312 Clouds -1 1033 92 10000 1 0 07:40 31.12.2019
5313 Clouds -1 1033 92 10000 0.5 0 07:19 31.12.2019
5314 Clouds -2 1033 92 10000 0.5 0 06:41 31.12.2019
5315 Clouds -2 1032 92 10000 0.5 0 05:28 31.12.2019
5316 Clouds -2 1032 92 10000 0.5 0 04:25 31.12.2019
5317 Clouds -2 1032 92 10000 1 280 03:24 31.12.2019
5318 Clouds -2 1033 92 10000 1 310 02:36 31.12.2019
5319 Clouds -2 1032 92 10000 0.5 0 01:53 31.12.2019
5320 Clear -2 1033 92 10000 1 0 01:32 31.12.2019
5321 Clear -2 1033 92 10000 1 0 00:56 31.12.2019
5322 Clear -2 1033 92 10000 0.5 0 00:37 31.12.2019
5323 Clear -2 1033 92 10000 0.5 0 00:18 31.12.2019
5324 Clear -2 1033 92 10000 0.5 0 23:55 30.12.2019
5325 Clear -2 1033 86 10000 2.1 270 23:36 30.12.2019
5326 Clear -2 1033 86 10000 2.1 270 23:18 30.12.2019
5327 Clear -2 1033 92 10000 2.6 260 22:54 30.12.2019
5328 Clear -2 1033 92 10000 2.6 260 22:54 30.12.2019
5329 Clear -1 1033 92 10000 2.6 260 22:36 30.12.2019
5330 Clear -1 1033 92 10000 1 240 22:18 30.12.2019
5331 Clear -2 1033 92 10000 1 240 21:55 30.12.2019
5332 Clear -2 1033 92 10000 1 240 21:55 30.12.2019
5333 Clear -1 1033 86 10000 1 270 21:37 30.12.2019
5334 Clear -1 1034 92 10000 0.5 0 21:18 30.12.2019
5335 Clear -1 1034 86 10000 2.1 250 20:42 30.12.2019
5336 Clouds -1 1034 86 10000 1.5 260 20:21 30.12.2019
5337 Clouds -1 1034 86 10000 1.5 260 19:59 30.12.2019
5338 Clouds -1 1034 86 10000 1.5 260 19:59 30.12.2019
5339 Clouds -1 1034 86 10000 2.1 250 19:40 30.12.2019
5340 Clouds -1 1034 86 10000 1.5 270 19:20 30.12.2019
5341 Clouds -1 1034 86 10000 1.5 270 19:20 30.12.2019
5342 Clouds -1 1034 86 10000 1.5 270 18:59 30.12.2019
5343 Clouds -1 1034 86 10000 1.5 290 18:41 30.12.2019
5344 Clouds 0 1034 86 10000 1.5 260 18:21 30.12.2019
5345 Clouds 0 1034 86 10000 1.5 260 17:59 30.12.2019
5346 Clouds 0 1034 86 10000 0.5 0 17:40 30.12.2019
5347 Clear 0 1034 59 10000 1 0 17:19 30.12.2019
5348 Clear 0 1034 59 10000 1 0 16:59 30.12.2019
5349 Clear 1 1034 59 10000 1.5 270 16:39 30.12.2019
5350 Clear 1 1034 59 10000 1 0 16:20 30.12.2019
5351 Clear 2 1034 59 10000 1 0 15:56 30.12.2019
5352 Clear 3 1034 69 10000 1 0 15:38 30.12.2019
5353 Clear 3 1034 64 10000 1.5 180 15:19 30.12.2019
5354 Clear 3 1034 59 10000 1 0 14:43 30.12.2019
5355 Clear 3 1035 64 10000 2.1 250 14:21 30.12.2019
5356 Clear 2 1035 64 10000 2.1 250 13:59 30.12.2019
5357 Clear 3 1035 64 10000 2.1 250 13:59 30.12.2019
5358 Clear 3 1035 64 10000 1.5 230 13:40 30.12.2019
5359 Clear 2 1035 69 10000 2.1 250 13:22 30.12.2019
5360 Clear 2 1035 69 10000 2.1 250 12:57 30.12.2019
5361 Clear 3 1036 57 10000 3.1 260 12:37 30.12.2019
5362 Clear 2 1037 80 10000 2.6 250 12:18 30.12.2019
5363 Clear 2 1037 80 10000 2.6 250 12:18 30.12.2019
5364 Rain 2 1037 80 10000 3.1 260 11:45 30.12.2019
5365 Rain 0 1038 86 10000 2.6 250 11:22 30.12.2019
5366 Clear -1 1038 86 10000 2.6 250 10:59 30.12.2019
5367 Clear -2 1038 92 10000 1.5 250 10:40 30.12.2019
5368 Clear -3 1038 86 10000 0.5 0 10:19 30.12.2019
5369 Clear -3 1038 92 10000 0.5 0 09:42 30.12.2019
5370 Clear -4 1038 92 10000 0.5 0 09:21 30.12.2019
5371 Clear -4 1038 92 10000 0.5 0 08:57 30.12.2019
5372 Clear -5 1038 92 10000 1.5 280 08:38 30.12.2019
5373 Clear -5 1038 92 10000 1.5 270 08:19 30.12.2019
5374 Clear -5 1038 92 10000 1.5 280 07:44 30.12.2019
5375 Clear -5 1037 92 10000 1 0 07:23 30.12.2019
5376 Clear -5 1037 92 10000 2.1 250 06:30 30.12.2019
5377 Clear -5 1038 92 10000 0.5 0 04:29 30.12.2019
5378 Clear -5 1038 92 10000 0.5 0 03:43 30.12.2019
5379 Clear -5 1038 92 10000 1 0 02:41 30.12.2019
5380 Clear -5 1038 92 10000 1 0 02:21 30.12.2019
5381 Clear -5 1038 92 10000 0.5 0 01:27 30.12.2019
5382 Clear -4 1038 85 10000 1 240 00:51 30.12.2019
5383 Clear -4 1038 85 10000 1 240 00:28 30.12.2019
5384 Clear -4 1038 85 10000 1 0 23:40 29.12.2019
5385 Clear -4 1038 85 10000 1 270 23:22 29.12.2019
5386 Clear -4 1038 85 10000 1 270 22:57 29.12.2019
5387 Clear -4 1038 92 10000 0.5 0 22:38 29.12.2019
5388 Clear -4 1038 92 10000 0.5 0 22:20 29.12.2019
5389 Clear -4 1038 92 10000 0.5 0 21:55 29.12.2019
5390 Clear -3 1038 86 10000 1 0 21:36 29.12.2019
5391 Clear -3 1038 86 10000 1.5 280 21:18 29.12.2019
5392 Clear -3 1038 86 10000 1.5 280 20:55 29.12.2019
5393 Clear -3 1038 86 10000 0.5 0 20:36 29.12.2019
5394 Clouds -3 1038 86 10000 1 0 20:18 29.12.2019
5395 Clouds -3 1038 86 10000 1 0 19:55 29.12.2019
5396 Clouds -3 1038 79 10000 2.1 240 19:37 29.12.2019
5397 Clouds -3 1038 86 10000 2.1 270 19:18 29.12.2019
5398 Clouds -2 1038 86 10000 0.5 0 18:40 29.12.2019
5399 Clouds -2 1038 86 10000 1 0 18:21 29.12.2019
5400 Clouds -2 1038 86 10000 1 0 17:59 29.12.2019
5401 Clouds -2 1037 79 10000 1.5 260 17:40 29.12.2019
5402 Clear -1 1037 80 10000 1 0 17:20 29.12.2019
5403 Clear -1 1037 80 10000 1 0 16:58 29.12.2019
5404 Clouds -1 1037 80 10000 1.5 260 16:40 29.12.2019
5405 Clouds -1 1037 80 10000 1.5 260 16:40 29.12.2019
5406 Rain 0 1037 58 10000 1 0 16:21 29.12.2019
5407 Rain 0 1037 58 10000 1 0 16:21 29.12.2019
5408 Rain 0 1037 58 10000 1 0 15:59 29.12.2019
5409 Rain 0 1037 69 10000 1.5 210 15:40 29.12.2019
5410 Clouds 0 1037 59 10000 1 0 15:20 29.12.2019
5411 Rain 2 1037 59 10000 1 0 14:59 29.12.2019
5412 Rain 1 1037 64 10000 1 0 14:41 29.12.2019
5413 Rain 2 1037 59 10000 1 0 14:19 29.12.2019
5414 Rain 2 1037 59 10000 1 0 13:59 29.12.2019
5415 Rain 2 1037 64 10000 1.5 220 13:40 29.12.2019
5416 Clouds 1 1037 64 10000 1.5 230 13:22 29.12.2019
5417 Clouds 1 1037 64 10000 1.5 230 12:56 29.12.2019
5418 Clouds 1 1037 41 10000 2.1 240 12:38 29.12.2019
5419 Clouds 0 1038 41 10000 2.1 220 12:20 29.12.2019
5420 Rain 0 1039 41 10000 1.5 240 11:41 29.12.2019
5421 Rain -2 1039 68 10000 1.5 230 11:21 29.12.2019
5422 Clouds -3 1039 74 10000 1 0 10:56 29.12.2019
5423 Clouds -3 1039 74 10000 1 0 10:37 29.12.2019
5424 Clouds -4 1040 68 10000 1 0 10:18 29.12.2019
5425 Clouds -4 1040 68 10000 1 0 10:18 29.12.2019
5426 Clouds -3 1040 74 10000 1.5 140 09:44 29.12.2019
5427 Clouds -3 1040 74 10000 1.5 140 09:26 29.12.2019
5428 Clouds -5 1039 79 10000 2.6 250 08:52 29.12.2019
5429 Clouds -5 1039 79 10000 2.6 250 08:29 29.12.2019
5430 Clouds -6 1039 79 10000 1 0 07:59 29.12.2019
5431 Clouds -5 1039 79 10000 2.1 140 07:33 29.12.2019
5432 Clouds -5 1039 79 10000 1.5 130 06:59 29.12.2019
5433 Clouds -5 1038 74 10000 1.5 140 06:27 29.12.2019
5434 Clouds -5 1038 74 9000 2.6 130 05:55 29.12.2019
5435 Clouds -5 1038 74 10000 1.5 140 04:59 29.12.2019
5436 Clouds -4 1038 80 10000 0.5 0 04:30 29.12.2019
5437 Clouds -4 1038 80 10000 1 120 03:32 29.12.2019
5438 Clouds -5 1039 80 10000 1 0 02:27 29.12.2019
5439 Clouds -4 1038 80 10000 0.5 0 01:47 29.12.2019
5440 Clouds -4 1038 80 10000 0.5 0 01:28 29.12.2019
5441 Clouds -4 1039 74 10000 2.6 250 00:45 29.12.2019
5442 Clouds -4 1039 42 10000 1 0 00:24 29.12.2019
5443 Clouds -3 1039 42 10000 2.1 260 23:46 28.12.2019
5444 Clouds -3 1039 63 10000 2.6 260 23:19 28.12.2019
5445 Clouds -3 1039 63 10000 2.6 260 22:59 28.12.2019
5446 Clouds -3 1039 63 10000 2.1 270 22:37 28.12.2019
5447 Clouds -2 1039 80 10000 0.5 0 22:18 28.12.2019
5448 Clouds -2 1039 80 10000 0.5 0 21:55 28.12.2019
5449 Clouds -2 1039 80 10000 0.5 0 21:37 28.12.2019
5450 Clouds 1 1039 80 10000 2.6 100 21:19 28.12.2019
5451 Clouds 1 1039 80 10000 2.6 80 20:42 28.12.2019
5452 Clouds 1 1039 80 10000 2.6 80 20:23 28.12.2019
5453 Clouds -1 1039 80 10000 3.1 60 19:59 28.12.2019
5454 Clouds -1 1039 80 10000 1 0 19:41 28.12.2019
5455 Clouds -1 1039 80 10000 1.5 50 19:23 28.12.2019
5456 Clouds -1 1039 80 10000 1.5 50 18:59 28.12.2019
5457 Clouds 1 1039 86 10000 2.6 60 18:40 28.12.2019
5458 Clouds 1 1038 86 10000 2.1 70 18:20 28.12.2019
5459 Clouds 1 1038 86 10000 2.1 70 17:58 28.12.2019
5460 Clouds 1 1038 86 10000 1.5 110 17:39 28.12.2019
5461 Clouds 0 1037 86 10000 1 150 17:19 28.12.2019
5462 Clouds 0 1037 80 10000 1 0 16:48 28.12.2019
5463 Clouds 0 1037 80 10000 1 0 16:26 28.12.2019
5464 Clouds 0 1037 74 10000 0.5 0 15:57 28.12.2019
5465 Clouds 2 1037 74 10000 1.5 70 15:39 28.12.2019
5466 Rain 0 1036 80 10000 2.1 70 15:20 28.12.2019
5467 Rain 1 1036 80 10000 2.1 70 14:45 28.12.2019
5468 Rain 1 1036 80 10000 2.1 110 14:24 28.12.2019
5469 Rain 1 1036 80 10000 2.1 110 13:58 28.12.2019
5470 Rain 1 1036 80 10000 2.1 110 13:58 28.12.2019
5471 Clouds 1 1036 80 10000 1 0 13:39 28.12.2019
5472 Clouds 1 1037 74 10000 1.5 70 13:19 28.12.2019
5473 Clouds 1 1037 80 10000 2.1 70 12:44 28.12.2019
5474 Clouds 1 1037 80 10000 3.1 60 12:25 28.12.2019
5475 Clouds 0 1037 80 10000 3.1 60 11:59 28.12.2019
5476 Clouds 0 1037 86 10000 1.5 50 11:39 28.12.2019
5477 Clouds 0 1037 86 9000 1.5 70 11:20 28.12.2019
5478 Clouds -1 1037 86 9000 4.6 60 10:46 28.12.2019
5479 Rain 0 1037 86 9000 4.6 60 10:23 28.12.2019
5480 Clouds -1 1037 90 8000 4.1 70 09:58 28.12.2019
5481 Clouds -1 1037 90 9000 4.1 70 09:40 28.12.2019
5482 Clouds -1 1036 86 7000 3.1 70 09:21 28.12.2019
5483 Clouds -1 1036 86 8000 2.6 70 08:45 28.12.2019
5484 Clouds -1 1036 86 8000 2.6 70 08:27 28.12.2019
5485 Clouds -1 1036 86 8000 2.1 80 07:57 28.12.2019
5486 Clouds -1 1035 86 6000 3.1 90 07:39 28.12.2019
5487 Clouds -1 1035 86 8000 2.6 70 06:50 28.12.2019
5488 Clouds -1 1034 98 10000 1 0 05:31 28.12.2019
5489 Clouds -1 1033 100 8000 1 0 03:47 28.12.2019
5490 Clouds 0 1033 100 10000 1 0 02:49 28.12.2019
5491 Rain 0 1033 98 10000 1 0 02:19 28.12.2019
5492 Rain 0 1033 98 5000 1 280 01:50 28.12.2019
5493 Clouds 0 1033 98 6000 1.5 250 01:20 28.12.2019
5494 Clouds 0 1032 98 6000 1.5 260 00:41 28.12.2019
5495 Rain 1 1032 100 5000 1.5 250 00:23 28.12.2019
5496 Rain 1 1032 98 6000 0.5 0 23:45 27.12.2019
5497 Clouds 1 1032 98 6000 1 0 23:20 27.12.2019
5498 Clouds 1 1032 98 6000 1 0 22:58 27.12.2019
5499 Clouds 1 1031 98 6000 0.5 0 22:39 27.12.2019
5500 Snow 1 1031 98 5000 0.5 0 22:21 27.12.2019
5501 Snow 1 1031 98 5000 0.5 0 22:21 27.12.2019
5502 Snow 1 1031 98 5000 0.5 0 21:59 27.12.2019
5503 Clouds 1 1031 98 6000 0.5 0 21:40 27.12.2019
5504 Snow 0 1030 98 5000 0.5 0 21:22 27.12.2019
5505 Clouds 1 1030 98 6000 1 240 20:42 27.12.2019
5506 Snow 1 1029 98 5000 0.5 0 20:23 27.12.2019
5507 Snow 1 1029 98 5000 0.5 0 19:55 27.12.2019
5508 Clouds 1 1029 100 6000 0.5 0 19:36 27.12.2019
5509 Clouds 1 1028 93 7000 1 120 19:18 27.12.2019
5510 Clouds 1 1028 93 7000 1 120 19:18 27.12.2019
5511 Clouds 1 1028 100 7000 1.5 70 18:41 27.12.2019
5512 Clouds 1 1027 100 6000 2.6 70 18:23 27.12.2019
5513 Rain 1 1027 100 6000 2.6 70 17:59 27.12.2019
5514 Rain 1 1027 93 8000 0.5 0 17:41 27.12.2019
5515 Rain 1 1026 93 6000 1 0 17:19 27.12.2019
5516 Rain 1 1026 93 6000 1 0 16:59 27.12.2019
5517 Rain 1 1026 93 6000 0.5 0 16:39 27.12.2019
5518 Rain 1 1026 93 6000 0.5 0 16:20 27.12.2019
5519 Rain 1 1025 93 7000 0.5 0 15:46 27.12.2019
5520 Rain 2 1025 93 8000 0.5 0 15:24 27.12.2019
5521 Rain 1 1025 93 8000 0.5 0 14:59 27.12.2019
5522 Rain 1 1024 93 8000 0.5 0 14:40 27.12.2019
5523 Rain 1 1024 93 8000 0.5 0 14:22 27.12.2019
5524 Rain 1 1024 93 8000 0.5 0 13:58 27.12.2019
5525 Rain 1 1024 93 5000 0.5 0 13:40 27.12.2019
5526 Rain 1 1024 93 5000 0.5 0 13:21 27.12.2019
5527 Rain 1 1023 100 5000 0.5 0 12:44 27.12.2019
5528 Rain 1 1023 100 5000 0.5 0 12:26 27.12.2019
5529 Rain 1 1023 100 5000 0.5 0 12:26 27.12.2019
5530 Rain 1 1023 99 4000 1.35 316 11:56 27.12.2019
5531 Rain 1 1023 99 4000 1.35 316 11:38 27.12.2019
5532 Rain 1 1024 98 4000 0.5 0 11:19 27.12.2019
5533 Rain 1 1023 98 3000 1 0 10:45 27.12.2019
5534 Snow 1 1023 98 3000 1 0 10:23 27.12.2019
5535 Snow 1 1023 98 5000 0.5 0 09:50 27.12.2019
5536 Snow 1 1023 98 5000 1 0 09:22 27.12.2019
5537 Snow 0 1023 98 5000 1 0 08:59 27.12.2019
5538 Snow 0 1023 98 5000 1 280 08:41 27.12.2019
5539 Snow 0 1023 97 4000 1.5 270 08:22 27.12.2019
5540 Snow 0 1022 96 4000 1 260 07:38 27.12.2019
5541 Snow 0 1023 96 4000 1 0 06:59 27.12.2019
5542 Snow 1 1023 96 3000 1 280 06:23 27.12.2019
5543 Clouds 0 1023 95 10000 0.5 0 04:37 27.12.2019
5544 Rain 0 1024 86 10000 0.5 0 02:28 27.12.2019
5545 Clouds 0 1024 86 10000 1 0 01:44 27.12.2019
5546 Clouds 0 1024 86 10000 1 0 01:21 27.12.2019
5547 Clouds 0 1025 86 10000 0.5 0 00:46 27.12.2019
5548 Clouds 0 1025 86 10000 0.5 0 00:25 27.12.2019
5549 Clouds 0 1025 86 10000 1 180 23:56 26.12.2019
5550 Clouds 0 1025 86 10000 1.5 350 23:37 26.12.2019
5551 Clouds 0 1025 86 10000 1 0 23:19 26.12.2019
5552 Clouds 0 1025 86 10000 1 0 22:40 26.12.2019
5553 Clouds 0 1025 86 10000 0.5 0 22:18 26.12.2019
5554 Clouds 0 1025 75 10000 2.1 270 21:40 26.12.2019
5555 Clouds 0 1024 86 10000 0.5 0 21:21 26.12.2019
5556 Clouds 0 1024 86 10000 0.5 0 20:58 26.12.2019
5557 Clouds 0 1024 86 10000 1 0 20:38 26.12.2019
5558 Clouds 0 1024 86 10000 1 0 20:38 26.12.2019
5559 Clouds 0 1024 86 10000 0.5 0 20:20 26.12.2019
5560 Clouds 0 1024 86 10000 0.5 0 19:55 26.12.2019
5561 Clouds 0 1024 86 10000 1 0 19:37 26.12.2019
5562 Clouds 0 1023 86 10000 0.5 0 19:19 26.12.2019
5563 Clouds 0 1023 86 10000 0.5 0 19:19 26.12.2019
5564 Clouds 0 1023 86 10000 0.5 0 18:55 26.12.2019
5565 Clouds 0 1023 86 10000 0.5 0 18:36 26.12.2019
5566 Clouds 0 1023 86 10000 1 240 18:18 26.12.2019
5567 Clouds 1 1023 86 10000 1.5 170 17:41 26.12.2019
5568 Clouds 1 1023 86 10000 1 0 17:21 26.12.2019
5569 Clouds 1 1023 86 10000 1 0 17:21 26.12.2019
5570 Clouds 1 1023 86 10000 1 0 16:49 26.12.2019
5571 Clouds 2 1023 80 10000 2.6 270 16:26 26.12.2019
5572 Clouds 1 1023 80 10000 2.6 270 15:57 26.12.2019
5573 Clouds 2 1023 69 10000 1.5 240 15:38 26.12.2019
5574 Clouds 3 1023 69 10000 2.1 250 15:19 26.12.2019
5575 Clouds 3 1023 69 10000 2.6 240 14:41 26.12.2019
5576 Clouds 3 1023 69 10000 2.6 240 14:23 26.12.2019
5577 Clouds 2 1023 69 10000 3.1 260 13:55 26.12.2019
5578 Clouds 3 1023 69 10000 2.6 240 13:36 26.12.2019
5579 Clouds 3 1024 69 10000 3.1 250 13:18 26.12.2019
5580 Clouds 4 1024 69 10000 2.6 260 12:44 26.12.2019
5581 Clouds 4 1025 69 10000 2.6 240 12:24 26.12.2019
5582 Clouds 3 1025 69 10000 2.6 240 11:59 26.12.2019
5583 Clouds 3 1025 74 10000 2.6 260 11:40 26.12.2019
5584 Clouds 2 1025 80 10000 2.6 260 11:21 26.12.2019
5585 Clouds 2 1026 81 10000 2.6 240 10:50 26.12.2019
5586 Clouds 1 1026 81 10000 2.6 240 10:25 26.12.2019
5587 Clouds 0 1026 81 10000 4.1 260 09:55 26.12.2019
5588 Clouds 0 1026 81 10000 2.1 270 09:33 26.12.2019
5589 Clouds 0 1026 81 10000 1.5 270 08:59 26.12.2019
5590 Clouds 1 1026 100 10000 1 260 08:39 26.12.2019
5591 Clouds 0 1025 86 10000 1.5 270 08:20 26.12.2019
5592 Clouds 1 1025 100 10000 2.1 270 07:38 26.12.2019
5593 Clouds 1 1025 100 6000 1 230 07:19 26.12.2019
5594 Fog 1 1025 100 3000 2.1 250 06:37 26.12.2019
5595 Fog 1 1025 100 800 1.5 270 06:19 26.12.2019
5596 Fog 1 1025 100 900 2.1 270 05:40 26.12.2019
5597 Mist 2 1025 93 2200 1 0 04:33 26.12.2019
5598 Clouds 2 1025 100 6000 0.5 0 03:31 26.12.2019
5599 Clouds 3 1025 93 7000 2.1 270 02:46 26.12.2019
5600 Clouds 3 1025 93 7000 2.1 270 02:25 26.12.2019
5601 Clouds 2 1024 100 10000 1 0 01:44 26.12.2019
5602 Clouds 2 1024 100 10000 1 0 01:24 26.12.2019
5603 Clouds 2 1025 93 6000 1 0 00:44 26.12.2019
5604 Clouds 2 1024 93 9000 1 0 00:23 26.12.2019
5605 Clouds 2 1024 93 9000 1 0 23:57 25.12.2019
5606 Clouds 2 1024 93 10000 0.5 0 23:36 25.12.2019
5607 Clouds 2 1024 93 10000 0.5 0 23:18 25.12.2019
5608 Clouds 2 1024 93 10000 0.5 0 22:55 25.12.2019
5609 Clouds 2 1024 93 9000 0.5 0 22:37 25.12.2019
5610 Clouds 2 1024 100 10000 1 0 22:18 25.12.2019
5611 Clouds 2 1024 93 10000 1 0 21:41 25.12.2019
5612 Clouds 2 1023 93 10000 1 0 21:23 25.12.2019
5613 Clouds 2 1023 93 10000 1 0 20:59 25.12.2019
5614 Rain 3 1023 93 10000 1 0 20:40 25.12.2019
5615 Clouds 3 1023 93 10000 1.5 70 20:20 25.12.2019
5616 Rain 2 1023 93 10000 1.5 130 19:57 25.12.2019
5617 Clouds 3 1023 93 10000 1.5 130 19:39 25.12.2019
5618 Clouds 3 1022 93 10000 2.6 0 19:21 25.12.2019
5619 Clouds 2 1022 93 10000 2.1 0 18:39 25.12.2019
5620 Rain 3 1022 86 10000 4.1 100 18:20 25.12.2019
5621 Rain 3 1021 86 10000 3.1 80 17:57 25.12.2019
5622 Rain 3 1021 86 10000 3.1 80 17:36 25.12.2019
5623 Rain 3 1019 86 10000 7.2 260 17:18 25.12.2019
5624 Rain 3 1018 86 8000 9.3 250 16:39 25.12.2019
5625 Rain 3 1018 81 8000 8.7 280 16:19 25.12.2019
5626 Rain 3 1018 81 8000 8.7 280 15:58 25.12.2019
5627 Rain 4 1017 70 10000 5.7 250 15:39 25.12.2019
5628 Rain 4 1017 75 10000 6.7 260 15:21 25.12.2019
5629 Rain 4 1017 75 10000 6.7 260 14:59 25.12.2019
5630 Rain 5 1016 81 10000 4.1 270 14:40 25.12.2019
5631 Rain 4 1016 81 10000 4.1 270 14:40 25.12.2019
5632 Rain 5 1016 81 10000 3.1 260 14:21 25.12.2019
5633 Rain 5 1016 81 10000 3.1 260 14:21 25.12.2019
5634 Rain 5 1016 81 10000 3.1 260 14:21 25.12.2019
5635 Rain 5 1016 81 10000 3.1 260 14:21 25.12.2019
5636 Rain 5 1016 81 10000 3.1 260 13:57 25.12.2019
5637 Rain 5 1016 87 10000 1.5 50 13:38 25.12.2019
5638 Rain 5 1017 87 10000 1.5 50 13:19 25.12.2019
5639 Clouds 5 1017 87 10000 1 0 12:40 25.12.2019
5640 Clouds 5 1017 87 10000 1 0 12:20 25.12.2019
5641 Clouds 5 1017 87 10000 1 0 11:56 25.12.2019
5642 Rain 4 1018 93 10000 0.5 0 11:38 25.12.2019
5643 Rain 4 1018 93 10000 0.5 0 11:18 25.12.2019
5644 Rain 4 1018 93 9000 0.5 0 10:38 25.12.2019
5645 Rain 4 1018 93 8000 1 0 10:20 25.12.2019
5646 Rain 3 1018 100 9000 0.5 0 09:51 25.12.2019
5647 Rain 4 1018 100 9000 0.5 0 09:32 25.12.2019
5648 Rain 3 1017 93 5000 1 0 08:51 25.12.2019
5649 Rain 3 1017 93 5000 1 0 08:31 25.12.2019
5650 Rain 3 1017 93 6000 1 120 07:50 25.12.2019
5651 Rain 3 1017 93 6000 1 120 07:32 25.12.2019
5652 Rain 3 1017 93 6000 0.5 0 06:51 25.12.2019
5653 Drizzle 3 1017 93 6000 1 0 06:23 25.12.2019
5654 Rain 2 1017 100 5000 1.5 260 05:18 25.12.2019
5655 Rain 2 1017 93 5000 1 0 04:39 25.12.2019
5656 Rain 2 1017 93 5000 1 70 04:20 25.12.2019
5657 Rain 2 1017 100 6000 1.5 160 03:41 25.12.2019
5658 Rain 3 1017 100 7000 0.5 0 02:53 25.12.2019
5659 Clouds 3 1017 100 10000 1.5 0 02:20 25.12.2019
5660 Rain 2 1017 100 7000 1.5 220 01:25 25.12.2019
5661 Clouds 2 1016 100 6000 1 0 00:53 25.12.2019
5662 Clouds 2 1016 100 6000 1 0 00:30 25.12.2019
5663 Clouds 2 1016 93 6000 1 0 23:57 24.12.2019
5664 Rain 2 1016 93 7000 1 0 23:38 24.12.2019
5665 Rain 2 1016 93 6000 1.5 110 23:20 24.12.2019
5666 Rain 2 1016 100 10000 1 0 22:41 24.12.2019
5667 Rain 3 1016 100 10000 2.6 150 22:21 24.12.2019
5668 Rain 2 1016 93 9000 1 0 21:44 24.12.2019
5669 Rain 3 1017 93 10000 2.1 180 21:23 24.12.2019
5670 Rain 2 1017 93 10000 2.1 180 20:57 24.12.2019
5671 Rain 2 1016 93 10000 2.6 110 20:39 24.12.2019
5672 Rain 3 1016 100 1900 1 0 20:19 24.12.2019
5673 Rain 3 1016 100 8000 1.5 280 19:44 24.12.2019
5674 Rain 3 1016 99 10000 1 0 19:20 24.12.2019
5675 Rain 2 1016 99 9000 1 0 18:44 24.12.2019
5676 Rain 2 1017 99 8000 0.5 0 18:25 24.12.2019
5677 Rain 2 1017 99 8000 0.5 0 17:59 24.12.2019
5678 Rain 2 1016 99 10000 1.5 280 17:38 24.12.2019
5679 Rain 2 1016 93 8000 3.6 260 17:20 24.12.2019
5680 Snow 2 1016 93 8000 3.6 260 16:55 24.12.2019
5681 Rain 2 1015 93 9000 5.7 270 16:37 24.12.2019
5682 Rain 2 1014 86 10000 5.1 280 16:19 24.12.2019
5683 Rain 3 1014 86 10000 5.1 280 15:55 24.12.2019
5684 Rain 3 1014 80 10000 4.6 260 15:36 24.12.2019
5685 Rain 3 1014 80 10000 5.1 270 15:18 24.12.2019
5686 Rain 3 1014 80 10000 5.1 270 14:55 24.12.2019
5687 Rain 3 1015 80 10000 6.2 250 14:37 24.12.2019
5688 Clouds 3 1015 80 10000 4.1 300 14:19 24.12.2019
5689 Clouds 3 1015 80 10000 4.1 300 13:55 24.12.2019
5690 Clouds 3 1015 86 10000 5.1 260 13:37 24.12.2019
5691 Clouds 3 1015 86 10000 5.1 260 13:37 24.12.2019
5692 Clouds 3 1016 93 10000 2.6 270 13:19 24.12.2019
5693 Clouds 4 1016 93 10000 2.6 270 12:55 24.12.2019
5694 Clouds 3 1016 93 10000 2.6 290 12:36 24.12.2019
5695 Clouds 3 1017 93 10000 3.6 260 12:18 24.12.2019
5696 Clouds 2 1018 100 7000 2.1 240 11:55 24.12.2019
5697 Clouds 3 1018 100 7000 2.1 240 11:36 24.12.2019
5698 Fog 2 1019 100 6000 2.1 290 11:18 24.12.2019
5699 Fog 2 1019 100 6000 2.1 290 10:55 24.12.2019
5700 Fog 1 1019 100 1200 1.5 280 10:36 24.12.2019
5701 Fog 1 1020 100 600 1.5 230 10:18 24.12.2019
5702 Fog 1 1020 100 300 1 0 09:54 24.12.2019
5703 Fog 1 1020 100 300 1 0 09:36 24.12.2019
5704 Fog 1 1020 100 300 1 0 09:18 24.12.2019
5705 Fog 1 1020 100 300 1 0 08:43 24.12.2019
5706 Fog 2 1020 93 800 1 0 08:20 24.12.2019
5707 Mist 1 1020 100 5000 0.5 0 07:45 24.12.2019
5708 Mist 2 1020 100 5000 0.5 0 07:25 24.12.2019
5709 Clouds 2 1020 100 10000 0.5 0 06:57 24.12.2019
5710 Clouds 3 1020 100 10000 0.5 0 06:38 24.12.2019
5711 Clouds 3 1020 100 10000 0.5 0 06:18 24.12.2019
5712 Clouds 2 1020 100 7000 1.06 273 05:20 24.12.2019
5713 Clouds 2 1020 100 9000 0.5 0 04:36 24.12.2019
5714 Clouds 2 1020 100 10000 0.5 0 03:50 24.12.2019
5715 Clouds 3 1020 100 9000 1 0 02:59 24.12.2019
5716 Clouds 3 1019 93 10000 1 0 02:19 24.12.2019
5717 Rain 3 1019 93 10000 1.5 170 01:42 24.12.2019
5718 Clouds 3 1019 93 10000 1.5 130 01:20 24.12.2019
5719 Rain 3 1018 93 10000 1.5 120 00:43 24.12.2019
5720 Rain 3 1018 86 10000 2.6 90 00:23 24.12.2019
5721 Rain 3 1018 86 10000 2.6 90 23:55 23.12.2019
5722 Rain 3 1018 86 10000 2.1 70 23:37 23.12.2019
5723 Rain 3 1018 86 10000 2.1 70 23:37 23.12.2019
5724 Rain 3 1017 86 10000 1.5 0 23:19 23.12.2019
5725 Rain 3 1017 93 10000 2.1 90 22:54 23.12.2019
5726 Rain 2 1017 93 10000 2.1 90 22:36 23.12.2019
5727 Rain 2 1016 93 10000 2.1 60 22:18 23.12.2019
5728 Rain 2 1016 93 10000 2.1 60 22:18 23.12.2019
5729 Rain 2 1016 93 10000 2.1 60 21:54 23.12.2019
5730 Rain 3 1016 93 10000 2.1 100 21:36 23.12.2019
5731 Rain 3 1016 86 10000 1 0 21:18 23.12.2019
5732 Rain 3 1016 86 10000 1 0 21:18 23.12.2019
5733 Rain 3 1016 86 10000 1 0 20:55 23.12.2019
5734 Rain 2 1015 93 10000 1 0 20:37 23.12.2019
5735 Rain 3 1015 93 8000 0.5 0 20:18 23.12.2019
5736 Rain 3 1015 93 8000 0.5 0 20:18 23.12.2019
5737 Rain 3 1015 93 10000 2.1 60 19:54 23.12.2019
5738 Rain 3 1015 93 10000 2.1 60 19:36 23.12.2019
5739 Rain 3 1014 86 10000 2.1 100 19:18 23.12.2019
5740 Rain 3 1014 86 10000 2.1 100 18:54 23.12.2019
5741 Rain 3 1014 86 10000 2.1 60 18:36 23.12.2019
5742 Rain 4 1014 86 10000 1 0 18:18 23.12.2019
5743 Rain 3 1013 93 10000 2.6 70 17:55 23.12.2019
5744 Rain 3 1013 93 10000 2.6 70 17:37 23.12.2019
5745 Rain 3 1013 93 10000 2.6 70 17:37 23.12.2019
5746 Rain 3 1013 93 10000 2.6 70 17:18 23.12.2019
5747 Rain 3 1012 86 10000 1.5 80 16:42 23.12.2019
5748 Rain 4 1011 93 10000 1 0 16:19 23.12.2019
5749 Rain 4 1011 93 10000 1 0 16:19 23.12.2019
5750 Rain 4 1011 93 10000 1 0 15:58 23.12.2019
5751 Rain 4 1011 93 10000 2.6 50 15:38 23.12.2019
5752 Rain 4 1010 86 10000 2.1 40 15:19 23.12.2019
5753 Rain 4 1010 86 10000 2.1 40 14:57 23.12.2019
5754 Rain 3 1010 93 10000 2.6 60 14:39 23.12.2019
5755 Rain 3 1010 93 10000 3.1 90 14:20 23.12.2019
5756 Rain 3 1010 93 10000 3.1 90 13:57 23.12.2019
5757 Drizzle 4 1009 86 10000 3.1 70 13:39 23.12.2019
5758 Clouds 3 1009 86 10000 3.1 70 13:21 23.12.2019
5759 Clouds 3 1009 86 10000 3.1 70 12:55 23.12.2019
5760 Rain 4 1009 86 10000 2.6 70 12:37 23.12.2019
5761 Rain 3 1009 93 10000 1 0 12:18 23.12.2019
5762 Rain 3 1008 93 8000 2.1 10 11:43 23.12.2019
5763 Rain 3 1008 93 8000 2.1 10 11:25 23.12.2019
5764 Rain 3 1008 86 10000 0.5 0 10:56 23.12.2019
5765 Rain 3 1008 86 10000 1 0 10:38 23.12.2019
5766 Rain 3 1007 93 10000 1.5 130 10:20 23.12.2019
5767 Rain 3 1007 93 10000 1.5 130 09:58 23.12.2019
5768 Drizzle 3 1007 93 10000 2.6 110 09:39 23.12.2019
5769 Drizzle 3 1007 93 10000 3.1 80 09:20 23.12.2019
5770 Drizzle 3 1007 93 10000 3.1 80 08:55 23.12.2019
5771 Drizzle 3 1006 93 10000 2.6 70 08:37 23.12.2019
5772 Drizzle 3 1006 93 9000 2.6 90 08:18 23.12.2019
5773 Rain 3 1005 93 9000 2.6 90 07:43 23.12.2019
5774 Drizzle 3 1004 86 8000 1.5 110 07:19 23.12.2019
5775 Rain 3 1004 86 8000 1 0 06:45 23.12.2019
5776 Rain 3 1003 86 8000 1.5 0 06:23 23.12.2019
5777 Rain 3 1003 86 10000 1 0 05:47 23.12.2019
5778 Rain 3 1002 86 10000 1.5 300 05:19 23.12.2019
5779 Rain 3 1002 86 10000 3.1 0 04:19 23.12.2019
5780 Rain 3 1000 93 10000 0.5 0 02:49 23.12.2019
5781 Rain 3 1000 93 10000 0.5 0 02:23 23.12.2019
5782 Clouds 3 1000 93 10000 1 0 01:53 23.12.2019
5783 Rain 3 1000 100 7000 1.5 270 01:32 23.12.2019
5784 Clouds 3 999 93 7000 0.5 0 00:55 23.12.2019
5785 Clouds 4 999 93 8000 1 0 00:35 23.12.2019
5786 Clouds 3 999 93 7000 0.5 0 23:57 22.12.2019
5787 Clouds 3 999 93 7000 0.5 0 23:57 22.12.2019
5788 Mist 4 998 100 5000 0.5 0 23:39 22.12.2019
5789 Clouds 4 998 93 9000 0.5 0 23:20 22.12.2019
5790 Clouds 3 998 93 9000 0.5 0 22:57 22.12.2019
5791 Clouds 4 997 93 9000 1 80 22:38 22.12.2019
5792 Clouds 4 997 100 10000 1 0 22:19 22.12.2019
5793 Clouds 4 997 100 10000 1 0 21:56 22.12.2019
5794 Clouds 4 997 100 10000 1 0 21:56 22.12.2019
5795 Rain 3 997 93 10000 0.5 0 21:38 22.12.2019
5796 Rain 3 997 93 10000 0.5 0 21:38 22.12.2019
5797 Rain 4 996 93 10000 1 0 21:20 22.12.2019
5798 Rain 4 996 86 10000 1 0 20:55 22.12.2019
5799 Rain 4 996 86 10000 1 0 20:37 22.12.2019
5800 Rain 4 996 86 10000 1 0 20:37 22.12.2019
5801 Clouds 4 996 86 10000 0.5 0 20:18 22.12.2019
5802 Clouds 4 995 93 10000 2.1 80 19:41 22.12.2019
5803 Clouds 4 995 93 10000 3.1 70 19:21 22.12.2019
5804 Clouds 4 995 93 10000 3.1 70 18:58 22.12.2019
5805 Rain 4 995 93 10000 0.5 0 18:38 22.12.2019
5806 Rain 3 994 93 10000 0.5 0 18:19 22.12.2019
5807 Rain 4 994 93 10000 0.5 0 17:55 22.12.2019
5808 Rain 4 994 93 10000 0.5 0 17:37 22.12.2019
5809 Rain 4 993 93 10000 1 0 17:18 22.12.2019
5810 Rain 3 993 93 10000 1 0 16:56 22.12.2019
5811 Rain 4 993 93 10000 1 0 16:37 22.12.2019
5812 Rain 4 993 86 10000 0.5 0 16:19 22.12.2019
5813 Rain 4 992 86 10000 0.5 0 15:54 22.12.2019
5814 Rain 4 992 86 10000 0.5 0 15:36 22.12.2019
5815 Clouds 4 992 81 10000 0.5 0 15:18 22.12.2019
5816 Clouds 4 992 86 10000 1.5 290 14:39 22.12.2019
5817 Clouds 4 991 86 10000 1 0 14:19 22.12.2019
5818 Clouds 4 991 86 10000 1 0 13:56 22.12.2019
5819 Clouds 4 992 86 10000 0.5 0 13:38 22.12.2019
5820 Clouds 3 991 86 10000 1 0 13:20 22.12.2019
5821 Clouds 4 991 86 10000 1 0 12:57 22.12.2019
5822 Clouds 3 992 86 10000 1.5 280 12:39 22.12.2019
5823 Clouds 3 992 86 10000 1 0 12:20 22.12.2019
5824 Clouds 3 992 86 10000 1 0 11:59 22.12.2019
5825 Clouds 2 992 93 10000 1 0 11:39 22.12.2019
5826 Clouds 2 993 93 10000 1 0 11:20 22.12.2019
5827 Clouds 2 993 93 10000 1 0 10:58 22.12.2019
5828 Drizzle 2 993 93 10000 1.5 50 10:40 22.12.2019
5829 Drizzle 2 993 93 10000 1.5 50 10:40 22.12.2019
5830 Rain 2 993 93 10000 1.5 100 10:20 22.12.2019
5831 Rain 2 993 93 10000 1.5 100 09:58 22.12.2019
5832 Rain 2 992 93 10000 0.5 0 09:39 22.12.2019
5833 Rain 1 992 93 10000 2.1 310 09:21 22.12.2019
5834 Rain 1 991 93 10000 3.1 260 08:45 22.12.2019
5835 Rain 1 991 93 10000 3.1 260 08:45 22.12.2019
5836 Rain 1 991 93 10000 2.6 270 08:23 22.12.2019
5837 Rain 1 991 93 10000 3.1 280 07:50 22.12.2019
5838 Drizzle 1 990 93 10000 3.6 270 07:22 22.12.2019
5839 Drizzle 1 990 93 10000 3.6 270 06:57 22.12.2019
5840 Drizzle 1 991 93 8000 1.5 270 06:30 22.12.2019
5841 Clouds 1 990 93 10000 1 0 05:43 22.12.2019
5842 Clouds 1 990 93 10000 1.5 320 05:21 22.12.2019
5843 Clouds 1 990 93 10000 1 0 04:27 22.12.2019
5844 Clouds 1 991 93 10000 1 0 03:28 22.12.2019
5845 Clouds 1 991 100 8000 1.5 110 02:35 22.12.2019
5846 Mist 0 992 100 1500 1 0 01:33 22.12.2019
5847 Fog 0 992 100 650 1 0 00:59 22.12.2019
5848 Mist 0 992 100 1500 1 0 00:41 22.12.2019
5849 Mist 0 993 93 1200 1 0 00:21 22.12.2019
5850 Mist 0 993 100 1400 1.5 220 23:42 21.12.2019
5851 Mist 0 993 100 1400 1.5 220 23:24 21.12.2019
5852 Mist 0 993 100 2000 1 0 22:58 21.12.2019
5853 Mist 0 993 100 1500 2.1 300 22:39 21.12.2019
5854 Fog 1 993 93 5000 1 0 22:19 21.12.2019
5855 Fog 1 993 93 5000 1 0 21:56 21.12.2019
5856 Fog 1 994 93 8000 1.5 260 21:37 21.12.2019
5857 Clouds 1 994 93 6000 1 0 21:19 21.12.2019
5858 Clouds 1 994 93 6000 1 0 20:57 21.12.2019
5859 Clouds 1 994 93 6000 1 0 20:57 21.12.2019
5860 Clouds 1 995 93 10000 1 40 20:37 21.12.2019
5861 Clouds 1 995 93 10000 1 40 20:37 21.12.2019
5862 Clouds 1 995 93 10000 1 220 20:19 21.12.2019
5863 Clouds 1 995 93 10000 1 220 19:56 21.12.2019
5864 Clouds 2 995 93 10000 1 0 19:36 21.12.2019
5865 Clouds 2 995 93 10000 1 0 19:18 21.12.2019
5866 Clouds 2 995 93 10000 1.5 160 18:42 21.12.2019
5867 Clouds 2 995 93 10000 1.5 160 18:42 21.12.2019
5868 Rain 2 995 86 10000 0.5 0 18:23 21.12.2019
5869 Rain 2 995 86 10000 0.5 0 17:57 21.12.2019
5870 Rain 2 995 93 10000 0.5 0 17:39 21.12.2019
5871 Clouds 2 996 93 10000 2.1 70 17:20 21.12.2019
5872 Rain 3 996 93 10000 2.1 70 16:57 21.12.2019
5873 Rain 3 996 93 10000 2.1 70 16:39 21.12.2019
5874 Rain 2 996 93 10000 1 0 16:18 21.12.2019
5875 Rain 2 996 93 10000 1 0 15:56 21.12.2019
5876 Rain 2 996 93 10000 2.1 100 15:37 21.12.2019
5877 Rain 2 996 93 10000 2.6 70 15:18 21.12.2019
5878 Rain 2 996 93 10000 3.6 70 14:43 21.12.2019
5879 Rain 2 996 93 10000 3.6 70 14:24 21.12.2019
5880 Rain 3 996 93 10000 3.1 70 13:59 21.12.2019
5881 Rain 3 996 93 10000 2.6 60 13:40 21.12.2019
5882 Rain 3 995 86 10000 1 0 13:20 21.12.2019
5883 Rain 3 995 86 10000 1 0 13:20 21.12.2019
5884 Rain 3 995 86 10000 1 0 12:57 21.12.2019
5885 Rain 3 995 86 10000 1 0 12:39 21.12.2019
5886 Rain 3 996 93 10000 2.1 310 12:21 21.12.2019
5887 Rain 3 996 93 10000 2.1 310 11:57 21.12.2019
5888 Rain 2 996 93 10000 1.5 280 11:39 21.12.2019
5889 Rain 3 996 87 10000 1.5 290 11:21 21.12.2019
5890 Rain 3 995 93 10000 2.1 290 10:41 21.12.2019
5891 Rain 3 995 87 10000 3.6 260 10:23 21.12.2019
5892 Rain 3 995 87 10000 3.6 260 10:23 21.12.2019
5893 Rain 3 995 87 10000 3.6 260 09:58 21.12.2019
5894 Rain 4 995 87 10000 1.5 290 09:40 21.12.2019
5895 Rain 4 995 75 10000 2.1 140 09:20 21.12.2019
5896 Rain 4 996 75 10000 1 0 08:53 21.12.2019
5897 Clouds 3 996 75 10000 1 0 08:27 21.12.2019
5898 Clouds 3 996 75 10000 1.5 280 07:59 21.12.2019
5899 Clouds 3 996 75 10000 1.5 70 07:41 21.12.2019
5900 Clouds 3 995 75 10000 1.5 120 07:21 21.12.2019
5901 Clouds 3 996 75 10000 3.1 40 06:42 21.12.2019
5902 Clouds 3 996 75 10000 3.1 70 06:24 21.12.2019
5903 Clouds 3 996 70 10000 2.6 80 05:43 21.12.2019
5904 Clouds 5 998 70 10000 4.1 70 04:55 21.12.2019
5905 Clouds 3 998 66 10000 4.1 50 03:56 21.12.2019
5906 Clouds 3 997 70 10000 3.1 260 02:39 21.12.2019
5907 Clouds 6 997 66 10000 3.6 280 01:53 21.12.2019
5908 Clouds 6 997 66 10000 1.5 220 01:26 21.12.2019
5909 Clouds 5 996 50 10000 4.6 60 00:49 21.12.2019
5910 Clouds 5 996 50 10000 4.6 60 00:28 21.12.2019
5911 Clouds 6 994 47 10000 6.7 30 23:41 20.12.2019
5912 Clouds 6 994 47 10000 6.7 30 23:41 20.12.2019
5913 Clouds 8 994 47 10000 8.2 10 23:22 20.12.2019
5914 Clouds 10 994 47 10000 8.2 10 22:59 20.12.2019
5915 Rain 9 995 50 10000 7.2 50 22:40 20.12.2019
5916 Rain 9 994 50 10000 7.7 110 22:20 20.12.2019
5917 Rain 9 994 50 10000 7.7 110 21:56 20.12.2019
5918 Clouds 8 994 47 10000 7.2 100 21:38 20.12.2019
5919 Clouds 6 995 43 10000 4.1 80 21:18 20.12.2019
5920 Clouds 9 994 47 10000 8.2 110 20:39 20.12.2019
5921 Clouds 10 994 47 10000 7.7 120 20:19 20.12.2019
5922 Clouds 11 994 47 10000 7.7 120 19:57 20.12.2019
5923 Clouds 11 994 47 10000 9.3 110 19:39 20.12.2019
5924 Clouds 9 995 47 10000 9.3 120 19:19 20.12.2019
5925 Clouds 8 994 47 10000 9.8 130 18:42 20.12.2019
5926 Clouds 8 994 47 10000 9.8 130 18:42 20.12.2019
5927 Clouds 8 994 47 10000 9.8 130 18:23 20.12.2019
5928 Clouds 8 994 47 10000 10.3 130 17:58 20.12.2019
5929 Clouds 8 996 47 10000 9.8 130 17:40 20.12.2019
5930 Clouds 12 996 47 10000 9.8 130 17:20 20.12.2019
5931 Clouds 12 996 50 10000 10.3 130 16:59 20.12.2019
5932 Clouds 9 997 50 10000 6.2 0 16:38 20.12.2019
5933 Clouds 10 997 50 10000 6.2 0 16:20 20.12.2019
5934 Clouds 10 997 50 10000 6.2 0 16:20 20.12.2019
5935 Clouds 9 998 47 10000 8.7 130 15:56 20.12.2019
5936 Clouds 8 998 47 10000 9.3 130 15:38 20.12.2019
5937 Clouds 9 998 47 10000 9.3 130 15:19 20.12.2019
5938 Clouds 7 998 47 10000 9.3 120 14:43 20.12.2019
5939 Clouds 13 998 47 10000 9.3 120 14:24 20.12.2019
5940 Clouds 13 999 50 10000 8.7 110 13:59 20.12.2019
5941 Clouds 13 999 50 10000 8.7 110 13:59 20.12.2019
5942 Clouds 13 1000 47 10000 4.6 0 13:40 20.12.2019
5943 Clouds 12 1000 47 10000 4.6 0 13:19 20.12.2019
5944 Clouds 14 1000 44 10000 7.2 340 12:57 20.12.2019
5945 Clouds 14 1001 47 10000 6.7 40 12:37 20.12.2019
5946 Clouds 14 1001 47 10000 6.7 40 12:18 20.12.2019
5947 Clouds 14 1001 44 10000 7.7 40 11:57 20.12.2019
5948 Clouds 14 1001 44 10000 7.7 40 11:39 20.12.2019
5949 Clouds 13 1001 50 10000 5.1 0 11:18 20.12.2019
5950 Clouds 13 1001 47 10000 6.2 10 10:56 20.12.2019
5951 Clouds 13 1002 47 10000 3.1 0 10:38 20.12.2019
5952 Clouds 13 1002 47 10000 3.1 0 10:20 20.12.2019
5953 Clouds 13 1002 47 10000 3.1 0 10:20 20.12.2019
5954 Clouds 5 1003 80 10000 4.1 0 09:43 20.12.2019
5955 Clouds 4 1003 80 10000 4.1 0 09:22 20.12.2019
5956 Clouds 6 1003 80 10000 4.6 260 08:58 20.12.2019
5957 Clouds 6 1004 80 10000 6.2 260 08:40 20.12.2019
5958 Clouds 2 1004 84 10000 6.2 260 08:21 20.12.2019
5959 Clouds 2 1004 84 10000 6.2 260 07:57 20.12.2019
5960 Clouds 2 1004 84 10000 4.6 260 07:38 20.12.2019
5961 Clouds 3 1004 84 10000 4.6 260 07:18 20.12.2019
5962 Clouds 3 1004 84 10000 6.2 250 06:48 20.12.2019
5963 Clouds 3 1004 80 10000 4.6 240 06:29 20.12.2019
5964 Clouds 3 1005 84 10000 4.1 270 05:49 20.12.2019
5965 Clouds 3 1006 86 10000 3.1 0 05:20 20.12.2019
5966 Clouds 4 1008 86 10000 3.6 0 03:50 20.12.2019
5967 Clouds 3 1008 86 10000 3.1 260 03:21 20.12.2019
5968 Clouds 4 1009 86 10000 5.7 270 02:30 20.12.2019
5969 Clouds 4 1009 86 10000 1.5 0 01:36 20.12.2019
5970 Clouds 4 1009 80 10000 3.1 290 00:58 20.12.2019
5971 Clouds 4 1010 80 10000 4.1 200 00:39 20.12.2019
5972 Clouds 5 1010 80 10000 6.2 260 23:58 19.12.2019
5973 Clouds 2 1010 80 10000 6.2 260 23:40 19.12.2019
5974 Clouds 6 1011 80 10000 4.1 0 23:21 19.12.2019
5975 Clouds 5 1011 80 10000 2.6 290 22:40 19.12.2019
5976 Clouds 5 1011 80 10000 2.6 290 22:40 19.12.2019
5977 Clouds 5 1012 80 10000 3.1 260 22:22 19.12.2019
5978 Clouds 6 1013 80 10000 7.2 270 21:59 19.12.2019
5979 Clouds 6 1013 80 10000 7.2 270 21:41 19.12.2019
5980 Clouds 3 1013 70 10000 2.6 0 21:20 19.12.2019
5981 Clouds 6 1013 75 10000 4.1 270 20:58 19.12.2019
5982 Clouds 7 1013 65 10000 5.1 250 20:38 19.12.2019
5983 Clouds 7 1013 65 10000 5.1 250 20:20 19.12.2019
5984 Clouds 8 1013 57 10000 3.1 0 19:58 19.12.2019
5985 Clouds 6 1013 61 10000 3.1 260 19:40 19.12.2019
5986 Clouds 6 1013 61 10000 3.1 260 19:40 19.12.2019
5987 Clouds 7 1013 61 10000 3.1 260 19:20 19.12.2019
5988 Clouds 7 1013 61 10000 3.1 260 19:20 19.12.2019
5989 Clouds 7 1013 57 10000 4.1 0 18:59 19.12.2019
5990 Clouds 6 1013 57 10000 4.1 0 18:40 19.12.2019
5991 Clouds 6 1014 50 10000 3.6 0 18:20 19.12.2019
5992 Clouds 7 1014 47 10000 5.7 110 17:56 19.12.2019
5993 Clouds 7 1014 47 10000 2.6 0 17:38 19.12.2019
5994 Clouds 6 1014 47 10000 2.6 0 17:18 19.12.2019
5995 Clouds 7 1014 47 10000 4.6 160 16:56 19.12.2019
5996 Clouds 7 1014 47 10000 4.6 160 16:56 19.12.2019
5997 Clouds 7 1014 47 10000 5.1 150 16:38 19.12.2019
5998 Clouds 7 1014 47 10000 5.1 150 16:38 19.12.2019
5999 Clouds 6 1014 47 10000 5.1 150 16:19 19.12.2019
6000 Clouds 6 1014 47 10000 5.1 150 16:19 19.12.2019
6001 Clouds 7 1014 47 10000 7.2 140 15:58 19.12.2019
6002 Clouds 7 1014 47 10000 7.2 140 15:38 19.12.2019
6003 Clouds 6 1014 47 10000 7.2 140 15:19 19.12.2019
6004 Clouds 7 1014 44 10000 8.7 130 14:57 19.12.2019
6005 Clouds 8 1014 41 10000 7.7 140 14:38 19.12.2019
6006 Clouds 15 1014 41 10000 7.7 140 14:18 19.12.2019
6007 Clouds 15 1015 41 10000 4.1 90 13:39 19.12.2019
6008 Clouds 12 1016 54 10000 1.5 0 13:20 19.12.2019
6009 Clouds 12 1016 54 10000 1.5 0 13:20 19.12.2019
6010 Clouds 10 1017 61 10000 2.1 230 12:58 19.12.2019
6011 Clouds 11 1018 54 10000 3.1 0 12:40 19.12.2019
6012 Clouds 10 1018 54 10000 3.1 0 12:19 19.12.2019
6013 Clouds 10 1018 66 10000 4.6 260 11:59 19.12.2019
6014 Clouds 9 1018 66 10000 4.6 260 11:41 19.12.2019
6015 Clouds 6 1019 70 10000 4.6 270 11:18 19.12.2019
6016 Clouds 6 1019 75 10000 4.6 270 10:59 19.12.2019
6017 Clouds 5 1019 81 10000 5.7 280 10:38 19.12.2019
6018 Clouds 5 1019 81 10000 5.7 280 10:20 19.12.2019
6019 Clouds 4 1020 86 10000 6.2 260 09:56 19.12.2019
6020 Clouds 5 1019 86 10000 4.1 280 09:37 19.12.2019
6021 Clouds 5 1019 86 10000 4.1 280 09:19 19.12.2019
6022 Clouds 4 1019 86 10000 2.6 270 08:55 19.12.2019
6023 Clouds 4 1019 86 10000 2.6 280 08:37 19.12.2019
6024 Clouds 4 1019 86 10000 2.6 280 08:18 19.12.2019
6025 Clouds 4 1019 80 10000 4.6 270 07:43 19.12.2019
6026 Clouds 4 1019 80 10000 4.6 270 07:24 19.12.2019
6027 Clouds 4 1019 86 10000 3.6 260 06:59 19.12.2019
6028 Clouds 4 1019 86 10000 5.1 290 06:41 19.12.2019
6029 Clouds 4 1019 86 10000 5.1 290 06:21 19.12.2019
6030 Clouds 3 1019 86 10000 5.1 270 05:42 19.12.2019
6031 Clouds 3 1019 86 10000 5.1 270 05:19 19.12.2019
6032 Clouds 4 1020 86 10000 2.6 250 03:53 19.12.2019
6033 Clouds 2 1021 86 10000 5.1 270 02:29 19.12.2019
6034 Clouds 2 1021 93 10000 3.6 270 01:26 19.12.2019
6035 Clouds 2 1021 86 10000 3.1 250 00:58 19.12.2019
6036 Clouds 3 1022 86 10000 3.6 260 00:39 19.12.2019
6037 Clouds 3 1022 86 10000 3.6 260 00:19 19.12.2019
6038 Clouds 3 1022 86 10000 4.1 300 23:45 18.12.2019
6039 Clouds 3 1022 86 10000 3.6 270 23:19 18.12.2019
6040 Clouds 3 1022 86 10000 3.6 250 22:58 18.12.2019
6041 Clouds 3 1022 86 10000 4.6 250 22:40 18.12.2019
6042 Clouds 3 1022 86 10000 4.6 250 22:40 18.12.2019
6043 Clouds 3 1022 86 10000 4.6 250 22:21 18.12.2019
6044 Clouds 3 1022 86 10000 4.1 260 21:59 18.12.2019
6045 Clouds 3 1022 86 10000 4.1 260 21:40 18.12.2019
6046 Clouds 3 1022 81 10000 3.1 240 21:20 18.12.2019
6047 Clouds 4 1021 81 10000 6.2 270 20:57 18.12.2019
6048 Clouds 4 1021 81 10000 4.1 270 20:38 18.12.2019
6049 Clouds 4 1021 81 10000 4.1 270 20:20 18.12.2019
6050 Clouds 5 1021 81 10000 3.6 250 19:57 18.12.2019
6051 Clouds 4 1021 81 10000 5.1 260 19:39 18.12.2019
6052 Clouds 4 1021 81 10000 5.1 260 19:19 18.12.2019
6053 Clouds 5 1021 75 10000 4.6 270 18:55 18.12.2019
6054 Clouds 5 1021 75 10000 4.6 260 18:37 18.12.2019
6055 Clouds 5 1021 75 10000 4.6 260 18:18 18.12.2019
6056 Clouds 5 1020 70 10000 4.1 260 17:55 18.12.2019
6057 Clouds 6 1020 62 10000 3.1 250 17:37 18.12.2019
6058 Clouds 9 1020 62 10000 3.1 250 17:18 18.12.2019
6059 Clouds 6 1020 62 10000 2.6 0 16:42 18.12.2019
6060 Clouds 7 1019 50 10000 2.1 0 16:23 18.12.2019
6061 Clouds 7 1019 50 10000 2.1 0 15:57 18.12.2019
6062 Clouds 7 1019 47 10000 3.1 0 15:39 18.12.2019
6063 Clouds 7 1019 47 10000 2.6 0 15:21 18.12.2019
6064 Clouds 6 1019 47 10000 2.6 0 14:56 18.12.2019
6065 Clouds 7 1019 51 10000 2.1 0 14:38 18.12.2019
6066 Clouds 12 1019 51 10000 5.1 350 14:19 18.12.2019
6067 Clouds 12 1019 58 10000 4.1 270 13:55 18.12.2019
6068 Clouds 12 1019 58 10000 4.1 270 13:36 18.12.2019
6069 Clouds 12 1019 62 10000 5.1 270 13:18 18.12.2019
6070 Clouds 12 1019 62 10000 5.1 270 13:18 18.12.2019
6071 Clouds 12 1019 62 10000 5.1 270 13:18 18.12.2019
6072 Clouds 13 1017 59 0 0.89 12 12:40 18.12.2019
6073 Clouds 12 1020 62 10000 4.6 270 12:21 18.12.2019
6074 Clouds 12 1020 62 10000 4.6 270 11:57 18.12.2019
6075 Clouds 11 1020 66 10000 5.1 270 11:39 18.12.2019
6076 Clouds 5 1020 66 10000 6.7 260 11:20 18.12.2019
6077 Clouds 4 1020 66 10000 6.7 260 10:58 18.12.2019
6078 Clouds 7 1020 75 10000 6.2 260 10:39 18.12.2019
6079 Clouds 5 1020 75 10000 1.5 0 10:20 18.12.2019
6080 Clouds 7 1020 75 10000 1.5 0 09:58 18.12.2019
6081 Clouds 4 1020 81 10000 3.6 280 09:20 18.12.2019
6082 Clouds 5 1019 81 10000 4.1 270 08:43 18.12.2019
6083 Clouds 5 1019 81 10000 4.1 270 08:25 18.12.2019
6084 Clouds 5 1019 81 10000 2.1 270 07:57 18.12.2019
6085 Clouds 3 1019 86 10000 2.1 280 07:39 18.12.2019
6086 Clouds 5 1019 81 10000 1.5 260 07:20 18.12.2019
6087 Clouds 3 1018 81 10000 3.1 280 06:52 18.12.2019
6088 Clouds 3 1018 81 10000 1.5 0 06:25 18.12.2019
6089 Clouds 3 1018 81 10000 2.6 280 05:37 18.12.2019
6090 Clouds 6 1017 81 10000 4.6 290 04:33 18.12.2019
6091 Clouds 5 1016 70 10000 5.7 270 02:48 18.12.2019
6092 Clouds 5 1016 70 10000 5.7 270 02:29 18.12.2019
6093 Clouds 5 1016 75 10000 2.6 0 01:46 18.12.2019
6094 Clouds 5 1016 75 10000 2.6 0 01:27 18.12.2019
6095 Clouds 5 1015 75 10000 5.7 280 00:55 18.12.2019
6096 Clouds 5 1015 75 10000 3.1 240 00:37 18.12.2019
6097 Clouds 5 1015 75 10000 3.6 260 00:19 18.12.2019
6098 Clouds 5 1015 75 10000 3.6 250 23:43 17.12.2019
6099 Clouds 5 1014 61 10000 3.1 0 23:24 17.12.2019
6100 Clouds 4 1014 61 10000 3.1 0 22:57 17.12.2019
6101 Clouds 4 1014 66 10000 3.6 0 22:39 17.12.2019
6102 Clouds 5 1014 61 10000 2.6 0 22:20 17.12.2019
6103 Clouds 4 1014 61 10000 2.6 0 21:57 17.12.2019
6104 Clouds 6 1014 54 10000 6.7 110 21:39 17.12.2019
6105 Clouds 6 1013 50 10000 4.6 0 21:20 17.12.2019
6106 Clouds 6 1013 50 10000 4.6 0 20:59 17.12.2019
6107 Clouds 6 1014 50 10000 5.1 0 20:40 17.12.2019
6108 Clouds 8 1013 50 10000 4.6 0 20:19 17.12.2019
6109 Clouds 9 1013 50 10000 4.6 0 19:59 17.12.2019
6110 Clouds 9 1013 50 10000 6.2 110 19:41 17.12.2019
6111 Clouds 9 1013 50 10000 6.7 70 19:20 17.12.2019
6112 Clouds 9 1013 50 10000 6.7 70 18:57 17.12.2019
6113 Clouds 6 1013 50 10000 5.7 70 18:39 17.12.2019
6114 Clouds 6 1013 50 10000 5.7 60 18:20 17.12.2019
6115 Clouds 7 1013 50 10000 6.2 50 17:55 17.12.2019
6116 Clouds 6 1013 50 10000 6.2 50 17:37 17.12.2019
6117 Clouds 6 1013 54 10000 6.2 60 17:18 17.12.2019
6118 Clouds 7 1013 50 10000 6.2 0 16:55 17.12.2019
6119 Clouds 6 1013 50 10000 6.2 0 16:37 17.12.2019
6120 Clouds 6 1012 50 10000 6.2 0 16:18 17.12.2019
6121 Clouds 6 1013 50 10000 7.2 0 15:38 17.12.2019
6122 Clouds 6 1013 50 10000 6.7 0 15:20 17.12.2019
6123 Clouds 7 1013 50 10000 6.7 110 14:57 17.12.2019
6124 Clouds 6 1013 50 10000 6.7 110 14:39 17.12.2019
6125 Clouds 14 1013 50 10000 7.2 0 14:19 17.12.2019
6126 Clouds 14 1013 50 10000 7.2 0 13:59 17.12.2019
6127 Clouds 14 1013 50 10000 8.2 130 13:41 17.12.2019
6128 Clouds 14 1013 50 10000 8.2 130 13:19 17.12.2019
6129 Clouds 14 1013 50 10000 8.2 130 12:59 17.12.2019
6130 Clouds 15 1014 47 10000 4.6 130 12:39 17.12.2019
6131 Clouds 14 1014 50 10000 4.1 0 12:18 17.12.2019
6132 Clouds 14 1014 50 10000 4.1 0 11:57 17.12.2019
6133 Clouds 12 1014 50 10000 5.1 70 11:37 17.12.2019
6134 Clouds 14 1014 50 10000 4.1 0 11:18 17.12.2019
6135 Clouds 14 1014 47 10000 4.6 0 10:57 17.12.2019
6136 Clouds 14 1014 47 10000 4.6 0 10:39 17.12.2019
6137 Clouds 14 1014 47 10000 4.6 0 10:39 17.12.2019
6138 Clouds 5 1014 62 10000 4.1 0 10:19 17.12.2019
6139 Clouds 5 1014 62 10000 4.1 0 09:56 17.12.2019
6140 Clouds 3 1015 75 10000 2.6 0 09:38 17.12.2019
6141 Clouds 3 1015 75 10000 2.6 0 09:38 17.12.2019
6142 Clouds 2 1014 75 10000 3.6 260 09:18 17.12.2019
6143 Clouds 2 1014 75 10000 4.1 270 08:54 17.12.2019
6144 Clouds 2 1014 75 10000 4.1 270 08:36 17.12.2019
6145 Clouds 4 1014 66 10000 3.1 0 08:18 17.12.2019
6146 Clouds 4 1014 61 10000 4.1 120 07:42 17.12.2019
6147 Clouds 3 1013 70 10000 3.1 0 07:22 17.12.2019
6148 Clouds 4 1013 57 10000 3.1 240 06:50 17.12.2019
6149 Clouds 6 1013 47 10000 7.2 60 06:32 17.12.2019
6150 Clouds 6 1012 47 10000 5.1 0 05:42 17.12.2019
6151 Clouds 6 1012 47 10000 5.1 0 05:42 17.12.2019
6152 Clouds 7 1013 47 10000 7.2 0 04:58 17.12.2019
6153 Clouds 5 1013 47 10000 7.7 70 03:55 17.12.2019
6154 Clouds 5 1012 50 10000 7.2 40 02:26 17.12.2019
6155 Clouds 3 1012 86 10000 4.1 0 01:22 17.12.2019
6156 Clouds 3 1013 77 10000 3.1 260 00:47 17.12.2019
6157 Clouds 4 1013 77 10000 2.6 0 00:22 17.12.2019
6158 Clouds 4 1013 77 10000 2.6 0 23:58 16.12.2019
6159 Clouds 4 1013 77 10000 5.1 240 23:40 16.12.2019
6160 Clouds 4 1013 77 10000 2.6 0 23:18 16.12.2019
6161 Clouds 4 1014 77 10000 3.6 280 22:54 16.12.2019
6162 Clouds 3 1014 77 10000 3.6 280 22:36 16.12.2019
6163 Clouds 3 1014 77 10000 3.1 0 22:18 16.12.2019
6164 Clouds 3 1014 77 10000 3.1 0 21:54 16.12.2019
6165 Clouds 3 1014 86 10000 3.1 250 21:36 16.12.2019
6166 Clouds 3 1014 77 10000 4.1 260 21:18 16.12.2019
6167 Clouds 3 1014 77 10000 4.1 260 20:55 16.12.2019
6168 Clouds 3 1014 80 10000 5.1 240 20:37 16.12.2019
6169 Clouds 3 1014 78 10000 5.1 260 20:18 16.12.2019
6170 Clouds 4 1014 78 10000 5.1 260 19:54 16.12.2019
6171 Clouds 4 1015 80 10000 5.1 260 19:36 16.12.2019
6172 Clouds 4 1014 80 10000 4.6 270 19:18 16.12.2019
6173 Clouds 5 1014 78 10000 3.6 260 18:42 16.12.2019
6174 Clouds 5 1014 80 10000 4.6 280 18:20 16.12.2019
6175 Clouds 5 1014 80 10000 4.6 280 18:20 16.12.2019
6176 Clouds 5 1014 80 10000 4.6 280 17:59 16.12.2019
6177 Clouds 5 1014 75 10000 4.1 260 17:41 16.12.2019
6178 Clouds 6 1014 70 10000 4.6 250 17:22 16.12.2019
6179 Clouds 6 1014 70 10000 4.6 250 16:58 16.12.2019
6180 Clouds 5 1014 75 10000 3.6 260 16:39 16.12.2019
6181 Clouds 6 1014 70 10000 4.1 0 16:20 16.12.2019
6182 Clouds 5 1014 70 10000 4.1 0 15:59 16.12.2019
6183 Clouds 5 1014 70 10000 4.6 270 15:39 16.12.2019
6184 Clouds 5 1013 65 10000 4.6 270 15:21 16.12.2019
6185 Clouds 5 1013 65 10000 4.6 270 14:58 16.12.2019
6186 Clouds 4 1014 70 10000 5.1 270 14:38 16.12.2019
6187 Clouds 6 1014 70 10000 4.1 280 14:20 16.12.2019
6188 Clouds 6 1014 70 10000 4.1 280 13:58 16.12.2019
6189 Clouds 6 1014 70 10000 4.1 260 13:38 16.12.2019
6190 Clouds 6 1014 65 10000 4.6 260 13:20 16.12.2019
6191 Clouds 6 1014 65 10000 4.6 260 12:58 16.12.2019
6192 Clouds 7 1015 70 10000 5.1 270 12:40 16.12.2019
6193 Clouds 6 1015 75 10000 5.1 250 12:20 16.12.2019
6194 Clouds 6 1015 75 10000 5.1 250 11:59 16.12.2019
6195 Clouds 6 1015 75 10000 5.7 260 11:41 16.12.2019
6196 Clouds 3 1016 77 10000 4.6 260 11:21 16.12.2019
6197 Clouds 2 1016 78 10000 4.6 260 10:58 16.12.2019
6198 Clouds 2 1016 74 10000 5.1 250 10:40 16.12.2019
6199 Clouds 1 1016 80 10000 5.7 270 10:20 16.12.2019
6200 Clouds 1 1016 86 10000 5.1 260 09:46 16.12.2019
6201 Clouds 0 1016 86 10000 5.1 260 09:28 16.12.2019
6202 Clouds 0 1015 80 10000 4.1 270 08:58 16.12.2019
6203 Clouds 0 1015 78 10000 5.1 270 08:38 16.12.2019
6204 Clouds 0 1015 81 10000 4.6 270 08:18 16.12.2019
6205 Clouds 0 1015 80 10000 6.2 280 07:47 16.12.2019
6206 Clouds 0 1015 80 10000 6.2 280 07:29 16.12.2019
6207 Clouds 0 1015 81 10000 6.2 280 06:46 16.12.2019
6208 Clouds 0 1015 81 10000 5.1 270 06:26 16.12.2019
6209 Clouds -1 1015 81 10000 5.1 290 05:52 16.12.2019
6210 Clouds -1 1015 81 10000 5.1 290 05:33 16.12.2019
6211 Clouds 0 1015 82 10000 3.6 280 04:27 16.12.2019
6212 Clouds -1 1016 86 10000 1.5 0 02:36 16.12.2019
6213 Clouds -1 1016 86 10000 1.5 0 01:45 16.12.2019
6214 Clouds -1 1015 86 10000 2.6 260 00:54 16.12.2019
6215 Clouds -1 1015 86 10000 2.6 260 00:36 16.12.2019
6216 Clouds 0 1015 81 10000 1.5 240 00:18 16.12.2019
6217 Clouds 0 1015 81 10000 1.5 30 23:40 15.12.2019
6218 Clear 0 1015 82 10000 2.1 240 23:21 15.12.2019
6219 Clear 0 1015 80 10000 2.6 230 22:56 15.12.2019
6220 Clear 0 1015 80 10000 2.6 230 22:56 15.12.2019
6221 Clear 0 1015 80 10000 2.6 230 22:37 15.12.2019
6222 Clear 0 1015 80 10000 3.6 260 22:18 15.12.2019
6223 Clear 0 1015 80 10000 3.6 260 21:56 15.12.2019
6224 Clear 0 1015 80 10000 5.1 270 21:38 15.12.2019
6225 Clear 0 1014 80 10000 5.7 270 21:19 15.12.2019
6226 Clear 0 1014 80 10000 5.7 270 20:56 15.12.2019
6227 Clear 0 1014 80 10000 5.7 270 20:56 15.12.2019
6228 Clear 0 1014 80 10000 5.7 270 20:37 15.12.2019
6229 Clouds 0 1014 80 10000 4.6 270 20:19 15.12.2019
6230 Clouds 0 1014 80 10000 4.6 270 19:57 15.12.2019
6231 Clouds 1 1013 74 10000 3.6 240 19:39 15.12.2019
6232 Clouds 1 1013 80 10000 4.6 280 19:18 15.12.2019
6233 Clouds 1 1013 80 10000 4.6 280 18:56 15.12.2019
6234 Clouds 1 1013 74 10000 3.1 250 18:38 15.12.2019
6235 Clouds 1 1012 80 10000 3.1 280 18:18 15.12.2019
6236 Clouds 1 1012 74 10000 4.6 270 17:56 15.12.2019
6237 Clouds 1 1012 74 10000 4.6 270 17:37 15.12.2019
6238 Clouds 1 1011 74 10000 4.1 270 17:18 15.12.2019
6239 Clouds 2 1011 69 10000 5.7 260 16:55 15.12.2019
6240 Clouds 2 1011 69 10000 5.7 260 16:55 15.12.2019
6241 Clouds 2 1011 69 10000 5.7 260 16:37 15.12.2019
6242 Clouds 2 1011 69 10000 4.6 260 16:18 15.12.2019
6243 Clouds 3 1011 69 10000 4.6 260 15:54 15.12.2019
6244 Clouds 3 1010 65 10000 5.1 260 15:36 15.12.2019
6245 Clouds 3 1010 65 10000 3.6 270 15:18 15.12.2019
6246 Clouds 4 1010 65 10000 3.6 270 14:54 15.12.2019
6247 Clouds 4 1010 65 10000 4.6 270 14:36 15.12.2019
6248 Clouds 4 1010 55 10000 4.6 280 14:18 15.12.2019
6249 Clouds 4 1010 55 10000 4.6 280 14:18 15.12.2019
6250 Clouds 4 1010 55 10000 4.6 280 13:54 15.12.2019
6251 Clouds 4 1010 65 10000 4.6 260 13:36 15.12.2019
6252 Clouds 4 1010 65 10000 3.6 260 13:18 15.12.2019
6253 Clouds 3 1010 69 10000 5.1 270 12:55 15.12.2019
6254 Clouds 4 1010 69 10000 5.1 270 12:36 15.12.2019
6255 Clouds 3 1010 74 10000 5.1 280 12:18 15.12.2019
6256 Clouds 2 1010 86 10000 3.6 280 11:38 15.12.2019
6257 Clouds 2 1010 86 10000 3.6 280 11:38 15.12.2019
6258 Clouds 0 1011 47 10000 1.5 240 11:19 15.12.2019
6259 Clouds 0 1011 92 10000 1 0 10:56 15.12.2019
6260 Clouds 0 1011 92 10000 1 0 10:38 15.12.2019
6261 Clouds 0 1011 92 10000 1 0 10:19 15.12.2019
6262 Clouds 0 1011 92 10000 1 0 09:58 15.12.2019
6263 Clouds -1 1011 100 10000 1 0 09:37 15.12.2019
6264 Clouds -2 1011 92 10000 1 0 09:19 15.12.2019
6265 Clouds -1 1010 100 10000 1 0 08:54 15.12.2019
6266 Clear -2 1010 100 10000 1 0 08:36 15.12.2019
6267 Clouds -2 1010 100 10000 1 0 08:18 15.12.2019
6268 Clouds -2 1010 92 10000 1.5 260 07:43 15.12.2019
6269 Clouds -2 1010 92 10000 1 0 07:25 15.12.2019
6270 Clouds -1 1009 92 10000 1.5 220 06:26 15.12.2019
6271 Clouds -2 1009 100 8000 1.5 270 05:42 15.12.2019
6272 Clouds -1 1009 92 10000 0.5 0 05:21 15.12.2019
6273 Clear -1 1010 100 10000 1.5 230 04:21 15.12.2019
6274 Clouds -1 1010 92 10000 2.1 220 02:55 15.12.2019
6275 Clouds -1 1010 92 10000 1 0 02:32 15.12.2019
6276 Clouds -1 1009 92 10000 1 0 01:41 15.12.2019
6277 Clouds -1 1009 100 10000 1 0 01:19 15.12.2019
6278 Clouds -1 1009 92 10000 0.5 0 00:49 15.12.2019
6279 Clouds -1 1009 92 10000 0.5 0 00:31 15.12.2019
6280 Clouds 0 1009 92 10000 1.5 290 23:41 14.12.2019
6281 Clouds 0 1009 92 10000 2.1 250 23:22 14.12.2019
6282 Clouds 0 1009 92 10000 2.1 250 22:59 14.12.2019
6283 Clouds 0 1008 92 10000 1 0 22:41 14.12.2019
6284 Clouds 0 1008 92 10000 3.1 270 22:22 14.12.2019
6285 Clouds 0 1008 92 10000 3.1 270 21:58 14.12.2019
6286 Clouds 1 1008 74 10000 2.6 250 21:39 14.12.2019
6287 Clouds 1 1008 86 10000 1 0 21:19 14.12.2019
6288 Clouds 1 1008 86 10000 1 0 20:59 14.12.2019
6289 Clouds 1 1008 86 10000 1.5 0 20:41 14.12.2019
6290 Clouds 1 1007 86 10000 2.1 140 20:20 14.12.2019
6291 Clouds 1 1007 86 10000 2.1 140 19:57 14.12.2019
6292 Clouds 1 1007 86 10000 1.5 150 19:38 14.12.2019
6293 Clouds 1 1006 91 10000 1 0 19:20 14.12.2019
6294 Clouds 2 1006 91 10000 1 0 18:56 14.12.2019
6295 Clouds 2 1006 91 10000 2.6 80 18:38 14.12.2019
6296 Clouds 2 1005 91 10000 3.1 0 18:19 14.12.2019
6297 Clouds 2 1005 91 10000 1.5 80 17:44 14.12.2019
6298 Clouds 3 1004 91 10000 1.5 0 17:24 14.12.2019
6299 Clouds 3 1004 95 10000 1.5 0 16:59 14.12.2019
6300 Clouds 3 1004 86 10000 1.5 0 16:40 14.12.2019
6301 Clouds 3 1003 86 10000 2.1 0 16:19 14.12.2019
6302 Clouds 3 1002 80 10000 2.1 0 15:43 14.12.2019
6303 Clouds 4 1002 70 10000 0.5 0 15:24 14.12.2019
6304 Clouds 4 1002 70 10000 0.5 0 14:59 14.12.2019
6305 Clouds 4 1002 75 10000 0.5 0 14:39 14.12.2019
6306 Clouds 4 1001 80 10000 1.5 220 14:20 14.12.2019
6307 Clouds 3 1000 80 10000 2.6 270 13:57 14.12.2019
6308 Clouds 3 1000 80 10000 2.6 270 13:39 14.12.2019
6309 Clouds 3 1000 80 10000 3.6 270 13:19 14.12.2019
6310 Clouds 3 1000 80 10000 3.6 270 13:19 14.12.2019
6311 Clouds 4 1000 86 10000 4.1 290 12:55 14.12.2019
6312 Clouds 3 1000 86 10000 4.1 290 12:37 14.12.2019
6313 Rain 3 999 95 10000 4.1 290 12:18 14.12.2019
6314 Rain 3 999 95 10000 4.1 250 11:55 14.12.2019
6315 Rain 2 999 95 10000 4.1 250 11:37 14.12.2019
6316 Clouds 2 999 82 10000 4.1 280 11:18 14.12.2019
6317 Clouds 2 998 82 10000 5.7 270 10:55 14.12.2019
6318 Clouds 2 998 89 10000 5.7 270 10:37 14.12.2019
6319 Clouds 2 998 82 10000 6.7 260 10:18 14.12.2019
6320 Rain 1 997 82 10000 7.7 270 09:41 14.12.2019
6321 Clouds 1 997 89 10000 6.7 280 09:21 14.12.2019
6322 Snow 0 997 89 10000 7.2 260 08:45 14.12.2019
6323 Snow 0 996 86 10000 4.6 290 08:21 14.12.2019
6324 Snow 0 996 86 10000 4.6 290 07:58 14.12.2019
6325 Snow 0 996 50 10000 1.5 0 07:38 14.12.2019
6326 Clouds 0 996 50 10000 2.6 250 07:19 14.12.2019
6327 Snow 0 997 50 10000 3.1 290 06:41 14.12.2019
6328 Snow 0 996 92 8000 4.6 250 06:22 14.12.2019
6329 Clouds -1 996 92 10000 1.5 0 05:25 14.12.2019
6330 Mist -2 995 100 2700 1.5 0 02:51 14.12.2019
6331 Mist -1 995 100 1800 0.5 0 02:23 14.12.2019
6332 Mist -1 996 92 1600 1.64 214 01:43 14.12.2019
6333 Clouds 0 996 92 9000 1 0 00:55 14.12.2019
6334 Clouds 0 996 92 10000 0.5 0 00:37 14.12.2019
6335 Clouds 0 995 92 10000 1 0 00:18 14.12.2019
6336 Clouds 0 995 92 10000 0.5 0 23:41 13.12.2019
6337 Clouds 0 994 75 10000 0.5 0 23:19 13.12.2019
6338 Clouds 1 994 75 10000 0.5 0 22:55 13.12.2019
6339 Clouds 1 994 75 10000 0.5 0 22:37 13.12.2019
6340 Clouds 1 993 75 10000 1 0 22:18 13.12.2019
6341 Clouds 1 993 86 10000 1 0 21:42 13.12.2019
6342 Clouds 0 993 75 10000 2.6 50 21:21 13.12.2019
6343 Clouds 0 993 75 10000 2.6 50 20:58 13.12.2019
6344 Clouds 0 992 86 10000 1 0 20:39 13.12.2019
6345 Clouds 0 991 86 10000 1 0 20:19 13.12.2019
6346 Clouds 0 991 86 10000 1 0 19:56 13.12.2019
6347 Clouds 0 991 86 10000 1.5 220 19:38 13.12.2019
6348 Clouds 0 991 86 10000 1.5 220 19:18 13.12.2019
6349 Snow 0 991 86 10000 2.6 290 18:42 13.12.2019
6350 Clouds 0 990 76 10000 1 0 18:20 13.12.2019
6351 Clouds 0 990 76 10000 1 0 18:20 13.12.2019
6352 Clouds 0 989 80 10000 0.5 0 17:59 13.12.2019
6353 Clouds 0 989 80 10000 2.6 310 17:39 13.12.2019
6354 Clouds 0 989 80 10000 2.6 310 17:18 13.12.2019
6355 Clouds 0 988 80 10000 3.1 240 16:56 13.12.2019
6356 Clouds 1 987 74 10000 6.2 250 16:38 13.12.2019
6357 Clouds 1 987 74 10000 6.2 250 16:19 13.12.2019
6358 Clouds 0 986 80 10000 6.7 270 15:42 13.12.2019
6359 Clouds 0 986 80 10000 6.7 270 15:21 13.12.2019
6360 Clouds 0 986 80 10000 5.1 270 14:57 13.12.2019
6361 Clouds 1 986 74 10000 6.2 260 14:37 13.12.2019
6362 Clouds 1 986 74 10000 6.2 260 14:18 13.12.2019
6363 Clouds 0 985 70 10000 5.7 260 13:43 13.12.2019
6364 Clouds 0 985 81 10000 6.2 260 13:24 13.12.2019
6365 Clouds 0 985 81 10000 5.1 280 12:55 13.12.2019
6366 Clouds 0 985 86 10000 7.2 270 12:37 13.12.2019
6367 Clouds 0 985 86 10000 7.2 270 12:18 13.12.2019
6368 Clouds 0 984 80 10000 7.2 270 11:43 13.12.2019
6369 Clouds -1 985 80 10000 7.2 270 11:24 13.12.2019
6370 Clouds -1 984 80 10000 4.1 270 10:56 13.12.2019
6371 Clouds -2 985 86 10000 5.7 270 10:38 13.12.2019
6372 Clouds -2 985 86 10000 5.7 270 10:19 13.12.2019
6373 Clouds -2 986 86 10000 5.1 270 09:42 13.12.2019
6374 Clouds -2 986 79 10000 4.6 280 09:21 13.12.2019
6375 Clouds -2 987 86 10000 4.6 270 08:45 13.12.2019
6376 Clouds -2 986 86 10000 5.1 270 08:45 13.12.2019
6377 Clouds -2 986 86 10000 5.1 270 08:26 13.12.2019
6378 Clouds -3 987 86 10000 4.1 260 07:50 13.12.2019
6379 Clouds -3 988 79 10000 4.6 260 07:26 13.12.2019
6380 Clouds -3 989 79 10000 4.1 270 06:57 13.12.2019
6381 Clouds -3 990 79 10000 6.7 280 06:31 13.12.2019
6382 Clouds -3 990 86 10000 6.7 270 05:51 13.12.2019
6383 Clouds -3 990 86 10000 5.7 270 05:31 13.12.2019
6384 Clouds -3 991 79 10000 5.1 270 04:53 13.12.2019
6385 Clouds -3 992 86 10000 6.2 270 03:50 13.12.2019
6386 Clouds -3 994 92 10000 2.1 300 02:35 13.12.2019
6387 Clouds -4 995 92 10000 1 0 01:51 13.12.2019
6388 Clouds -3 995 92 10000 1 0 01:25 13.12.2019
6389 Clouds -3 996 92 10000 1.5 220 00:46 13.12.2019
6390 Clouds -3 997 100 8000 2.1 270 00:24 13.12.2019
6391 Clouds -4 998 92 8000 1 0 23:42 12.12.2019
6392 Clouds -3 998 100 9000 0.5 0 23:24 12.12.2019
6393 Clouds -2 999 100 6000 1 180 22:56 12.12.2019
6394 Mist -2 999 94 5000 2.1 270 22:38 12.12.2019
6395 Mist -2 999 94 5000 2.1 270 22:38 12.12.2019
6396 Mist -2 999 94 5000 2.1 270 22:19 12.12.2019
6397 Clouds -2 1000 94 6000 1.5 280 21:55 12.12.2019
6398 Clouds -2 1000 94 6000 1.5 260 21:37 12.12.2019
6399 Clouds -3 1000 94 6000 1.5 260 21:19 12.12.2019
6400 Mist -2 1001 94 5000 1.5 250 20:58 12.12.2019
6401 Clouds -2 1002 94 6000 1 270 20:39 12.12.2019
6402 Clouds -1 1002 96 6000 1 270 20:21 12.12.2019
6403 Clouds -1 1002 96 6000 0.5 0 19:55 12.12.2019
6404 Clouds -1 1002 96 6000 1 0 19:37 12.12.2019
6405 Clouds -1 1002 96 6000 1 0 19:18 12.12.2019
6406 Snow 0 1003 96 4000 0.5 0 18:55 12.12.2019
6407 Snow 0 1003 96 4000 0.5 0 18:37 12.12.2019
6408 Snow 0 1003 96 4000 0.5 0 18:18 12.12.2019
6409 Snow 0 1003 96 3000 1 280 17:55 12.12.2019
6410 Snow 0 1003 96 3000 1 270 17:37 12.12.2019
6411 Snow 0 1003 95 3000 1 270 17:19 12.12.2019
6412 Snow 1 1003 95 3000 0.5 0 16:54 12.12.2019
6413 Snow 0 1004 95 5000 1.17 14 16:36 12.12.2019
6414 Snow 0 1004 95 5000 1.17 14 16:18 12.12.2019
6415 Snow 0 1004 95 3000 0.5 0 15:42 12.12.2019
6416 Snow 0 1004 95 2000 0.5 0 15:20 12.12.2019
6417 Snow 0 1004 95 2000 0.5 0 15:20 12.12.2019
6418 Snow 0 1004 95 3000 1.17 14 14:57 12.12.2019
6419 Snow 0 1004 95 3000 1.17 14 14:57 12.12.2019
6420 Snow 1 1004 86 4000 0.5 0 14:37 12.12.2019
6421 Snow 1 1004 86 4000 0.5 0 14:19 12.12.2019
6422 Snow 0 1005 86 3000 0.5 0 13:55 12.12.2019
6423 Snow 0 1005 86 4000 0.5 0 13:36 12.12.2019
6424 Snow 0 1005 86 4000 0.5 0 13:18 12.12.2019
6425 Snow 1 1006 86 4000 1 0 12:42 12.12.2019
6426 Snow 0 1006 86 4000 0.5 0 12:23 12.12.2019
6427 Snow 0 1007 86 3000 0.5 0 11:59 12.12.2019
6428 Snow 0 1007 86 4500 0.59 60 11:40 12.12.2019
6429 Snow -1 1007 88 4500 0.55 143 11:22 12.12.2019
6430 Snow -1 1007 88 4000 1.5 60 10:59 12.12.2019
6431 Snow -1 1007 88 4000 1.5 60 10:59 12.12.2019
6432 Snow -1 1007 88 4000 1.5 60 10:41 12.12.2019
6433 Snow -1 1007 92 3000 0.55 143 10:22 12.12.2019
6434 Snow -1 1007 92 1500 0.5 0 09:56 12.12.2019
6435 Snow -1 1007 92 1500 0.5 0 09:56 12.12.2019
6436 Snow -1 1007 92 2000 1 100 09:38 12.12.2019
6437 Snow -1 1007 92 2000 1 100 09:20 12.12.2019
6438 Snow -1 1007 92 1500 1 0 08:48 12.12.2019
6439 Snow -2 1007 92 3000 1.5 250 08:29 12.12.2019
6440 Clouds -2 1007 86 10000 1.5 270 07:59 12.12.2019
6441 Clouds -2 1007 86 10000 1.5 270 07:39 12.12.2019
6442 Clouds -2 1006 86 10000 1.5 300 07:20 12.12.2019
6443 Clouds -2 1006 86 10000 0.5 0 06:42 12.12.2019
6444 -273 0 0 0 0 0 06:23 12.12.2019
6445 Clouds -2 1006 92 10000 1 260 05:34 12.12.2019
6446 Clouds -2 1007 92 10000 0.5 0 04:48 12.12.2019
6447 Clouds -3 1007 92 10000 0.5 0 02:44 12.12.2019
6448 Clouds -2 1007 92 10000 0.5 0 02:25 12.12.2019
6449 Clouds -1 1008 86 10000 0.5 0 01:59 12.12.2019
6450 Clouds -1 1008 86 10000 1.5 120 01:36 12.12.2019
6451 Clouds -2 1008 86 10000 1.5 80 00:50 12.12.2019
6452 Clouds -2 1009 92 10000 0.5 0 00:22 12.12.2019
6453 Clouds -2 1009 86 10000 0.5 0 23:58 11.12.2019
6454 Clouds -2 1009 86 10000 0.5 0 23:38 11.12.2019
6455 Clouds -1 1009 86 10000 0.5 0 23:18 11.12.2019
6456 Clouds -1 1009 86 10000 0.5 0 22:56 11.12.2019
6457 Clouds -1 1009 80 10000 0.5 0 22:38 11.12.2019
6458 Clouds -1 1009 80 10000 0.5 0 22:19 11.12.2019
6459 Clouds -1 1009 80 10000 0.5 0 21:54 11.12.2019
6460 Clouds -2 1009 86 10000 1 0 21:36 11.12.2019
6461 Clouds -2 1009 86 10000 1 0 21:18 11.12.2019
6462 Clouds -1 1009 86 10000 0.5 0 20:55 11.12.2019
6463 Clouds -1 1009 80 10000 0.5 0 20:36 11.12.2019
6464 Clouds -1 1009 80 10000 0.5 0 20:18 11.12.2019
6465 Clouds -1 1009 80 10000 1 0 19:42 11.12.2019
6466 Clouds -1 1009 80 10000 0.5 0 19:23 11.12.2019
6467 Clouds -1 1009 80 10000 0.5 0 19:23 11.12.2019
6468 Clouds -1 1009 80 10000 0.5 0 18:59 11.12.2019
6469 Clouds -1 1009 86 10000 0.5 0 18:40 11.12.2019
6470 Clouds -1 1009 86 10000 0.5 0 18:20 11.12.2019
6471 Clouds -1 1009 27 10000 1 180 17:56 11.12.2019
6472 Clouds 0 1009 27 10000 0.5 0 17:38 11.12.2019
6473 Clouds 0 1009 38 10000 0.5 0 17:18 11.12.2019
6474 Clouds 0 1010 38 10000 1 280 16:55 11.12.2019
6475 Clouds 0 1010 38 10000 1 0 16:37 11.12.2019
6476 Clouds 0 1010 38 10000 1 0 16:18 11.12.2019
6477 Clouds 0 1010 64 10000 0.5 0 15:56 11.12.2019
6478 Clouds 1 1011 59 10000 1.5 160 15:37 11.12.2019
6479 Clouds 1 1011 59 10000 1.5 160 15:19 11.12.2019
6480 Clouds 2 1011 55 10000 1 0 14:54 11.12.2019
6481 Clouds 2 1012 55 10000 1.5 170 14:36 11.12.2019
6482 Clouds 2 1012 55 10000 1.5 170 14:18 11.12.2019
6483 Clouds 2 1012 55 10000 0.5 0 13:42 11.12.2019
6484 Clouds 2 1012 55 10000 0.5 0 13:42 11.12.2019
6485 Clouds 2 1013 59 10000 1.5 150 13:22 11.12.2019
6486 Clouds 2 1014 59 10000 1 0 12:58 11.12.2019
6487 Clouds 2 1015 64 10000 1.5 240 12:39 11.12.2019
6488 Clouds 2 1015 64 10000 1.5 240 12:21 11.12.2019
6489 Clouds 2 1015 64 10000 1 0 11:58 11.12.2019
6490 Clouds 3 1016 68 10000 0.5 0 11:39 11.12.2019
6491 Clouds 0 1016 68 10000 0.5 0 11:19 11.12.2019
6492 Clouds 0 1016 68 10000 0.5 0 11:19 11.12.2019
6493 Clouds -1 1017 74 10000 1 0 10:59 11.12.2019
6494 Clouds -1 1018 79 10000 0.5 0 10:39 11.12.2019
6495 Clouds -2 1018 79 10000 0.5 0 10:20 11.12.2019
6496 Clouds -1 1018 92 10000 0.5 0 09:55 11.12.2019
6497 Clouds -2 1019 85 10000 0.5 0 09:37 11.12.2019
6498 Clouds -4 1019 85 10000 0.5 0 09:19 11.12.2019
6499 Clouds -4 1019 92 10000 0.5 0 08:55 11.12.2019
6500 Clouds -4 1019 92 10000 1 290 08:36 11.12.2019
6501 Clear -6 1019 92 10000 1 290 08:18 11.12.2019
6502 Clear -6 1019 92 10000 0.5 0 07:42 11.12.2019
6503 Clear -5 1020 92 10000 1.5 280 07:22 11.12.2019
6504 Clear -5 1020 92 10000 0.5 0 06:45 11.12.2019
6505 Clear -5 1020 85 10000 0.5 0 06:24 11.12.2019
6506 Clear -5 1021 92 10000 0.5 0 05:52 11.12.2019
6507 Clear -6 1021 92 10000 0.5 0 05:27 11.12.2019
6508 Clear -5 1022 92 10000 0.5 0 04:48 11.12.2019
6509 Clear -5 1023 85 10000 1 0 03:18 11.12.2019
6510 Clear -6 1024 92 10000 0.5 0 01:56 11.12.2019
6511 Clear -5 1024 86 10000 0.5 0 01:21 11.12.2019
6512 Clear -5 1025 85 10000 1 230 00:37 11.12.2019
6513 Clear -4 1025 85 10000 1 230 00:18 11.12.2019
6514 Clear -4 1025 86 10000 1.5 240 23:43 10.12.2019
6515 Clear -5 1025 79 10000 1 200 23:22 10.12.2019
6516 Clouds -5 1026 79 10000 1.5 310 22:42 10.12.2019
6517 Clouds -4 1026 79 10000 1 0 22:24 10.12.2019
6518 Clouds -4 1026 86 10000 2.1 240 21:58 10.12.2019
6519 Clouds -4 1026 86 10000 2.1 240 21:39 10.12.2019
6520 Clouds -4 1026 74 10000 2.6 270 21:21 10.12.2019
6521 Clouds -3 1026 74 10000 2.6 260 20:59 10.12.2019
6522 Clouds -3 1026 74 10000 2.6 260 20:59 10.12.2019
6523 Clouds -4 1026 80 10000 2.6 260 20:38 10.12.2019
6524 Clouds -4 1026 80 10000 2.6 260 20:38 10.12.2019
6525 Clouds -4 1026 80 10000 2.6 260 20:38 10.12.2019
6526 Clouds -4 1026 80 10000 2.6 260 20:38 10.12.2019
6527 Clouds -4 1026 80 10000 2.6 260 20:38 10.12.2019
6528 Clouds -3 1026 80 10000 2.6 260 20:20 10.12.2019
6529 Clouds -3 1026 88 10000 1 0 19:58 10.12.2019
6530 Clouds -3 1026 88 10000 1 0 19:40 10.12.2019
6531 Clouds -3 1027 88 10000 0.5 0 19:22 10.12.2019
6532 Clouds -3 1027 88 10000 1.5 180 18:56 10.12.2019
6533 Clouds -1 1027 80 10000 1.5 60 18:38 10.12.2019
6534 Clouds -1 1027 80 10000 1.5 60 18:19 10.12.2019
6535 Clouds 0 1026 80 10000 2.1 70 17:54 10.12.2019
6536 Clouds 0 1026 80 10000 1.5 150 17:36 10.12.2019
6537 Clouds -1 1026 80 10000 1.5 150 17:18 10.12.2019
6538 Clouds 0 1026 80 10000 1 0 16:41 10.12.2019
6539 Clouds 0 1026 74 10000 2.6 100 16:20 10.12.2019
6540 Clouds 2 1026 74 10000 3.1 60 15:40 10.12.2019
6541 Clouds 1 1026 74 10000 3.1 70 15:19 10.12.2019
6542 Snow 2 1026 69 10000 2.6 80 14:59 10.12.2019
6543 Snow 3 1026 69 10000 2.6 80 14:41 10.12.2019
6544 Rain 1 1026 84 10000 3.6 70 14:23 10.12.2019
6545 Rain 1 1026 74 10000 4.1 80 13:59 10.12.2019
6546 Rain 1 1026 74 10000 3.6 90 13:40 10.12.2019
6547 Rain 1 1026 74 10000 3.6 90 13:20 10.12.2019
6548 Rain 1 1026 83 10000 3.6 60 12:55 10.12.2019
6549 Rain 1 1026 86 10000 2.6 80 12:36 10.12.2019
6550 Clouds 1 1026 86 10000 2.6 80 12:18 10.12.2019
6551 Snow 0 1038 87 0 1.34 29 11:40 10.12.2019
6552 Rain 1 1026 93 10000 1.5 350 11:22 10.12.2019
6553 Rain 1 1025 93 10000 1 0 10:44 10.12.2019
6554 Snow 1 1025 95 10000 1.5 30 10:25 10.12.2019
6555 Snow 1 1024 93 10000 1 0 09:58 10.12.2019
6556 Snow 1 1024 93 10000 1 0 09:40 10.12.2019
6557 Rain 1 1024 93 10000 2.1 120 09:22 10.12.2019
6558 Rain 1 1024 93 10000 2.1 120 09:22 10.12.2019
6559 Clouds 1 1023 100 10000 3.1 120 08:59 10.12.2019
6560 Clouds 1 1023 100 10000 3.1 120 08:40 10.12.2019
6561 Clouds 1 1022 98 10000 2.6 90 08:22 10.12.2019
6562 Rain 1 1022 100 10000 2.1 110 07:54 10.12.2019
6563 Rain 1 1021 98 10000 2.6 70 07:36 10.12.2019
6564 Rain 1 1021 98 10000 2.6 70 07:18 10.12.2019
6565 Rain 1 1021 98 10000 1.5 0 06:42 10.12.2019
6566 Snow 1 1020 98 8000 3.1 70 06:19 10.12.2019
6567 Clouds 1 1019 98 8000 1 0 05:51 10.12.2019
6568 Rain 1 1017 93 10000 3.1 90 04:35 10.12.2019
6569 Rain 2 1016 93 10000 1 0 03:31 10.12.2019
6570 Rain 2 1015 86 10000 1.5 80 02:36 10.12.2019
6571 Rain 2 1014 86 10000 2.6 90 01:42 10.12.2019
6572 Rain 2 1014 86 10000 3.1 100 01:19 10.12.2019
6573 Clouds 2 1013 86 10000 1 0 00:38 10.12.2019
6574 Clouds 2 1013 86 10000 1 0 00:18 10.12.2019
6575 Rain 2 1012 86 10000 0.5 0 23:40 09.12.2019
6576 Rain 3 1012 86 10000 0.5 0 23:22 09.12.2019
6577 Rain 3 1011 86 10000 2.6 260 22:57 09.12.2019
6578 Rain 3 1011 86 10000 2.6 260 22:39 09.12.2019
6579 Rain 3 1011 93 10000 1 0 22:18 09.12.2019
6580 Rain 2 1010 93 10000 2.1 290 21:56 09.12.2019
6581 Rain 2 1009 80 10000 3.6 280 21:38 09.12.2019
6582 Rain 2 1009 80 10000 3.6 280 21:18 09.12.2019
6583 Rain 2 1009 86 10000 1.5 290 20:56 09.12.2019
6584 Clouds 2 1008 86 10000 1.5 210 20:37 09.12.2019
6585 Clouds 2 1008 86 10000 1.5 210 20:19 09.12.2019
6586 Clouds 2 1008 93 10000 1 0 19:55 09.12.2019
6587 Clouds 3 1007 93 10000 1.5 160 19:37 09.12.2019
6588 Clouds 2 1007 93 10000 1.5 160 19:19 09.12.2019
6589 Clouds 2 1007 93 10000 0.5 0 18:55 09.12.2019
6590 Clouds 2 1007 80 10000 1.5 0 18:36 09.12.2019
6591 Clouds 2 1007 80 10000 1.5 0 18:18 09.12.2019
6592 Clouds 3 1007 80 10000 2.1 350 17:56 09.12.2019
6593 Clouds 4 1006 75 10000 2.1 220 17:37 09.12.2019
6594 Clouds 3 1006 75 10000 2.1 220 17:19 09.12.2019
6595 Clouds 4 1006 75 10000 1.5 300 16:55 09.12.2019
6596 Clouds 4 1005 70 10000 0.5 0 16:36 09.12.2019
6597 Clouds 4 1005 70 10000 0.5 0 16:18 09.12.2019
6598 Clouds 5 1005 70 10000 1 0 15:55 09.12.2019
6599 Clouds 5 1005 70 10000 0.5 0 15:36 09.12.2019
6600 Clouds 5 1005 70 10000 0.5 0 15:36 09.12.2019
6601 Clouds 3 1005 70 10000 0.5 0 15:18 09.12.2019
6602 Clouds 4 1005 65 10000 1.5 190 14:42 09.12.2019
6603 Clouds 4 1005 65 10000 1.5 190 14:42 09.12.2019
6604 Clouds 6 1005 61 10000 0.5 0 14:19 09.12.2019
6605 Clouds 3 1006 65 10000 1.5 90 13:57 09.12.2019
6606 Clouds 4 1006 65 10000 1 0 13:38 09.12.2019
6607 Clouds 5 1006 65 10000 1 0 13:19 09.12.2019
6608 Rain 5 1006 81 10000 1.5 260 12:56 09.12.2019
6609 Clouds 4 1006 81 10000 2.6 260 12:38 09.12.2019
6610 Clouds 5 1006 81 10000 2.6 260 12:19 09.12.2019
6611 Clouds 4 1006 81 10000 1 0 11:56 09.12.2019
6612 Clouds 3 1007 81 10000 1.5 260 11:37 09.12.2019
6613 Clouds 4 1007 90 10000 1.5 260 11:18 09.12.2019
6614 Clouds 3 1007 90 10000 3.6 280 10:41 09.12.2019
6615 Clouds 3 1007 90 10000 3.6 280 10:41 09.12.2019
6616 Clouds 3 1007 90 10000 1 0 10:20 09.12.2019
6617 Clouds 2 1008 69 10000 2.6 140 09:59 09.12.2019
6618 Clouds 2 1008 69 10000 3.6 80 09:40 09.12.2019
6619 Clouds 2 1008 69 10000 3.6 80 09:21 09.12.2019
6620 Clouds 2 1008 69 10000 3.1 100 08:44 09.12.2019
6621 Clouds 2 1008 74 10000 1 0 08:26 09.12.2019
6622 Clouds 2 1008 74 10000 1 0 08:26 09.12.2019
6623 Rain 1 1008 80 10000 3.6 270 07:57 09.12.2019
6624 Clouds 1 1007 80 10000 2.6 270 07:38 09.12.2019
6625 Clouds 1 1007 80 10000 2.6 270 07:20 09.12.2019
6626 Clouds 1 1007 69 10000 1.5 150 06:43 09.12.2019
6627 Clouds 1 1007 69 10000 1.5 150 06:24 09.12.2019
6628 Clouds 1 1007 69 10000 2.1 210 05:27 09.12.2019
6629 Clouds 1 1007 74 10000 4.1 280 04:46 09.12.2019
6630 Clouds 1 1008 74 10000 4.1 270 03:20 09.12.2019
6631 Clouds 1 1008 74 10000 4.1 260 02:24 09.12.2019
6632 Clouds 1 1008 69 10000 5.1 260 01:42 09.12.2019
6633 Clouds 1 1008 69 10000 5.1 260 01:42 09.12.2019
6634 Clouds 1 1009 69 10000 4.1 0 00:46 09.12.2019
6635 Clouds 2 1009 74 10000 2.1 260 00:26 09.12.2019
6636 Clouds 1 1009 74 10000 5.1 280 23:41 08.12.2019
6637 Clouds 2 1009 74 10000 5.1 260 23:23 08.12.2019
6638 Clouds 1 1010 74 10000 4.6 270 22:57 08.12.2019
6639 Clouds 1 1010 74 10000 4.6 270 22:57 08.12.2019
6640 Clouds 2 1010 74 10000 2.1 280 22:38 08.12.2019
6641 Clouds 1 1010 74 10000 2.1 280 22:19 08.12.2019
6642 Clouds 1 1010 74 10000 3.1 270 21:58 08.12.2019
6643 Clouds 1 1010 74 10000 3.1 270 21:40 08.12.2019
6644 Clouds 1 1010 74 10000 3.1 270 21:20 08.12.2019
6645 Clouds 1 1010 74 10000 3.1 270 21:20 08.12.2019
6646 Clouds 1 1011 74 10000 3.6 270 20:57 08.12.2019
6647 Clouds 1 1011 74 10000 3.1 280 20:38 08.12.2019
6648 Clouds 1 1011 74 10000 3.1 280 20:20 08.12.2019
6649 Clouds 1 1011 74 10000 3.1 280 20:20 08.12.2019
6650 Clouds 1 1011 69 10000 3.6 270 19:58 08.12.2019
6651 Clouds 1 1011 69 10000 3.6 270 19:40 08.12.2019
6652 Clouds 1 1011 69 10000 4.1 280 19:22 08.12.2019
6653 Clouds 1 1011 69 10000 4.1 270 18:55 08.12.2019
6654 Clouds 1 1011 69 10000 4.1 270 18:55 08.12.2019
6655 Clouds 2 1011 69 10000 2.6 250 18:37 08.12.2019
6656 Clouds 1 1011 69 10000 2.6 250 18:19 08.12.2019
6657 Clouds 2 1011 69 10000 2.1 250 17:56 08.12.2019
6658 Clouds 2 1011 60 10000 1.5 230 17:38 08.12.2019
6659 Clouds 3 1011 60 10000 1.5 230 17:19 08.12.2019
6660 Clouds 3 1011 55 10000 2.6 250 16:56 08.12.2019
6661 Clouds 4 1011 56 10000 3.6 250 16:38 08.12.2019
6662 Clouds 5 1011 56 10000 3.6 250 16:20 08.12.2019
6663 Clouds 4 1011 52 10000 4.1 270 15:54 08.12.2019
6664 Clouds 5 1011 52 10000 4.1 280 15:36 08.12.2019
6665 Clouds 5 1011 52 10000 4.1 280 15:18 08.12.2019
6666 Clouds 6 1012 42 10000 5.1 280 14:41 08.12.2019
6667 Clouds 8 1012 45 10000 5.1 280 14:22 08.12.2019
6668 Clouds 8 1013 45 10000 6.2 260 13:57 08.12.2019
6669 Clouds 7 1013 45 10000 6.2 260 13:39 08.12.2019
6670 Clouds 7 1013 45 10000 6.2 280 13:21 08.12.2019
6671 Clouds 6 1014 52 10000 5.1 270 12:55 08.12.2019
6672 Clouds 6 1015 56 10000 5.7 270 12:37 08.12.2019
6673 Clouds 5 1015 56 10000 5.7 270 12:18 08.12.2019
6674 Clouds 5 1016 64 10000 4.6 270 11:55 08.12.2019
6675 Clouds 5 1016 74 10000 3.6 270 11:37 08.12.2019
6676 Clouds 3 1016 74 10000 3.6 270 11:18 08.12.2019
6677 Clouds 2 1017 42 10000 1 0 10:39 08.12.2019
6678 Clouds 1 1017 42 10000 1 0 10:20 08.12.2019
6679 Clouds 1 1018 86 10000 1.5 240 09:58 08.12.2019
6680 Clouds 0 1018 86 10000 1.5 240 09:39 08.12.2019
6681 Clouds -1 1018 86 10000 1.5 0 09:20 08.12.2019
6682 Clouds -1 1018 92 10000 1.5 300 08:58 08.12.2019
6683 Clouds -1 1018 92 10000 1.5 230 08:39 08.12.2019
6684 Clouds -2 1018 92 10000 1.5 230 08:21 08.12.2019
6685 Clouds -2 1018 92 10000 1.5 260 07:44 08.12.2019
6686 Clouds -2 1018 100 10000 0.5 0 07:20 08.12.2019
6687 Clouds -2 1019 100 10000 0.5 0 06:51 08.12.2019
6688 Clouds -1 1019 92 10000 1 270 06:23 08.12.2019
6689 Clouds -2 1019 92 10000 1.5 270 05:51 08.12.2019
6690 Clouds -1 1019 92 10000 0.5 0 05:18 08.12.2019
6691 Clouds -1 1020 92 10000 1 0 03:51 08.12.2019
6692 Clouds -1 1020 92 10000 0.5 0 03:26 08.12.2019
6693 Clouds -1 1021 92 10000 1 0 02:39 08.12.2019
6694 Clouds 0 1020 92 10000 1.5 280 01:56 08.12.2019
6695 Clouds 0 1021 92 10000 1.5 270 01:27 08.12.2019
6696 Clouds 0 1021 92 10000 1.5 270 01:27 08.12.2019
6697 Clouds 0 1021 92 10000 1 0 00:40 08.12.2019
6698 Clouds 1 1021 92 10000 1 0 00:21 08.12.2019
6699 Clouds 0 1021 92 10000 1 0 23:42 07.12.2019
6700 Clouds 1 1021 92 10000 1 0 23:21 07.12.2019
6701 Clouds 1 1021 92 10000 1 0 22:58 07.12.2019
6702 Clouds 1 1021 92 10000 1 0 22:40 07.12.2019
6703 Clouds 1 1021 92 10000 1 0 22:22 07.12.2019
6704 Clouds 2 1021 92 10000 1 0 21:56 07.12.2019
6705 Clouds 1 1021 93 10000 1.5 250 21:38 07.12.2019
6706 Clouds 2 1021 93 10000 1.5 250 21:20 07.12.2019
6707 Clouds 2 1021 93 10000 0.5 0 20:59 07.12.2019
6708 Clouds 2 1021 86 10000 1.5 0 20:37 07.12.2019
6709 Clouds 2 1021 86 10000 1.5 0 20:19 07.12.2019
6710 Clouds 2 1020 80 10000 1 0 19:56 07.12.2019
6711 Clouds 2 1019 86 10000 1.5 160 19:38 07.12.2019
6712 Clouds 2 1019 86 10000 1.5 160 19:20 07.12.2019
6713 Clouds 2 1020 74 10000 1.5 210 18:44 07.12.2019
6714 Clouds 2 1019 74 10000 0.5 0 18:21 07.12.2019
6715 Clouds 3 1019 74 10000 1 0 17:59 07.12.2019
6716 Clouds 2 1019 74 10000 1 0 17:41 07.12.2019
6717 Clouds 4 1018 64 10000 1 0 17:23 07.12.2019
6718 Clouds 5 1018 64 10000 1.5 0 16:58 07.12.2019
6719 Clouds 5 1018 64 10000 1.5 0 16:39 07.12.2019
6720 Clouds 5 1017 60 10000 1.5 0 16:20 07.12.2019
6721 Clouds 5 1017 56 10000 1.5 140 15:57 07.12.2019
6722 Clouds 6 1017 52 10000 1.5 170 15:38 07.12.2019
6723 Clouds 7 1017 52 10000 1.5 170 15:20 07.12.2019
6724 Clouds 7 1017 49 10000 1 0 14:42 07.12.2019
6725 Clouds 7 1017 52 10000 2.1 150 14:19 07.12.2019
6726 Clouds 6 1017 52 10000 1.5 140 13:58 07.12.2019
6727 Clouds 7 1017 52 10000 1.5 140 13:58 07.12.2019
6728 Clouds 6 1017 52 10000 1.5 140 13:39 07.12.2019
6729 Clouds 6 1017 52 10000 1.5 140 13:19 07.12.2019
6730 Clouds 4 1017 56 10000 2.6 120 12:41 07.12.2019
6731 Clouds 4 1018 60 10000 3.1 110 12:23 07.12.2019
6732 Clouds 3 1018 60 10000 2.1 120 11:59 07.12.2019
6733 Clouds 3 1018 64 10000 3.1 80 11:41 07.12.2019
6734 Clouds 2 1018 64 10000 3.1 80 11:22 07.12.2019
6735 Clouds 1 1018 80 10000 0.5 0 10:39 07.12.2019
6736 Clouds 1 1018 80 10000 0.5 0 10:20 07.12.2019
6737 Clouds 1 1018 80 10000 0.5 0 09:59 07.12.2019
6738 Clouds 0 1018 86 10000 1 0 09:38 07.12.2019
6739 Clouds 0 1018 86 10000 1 0 09:38 07.12.2019
6740 Clouds 0 1018 86 10000 1 0 09:20 07.12.2019
6741 Clouds 0 1018 86 10000 1 0 08:45 07.12.2019
6742 Clouds 0 1017 55 10000 2.1 100 08:21 07.12.2019
6743 Clouds 0 1017 55 10000 1.5 310 07:47 07.12.2019
6744 Clouds 0 1017 55 10000 1 0 07:28 07.12.2019
6745 Clouds 0 1017 86 10000 1 0 06:52 07.12.2019
6746 Clouds 0 1017 55 10000 0.5 0 06:25 07.12.2019
6747 Clouds 0 1017 55 10000 1 0 05:44 07.12.2019
6748 Clouds -1 1017 86 10000 1.5 220 04:19 07.12.2019
6749 Clouds -1 1017 86 10000 1 0 03:47 07.12.2019
6750 Clouds -2 1018 86 10000 1 0 02:22 07.12.2019
6751 Clouds -1 1018 86 10000 0.5 0 01:35 07.12.2019
6752 Clouds -1 1018 86 10000 0.5 0 00:57 07.12.2019
6753 Clouds -1 1018 86 10000 1 0 00:21 07.12.2019
6754 Clouds -1 1018 92 10000 0.5 0 23:56 06.12.2019
6755 Clouds -1 1018 86 10000 1 0 23:38 06.12.2019
6756 Clear -1 1018 86 10000 1 0 23:18 06.12.2019